<?xml version="1.0" encoding="UTF-8" standalone="no" ?>
<gpx xmlns="http://www.topografix.com/GPX/1/1" xmlns:xsi="http://www.w3.org/2001/XMLSchema-instance" xsi:schemaLocation="http://www.topografix.com/GPX/1/1 http://www.topografix.com/GPX/1/1/gpx.xsd" version="1.1" creator="VisuGPX - https://www.visugpx.com">
  <metadata>
    <name>Come grand Suchet pariou cliersou</name>
  </metadata>
  <trk>
    <name><![CDATA[Nouveau tracé 08/08/2021 13:32:33]]></name>
    <extensions>
      <line xmlns="http://www.topografix.com/GPX/gpx_style/0/2">
        <color>0000FF</color>
        <width>4</width>
      </line>
    </extensions>
    <trkseg>
      <trkpt lat="45.80619" lon="2.93491">
        <ele>862.6</ele>
        <time>2021-08-08T11:32:30Z</time>
      </trkpt>
      <trkpt lat="45.8062" lon="2.93499">
        <ele>880.1</ele>
        <time>2021-08-08T11:32:31Z</time>
      </trkpt>
      <trkpt lat="45.80618" lon="2.93507">
        <ele>895.6</ele>
        <time>2021-08-08T11:32:33Z</time>
      </trkpt>
      <trkpt lat="45.80618" lon="2.93516">
        <ele>912</ele>
        <time>2021-08-08T11:32:36Z</time>
      </trkpt>
      <trkpt lat="45.80611" lon="2.93515">
        <ele>906.9</ele>
        <time>2021-08-08T11:32:39Z</time>
      </trkpt>
      <trkpt lat="45.80612" lon="2.93515">
        <ele>903.2</ele>
        <time>2021-08-08T11:32:40Z</time>
      </trkpt>
      <trkpt lat="45.80612" lon="2.93515">
        <ele>898.9</ele>
        <time>2021-08-08T11:32:41Z</time>
      </trkpt>
      <trkpt lat="45.80614" lon="2.9352">
        <ele>916</ele>
        <time>2021-08-08T11:32:50Z</time>
      </trkpt>
      <trkpt lat="45.80616" lon="2.9353">
        <ele>925.9</ele>
        <time>2021-08-08T11:33:25Z</time>
      </trkpt>
      <trkpt lat="45.80618" lon="2.9353">
        <ele>925</ele>
        <time>2021-08-08T11:33:41Z</time>
      </trkpt>
      <trkpt lat="45.80617" lon="2.93536">
        <ele>927.7</ele>
        <time>2021-08-08T11:33:42Z</time>
      </trkpt>
      <trkpt lat="45.80615" lon="2.93538">
        <ele>928</ele>
        <time>2021-08-08T11:33:44Z</time>
      </trkpt>
      <trkpt lat="45.80614" lon="2.93538">
        <ele>928.3</ele>
        <time>2021-08-08T11:33:45Z</time>
      </trkpt>
      <trkpt lat="45.80611" lon="2.93534">
        <ele>928.4</ele>
        <time>2021-08-08T11:33:48Z</time>
      </trkpt>
      <trkpt lat="45.8061" lon="2.93515">
        <ele>929</ele>
        <time>2021-08-08T11:33:58Z</time>
      </trkpt>
      <trkpt lat="45.8061" lon="2.93514">
        <ele>929</ele>
        <time>2021-08-08T11:33:59Z</time>
      </trkpt>
      <trkpt lat="45.80612" lon="2.93505">
        <ele>929.2</ele>
        <time>2021-08-08T11:34:04Z</time>
      </trkpt>
      <trkpt lat="45.80616" lon="2.93497">
        <ele>928.1</ele>
        <time>2021-08-08T11:34:08Z</time>
      </trkpt>
      <trkpt lat="45.80616" lon="2.93495">
        <ele>928.1</ele>
        <time>2021-08-08T11:34:09Z</time>
      </trkpt>
      <trkpt lat="45.80616" lon="2.93493">
        <ele>928.2</ele>
        <time>2021-08-08T11:34:10Z</time>
      </trkpt>
      <trkpt lat="45.80618" lon="2.93492">
        <ele>928.1</ele>
        <time>2021-08-08T11:34:12Z</time>
      </trkpt>
      <trkpt lat="45.8062" lon="2.93487">
        <ele>928.7</ele>
        <time>2021-08-08T11:34:17Z</time>
      </trkpt>
      <trkpt lat="45.80622" lon="2.9348">
        <ele>928.9</ele>
        <time>2021-08-08T11:34:21Z</time>
      </trkpt>
      <trkpt lat="45.80622" lon="2.93476">
        <ele>929.2</ele>
        <time>2021-08-08T11:34:23Z</time>
      </trkpt>
      <trkpt lat="45.80622" lon="2.93474">
        <ele>929.2</ele>
        <time>2021-08-08T11:34:24Z</time>
      </trkpt>
      <trkpt lat="45.80625" lon="2.93463">
        <ele>929</ele>
        <time>2021-08-08T11:34:32Z</time>
      </trkpt>
      <trkpt lat="45.80628" lon="2.93449">
        <ele>930</ele>
        <time>2021-08-08T11:34:42Z</time>
      </trkpt>
      <trkpt lat="45.80627" lon="2.93447">
        <ele>930.2</ele>
        <time>2021-08-08T11:34:43Z</time>
      </trkpt>
      <trkpt lat="45.80627" lon="2.93431">
        <ele>930.5</ele>
        <time>2021-08-08T11:34:52Z</time>
      </trkpt>
      <trkpt lat="45.8063" lon="2.93421">
        <ele>931.4</ele>
        <time>2021-08-08T11:34:59Z</time>
      </trkpt>
      <trkpt lat="45.8063" lon="2.9342">
        <ele>931.5</ele>
        <time>2021-08-08T11:35:00Z</time>
      </trkpt>
      <trkpt lat="45.80635" lon="2.93397">
        <ele>931.6</ele>
        <time>2021-08-08T11:35:12Z</time>
      </trkpt>
      <trkpt lat="45.80636" lon="2.93394">
        <ele>931.7</ele>
        <time>2021-08-08T11:35:13Z</time>
      </trkpt>
      <trkpt lat="45.80637" lon="2.93387">
        <ele>931.8</ele>
        <time>2021-08-08T11:35:16Z</time>
      </trkpt>
      <trkpt lat="45.8064" lon="2.93378">
        <ele>931.7</ele>
        <time>2021-08-08T11:35:20Z</time>
      </trkpt>
      <trkpt lat="45.80641" lon="2.93374">
        <ele>931.7</ele>
        <time>2021-08-08T11:35:22Z</time>
      </trkpt>
      <trkpt lat="45.80642" lon="2.93372">
        <ele>931.9</ele>
        <time>2021-08-08T11:35:23Z</time>
      </trkpt>
      <trkpt lat="45.80646" lon="2.93353">
        <ele>931.9</ele>
        <time>2021-08-08T11:35:33Z</time>
      </trkpt>
      <trkpt lat="45.80647" lon="2.93352">
        <ele>931.6</ele>
        <time>2021-08-08T11:35:34Z</time>
      </trkpt>
      <trkpt lat="45.80646" lon="2.93352">
        <ele>931.1</ele>
        <time>2021-08-08T11:35:35Z</time>
      </trkpt>
      <trkpt lat="45.80646" lon="2.93348">
        <ele>930.4</ele>
        <time>2021-08-08T11:35:37Z</time>
      </trkpt>
      <trkpt lat="45.80645" lon="2.93345">
        <ele>929.9</ele>
        <time>2021-08-08T11:35:38Z</time>
      </trkpt>
      <trkpt lat="45.80648" lon="2.9334">
        <ele>929.3</ele>
        <time>2021-08-08T11:35:40Z</time>
      </trkpt>
      <trkpt lat="45.8065" lon="2.93333">
        <ele>928</ele>
        <time>2021-08-08T11:35:43Z</time>
      </trkpt>
      <trkpt lat="45.8065" lon="2.93331">
        <ele>927.8</ele>
        <time>2021-08-08T11:35:44Z</time>
      </trkpt>
      <trkpt lat="45.80651" lon="2.93329">
        <ele>927.4</ele>
        <time>2021-08-08T11:35:45Z</time>
      </trkpt>
      <trkpt lat="45.80655" lon="2.93323">
        <ele>926.6</ele>
        <time>2021-08-08T11:35:49Z</time>
      </trkpt>
      <trkpt lat="45.80655" lon="2.93313">
        <ele>926.3</ele>
        <time>2021-08-08T11:35:53Z</time>
      </trkpt>
      <trkpt lat="45.80655" lon="2.93311">
        <ele>926.2</ele>
        <time>2021-08-08T11:35:54Z</time>
      </trkpt>
      <trkpt lat="45.80655" lon="2.93306">
        <ele>926.7</ele>
        <time>2021-08-08T11:35:56Z</time>
      </trkpt>
      <trkpt lat="45.80659" lon="2.93298">
        <ele>929.3</ele>
        <time>2021-08-08T11:36:01Z</time>
      </trkpt>
      <trkpt lat="45.80663" lon="2.93294">
        <ele>928.5</ele>
        <time>2021-08-08T11:36:03Z</time>
      </trkpt>
      <trkpt lat="45.80663" lon="2.9329">
        <ele>928.8</ele>
        <time>2021-08-08T11:36:05Z</time>
      </trkpt>
      <trkpt lat="45.80664" lon="2.93287">
        <ele>929.2</ele>
        <time>2021-08-08T11:36:06Z</time>
      </trkpt>
      <trkpt lat="45.80665" lon="2.93266">
        <ele>931.2</ele>
        <time>2021-08-08T11:36:17Z</time>
      </trkpt>
      <trkpt lat="45.80665" lon="2.93264">
        <ele>931.6</ele>
        <time>2021-08-08T11:36:18Z</time>
      </trkpt>
      <trkpt lat="45.80667" lon="2.93256">
        <ele>932.2</ele>
        <time>2021-08-08T11:36:22Z</time>
      </trkpt>
      <trkpt lat="45.80667" lon="2.93243">
        <ele>933.4</ele>
        <time>2021-08-08T11:36:27Z</time>
      </trkpt>
      <trkpt lat="45.80668" lon="2.9324">
        <ele>933.2</ele>
        <time>2021-08-08T11:36:28Z</time>
      </trkpt>
      <trkpt lat="45.80672" lon="2.93217">
        <ele>933.1</ele>
        <time>2021-08-08T11:36:38Z</time>
      </trkpt>
      <trkpt lat="45.80672" lon="2.93215">
        <ele>933.2</ele>
        <time>2021-08-08T11:36:39Z</time>
      </trkpt>
      <trkpt lat="45.80677" lon="2.9321">
        <ele>932.5</ele>
        <time>2021-08-08T11:36:43Z</time>
      </trkpt>
      <trkpt lat="45.80679" lon="2.93203">
        <ele>932.8</ele>
        <time>2021-08-08T11:36:47Z</time>
      </trkpt>
      <trkpt lat="45.80681" lon="2.932">
        <ele>933.4</ele>
        <time>2021-08-08T11:36:50Z</time>
      </trkpt>
      <trkpt lat="45.80681" lon="2.93198">
        <ele>933.8</ele>
        <time>2021-08-08T11:36:51Z</time>
      </trkpt>
      <trkpt lat="45.80681" lon="2.93196">
        <ele>934</ele>
        <time>2021-08-08T11:36:52Z</time>
      </trkpt>
      <trkpt lat="45.80681" lon="2.93183">
        <ele>935.7</ele>
        <time>2021-08-08T11:36:58Z</time>
      </trkpt>
      <trkpt lat="45.80677" lon="2.93179">
        <ele>936</ele>
        <time>2021-08-08T11:37:02Z</time>
      </trkpt>
      <trkpt lat="45.80677" lon="2.93179">
        <ele>935.9</ele>
        <time>2021-08-08T11:37:03Z</time>
      </trkpt>
      <trkpt lat="45.80672" lon="2.93183">
        <ele>936.9</ele>
        <time>2021-08-08T11:37:08Z</time>
      </trkpt>
      <trkpt lat="45.80668" lon="2.93193">
        <ele>937.3</ele>
        <time>2021-08-08T11:37:15Z</time>
      </trkpt>
      <trkpt lat="45.80666" lon="2.93197">
        <ele>937</ele>
        <time>2021-08-08T11:37:18Z</time>
      </trkpt>
      <trkpt lat="45.80664" lon="2.93198">
        <ele>937.2</ele>
        <time>2021-08-08T11:37:19Z</time>
      </trkpt>
      <trkpt lat="45.80658" lon="2.93203">
        <ele>937.9</ele>
        <time>2021-08-08T11:37:24Z</time>
      </trkpt>
      <trkpt lat="45.80655" lon="2.93204">
        <ele>938.3</ele>
        <time>2021-08-08T11:37:26Z</time>
      </trkpt>
      <trkpt lat="45.80652" lon="2.93207">
        <ele>938.7</ele>
        <time>2021-08-08T11:37:29Z</time>
      </trkpt>
      <trkpt lat="45.80651" lon="2.93209">
        <ele>938.9</ele>
        <time>2021-08-08T11:37:30Z</time>
      </trkpt>
      <trkpt lat="45.8065" lon="2.93211">
        <ele>939</ele>
        <time>2021-08-08T11:37:31Z</time>
      </trkpt>
      <trkpt lat="45.8065" lon="2.93214">
        <ele>938.8</ele>
        <time>2021-08-08T11:37:34Z</time>
      </trkpt>
      <trkpt lat="45.80646" lon="2.93218">
        <ele>938.9</ele>
        <time>2021-08-08T11:37:37Z</time>
      </trkpt>
      <trkpt lat="45.8064" lon="2.93229">
        <ele>938.5</ele>
        <time>2021-08-08T11:37:42Z</time>
      </trkpt>
      <trkpt lat="45.80638" lon="2.93232">
        <ele>938.5</ele>
        <time>2021-08-08T11:37:43Z</time>
      </trkpt>
      <trkpt lat="45.8063" lon="2.9324">
        <ele>938</ele>
        <time>2021-08-08T11:37:48Z</time>
      </trkpt>
      <trkpt lat="45.80628" lon="2.93249">
        <ele>935.7</ele>
        <time>2021-08-08T11:37:52Z</time>
      </trkpt>
      <trkpt lat="45.80627" lon="2.93252">
        <ele>935.6</ele>
        <time>2021-08-08T11:37:53Z</time>
      </trkpt>
      <trkpt lat="45.80625" lon="2.93257">
        <ele>935.4</ele>
        <time>2021-08-08T11:37:56Z</time>
      </trkpt>
      <trkpt lat="45.80618" lon="2.93268">
        <ele>933.6</ele>
        <time>2021-08-08T11:38:04Z</time>
      </trkpt>
      <trkpt lat="45.80617" lon="2.93269">
        <ele>933.4</ele>
        <time>2021-08-08T11:38:05Z</time>
      </trkpt>
      <trkpt lat="45.80614" lon="2.93273">
        <ele>934.4</ele>
        <time>2021-08-08T11:38:08Z</time>
      </trkpt>
      <trkpt lat="45.80613" lon="2.93279">
        <ele>935.6</ele>
        <time>2021-08-08T11:38:12Z</time>
      </trkpt>
      <trkpt lat="45.80608" lon="2.93288">
        <ele>938.5</ele>
        <time>2021-08-08T11:38:17Z</time>
      </trkpt>
      <trkpt lat="45.80608" lon="2.93291">
        <ele>938.6</ele>
        <time>2021-08-08T11:38:18Z</time>
      </trkpt>
      <trkpt lat="45.80607" lon="2.93296">
        <ele>939.3</ele>
        <time>2021-08-08T11:38:20Z</time>
      </trkpt>
      <trkpt lat="45.80604" lon="2.93303">
        <ele>941.2</ele>
        <time>2021-08-08T11:38:25Z</time>
      </trkpt>
      <trkpt lat="45.80597" lon="2.93308">
        <ele>942.4</ele>
        <time>2021-08-08T11:38:30Z</time>
      </trkpt>
      <trkpt lat="45.80597" lon="2.93309">
        <ele>942.5</ele>
        <time>2021-08-08T11:38:31Z</time>
      </trkpt>
      <trkpt lat="45.80589" lon="2.93317">
        <ele>944.2</ele>
        <time>2021-08-08T11:38:37Z</time>
      </trkpt>
      <trkpt lat="45.80585" lon="2.93325">
        <ele>945.8</ele>
        <time>2021-08-08T11:38:42Z</time>
      </trkpt>
      <trkpt lat="45.80583" lon="2.93326">
        <ele>945.8</ele>
        <time>2021-08-08T11:38:43Z</time>
      </trkpt>
      <trkpt lat="45.80571" lon="2.93339">
        <ele>947</ele>
        <time>2021-08-08T11:38:52Z</time>
      </trkpt>
      <trkpt lat="45.8057" lon="2.93341">
        <ele>947.2</ele>
        <time>2021-08-08T11:38:53Z</time>
      </trkpt>
      <trkpt lat="45.80567" lon="2.93346">
        <ele>948.2</ele>
        <time>2021-08-08T11:38:56Z</time>
      </trkpt>
      <trkpt lat="45.80562" lon="2.9335">
        <ele>948.9</ele>
        <time>2021-08-08T11:38:59Z</time>
      </trkpt>
      <trkpt lat="45.80559" lon="2.93355">
        <ele>950.3</ele>
        <time>2021-08-08T11:39:03Z</time>
      </trkpt>
      <trkpt lat="45.80558" lon="2.93356">
        <ele>950.6</ele>
        <time>2021-08-08T11:39:04Z</time>
      </trkpt>
      <trkpt lat="45.80554" lon="2.93362">
        <ele>952.8</ele>
        <time>2021-08-08T11:39:11Z</time>
      </trkpt>
      <trkpt lat="45.80547" lon="2.93368">
        <ele>954.6</ele>
        <time>2021-08-08T11:39:19Z</time>
      </trkpt>
      <trkpt lat="45.80546" lon="2.93373">
        <ele>954.9</ele>
        <time>2021-08-08T11:39:21Z</time>
      </trkpt>
      <trkpt lat="45.80546" lon="2.93374">
        <ele>955.1</ele>
        <time>2021-08-08T11:39:22Z</time>
      </trkpt>
      <trkpt lat="45.80537" lon="2.9338">
        <ele>955.3</ele>
        <time>2021-08-08T11:39:27Z</time>
      </trkpt>
      <trkpt lat="45.80529" lon="2.93382">
        <ele>955.5</ele>
        <time>2021-08-08T11:39:31Z</time>
      </trkpt>
      <trkpt lat="45.80528" lon="2.93382">
        <ele>955.7</ele>
        <time>2021-08-08T11:39:32Z</time>
      </trkpt>
      <trkpt lat="45.80522" lon="2.93386">
        <ele>955.2</ele>
        <time>2021-08-08T11:39:35Z</time>
      </trkpt>
      <trkpt lat="45.8052" lon="2.93388">
        <ele>954.4</ele>
        <time>2021-08-08T11:39:38Z</time>
      </trkpt>
      <trkpt lat="45.80517" lon="2.93396">
        <ele>952.6</ele>
        <time>2021-08-08T11:39:45Z</time>
      </trkpt>
      <trkpt lat="45.80518" lon="2.93402">
        <ele>952.2</ele>
        <time>2021-08-08T11:39:49Z</time>
      </trkpt>
      <trkpt lat="45.80517" lon="2.93403">
        <ele>952</ele>
        <time>2021-08-08T11:39:50Z</time>
      </trkpt>
      <trkpt lat="45.80514" lon="2.93405">
        <ele>951.8</ele>
        <time>2021-08-08T11:39:53Z</time>
      </trkpt>
      <trkpt lat="45.8051" lon="2.93405">
        <ele>951.3</ele>
        <time>2021-08-08T11:39:55Z</time>
      </trkpt>
      <trkpt lat="45.80508" lon="2.93401">
        <ele>951.4</ele>
        <time>2021-08-08T11:40:00Z</time>
      </trkpt>
      <trkpt lat="45.80502" lon="2.93396">
        <ele>950.3</ele>
        <time>2021-08-08T11:40:03Z</time>
      </trkpt>
      <trkpt lat="45.805" lon="2.93395">
        <ele>950.3</ele>
        <time>2021-08-08T11:40:04Z</time>
      </trkpt>
      <trkpt lat="45.80486" lon="2.93382">
        <ele>950.2</ele>
        <time>2021-08-08T11:40:15Z</time>
      </trkpt>
      <trkpt lat="45.80484" lon="2.93381">
        <ele>950.2</ele>
        <time>2021-08-08T11:40:16Z</time>
      </trkpt>
      <trkpt lat="45.80483" lon="2.9338">
        <ele>950.3</ele>
        <time>2021-08-08T11:40:17Z</time>
      </trkpt>
      <trkpt lat="45.80473" lon="2.93378">
        <ele>949.9</ele>
        <time>2021-08-08T11:40:23Z</time>
      </trkpt>
      <trkpt lat="45.8047" lon="2.93376">
        <ele>949.9</ele>
        <time>2021-08-08T11:40:26Z</time>
      </trkpt>
      <trkpt lat="45.80469" lon="2.93375">
        <ele>949.9</ele>
        <time>2021-08-08T11:40:27Z</time>
      </trkpt>
      <trkpt lat="45.80465" lon="2.93373">
        <ele>949.8</ele>
        <time>2021-08-08T11:40:29Z</time>
      </trkpt>
      <trkpt lat="45.80456" lon="2.93365">
        <ele>949.9</ele>
        <time>2021-08-08T11:40:36Z</time>
      </trkpt>
      <trkpt lat="45.80455" lon="2.93364">
        <ele>949.8</ele>
        <time>2021-08-08T11:40:37Z</time>
      </trkpt>
      <trkpt lat="45.80451" lon="2.9336">
        <ele>949.7</ele>
        <time>2021-08-08T11:40:40Z</time>
      </trkpt>
      <trkpt lat="45.80447" lon="2.93359">
        <ele>949.8</ele>
        <time>2021-08-08T11:40:43Z</time>
      </trkpt>
      <trkpt lat="45.80445" lon="2.93356">
        <ele>949.9</ele>
        <time>2021-08-08T11:40:45Z</time>
      </trkpt>
      <trkpt lat="45.80443" lon="2.93355">
        <ele>950.2</ele>
        <time>2021-08-08T11:40:47Z</time>
      </trkpt>
      <trkpt lat="45.8044" lon="2.93355">
        <ele>950.4</ele>
        <time>2021-08-08T11:40:49Z</time>
      </trkpt>
      <trkpt lat="45.80439" lon="2.93355">
        <ele>950.6</ele>
        <time>2021-08-08T11:40:50Z</time>
      </trkpt>
      <trkpt lat="45.80435" lon="2.9335">
        <ele>951</ele>
        <time>2021-08-08T11:40:53Z</time>
      </trkpt>
      <trkpt lat="45.8043" lon="2.93347">
        <ele>950.6</ele>
        <time>2021-08-08T11:41:00Z</time>
      </trkpt>
      <trkpt lat="45.80429" lon="2.93342">
        <ele>949.8</ele>
        <time>2021-08-08T11:41:02Z</time>
      </trkpt>
      <trkpt lat="45.80428" lon="2.93341">
        <ele>949.8</ele>
        <time>2021-08-08T11:41:03Z</time>
      </trkpt>
      <trkpt lat="45.80426" lon="2.93341">
        <ele>949.8</ele>
        <time>2021-08-08T11:41:04Z</time>
      </trkpt>
      <trkpt lat="45.80417" lon="2.93334">
        <ele>948</ele>
        <time>2021-08-08T11:41:10Z</time>
      </trkpt>
      <trkpt lat="45.80411" lon="2.93332">
        <ele>948</ele>
        <time>2021-08-08T11:41:14Z</time>
      </trkpt>
      <trkpt lat="45.80409" lon="2.93331">
        <ele>948.1</ele>
        <time>2021-08-08T11:41:15Z</time>
      </trkpt>
      <trkpt lat="45.80406" lon="2.93329">
        <ele>948.4</ele>
        <time>2021-08-08T11:41:17Z</time>
      </trkpt>
      <trkpt lat="45.80399" lon="2.93327">
        <ele>949.1</ele>
        <time>2021-08-08T11:41:21Z</time>
      </trkpt>
      <trkpt lat="45.80394" lon="2.93324">
        <ele>949.1</ele>
        <time>2021-08-08T11:41:24Z</time>
      </trkpt>
      <trkpt lat="45.80393" lon="2.93323">
        <ele>949.3</ele>
        <time>2021-08-08T11:41:25Z</time>
      </trkpt>
      <trkpt lat="45.80391" lon="2.93319">
        <ele>948.3</ele>
        <time>2021-08-08T11:41:27Z</time>
      </trkpt>
      <trkpt lat="45.80381" lon="2.93314">
        <ele>949.3</ele>
        <time>2021-08-08T11:41:32Z</time>
      </trkpt>
      <trkpt lat="45.80379" lon="2.93312">
        <ele>950</ele>
        <time>2021-08-08T11:41:34Z</time>
      </trkpt>
      <trkpt lat="45.80377" lon="2.93311">
        <ele>950.3</ele>
        <time>2021-08-08T11:41:35Z</time>
      </trkpt>
      <trkpt lat="45.80364" lon="2.93293">
        <ele>951.2</ele>
        <time>2021-08-08T11:41:45Z</time>
      </trkpt>
      <trkpt lat="45.80363" lon="2.93292">
        <ele>951.3</ele>
        <time>2021-08-08T11:41:46Z</time>
      </trkpt>
      <trkpt lat="45.8036" lon="2.93288">
        <ele>951.4</ele>
        <time>2021-08-08T11:41:49Z</time>
      </trkpt>
      <trkpt lat="45.80355" lon="2.93285">
        <ele>951.4</ele>
        <time>2021-08-08T11:41:53Z</time>
      </trkpt>
      <trkpt lat="45.80352" lon="2.9328">
        <ele>951</ele>
        <time>2021-08-08T11:41:57Z</time>
      </trkpt>
      <trkpt lat="45.80351" lon="2.93279">
        <ele>951</ele>
        <time>2021-08-08T11:41:58Z</time>
      </trkpt>
      <trkpt lat="45.80348" lon="2.93273">
        <ele>950.6</ele>
        <time>2021-08-08T11:42:01Z</time>
      </trkpt>
      <trkpt lat="45.80344" lon="2.9327">
        <ele>951.1</ele>
        <time>2021-08-08T11:42:05Z</time>
      </trkpt>
      <trkpt lat="45.80343" lon="2.93266">
        <ele>950.6</ele>
        <time>2021-08-08T11:42:09Z</time>
      </trkpt>
      <trkpt lat="45.80337" lon="2.93263">
        <ele>950.2</ele>
        <time>2021-08-08T11:42:14Z</time>
      </trkpt>
      <trkpt lat="45.80336" lon="2.93263">
        <ele>950.4</ele>
        <time>2021-08-08T11:42:15Z</time>
      </trkpt>
      <trkpt lat="45.80328" lon="2.9326">
        <ele>950.3</ele>
        <time>2021-08-08T11:42:19Z</time>
      </trkpt>
      <trkpt lat="45.80322" lon="2.93256">
        <ele>949.3</ele>
        <time>2021-08-08T11:42:24Z</time>
      </trkpt>
      <trkpt lat="45.8032" lon="2.93255">
        <ele>948.5</ele>
        <time>2021-08-08T11:42:25Z</time>
      </trkpt>
      <trkpt lat="45.80312" lon="2.93249">
        <ele>945.1</ele>
        <time>2021-08-08T11:42:31Z</time>
      </trkpt>
      <trkpt lat="45.80308" lon="2.93247">
        <ele>943.2</ele>
        <time>2021-08-08T11:42:34Z</time>
      </trkpt>
      <trkpt lat="45.80303" lon="2.93248">
        <ele>941.8</ele>
        <time>2021-08-08T11:42:36Z</time>
      </trkpt>
      <trkpt lat="45.80302" lon="2.9325">
        <ele>941.7</ele>
        <time>2021-08-08T11:42:37Z</time>
      </trkpt>
      <trkpt lat="45.80299" lon="2.93253">
        <ele>941.3</ele>
        <time>2021-08-08T11:42:41Z</time>
      </trkpt>
      <trkpt lat="45.80287" lon="2.93261">
        <ele>939.6</ele>
        <time>2021-08-08T11:42:51Z</time>
      </trkpt>
      <trkpt lat="45.80286" lon="2.93262">
        <ele>939.6</ele>
        <time>2021-08-08T11:42:52Z</time>
      </trkpt>
      <trkpt lat="45.80277" lon="2.9327">
        <ele>938.2</ele>
        <time>2021-08-08T11:42:59Z</time>
      </trkpt>
      <trkpt lat="45.80271" lon="2.93273">
        <ele>938</ele>
        <time>2021-08-08T11:43:03Z</time>
      </trkpt>
      <trkpt lat="45.80271" lon="2.93273">
        <ele>937.9</ele>
        <time>2021-08-08T11:43:04Z</time>
      </trkpt>
      <trkpt lat="45.80268" lon="2.93276">
        <ele>938</ele>
        <time>2021-08-08T11:43:08Z</time>
      </trkpt>
      <trkpt lat="45.80263" lon="2.93281">
        <ele>937.6</ele>
        <time>2021-08-08T11:43:13Z</time>
      </trkpt>
      <trkpt lat="45.8026" lon="2.93288">
        <ele>938</ele>
        <time>2021-08-08T11:43:17Z</time>
      </trkpt>
      <trkpt lat="45.80259" lon="2.9329">
        <ele>937.8</ele>
        <time>2021-08-08T11:43:18Z</time>
      </trkpt>
      <trkpt lat="45.80254" lon="2.93296">
        <ele>938</ele>
        <time>2021-08-08T11:43:26Z</time>
      </trkpt>
      <trkpt lat="45.80251" lon="2.93308">
        <ele>939.2</ele>
        <time>2021-08-08T11:43:34Z</time>
      </trkpt>
      <trkpt lat="45.80248" lon="2.93312">
        <ele>939.7</ele>
        <time>2021-08-08T11:43:38Z</time>
      </trkpt>
      <trkpt lat="45.80247" lon="2.93313">
        <ele>939.6</ele>
        <time>2021-08-08T11:43:39Z</time>
      </trkpt>
      <trkpt lat="45.8024" lon="2.93321">
        <ele>940.1</ele>
        <time>2021-08-08T11:43:47Z</time>
      </trkpt>
      <trkpt lat="45.80238" lon="2.93331">
        <ele>940.5</ele>
        <time>2021-08-08T11:43:51Z</time>
      </trkpt>
      <trkpt lat="45.80235" lon="2.93335">
        <ele>940.8</ele>
        <time>2021-08-08T11:43:53Z</time>
      </trkpt>
      <trkpt lat="45.80233" lon="2.93338">
        <ele>941</ele>
        <time>2021-08-08T11:43:54Z</time>
      </trkpt>
      <trkpt lat="45.80232" lon="2.93341">
        <ele>941.4</ele>
        <time>2021-08-08T11:43:55Z</time>
      </trkpt>
      <trkpt lat="45.80228" lon="2.93343">
        <ele>942</ele>
        <time>2021-08-08T11:43:57Z</time>
      </trkpt>
      <trkpt lat="45.80219" lon="2.93352">
        <ele>941.9</ele>
        <time>2021-08-08T11:44:04Z</time>
      </trkpt>
      <trkpt lat="45.80218" lon="2.93353">
        <ele>942</ele>
        <time>2021-08-08T11:44:05Z</time>
      </trkpt>
      <trkpt lat="45.80216" lon="2.93358">
        <ele>942.2</ele>
        <time>2021-08-08T11:44:08Z</time>
      </trkpt>
      <trkpt lat="45.80212" lon="2.93374">
        <ele>943.5</ele>
        <time>2021-08-08T11:44:15Z</time>
      </trkpt>
      <trkpt lat="45.80211" lon="2.93376">
        <ele>943.8</ele>
        <time>2021-08-08T11:44:16Z</time>
      </trkpt>
      <trkpt lat="45.80209" lon="2.93379">
        <ele>944.2</ele>
        <time>2021-08-08T11:44:18Z</time>
      </trkpt>
      <trkpt lat="45.802" lon="2.93386">
        <ele>945.9</ele>
        <time>2021-08-08T11:44:25Z</time>
      </trkpt>
      <trkpt lat="45.80198" lon="2.93388">
        <ele>946.2</ele>
        <time>2021-08-08T11:44:26Z</time>
      </trkpt>
      <trkpt lat="45.80198" lon="2.9339">
        <ele>946.5</ele>
        <time>2021-08-08T11:44:27Z</time>
      </trkpt>
      <trkpt lat="45.80196" lon="2.93394">
        <ele>947.3</ele>
        <time>2021-08-08T11:44:30Z</time>
      </trkpt>
      <trkpt lat="45.80188" lon="2.93405">
        <ele>950.4</ele>
        <time>2021-08-08T11:44:39Z</time>
      </trkpt>
      <trkpt lat="45.80187" lon="2.93407">
        <ele>950.7</ele>
        <time>2021-08-08T11:44:40Z</time>
      </trkpt>
      <trkpt lat="45.80184" lon="2.93411">
        <ele>951.4</ele>
        <time>2021-08-08T11:44:42Z</time>
      </trkpt>
      <trkpt lat="45.80177" lon="2.93416">
        <ele>951.7</ele>
        <time>2021-08-08T11:44:46Z</time>
      </trkpt>
      <trkpt lat="45.80172" lon="2.93426">
        <ele>952.1</ele>
        <time>2021-08-08T11:44:52Z</time>
      </trkpt>
      <trkpt lat="45.8017" lon="2.93427">
        <ele>952.1</ele>
        <time>2021-08-08T11:44:53Z</time>
      </trkpt>
      <trkpt lat="45.80166" lon="2.93432">
        <ele>951.8</ele>
        <time>2021-08-08T11:44:58Z</time>
      </trkpt>
      <trkpt lat="45.8016" lon="2.93444">
        <ele>953.1</ele>
        <time>2021-08-08T11:45:06Z</time>
      </trkpt>
      <trkpt lat="45.80159" lon="2.93445">
        <ele>953.3</ele>
        <time>2021-08-08T11:45:07Z</time>
      </trkpt>
      <trkpt lat="45.80157" lon="2.93447">
        <ele>954</ele>
        <time>2021-08-08T11:45:13Z</time>
      </trkpt>
      <trkpt lat="45.80153" lon="2.93454">
        <ele>954.8</ele>
        <time>2021-08-08T11:45:17Z</time>
      </trkpt>
      <trkpt lat="45.80147" lon="2.93459">
        <ele>955.7</ele>
        <time>2021-08-08T11:45:21Z</time>
      </trkpt>
      <trkpt lat="45.80146" lon="2.9346">
        <ele>955.9</ele>
        <time>2021-08-08T11:45:22Z</time>
      </trkpt>
      <trkpt lat="45.80143" lon="2.93463">
        <ele>956.3</ele>
        <time>2021-08-08T11:45:24Z</time>
      </trkpt>
      <trkpt lat="45.80134" lon="2.93467">
        <ele>955.5</ele>
        <time>2021-08-08T11:45:29Z</time>
      </trkpt>
      <trkpt lat="45.80133" lon="2.9347">
        <ele>955.8</ele>
        <time>2021-08-08T11:45:30Z</time>
      </trkpt>
      <trkpt lat="45.80131" lon="2.93469">
        <ele>955.1</ele>
        <time>2021-08-08T11:45:31Z</time>
      </trkpt>
      <trkpt lat="45.8013" lon="2.9347">
        <ele>955.1</ele>
        <time>2021-08-08T11:45:32Z</time>
      </trkpt>
      <trkpt lat="45.80129" lon="2.93471">
        <ele>955.3</ele>
        <time>2021-08-08T11:45:33Z</time>
      </trkpt>
      <trkpt lat="45.80124" lon="2.93474">
        <ele>954.9</ele>
        <time>2021-08-08T11:45:37Z</time>
      </trkpt>
      <trkpt lat="45.80116" lon="2.93475">
        <ele>955.2</ele>
        <time>2021-08-08T11:45:42Z</time>
      </trkpt>
      <trkpt lat="45.80114" lon="2.93474">
        <ele>955.2</ele>
        <time>2021-08-08T11:45:43Z</time>
      </trkpt>
      <trkpt lat="45.80105" lon="2.93473">
        <ele>955.5</ele>
        <time>2021-08-08T11:45:48Z</time>
      </trkpt>
      <trkpt lat="45.80097" lon="2.9347">
        <ele>955.4</ele>
        <time>2021-08-08T11:45:53Z</time>
      </trkpt>
      <trkpt lat="45.80096" lon="2.9347">
        <ele>955.5</ele>
        <time>2021-08-08T11:45:54Z</time>
      </trkpt>
      <trkpt lat="45.80092" lon="2.93469">
        <ele>955.6</ele>
        <time>2021-08-08T11:45:56Z</time>
      </trkpt>
      <trkpt lat="45.80081" lon="2.93461">
        <ele>955.3</ele>
        <time>2021-08-08T11:46:03Z</time>
      </trkpt>
      <trkpt lat="45.80079" lon="2.9346">
        <ele>955.5</ele>
        <time>2021-08-08T11:46:04Z</time>
      </trkpt>
      <trkpt lat="45.80073" lon="2.93457">
        <ele>956.1</ele>
        <time>2021-08-08T11:46:07Z</time>
      </trkpt>
      <trkpt lat="45.80065" lon="2.93455">
        <ele>956.7</ele>
        <time>2021-08-08T11:46:11Z</time>
      </trkpt>
      <trkpt lat="45.80062" lon="2.93453">
        <ele>956.8</ele>
        <time>2021-08-08T11:46:13Z</time>
      </trkpt>
      <trkpt lat="45.80061" lon="2.93452">
        <ele>957</ele>
        <time>2021-08-08T11:46:14Z</time>
      </trkpt>
      <trkpt lat="45.80056" lon="2.93451">
        <ele>957.2</ele>
        <time>2021-08-08T11:46:17Z</time>
      </trkpt>
      <trkpt lat="45.80048" lon="2.93446">
        <ele>956.9</ele>
        <time>2021-08-08T11:46:21Z</time>
      </trkpt>
      <trkpt lat="45.80044" lon="2.93445">
        <ele>956.2</ele>
        <time>2021-08-08T11:46:23Z</time>
      </trkpt>
      <trkpt lat="45.80042" lon="2.93443">
        <ele>956</ele>
        <time>2021-08-08T11:46:24Z</time>
      </trkpt>
      <trkpt lat="45.80038" lon="2.93439">
        <ele>954.2</ele>
        <time>2021-08-08T11:46:31Z</time>
      </trkpt>
      <trkpt lat="45.80038" lon="2.93436">
        <ele>953.4</ele>
        <time>2021-08-08T11:46:32Z</time>
      </trkpt>
      <trkpt lat="45.80034" lon="2.9343">
        <ele>953</ele>
        <time>2021-08-08T11:46:35Z</time>
      </trkpt>
      <trkpt lat="45.80031" lon="2.93427">
        <ele>953</ele>
        <time>2021-08-08T11:46:37Z</time>
      </trkpt>
      <trkpt lat="45.8003" lon="2.93426">
        <ele>952.8</ele>
        <time>2021-08-08T11:46:38Z</time>
      </trkpt>
      <trkpt lat="45.80018" lon="2.93419">
        <ele>952.3</ele>
        <time>2021-08-08T11:46:45Z</time>
      </trkpt>
      <trkpt lat="45.80015" lon="2.93416">
        <ele>951.6</ele>
        <time>2021-08-08T11:46:49Z</time>
      </trkpt>
      <trkpt lat="45.80014" lon="2.93415">
        <ele>951.6</ele>
        <time>2021-08-08T11:46:50Z</time>
      </trkpt>
      <trkpt lat="45.80001" lon="2.93412">
        <ele>952</ele>
        <time>2021-08-08T11:46:57Z</time>
      </trkpt>
      <trkpt lat="45.79998" lon="2.9341">
        <ele>952.2</ele>
        <time>2021-08-08T11:46:59Z</time>
      </trkpt>
      <trkpt lat="45.79996" lon="2.93408">
        <ele>951.8</ele>
        <time>2021-08-08T11:47:00Z</time>
      </trkpt>
      <trkpt lat="45.79986" lon="2.93398">
        <ele>950.1</ele>
        <time>2021-08-08T11:47:05Z</time>
      </trkpt>
      <trkpt lat="45.7998" lon="2.93395">
        <ele>949.8</ele>
        <time>2021-08-08T11:47:09Z</time>
      </trkpt>
      <trkpt lat="45.79979" lon="2.93395">
        <ele>949.8</ele>
        <time>2021-08-08T11:47:10Z</time>
      </trkpt>
      <trkpt lat="45.79967" lon="2.93393">
        <ele>949.4</ele>
        <time>2021-08-08T11:47:16Z</time>
      </trkpt>
      <trkpt lat="45.79963" lon="2.93391">
        <ele>949.3</ele>
        <time>2021-08-08T11:47:19Z</time>
      </trkpt>
      <trkpt lat="45.79962" lon="2.93391">
        <ele>949.2</ele>
        <time>2021-08-08T11:47:20Z</time>
      </trkpt>
      <trkpt lat="45.79954" lon="2.93388">
        <ele>949.2</ele>
        <time>2021-08-08T11:47:26Z</time>
      </trkpt>
      <trkpt lat="45.79951" lon="2.93385">
        <ele>949</ele>
        <time>2021-08-08T11:47:29Z</time>
      </trkpt>
      <trkpt lat="45.79946" lon="2.93385">
        <ele>949.1</ele>
        <time>2021-08-08T11:47:34Z</time>
      </trkpt>
      <trkpt lat="45.79945" lon="2.93385">
        <ele>949.2</ele>
        <time>2021-08-08T11:47:35Z</time>
      </trkpt>
      <trkpt lat="45.79934" lon="2.93381">
        <ele>950.4</ele>
        <time>2021-08-08T11:47:43Z</time>
      </trkpt>
      <trkpt lat="45.79931" lon="2.93376">
        <ele>948.2</ele>
        <time>2021-08-08T11:47:47Z</time>
      </trkpt>
      <trkpt lat="45.79928" lon="2.93375">
        <ele>948.4</ele>
        <time>2021-08-08T11:47:48Z</time>
      </trkpt>
      <trkpt lat="45.79927" lon="2.93374">
        <ele>948.6</ele>
        <time>2021-08-08T11:47:49Z</time>
      </trkpt>
      <trkpt lat="45.79922" lon="2.93373">
        <ele>949.2</ele>
        <time>2021-08-08T11:47:52Z</time>
      </trkpt>
      <trkpt lat="45.79917" lon="2.93373">
        <ele>949.5</ele>
        <time>2021-08-08T11:47:55Z</time>
      </trkpt>
      <trkpt lat="45.79913" lon="2.9337">
        <ele>950</ele>
        <time>2021-08-08T11:47:58Z</time>
      </trkpt>
      <trkpt lat="45.79912" lon="2.9337">
        <ele>950.1</ele>
        <time>2021-08-08T11:47:59Z</time>
      </trkpt>
      <trkpt lat="45.79905" lon="2.93369">
        <ele>950.8</ele>
        <time>2021-08-08T11:48:04Z</time>
      </trkpt>
      <trkpt lat="45.79904" lon="2.93366">
        <ele>950.1</ele>
        <time>2021-08-08T11:48:06Z</time>
      </trkpt>
      <trkpt lat="45.79902" lon="2.93365">
        <ele>949.9</ele>
        <time>2021-08-08T11:48:08Z</time>
      </trkpt>
      <trkpt lat="45.79899" lon="2.93365">
        <ele>949.7</ele>
        <time>2021-08-08T11:48:10Z</time>
      </trkpt>
      <trkpt lat="45.79894" lon="2.93362">
        <ele>950.1</ele>
        <time>2021-08-08T11:48:14Z</time>
      </trkpt>
      <trkpt lat="45.79892" lon="2.93362">
        <ele>950.1</ele>
        <time>2021-08-08T11:48:15Z</time>
      </trkpt>
      <trkpt lat="45.79886" lon="2.9336">
        <ele>950.5</ele>
        <time>2021-08-08T11:48:22Z</time>
      </trkpt>
      <trkpt lat="45.79881" lon="2.93362">
        <ele>950.9</ele>
        <time>2021-08-08T11:48:26Z</time>
      </trkpt>
      <trkpt lat="45.79877" lon="2.93362">
        <ele>951.1</ele>
        <time>2021-08-08T11:48:28Z</time>
      </trkpt>
      <trkpt lat="45.79875" lon="2.93362">
        <ele>951.3</ele>
        <time>2021-08-08T11:48:29Z</time>
      </trkpt>
      <trkpt lat="45.7987" lon="2.93357">
        <ele>951.7</ele>
        <time>2021-08-08T11:48:33Z</time>
      </trkpt>
      <trkpt lat="45.79863" lon="2.93356">
        <ele>952.3</ele>
        <time>2021-08-08T11:48:37Z</time>
      </trkpt>
      <trkpt lat="45.79858" lon="2.93351">
        <ele>953.6</ele>
        <time>2021-08-08T11:48:39Z</time>
      </trkpt>
      <trkpt lat="45.79856" lon="2.9335">
        <ele>954</ele>
        <time>2021-08-08T11:48:40Z</time>
      </trkpt>
      <trkpt lat="45.79853" lon="2.93347">
        <ele>955.1</ele>
        <time>2021-08-08T11:48:42Z</time>
      </trkpt>
      <trkpt lat="45.79849" lon="2.93345">
        <ele>955.5</ele>
        <time>2021-08-08T11:48:46Z</time>
      </trkpt>
      <trkpt lat="45.79845" lon="2.93343">
        <ele>956</ele>
        <time>2021-08-08T11:48:49Z</time>
      </trkpt>
      <trkpt lat="45.7984" lon="2.93345">
        <ele>957.1</ele>
        <time>2021-08-08T11:48:53Z</time>
      </trkpt>
      <trkpt lat="45.79838" lon="2.93343">
        <ele>957.4</ele>
        <time>2021-08-08T11:48:54Z</time>
      </trkpt>
      <trkpt lat="45.79827" lon="2.93337">
        <ele>959.3</ele>
        <time>2021-08-08T11:49:06Z</time>
      </trkpt>
      <trkpt lat="45.79823" lon="2.93337">
        <ele>959.6</ele>
        <time>2021-08-08T11:49:09Z</time>
      </trkpt>
      <trkpt lat="45.79822" lon="2.93337">
        <ele>959.7</ele>
        <time>2021-08-08T11:49:10Z</time>
      </trkpt>
      <trkpt lat="45.79815" lon="2.93338">
        <ele>962.3</ele>
        <time>2021-08-08T11:49:19Z</time>
      </trkpt>
      <trkpt lat="45.7981" lon="2.93337">
        <ele>962.7</ele>
        <time>2021-08-08T11:49:22Z</time>
      </trkpt>
      <trkpt lat="45.79808" lon="2.93337">
        <ele>963</ele>
        <time>2021-08-08T11:49:24Z</time>
      </trkpt>
      <trkpt lat="45.79806" lon="2.93339">
        <ele>963.6</ele>
        <time>2021-08-08T11:49:27Z</time>
      </trkpt>
      <trkpt lat="45.79805" lon="2.9334">
        <ele>963.9</ele>
        <time>2021-08-08T11:49:28Z</time>
      </trkpt>
      <trkpt lat="45.79803" lon="2.93341">
        <ele>964.1</ele>
        <time>2021-08-08T11:49:29Z</time>
      </trkpt>
      <trkpt lat="45.79796" lon="2.93339">
        <ele>965.8</ele>
        <time>2021-08-08T11:49:33Z</time>
      </trkpt>
      <trkpt lat="45.79788" lon="2.93339">
        <ele>967.2</ele>
        <time>2021-08-08T11:49:37Z</time>
      </trkpt>
      <trkpt lat="45.79787" lon="2.93339">
        <ele>967.5</ele>
        <time>2021-08-08T11:49:38Z</time>
      </trkpt>
      <trkpt lat="45.79782" lon="2.93338">
        <ele>970.5</ele>
        <time>2021-08-08T11:49:46Z</time>
      </trkpt>
      <trkpt lat="45.79771" lon="2.93341">
        <ele>973.1</ele>
        <time>2021-08-08T11:49:54Z</time>
      </trkpt>
      <trkpt lat="45.7977" lon="2.9334">
        <ele>973.2</ele>
        <time>2021-08-08T11:49:55Z</time>
      </trkpt>
      <trkpt lat="45.79765" lon="2.93339">
        <ele>973.7</ele>
        <time>2021-08-08T11:49:58Z</time>
      </trkpt>
      <trkpt lat="45.79753" lon="2.93347">
        <ele>973.6</ele>
        <time>2021-08-08T11:50:04Z</time>
      </trkpt>
      <trkpt lat="45.79752" lon="2.93348">
        <ele>973.6</ele>
        <time>2021-08-08T11:50:05Z</time>
      </trkpt>
      <trkpt lat="45.79744" lon="2.93348">
        <ele>972.9</ele>
        <time>2021-08-08T11:50:09Z</time>
      </trkpt>
      <trkpt lat="45.79735" lon="2.93353">
        <ele>974.8</ele>
        <time>2021-08-08T11:50:16Z</time>
      </trkpt>
      <trkpt lat="45.79734" lon="2.93354">
        <ele>974.9</ele>
        <time>2021-08-08T11:50:17Z</time>
      </trkpt>
      <trkpt lat="45.79734" lon="2.93355">
        <ele>975.3</ele>
        <time>2021-08-08T11:50:18Z</time>
      </trkpt>
      <trkpt lat="45.79725" lon="2.93351">
        <ele>975</ele>
        <time>2021-08-08T11:50:25Z</time>
      </trkpt>
      <trkpt lat="45.79721" lon="2.93348">
        <ele>974.9</ele>
        <time>2021-08-08T11:50:29Z</time>
      </trkpt>
      <trkpt lat="45.79719" lon="2.93347">
        <ele>975.1</ele>
        <time>2021-08-08T11:50:30Z</time>
      </trkpt>
      <trkpt lat="45.79716" lon="2.93348">
        <ele>975.5</ele>
        <time>2021-08-08T11:50:31Z</time>
      </trkpt>
      <trkpt lat="45.79711" lon="2.93348">
        <ele>976.2</ele>
        <time>2021-08-08T11:50:33Z</time>
      </trkpt>
      <trkpt lat="45.79705" lon="2.93352">
        <ele>977.1</ele>
        <time>2021-08-08T11:50:37Z</time>
      </trkpt>
      <trkpt lat="45.79698" lon="2.93347">
        <ele>977.2</ele>
        <time>2021-08-08T11:50:44Z</time>
      </trkpt>
      <trkpt lat="45.79697" lon="2.93346">
        <ele>977.2</ele>
        <time>2021-08-08T11:50:45Z</time>
      </trkpt>
      <trkpt lat="45.79693" lon="2.93346">
        <ele>977.8</ele>
        <time>2021-08-08T11:50:48Z</time>
      </trkpt>
      <trkpt lat="45.79689" lon="2.93347">
        <ele>978.9</ele>
        <time>2021-08-08T11:50:51Z</time>
      </trkpt>
      <trkpt lat="45.79681" lon="2.93352">
        <ele>981.1</ele>
        <time>2021-08-08T11:50:58Z</time>
      </trkpt>
      <trkpt lat="45.79681" lon="2.93353">
        <ele>981.4</ele>
        <time>2021-08-08T11:50:59Z</time>
      </trkpt>
      <trkpt lat="45.79677" lon="2.93355">
        <ele>982.2</ele>
        <time>2021-08-08T11:51:03Z</time>
      </trkpt>
      <trkpt lat="45.79666" lon="2.93356">
        <ele>983.1</ele>
        <time>2021-08-08T11:51:09Z</time>
      </trkpt>
      <trkpt lat="45.79664" lon="2.93356">
        <ele>983.3</ele>
        <time>2021-08-08T11:51:10Z</time>
      </trkpt>
      <trkpt lat="45.79661" lon="2.93358">
        <ele>984.1</ele>
        <time>2021-08-08T11:51:12Z</time>
      </trkpt>
      <trkpt lat="45.79653" lon="2.93358">
        <ele>985.8</ele>
        <time>2021-08-08T11:51:19Z</time>
      </trkpt>
      <trkpt lat="45.79647" lon="2.93357">
        <ele>987.8</ele>
        <time>2021-08-08T11:51:24Z</time>
      </trkpt>
      <trkpt lat="45.79646" lon="2.93357">
        <ele>988.2</ele>
        <time>2021-08-08T11:51:25Z</time>
      </trkpt>
      <trkpt lat="45.79635" lon="2.93356">
        <ele>989.2</ele>
        <time>2021-08-08T11:51:31Z</time>
      </trkpt>
      <trkpt lat="45.79628" lon="2.93356">
        <ele>991.4</ele>
        <time>2021-08-08T11:51:36Z</time>
      </trkpt>
      <trkpt lat="45.79627" lon="2.93356">
        <ele>991</ele>
        <time>2021-08-08T11:51:37Z</time>
      </trkpt>
      <trkpt lat="45.79621" lon="2.9336">
        <ele>991.4</ele>
        <time>2021-08-08T11:51:44Z</time>
      </trkpt>
      <trkpt lat="45.79614" lon="2.93356">
        <ele>992.5</ele>
        <time>2021-08-08T11:51:55Z</time>
      </trkpt>
      <trkpt lat="45.79613" lon="2.93352">
        <ele>993</ele>
        <time>2021-08-08T11:51:58Z</time>
      </trkpt>
      <trkpt lat="45.79612" lon="2.9335">
        <ele>993</ele>
        <time>2021-08-08T11:51:59Z</time>
      </trkpt>
      <trkpt lat="45.79601" lon="2.93333">
        <ele>991.7</ele>
        <time>2021-08-08T11:52:10Z</time>
      </trkpt>
      <trkpt lat="45.796" lon="2.93332">
        <ele>991.8</ele>
        <time>2021-08-08T11:52:11Z</time>
      </trkpt>
      <trkpt lat="45.79599" lon="2.93332">
        <ele>991.8</ele>
        <time>2021-08-08T11:52:12Z</time>
      </trkpt>
      <trkpt lat="45.79586" lon="2.93317">
        <ele>990.3</ele>
        <time>2021-08-08T11:52:26Z</time>
      </trkpt>
      <trkpt lat="45.79584" lon="2.93317">
        <ele>990.4</ele>
        <time>2021-08-08T11:52:27Z</time>
      </trkpt>
      <trkpt lat="45.79579" lon="2.93314">
        <ele>989.6</ele>
        <time>2021-08-08T11:52:32Z</time>
      </trkpt>
      <trkpt lat="45.79575" lon="2.93315">
        <ele>989.2</ele>
        <time>2021-08-08T11:52:35Z</time>
      </trkpt>
      <trkpt lat="45.79567" lon="2.93313">
        <ele>987.7</ele>
        <time>2021-08-08T11:52:40Z</time>
      </trkpt>
      <trkpt lat="45.79566" lon="2.93312">
        <ele>987.5</ele>
        <time>2021-08-08T11:52:41Z</time>
      </trkpt>
      <trkpt lat="45.79564" lon="2.93312">
        <ele>987</ele>
        <time>2021-08-08T11:52:42Z</time>
      </trkpt>
      <trkpt lat="45.79555" lon="2.93318">
        <ele>983.4</ele>
        <time>2021-08-08T11:52:50Z</time>
      </trkpt>
      <trkpt lat="45.79553" lon="2.93317">
        <ele>982.2</ele>
        <time>2021-08-08T11:52:53Z</time>
      </trkpt>
      <trkpt lat="45.79551" lon="2.93314">
        <ele>979.4</ele>
        <time>2021-08-08T11:52:56Z</time>
      </trkpt>
      <trkpt lat="45.7955" lon="2.93313">
        <ele>977.9</ele>
        <time>2021-08-08T11:52:57Z</time>
      </trkpt>
      <trkpt lat="45.79539" lon="2.93308">
        <ele>971.2</ele>
        <time>2021-08-08T11:53:03Z</time>
      </trkpt>
      <trkpt lat="45.79532" lon="2.93312">
        <ele>966.6</ele>
        <time>2021-08-08T11:53:08Z</time>
      </trkpt>
      <trkpt lat="45.79532" lon="2.93313">
        <ele>965.9</ele>
        <time>2021-08-08T11:53:09Z</time>
      </trkpt>
      <trkpt lat="45.79532" lon="2.93314">
        <ele>965.4</ele>
        <time>2021-08-08T11:53:10Z</time>
      </trkpt>
      <trkpt lat="45.7953" lon="2.93314">
        <ele>963</ele>
        <time>2021-08-08T11:53:13Z</time>
      </trkpt>
      <trkpt lat="45.79528" lon="2.93317">
        <ele>962.1</ele>
        <time>2021-08-08T11:53:16Z</time>
      </trkpt>
      <trkpt lat="45.79526" lon="2.93317">
        <ele>962.8</ele>
        <time>2021-08-08T11:53:18Z</time>
      </trkpt>
      <trkpt lat="45.79524" lon="2.93315">
        <ele>964.8</ele>
        <time>2021-08-08T11:53:32Z</time>
      </trkpt>
      <trkpt lat="45.79524" lon="2.93311">
        <ele>966.4</ele>
        <time>2021-08-08T11:53:34Z</time>
      </trkpt>
      <trkpt lat="45.79525" lon="2.93309">
        <ele>967.4</ele>
        <time>2021-08-08T11:53:36Z</time>
      </trkpt>
      <trkpt lat="45.79528" lon="2.93307">
        <ele>968.9</ele>
        <time>2021-08-08T11:53:39Z</time>
      </trkpt>
      <trkpt lat="45.79529" lon="2.93307">
        <ele>969.5</ele>
        <time>2021-08-08T11:53:40Z</time>
      </trkpt>
      <trkpt lat="45.79529" lon="2.93308">
        <ele>969.9</ele>
        <time>2021-08-08T11:53:41Z</time>
      </trkpt>
      <trkpt lat="45.79534" lon="2.93307">
        <ele>971.6</ele>
        <time>2021-08-08T11:53:44Z</time>
      </trkpt>
      <trkpt lat="45.79544" lon="2.93312">
        <ele>976</ele>
        <time>2021-08-08T11:53:54Z</time>
      </trkpt>
      <trkpt lat="45.79545" lon="2.93313">
        <ele>976.6</ele>
        <time>2021-08-08T11:53:55Z</time>
      </trkpt>
      <trkpt lat="45.79552" lon="2.9331">
        <ele>979.2</ele>
        <time>2021-08-08T11:54:01Z</time>
      </trkpt>
      <trkpt lat="45.79558" lon="2.93312">
        <ele>979.7</ele>
        <time>2021-08-08T11:54:05Z</time>
      </trkpt>
      <trkpt lat="45.79561" lon="2.9331">
        <ele>980.9</ele>
        <time>2021-08-08T11:54:08Z</time>
      </trkpt>
      <trkpt lat="45.79562" lon="2.93311">
        <ele>981</ele>
        <time>2021-08-08T11:54:09Z</time>
      </trkpt>
      <trkpt lat="45.79569" lon="2.93312">
        <ele>982.9</ele>
        <time>2021-08-08T11:54:14Z</time>
      </trkpt>
      <trkpt lat="45.79573" lon="2.93309">
        <ele>985.9</ele>
        <time>2021-08-08T11:54:18Z</time>
      </trkpt>
      <trkpt lat="45.79575" lon="2.9331">
        <ele>986.7</ele>
        <time>2021-08-08T11:54:20Z</time>
      </trkpt>
      <trkpt lat="45.79578" lon="2.93311">
        <ele>987.9</ele>
        <time>2021-08-08T11:54:22Z</time>
      </trkpt>
      <trkpt lat="45.7958" lon="2.93311">
        <ele>988.4</ele>
        <time>2021-08-08T11:54:23Z</time>
      </trkpt>
      <trkpt lat="45.79583" lon="2.9331">
        <ele>990.1</ele>
        <time>2021-08-08T11:54:27Z</time>
      </trkpt>
      <trkpt lat="45.79594" lon="2.93314">
        <ele>992.5</ele>
        <time>2021-08-08T11:54:36Z</time>
      </trkpt>
      <trkpt lat="45.79596" lon="2.93315">
        <ele>993.1</ele>
        <time>2021-08-08T11:54:37Z</time>
      </trkpt>
      <trkpt lat="45.796" lon="2.93319">
        <ele>995.9</ele>
        <time>2021-08-08T11:54:43Z</time>
      </trkpt>
      <trkpt lat="45.79601" lon="2.93321">
        <ele>997.3</ele>
        <time>2021-08-08T11:54:45Z</time>
      </trkpt>
      <trkpt lat="45.79608" lon="2.93329">
        <ele>1001.1</ele>
        <time>2021-08-08T11:54:52Z</time>
      </trkpt>
      <trkpt lat="45.79609" lon="2.9333">
        <ele>1001.5</ele>
        <time>2021-08-08T11:54:53Z</time>
      </trkpt>
      <trkpt lat="45.79611" lon="2.93332">
        <ele>1002.8</ele>
        <time>2021-08-08T11:54:58Z</time>
      </trkpt>
      <trkpt lat="45.79608" lon="2.93334">
        <ele>1003.1</ele>
        <time>2021-08-08T11:55:05Z</time>
      </trkpt>
      <trkpt lat="45.79608" lon="2.93336">
        <ele>1002.7</ele>
        <time>2021-08-08T11:55:07Z</time>
      </trkpt>
      <trkpt lat="45.79599" lon="2.93342">
        <ele>1005.5</ele>
        <time>2021-08-08T11:55:18Z</time>
      </trkpt>
      <trkpt lat="45.79598" lon="2.93342">
        <ele>1005.3</ele>
        <time>2021-08-08T11:55:19Z</time>
      </trkpt>
      <trkpt lat="45.79595" lon="2.93351">
        <ele>1005.5</ele>
        <time>2021-08-08T11:55:25Z</time>
      </trkpt>
      <trkpt lat="45.79593" lon="2.93353">
        <ele>1005.2</ele>
        <time>2021-08-08T11:55:26Z</time>
      </trkpt>
      <trkpt lat="45.79589" lon="2.93353">
        <ele>1004.7</ele>
        <time>2021-08-08T11:55:31Z</time>
      </trkpt>
      <trkpt lat="45.79587" lon="2.93358">
        <ele>1003.2</ele>
        <time>2021-08-08T11:55:35Z</time>
      </trkpt>
      <trkpt lat="45.79587" lon="2.9336">
        <ele>1003.2</ele>
        <time>2021-08-08T11:55:36Z</time>
      </trkpt>
      <trkpt lat="45.79585" lon="2.93359">
        <ele>1003.2</ele>
        <time>2021-08-08T11:55:37Z</time>
      </trkpt>
      <trkpt lat="45.79581" lon="2.93366">
        <ele>1002.6</ele>
        <time>2021-08-08T11:55:40Z</time>
      </trkpt>
      <trkpt lat="45.79574" lon="2.93372">
        <ele>1002.1</ele>
        <time>2021-08-08T11:55:47Z</time>
      </trkpt>
      <trkpt lat="45.79573" lon="2.93372">
        <ele>1002.2</ele>
        <time>2021-08-08T11:55:48Z</time>
      </trkpt>
      <trkpt lat="45.79571" lon="2.93374">
        <ele>1002</ele>
        <time>2021-08-08T11:55:50Z</time>
      </trkpt>
      <trkpt lat="45.79571" lon="2.93379">
        <ele>1001.6</ele>
        <time>2021-08-08T11:55:52Z</time>
      </trkpt>
      <trkpt lat="45.79564" lon="2.93386">
        <ele>1000.5</ele>
        <time>2021-08-08T11:55:59Z</time>
      </trkpt>
      <trkpt lat="45.79563" lon="2.93386">
        <ele>1000.3</ele>
        <time>2021-08-08T11:56:00Z</time>
      </trkpt>
      <trkpt lat="45.79557" lon="2.93386">
        <ele>999.8</ele>
        <time>2021-08-08T11:56:04Z</time>
      </trkpt>
      <trkpt lat="45.79549" lon="2.93391">
        <ele>998.1</ele>
        <time>2021-08-08T11:56:10Z</time>
      </trkpt>
      <trkpt lat="45.79547" lon="2.93391">
        <ele>998.2</ele>
        <time>2021-08-08T11:56:11Z</time>
      </trkpt>
      <trkpt lat="45.79544" lon="2.93393">
        <ele>998.8</ele>
        <time>2021-08-08T11:56:14Z</time>
      </trkpt>
      <trkpt lat="45.79542" lon="2.93395">
        <ele>997.7</ele>
        <time>2021-08-08T11:56:17Z</time>
      </trkpt>
      <trkpt lat="45.79541" lon="2.93402">
        <ele>993.9</ele>
        <time>2021-08-08T11:56:22Z</time>
      </trkpt>
      <trkpt lat="45.79537" lon="2.93405">
        <ele>990.1</ele>
        <time>2021-08-08T11:56:25Z</time>
      </trkpt>
      <trkpt lat="45.79535" lon="2.93404">
        <ele>989.3</ele>
        <time>2021-08-08T11:56:26Z</time>
      </trkpt>
      <trkpt lat="45.79534" lon="2.93408">
        <ele>986.2</ele>
        <time>2021-08-08T11:56:29Z</time>
      </trkpt>
      <trkpt lat="45.79531" lon="2.93412">
        <ele>982.6</ele>
        <time>2021-08-08T11:56:32Z</time>
      </trkpt>
      <trkpt lat="45.79526" lon="2.93413">
        <ele>979.6</ele>
        <time>2021-08-08T11:56:35Z</time>
      </trkpt>
      <trkpt lat="45.79523" lon="2.93415">
        <ele>978.2</ele>
        <time>2021-08-08T11:56:36Z</time>
      </trkpt>
      <trkpt lat="45.79522" lon="2.93418">
        <ele>976.4</ele>
        <time>2021-08-08T11:56:37Z</time>
      </trkpt>
      <trkpt lat="45.79521" lon="2.93419">
        <ele>975.3</ele>
        <time>2021-08-08T11:56:38Z</time>
      </trkpt>
      <trkpt lat="45.7951" lon="2.93425">
        <ele>966.2</ele>
        <time>2021-08-08T11:56:48Z</time>
      </trkpt>
      <trkpt lat="45.79509" lon="2.93433">
        <ele>963.4</ele>
        <time>2021-08-08T11:56:51Z</time>
      </trkpt>
      <trkpt lat="45.79508" lon="2.93433">
        <ele>962.6</ele>
        <time>2021-08-08T11:56:52Z</time>
      </trkpt>
      <trkpt lat="45.79508" lon="2.93442">
        <ele>960.3</ele>
        <time>2021-08-08T11:56:55Z</time>
      </trkpt>
      <trkpt lat="45.79511" lon="2.9345">
        <ele>958.8</ele>
        <time>2021-08-08T11:56:57Z</time>
      </trkpt>
      <trkpt lat="45.7951" lon="2.93459">
        <ele>956.9</ele>
        <time>2021-08-08T11:57:01Z</time>
      </trkpt>
      <trkpt lat="45.79509" lon="2.93462">
        <ele>956.3</ele>
        <time>2021-08-08T11:57:02Z</time>
      </trkpt>
      <trkpt lat="45.79509" lon="2.93475">
        <ele>954.8</ele>
        <time>2021-08-08T11:57:09Z</time>
      </trkpt>
      <trkpt lat="45.79511" lon="2.93481">
        <ele>953.9</ele>
        <time>2021-08-08T11:57:11Z</time>
      </trkpt>
      <trkpt lat="45.7951" lon="2.93484">
        <ele>952.1</ele>
        <time>2021-08-08T11:57:14Z</time>
      </trkpt>
      <trkpt lat="45.79507" lon="2.93483">
        <ele>952.1</ele>
        <time>2021-08-08T11:57:15Z</time>
      </trkpt>
      <trkpt lat="45.79505" lon="2.93482">
        <ele>952</ele>
        <time>2021-08-08T11:57:16Z</time>
      </trkpt>
      <trkpt lat="45.79497" lon="2.93476">
        <ele>949.9</ele>
        <time>2021-08-08T11:57:20Z</time>
      </trkpt>
      <trkpt lat="45.79494" lon="2.93473">
        <ele>949</ele>
        <time>2021-08-08T11:57:22Z</time>
      </trkpt>
      <trkpt lat="45.79491" lon="2.93472">
        <ele>950</ele>
        <time>2021-08-08T11:57:24Z</time>
      </trkpt>
      <trkpt lat="45.79489" lon="2.93473">
        <ele>949.9</ele>
        <time>2021-08-08T11:57:25Z</time>
      </trkpt>
      <trkpt lat="45.79488" lon="2.93474">
        <ele>949.5</ele>
        <time>2021-08-08T11:57:26Z</time>
      </trkpt>
      <trkpt lat="45.79487" lon="2.93473">
        <ele>949</ele>
        <time>2021-08-08T11:57:27Z</time>
      </trkpt>
      <trkpt lat="45.79484" lon="2.93474">
        <ele>948.3</ele>
        <time>2021-08-08T11:57:29Z</time>
      </trkpt>
      <trkpt lat="45.79482" lon="2.93476">
        <ele>947.5</ele>
        <time>2021-08-08T11:57:31Z</time>
      </trkpt>
      <trkpt lat="45.79482" lon="2.93479">
        <ele>946.6</ele>
        <time>2021-08-08T11:57:33Z</time>
      </trkpt>
      <trkpt lat="45.7948" lon="2.93483">
        <ele>946</ele>
        <time>2021-08-08T11:57:36Z</time>
      </trkpt>
      <trkpt lat="45.79477" lon="2.93485">
        <ele>947</ele>
        <time>2021-08-08T11:57:38Z</time>
      </trkpt>
      <trkpt lat="45.79475" lon="2.93486">
        <ele>947.5</ele>
        <time>2021-08-08T11:57:39Z</time>
      </trkpt>
      <trkpt lat="45.7947" lon="2.93489">
        <ele>947</ele>
        <time>2021-08-08T11:57:43Z</time>
      </trkpt>
      <trkpt lat="45.79466" lon="2.93486">
        <ele>947.9</ele>
        <time>2021-08-08T11:57:45Z</time>
      </trkpt>
      <trkpt lat="45.79464" lon="2.93478">
        <ele>947.2</ele>
        <time>2021-08-08T11:57:49Z</time>
      </trkpt>
      <trkpt lat="45.79462" lon="2.93481">
        <ele>949.3</ele>
        <time>2021-08-08T11:57:53Z</time>
      </trkpt>
      <trkpt lat="45.79462" lon="2.93483">
        <ele>949.5</ele>
        <time>2021-08-08T11:57:54Z</time>
      </trkpt>
      <trkpt lat="45.79462" lon="2.93485">
        <ele>949.9</ele>
        <time>2021-08-08T11:57:55Z</time>
      </trkpt>
      <trkpt lat="45.79459" lon="2.93488">
        <ele>950.9</ele>
        <time>2021-08-08T11:57:58Z</time>
      </trkpt>
      <trkpt lat="45.79456" lon="2.93489">
        <ele>951.5</ele>
        <time>2021-08-08T11:58:10Z</time>
      </trkpt>
      <trkpt lat="45.79456" lon="2.93496">
        <ele>951.3</ele>
        <time>2021-08-08T11:58:17Z</time>
      </trkpt>
      <trkpt lat="45.79453" lon="2.93499">
        <ele>950.9</ele>
        <time>2021-08-08T11:58:20Z</time>
      </trkpt>
      <trkpt lat="45.79453" lon="2.935">
        <ele>950.9</ele>
        <time>2021-08-08T11:58:21Z</time>
      </trkpt>
      <trkpt lat="45.79449" lon="2.93505">
        <ele>950.6</ele>
        <time>2021-08-08T11:58:26Z</time>
      </trkpt>
      <trkpt lat="45.7945" lon="2.93509">
        <ele>950.5</ele>
        <time>2021-08-08T11:58:28Z</time>
      </trkpt>
      <trkpt lat="45.79445" lon="2.93515">
        <ele>953.9</ele>
        <time>2021-08-08T11:58:37Z</time>
      </trkpt>
      <trkpt lat="45.79444" lon="2.93518">
        <ele>955.2</ele>
        <time>2021-08-08T11:58:40Z</time>
      </trkpt>
      <trkpt lat="45.79443" lon="2.93519">
        <ele>956.1</ele>
        <time>2021-08-08T11:58:41Z</time>
      </trkpt>
      <trkpt lat="45.79441" lon="2.9352">
        <ele>957.1</ele>
        <time>2021-08-08T11:58:42Z</time>
      </trkpt>
      <trkpt lat="45.79438" lon="2.93524">
        <ele>958.9</ele>
        <time>2021-08-08T11:58:45Z</time>
      </trkpt>
      <trkpt lat="45.79434" lon="2.93525">
        <ele>960.9</ele>
        <time>2021-08-08T11:58:48Z</time>
      </trkpt>
      <trkpt lat="45.79431" lon="2.93529">
        <ele>963</ele>
        <time>2021-08-08T11:58:51Z</time>
      </trkpt>
      <trkpt lat="45.79431" lon="2.93532">
        <ele>964</ele>
        <time>2021-08-08T11:58:52Z</time>
      </trkpt>
      <trkpt lat="45.79429" lon="2.93533">
        <ele>964.8</ele>
        <time>2021-08-08T11:58:53Z</time>
      </trkpt>
      <trkpt lat="45.79428" lon="2.93535">
        <ele>965.7</ele>
        <time>2021-08-08T11:58:54Z</time>
      </trkpt>
      <trkpt lat="45.79424" lon="2.93545">
        <ele>970.4</ele>
        <time>2021-08-08T11:58:59Z</time>
      </trkpt>
      <trkpt lat="45.79421" lon="2.9355">
        <ele>975.7</ele>
        <time>2021-08-08T11:59:06Z</time>
      </trkpt>
      <trkpt lat="45.79416" lon="2.9355">
        <ele>978.8</ele>
        <time>2021-08-08T11:59:09Z</time>
      </trkpt>
      <trkpt lat="45.79414" lon="2.93551">
        <ele>979.9</ele>
        <time>2021-08-08T11:59:10Z</time>
      </trkpt>
      <trkpt lat="45.79413" lon="2.93551">
        <ele>981.5</ele>
        <time>2021-08-08T11:59:11Z</time>
      </trkpt>
      <trkpt lat="45.79409" lon="2.93555">
        <ele>984.2</ele>
        <time>2021-08-08T11:59:15Z</time>
      </trkpt>
      <trkpt lat="45.79406" lon="2.93562">
        <ele>986.6</ele>
        <time>2021-08-08T11:59:19Z</time>
      </trkpt>
      <trkpt lat="45.79405" lon="2.93567">
        <ele>989.1</ele>
        <time>2021-08-08T11:59:22Z</time>
      </trkpt>
      <trkpt lat="45.79405" lon="2.93567">
        <ele>989.7</ele>
        <time>2021-08-08T11:59:23Z</time>
      </trkpt>
      <trkpt lat="45.79398" lon="2.93577">
        <ele>997.5</ele>
        <time>2021-08-08T11:59:44Z</time>
      </trkpt>
      <trkpt lat="45.79394" lon="2.93585">
        <ele>999.3</ele>
        <time>2021-08-08T11:59:50Z</time>
      </trkpt>
      <trkpt lat="45.79394" lon="2.93586">
        <ele>999.3</ele>
        <time>2021-08-08T11:59:51Z</time>
      </trkpt>
      <trkpt lat="45.79393" lon="2.9359">
        <ele>1000.6</ele>
        <time>2021-08-08T11:59:59Z</time>
      </trkpt>
      <trkpt lat="45.79389" lon="2.93594">
        <ele>1003</ele>
        <time>2021-08-08T12:00:03Z</time>
      </trkpt>
      <trkpt lat="45.79386" lon="2.93607">
        <ele>1006.2</ele>
        <time>2021-08-08T12:00:12Z</time>
      </trkpt>
      <trkpt lat="45.79385" lon="2.93608">
        <ele>1006.5</ele>
        <time>2021-08-08T12:00:13Z</time>
      </trkpt>
      <trkpt lat="45.79384" lon="2.93609">
        <ele>1006.9</ele>
        <time>2021-08-08T12:00:14Z</time>
      </trkpt>
      <trkpt lat="45.79384" lon="2.93612">
        <ele>1007.9</ele>
        <time>2021-08-08T12:00:18Z</time>
      </trkpt>
      <trkpt lat="45.79381" lon="2.93612">
        <ele>1008.7</ele>
        <time>2021-08-08T12:00:19Z</time>
      </trkpt>
      <trkpt lat="45.79378" lon="2.93616">
        <ele>1009.4</ele>
        <time>2021-08-08T12:00:22Z</time>
      </trkpt>
      <trkpt lat="45.79377" lon="2.93621">
        <ele>1009.3</ele>
        <time>2021-08-08T12:00:27Z</time>
      </trkpt>
      <trkpt lat="45.79375" lon="2.93624">
        <ele>1009.7</ele>
        <time>2021-08-08T12:00:30Z</time>
      </trkpt>
      <trkpt lat="45.79375" lon="2.93625">
        <ele>1009.8</ele>
        <time>2021-08-08T12:00:31Z</time>
      </trkpt>
      <trkpt lat="45.79373" lon="2.93632">
        <ele>1012.2</ele>
        <time>2021-08-08T12:00:40Z</time>
      </trkpt>
      <trkpt lat="45.79371" lon="2.93634">
        <ele>1012.7</ele>
        <time>2021-08-08T12:00:42Z</time>
      </trkpt>
      <trkpt lat="45.79367" lon="2.93634">
        <ele>1013.9</ele>
        <time>2021-08-08T12:00:46Z</time>
      </trkpt>
      <trkpt lat="45.79364" lon="2.9364">
        <ele>1014.8</ele>
        <time>2021-08-08T12:00:49Z</time>
      </trkpt>
      <trkpt lat="45.79363" lon="2.93642">
        <ele>1015.1</ele>
        <time>2021-08-08T12:00:50Z</time>
      </trkpt>
      <trkpt lat="45.7936" lon="2.93644">
        <ele>1016.7</ele>
        <time>2021-08-08T12:00:54Z</time>
      </trkpt>
      <trkpt lat="45.7936" lon="2.93648">
        <ele>1017.2</ele>
        <time>2021-08-08T12:00:58Z</time>
      </trkpt>
      <trkpt lat="45.7936" lon="2.93651">
        <ele>1017.8</ele>
        <time>2021-08-08T12:01:00Z</time>
      </trkpt>
      <trkpt lat="45.79362" lon="2.93657">
        <ele>1018.8</ele>
        <time>2021-08-08T12:01:04Z</time>
      </trkpt>
      <trkpt lat="45.79361" lon="2.93663">
        <ele>1018.5</ele>
        <time>2021-08-08T12:01:09Z</time>
      </trkpt>
      <trkpt lat="45.7936" lon="2.93664">
        <ele>1018.1</ele>
        <time>2021-08-08T12:01:10Z</time>
      </trkpt>
      <trkpt lat="45.7936" lon="2.93664">
        <ele>1018.1</ele>
        <time>2021-08-08T12:01:11Z</time>
      </trkpt>
      <trkpt lat="45.79358" lon="2.93665">
        <ele>1017.8</ele>
        <time>2021-08-08T12:01:12Z</time>
      </trkpt>
      <trkpt lat="45.79353" lon="2.93672">
        <ele>1017.9</ele>
        <time>2021-08-08T12:01:18Z</time>
      </trkpt>
      <trkpt lat="45.79352" lon="2.93677">
        <ele>1016.4</ele>
        <time>2021-08-08T12:01:23Z</time>
      </trkpt>
      <trkpt lat="45.79349" lon="2.93684">
        <ele>1017.6</ele>
        <time>2021-08-08T12:01:25Z</time>
      </trkpt>
      <trkpt lat="45.79349" lon="2.93685">
        <ele>1017.3</ele>
        <time>2021-08-08T12:01:26Z</time>
      </trkpt>
      <trkpt lat="45.7935" lon="2.93686">
        <ele>1017.2</ele>
        <time>2021-08-08T12:01:27Z</time>
      </trkpt>
      <trkpt lat="45.79351" lon="2.9369">
        <ele>1015.4</ele>
        <time>2021-08-08T12:01:33Z</time>
      </trkpt>
      <trkpt lat="45.79351" lon="2.93696">
        <ele>1015.3</ele>
        <time>2021-08-08T12:01:37Z</time>
      </trkpt>
      <trkpt lat="45.79352" lon="2.93707">
        <ele>1017.2</ele>
        <time>2021-08-08T12:01:46Z</time>
      </trkpt>
      <trkpt lat="45.79352" lon="2.93709">
        <ele>1017.4</ele>
        <time>2021-08-08T12:01:47Z</time>
      </trkpt>
      <trkpt lat="45.79351" lon="2.9371">
        <ele>1017.7</ele>
        <time>2021-08-08T12:01:48Z</time>
      </trkpt>
      <trkpt lat="45.79351" lon="2.93713">
        <ele>1017.6</ele>
        <time>2021-08-08T12:01:53Z</time>
      </trkpt>
      <trkpt lat="45.79349" lon="2.93714">
        <ele>1018.3</ele>
        <time>2021-08-08T12:01:59Z</time>
      </trkpt>
      <trkpt lat="45.79347" lon="2.93715">
        <ele>1017.2</ele>
        <time>2021-08-08T12:02:06Z</time>
      </trkpt>
      <trkpt lat="45.79343" lon="2.93728">
        <ele>1017.8</ele>
        <time>2021-08-08T12:02:12Z</time>
      </trkpt>
      <trkpt lat="45.79343" lon="2.93729">
        <ele>1018</ele>
        <time>2021-08-08T12:02:13Z</time>
      </trkpt>
      <trkpt lat="45.79345" lon="2.93731">
        <ele>1015.3</ele>
        <time>2021-08-08T12:02:54Z</time>
      </trkpt>
      <trkpt lat="45.79345" lon="2.93743">
        <ele>1014.4</ele>
        <time>2021-08-08T12:02:55Z</time>
      </trkpt>
      <trkpt lat="45.79346" lon="2.93746">
        <ele>1014.2</ele>
        <time>2021-08-08T12:03:25Z</time>
      </trkpt>
      <trkpt lat="45.79347" lon="2.9376">
        <ele>1015.1</ele>
        <time>2021-08-08T12:03:26Z</time>
      </trkpt>
      <trkpt lat="45.79344" lon="2.93761">
        <ele>1015.3</ele>
        <time>2021-08-08T12:04:15Z</time>
      </trkpt>
      <trkpt lat="45.79353" lon="2.93762">
        <ele>1016.7</ele>
        <time>2021-08-08T12:04:16Z</time>
      </trkpt>
      <trkpt lat="45.79356" lon="2.9376">
        <ele>1016.5</ele>
        <time>2021-08-08T12:04:19Z</time>
      </trkpt>
      <trkpt lat="45.79356" lon="2.9376">
        <ele>1016.5</ele>
        <time>2021-08-08T12:04:20Z</time>
      </trkpt>
      <trkpt lat="45.79349" lon="2.93761">
        <ele>1014.4</ele>
        <time>2021-08-08T12:04:41Z</time>
      </trkpt>
      <trkpt lat="45.79346" lon="2.9376">
        <ele>1014.1</ele>
        <time>2021-08-08T12:04:43Z</time>
      </trkpt>
      <trkpt lat="45.79343" lon="2.93761">
        <ele>1014.5</ele>
        <time>2021-08-08T12:04:45Z</time>
      </trkpt>
      <trkpt lat="45.79339" lon="2.9376">
        <ele>1014.9</ele>
        <time>2021-08-08T12:04:47Z</time>
      </trkpt>
      <trkpt lat="45.79338" lon="2.93761">
        <ele>1014.8</ele>
        <time>2021-08-08T12:04:48Z</time>
      </trkpt>
      <trkpt lat="45.79337" lon="2.93761">
        <ele>1014.7</ele>
        <time>2021-08-08T12:04:49Z</time>
      </trkpt>
      <trkpt lat="45.79336" lon="2.93761">
        <ele>1014.8</ele>
        <time>2021-08-08T12:04:50Z</time>
      </trkpt>
      <trkpt lat="45.79332" lon="2.93764">
        <ele>1014.3</ele>
        <time>2021-08-08T12:04:55Z</time>
      </trkpt>
      <trkpt lat="45.7933" lon="2.93767">
        <ele>1013.6</ele>
        <time>2021-08-08T12:04:59Z</time>
      </trkpt>
      <trkpt lat="45.79326" lon="2.93767">
        <ele>1013.1</ele>
        <time>2021-08-08T12:05:06Z</time>
      </trkpt>
      <trkpt lat="45.79324" lon="2.93766">
        <ele>1012.6</ele>
        <time>2021-08-08T12:05:10Z</time>
      </trkpt>
      <trkpt lat="45.79321" lon="2.93767">
        <ele>1012.3</ele>
        <time>2021-08-08T12:05:13Z</time>
      </trkpt>
      <trkpt lat="45.7932" lon="2.93766">
        <ele>1012.5</ele>
        <time>2021-08-08T12:05:14Z</time>
      </trkpt>
      <trkpt lat="45.7932" lon="2.93766">
        <ele>1011.9</ele>
        <time>2021-08-08T12:05:15Z</time>
      </trkpt>
      <trkpt lat="45.7932" lon="2.93768">
        <ele>1012</ele>
        <time>2021-08-08T12:05:16Z</time>
      </trkpt>
      <trkpt lat="45.79313" lon="2.9377">
        <ele>1009.6</ele>
        <time>2021-08-08T12:05:25Z</time>
      </trkpt>
      <trkpt lat="45.79312" lon="2.93774">
        <ele>1008.8</ele>
        <time>2021-08-08T12:05:28Z</time>
      </trkpt>
      <trkpt lat="45.79307" lon="2.93778">
        <ele>1007.8</ele>
        <time>2021-08-08T12:05:31Z</time>
      </trkpt>
      <trkpt lat="45.79306" lon="2.93779">
        <ele>1007.7</ele>
        <time>2021-08-08T12:05:32Z</time>
      </trkpt>
      <trkpt lat="45.79303" lon="2.93781">
        <ele>1006.5</ele>
        <time>2021-08-08T12:05:35Z</time>
      </trkpt>
      <trkpt lat="45.79296" lon="2.93793">
        <ele>1003.6</ele>
        <time>2021-08-08T12:05:47Z</time>
      </trkpt>
      <trkpt lat="45.79294" lon="2.93798">
        <ele>1003.2</ele>
        <time>2021-08-08T12:05:50Z</time>
      </trkpt>
      <trkpt lat="45.79294" lon="2.93799">
        <ele>1003.1</ele>
        <time>2021-08-08T12:05:51Z</time>
      </trkpt>
      <trkpt lat="45.79294" lon="2.93808">
        <ele>1001.8</ele>
        <time>2021-08-08T12:05:57Z</time>
      </trkpt>
      <trkpt lat="45.79287" lon="2.93822">
        <ele>1001.1</ele>
        <time>2021-08-08T12:06:03Z</time>
      </trkpt>
      <trkpt lat="45.79285" lon="2.93826">
        <ele>1001.2</ele>
        <time>2021-08-08T12:06:04Z</time>
      </trkpt>
      <trkpt lat="45.79281" lon="2.93838">
        <ele>1001.8</ele>
        <time>2021-08-08T12:06:08Z</time>
      </trkpt>
      <trkpt lat="45.79276" lon="2.93843">
        <ele>1002</ele>
        <time>2021-08-08T12:06:12Z</time>
      </trkpt>
      <trkpt lat="45.79276" lon="2.93848">
        <ele>1002.3</ele>
        <time>2021-08-08T12:06:14Z</time>
      </trkpt>
      <trkpt lat="45.79275" lon="2.93849">
        <ele>1002.3</ele>
        <time>2021-08-08T12:06:15Z</time>
      </trkpt>
      <trkpt lat="45.79272" lon="2.93852">
        <ele>1002.1</ele>
        <time>2021-08-08T12:06:18Z</time>
      </trkpt>
      <trkpt lat="45.79268" lon="2.93858">
        <ele>1001.3</ele>
        <time>2021-08-08T12:06:24Z</time>
      </trkpt>
      <trkpt lat="45.79266" lon="2.93858">
        <ele>999.5</ele>
        <time>2021-08-08T12:06:28Z</time>
      </trkpt>
      <trkpt lat="45.79263" lon="2.93857">
        <ele>997.9</ele>
        <time>2021-08-08T12:06:32Z</time>
      </trkpt>
      <trkpt lat="45.79261" lon="2.93862">
        <ele>997.5</ele>
        <time>2021-08-08T12:06:35Z</time>
      </trkpt>
      <trkpt lat="45.79261" lon="2.93863">
        <ele>997.3</ele>
        <time>2021-08-08T12:06:36Z</time>
      </trkpt>
      <trkpt lat="45.79248" lon="2.93878">
        <ele>992.7</ele>
        <time>2021-08-08T12:06:52Z</time>
      </trkpt>
      <trkpt lat="45.79247" lon="2.93878">
        <ele>992.3</ele>
        <time>2021-08-08T12:06:53Z</time>
      </trkpt>
      <trkpt lat="45.7924" lon="2.93887">
        <ele>991</ele>
        <time>2021-08-08T12:06:58Z</time>
      </trkpt>
      <trkpt lat="45.79237" lon="2.93892">
        <ele>990.7</ele>
        <time>2021-08-08T12:07:00Z</time>
      </trkpt>
      <trkpt lat="45.79236" lon="2.93898">
        <ele>990.4</ele>
        <time>2021-08-08T12:07:02Z</time>
      </trkpt>
      <trkpt lat="45.79235" lon="2.93901">
        <ele>990.2</ele>
        <time>2021-08-08T12:07:03Z</time>
      </trkpt>
      <trkpt lat="45.79234" lon="2.93914">
        <ele>988.8</ele>
        <time>2021-08-08T12:07:08Z</time>
      </trkpt>
      <trkpt lat="45.7923" lon="2.93924">
        <ele>987.8</ele>
        <time>2021-08-08T12:07:12Z</time>
      </trkpt>
      <trkpt lat="45.79229" lon="2.93927">
        <ele>987.6</ele>
        <time>2021-08-08T12:07:13Z</time>
      </trkpt>
      <trkpt lat="45.79226" lon="2.93933">
        <ele>987</ele>
        <time>2021-08-08T12:07:15Z</time>
      </trkpt>
      <trkpt lat="45.79223" lon="2.93936">
        <ele>985.9</ele>
        <time>2021-08-08T12:07:17Z</time>
      </trkpt>
      <trkpt lat="45.79216" lon="2.9394">
        <ele>983.7</ele>
        <time>2021-08-08T12:07:22Z</time>
      </trkpt>
      <trkpt lat="45.79214" lon="2.93941">
        <ele>983.5</ele>
        <time>2021-08-08T12:07:23Z</time>
      </trkpt>
      <trkpt lat="45.79212" lon="2.93944">
        <ele>983.1</ele>
        <time>2021-08-08T12:07:25Z</time>
      </trkpt>
      <trkpt lat="45.79209" lon="2.93946">
        <ele>982.5</ele>
        <time>2021-08-08T12:07:27Z</time>
      </trkpt>
      <trkpt lat="45.79202" lon="2.93952">
        <ele>980.6</ele>
        <time>2021-08-08T12:07:33Z</time>
      </trkpt>
      <trkpt lat="45.79202" lon="2.93954">
        <ele>980.3</ele>
        <time>2021-08-08T12:07:34Z</time>
      </trkpt>
      <trkpt lat="45.79202" lon="2.93955">
        <ele>980.1</ele>
        <time>2021-08-08T12:07:35Z</time>
      </trkpt>
      <trkpt lat="45.79195" lon="2.93959">
        <ele>978.6</ele>
        <time>2021-08-08T12:07:40Z</time>
      </trkpt>
      <trkpt lat="45.7919" lon="2.9397">
        <ele>978.1</ele>
        <time>2021-08-08T12:07:46Z</time>
      </trkpt>
      <trkpt lat="45.7919" lon="2.93973">
        <ele>978.2</ele>
        <time>2021-08-08T12:07:47Z</time>
      </trkpt>
      <trkpt lat="45.79182" lon="2.93999">
        <ele>977.5</ele>
        <time>2021-08-08T12:07:58Z</time>
      </trkpt>
      <trkpt lat="45.7918" lon="2.94002">
        <ele>977.7</ele>
        <time>2021-08-08T12:07:59Z</time>
      </trkpt>
      <trkpt lat="45.79173" lon="2.94022">
        <ele>981.4</ele>
        <time>2021-08-08T12:08:11Z</time>
      </trkpt>
      <trkpt lat="45.79173" lon="2.94024">
        <ele>981.5</ele>
        <time>2021-08-08T12:08:12Z</time>
      </trkpt>
      <trkpt lat="45.79169" lon="2.94044">
        <ele>985.5</ele>
        <time>2021-08-08T12:08:24Z</time>
      </trkpt>
      <trkpt lat="45.7917" lon="2.94045">
        <ele>985.8</ele>
        <time>2021-08-08T12:08:25Z</time>
      </trkpt>
      <trkpt lat="45.7917" lon="2.94047">
        <ele>986.3</ele>
        <time>2021-08-08T12:08:26Z</time>
      </trkpt>
      <trkpt lat="45.79171" lon="2.94052">
        <ele>986.7</ele>
        <time>2021-08-08T12:08:33Z</time>
      </trkpt>
      <trkpt lat="45.79171" lon="2.94055">
        <ele>987.4</ele>
        <time>2021-08-08T12:08:34Z</time>
      </trkpt>
      <trkpt lat="45.7917" lon="2.94058">
        <ele>987.9</ele>
        <time>2021-08-08T12:08:36Z</time>
      </trkpt>
      <trkpt lat="45.79168" lon="2.94059">
        <ele>987.7</ele>
        <time>2021-08-08T12:08:37Z</time>
      </trkpt>
      <trkpt lat="45.79166" lon="2.94062">
        <ele>988.2</ele>
        <time>2021-08-08T12:08:39Z</time>
      </trkpt>
      <trkpt lat="45.79168" lon="2.94064">
        <ele>987.2</ele>
        <time>2021-08-08T12:08:42Z</time>
      </trkpt>
      <trkpt lat="45.79168" lon="2.9407">
        <ele>987.6</ele>
        <time>2021-08-08T12:08:47Z</time>
      </trkpt>
      <trkpt lat="45.79168" lon="2.9407">
        <ele>988.2</ele>
        <time>2021-08-08T12:08:48Z</time>
      </trkpt>
      <trkpt lat="45.79168" lon="2.94071">
        <ele>988.7</ele>
        <time>2021-08-08T12:08:49Z</time>
      </trkpt>
      <trkpt lat="45.79172" lon="2.94073">
        <ele>988.7</ele>
        <time>2021-08-08T12:08:55Z</time>
      </trkpt>
      <trkpt lat="45.79172" lon="2.94075">
        <ele>989.1</ele>
        <time>2021-08-08T12:09:04Z</time>
      </trkpt>
      <trkpt lat="45.79175" lon="2.94077">
        <ele>991</ele>
        <time>2021-08-08T12:09:05Z</time>
      </trkpt>
      <trkpt lat="45.79176" lon="2.94083">
        <ele>988.3</ele>
        <time>2021-08-08T12:09:20Z</time>
      </trkpt>
      <trkpt lat="45.79175" lon="2.94087">
        <ele>988.6</ele>
        <time>2021-08-08T12:09:22Z</time>
      </trkpt>
      <trkpt lat="45.79174" lon="2.94089">
        <ele>988.7</ele>
        <time>2021-08-08T12:09:23Z</time>
      </trkpt>
      <trkpt lat="45.79174" lon="2.94091">
        <ele>988.8</ele>
        <time>2021-08-08T12:09:24Z</time>
      </trkpt>
      <trkpt lat="45.79178" lon="2.941">
        <ele>989.2</ele>
        <time>2021-08-08T12:09:30Z</time>
      </trkpt>
      <trkpt lat="45.7918" lon="2.94105">
        <ele>989.6</ele>
        <time>2021-08-08T12:09:32Z</time>
      </trkpt>
      <trkpt lat="45.79183" lon="2.94107">
        <ele>989.3</ele>
        <time>2021-08-08T12:09:34Z</time>
      </trkpt>
      <trkpt lat="45.79184" lon="2.94108">
        <ele>989.1</ele>
        <time>2021-08-08T12:09:35Z</time>
      </trkpt>
      <trkpt lat="45.79186" lon="2.9412">
        <ele>988.6</ele>
        <time>2021-08-08T12:09:39Z</time>
      </trkpt>
      <trkpt lat="45.7918" lon="2.94133">
        <ele>988.7</ele>
        <time>2021-08-08T12:09:42Z</time>
      </trkpt>
      <trkpt lat="45.7918" lon="2.94138">
        <ele>988.9</ele>
        <time>2021-08-08T12:09:44Z</time>
      </trkpt>
      <trkpt lat="45.79179" lon="2.94141">
        <ele>988.9</ele>
        <time>2021-08-08T12:09:45Z</time>
      </trkpt>
      <trkpt lat="45.79178" lon="2.94168">
        <ele>987.4</ele>
        <time>2021-08-08T12:09:55Z</time>
      </trkpt>
      <trkpt lat="45.79178" lon="2.94169">
        <ele>987</ele>
        <time>2021-08-08T12:09:56Z</time>
      </trkpt>
      <trkpt lat="45.79177" lon="2.94172">
        <ele>987.1</ele>
        <time>2021-08-08T12:09:57Z</time>
      </trkpt>
      <trkpt lat="45.79177" lon="2.94175">
        <ele>987.2</ele>
        <time>2021-08-08T12:09:58Z</time>
      </trkpt>
      <trkpt lat="45.79175" lon="2.94181">
        <ele>987.4</ele>
        <time>2021-08-08T12:10:00Z</time>
      </trkpt>
      <trkpt lat="45.79177" lon="2.94197">
        <ele>987.7</ele>
        <time>2021-08-08T12:10:08Z</time>
      </trkpt>
      <trkpt lat="45.79177" lon="2.94199">
        <ele>987.9</ele>
        <time>2021-08-08T12:10:09Z</time>
      </trkpt>
      <trkpt lat="45.79177" lon="2.94205">
        <ele>987.8</ele>
        <time>2021-08-08T12:10:12Z</time>
      </trkpt>
      <trkpt lat="45.7918" lon="2.94213">
        <ele>987.4</ele>
        <time>2021-08-08T12:10:18Z</time>
      </trkpt>
      <trkpt lat="45.7918" lon="2.94215">
        <ele>987.3</ele>
        <time>2021-08-08T12:10:19Z</time>
      </trkpt>
      <trkpt lat="45.79185" lon="2.94216">
        <ele>986</ele>
        <time>2021-08-08T12:10:22Z</time>
      </trkpt>
      <trkpt lat="45.79187" lon="2.94217">
        <ele>985.7</ele>
        <time>2021-08-08T12:10:23Z</time>
      </trkpt>
      <trkpt lat="45.79191" lon="2.94221">
        <ele>984.9</ele>
        <time>2021-08-08T12:10:26Z</time>
      </trkpt>
      <trkpt lat="45.79194" lon="2.94226">
        <ele>984.3</ele>
        <time>2021-08-08T12:10:30Z</time>
      </trkpt>
      <trkpt lat="45.79198" lon="2.94228">
        <ele>984.9</ele>
        <time>2021-08-08T12:10:41Z</time>
      </trkpt>
      <trkpt lat="45.79199" lon="2.9423">
        <ele>985</ele>
        <time>2021-08-08T12:10:44Z</time>
      </trkpt>
      <trkpt lat="45.79195" lon="2.94233">
        <ele>984.7</ele>
        <time>2021-08-08T12:10:45Z</time>
      </trkpt>
      <trkpt lat="45.79192" lon="2.94235">
        <ele>984.5</ele>
        <time>2021-08-08T12:10:46Z</time>
      </trkpt>
      <trkpt lat="45.79182" lon="2.94249">
        <ele>985.1</ele>
        <time>2021-08-08T12:10:54Z</time>
      </trkpt>
      <trkpt lat="45.79178" lon="2.94253">
        <ele>983.8</ele>
        <time>2021-08-08T12:10:57Z</time>
      </trkpt>
      <trkpt lat="45.79177" lon="2.94254">
        <ele>983.5</ele>
        <time>2021-08-08T12:10:58Z</time>
      </trkpt>
      <trkpt lat="45.79175" lon="2.94257">
        <ele>983.9</ele>
        <time>2021-08-08T12:11:00Z</time>
      </trkpt>
      <trkpt lat="45.79174" lon="2.94263">
        <ele>984.3</ele>
        <time>2021-08-08T12:11:03Z</time>
      </trkpt>
      <trkpt lat="45.7917" lon="2.94268">
        <ele>984.4</ele>
        <time>2021-08-08T12:11:08Z</time>
      </trkpt>
      <trkpt lat="45.7917" lon="2.94271">
        <ele>984</ele>
        <time>2021-08-08T12:11:11Z</time>
      </trkpt>
      <trkpt lat="45.79171" lon="2.94272">
        <ele>983.7</ele>
        <time>2021-08-08T12:11:12Z</time>
      </trkpt>
      <trkpt lat="45.79168" lon="2.94275">
        <ele>982.9</ele>
        <time>2021-08-08T12:11:13Z</time>
      </trkpt>
      <trkpt lat="45.79168" lon="2.94282">
        <ele>983.2</ele>
        <time>2021-08-08T12:11:20Z</time>
      </trkpt>
      <trkpt lat="45.79172" lon="2.94291">
        <ele>981.8</ele>
        <time>2021-08-08T12:11:26Z</time>
      </trkpt>
      <trkpt lat="45.79172" lon="2.94295">
        <ele>980.2</ele>
        <time>2021-08-08T12:11:29Z</time>
      </trkpt>
      <trkpt lat="45.79173" lon="2.94297">
        <ele>979.7</ele>
        <time>2021-08-08T12:11:30Z</time>
      </trkpt>
      <trkpt lat="45.79174" lon="2.94301">
        <ele>978.2</ele>
        <time>2021-08-08T12:11:33Z</time>
      </trkpt>
      <trkpt lat="45.79167" lon="2.94314">
        <ele>975.2</ele>
        <time>2021-08-08T12:11:39Z</time>
      </trkpt>
      <trkpt lat="45.79165" lon="2.9432">
        <ele>974</ele>
        <time>2021-08-08T12:11:42Z</time>
      </trkpt>
      <trkpt lat="45.79165" lon="2.94322">
        <ele>974</ele>
        <time>2021-08-08T12:11:43Z</time>
      </trkpt>
      <trkpt lat="45.79163" lon="2.9433">
        <ele>974.2</ele>
        <time>2021-08-08T12:11:46Z</time>
      </trkpt>
      <trkpt lat="45.79164" lon="2.94335">
        <ele>973.8</ele>
        <time>2021-08-08T12:11:49Z</time>
      </trkpt>
      <trkpt lat="45.79163" lon="2.94339">
        <ele>973.1</ele>
        <time>2021-08-08T12:11:51Z</time>
      </trkpt>
      <trkpt lat="45.79161" lon="2.94341">
        <ele>972.7</ele>
        <time>2021-08-08T12:11:52Z</time>
      </trkpt>
      <trkpt lat="45.7916" lon="2.94345">
        <ele>972.2</ele>
        <time>2021-08-08T12:11:54Z</time>
      </trkpt>
      <trkpt lat="45.7916" lon="2.94347">
        <ele>972.1</ele>
        <time>2021-08-08T12:11:55Z</time>
      </trkpt>
      <trkpt lat="45.79164" lon="2.94359">
        <ele>971.2</ele>
        <time>2021-08-08T12:12:01Z</time>
      </trkpt>
      <trkpt lat="45.79166" lon="2.94363">
        <ele>970.8</ele>
        <time>2021-08-08T12:12:03Z</time>
      </trkpt>
      <trkpt lat="45.79168" lon="2.94368">
        <ele>970.8</ele>
        <time>2021-08-08T12:12:05Z</time>
      </trkpt>
      <trkpt lat="45.79169" lon="2.94369">
        <ele>970.4</ele>
        <time>2021-08-08T12:12:06Z</time>
      </trkpt>
      <trkpt lat="45.79169" lon="2.94371">
        <ele>969.9</ele>
        <time>2021-08-08T12:12:07Z</time>
      </trkpt>
      <trkpt lat="45.79171" lon="2.9437">
        <ele>969.6</ele>
        <time>2021-08-08T12:12:08Z</time>
      </trkpt>
      <trkpt lat="45.79173" lon="2.94376">
        <ele>967.8</ele>
        <time>2021-08-08T12:12:14Z</time>
      </trkpt>
      <trkpt lat="45.79175" lon="2.94376">
        <ele>966.6</ele>
        <time>2021-08-08T12:12:16Z</time>
      </trkpt>
      <trkpt lat="45.79174" lon="2.94387">
        <ele>964.7</ele>
        <time>2021-08-08T12:12:23Z</time>
      </trkpt>
      <trkpt lat="45.79175" lon="2.94389">
        <ele>964.3</ele>
        <time>2021-08-08T12:12:24Z</time>
      </trkpt>
      <trkpt lat="45.79178" lon="2.94392">
        <ele>963.5</ele>
        <time>2021-08-08T12:12:27Z</time>
      </trkpt>
      <trkpt lat="45.79183" lon="2.94391">
        <ele>962.5</ele>
        <time>2021-08-08T12:12:31Z</time>
      </trkpt>
      <trkpt lat="45.79188" lon="2.94397">
        <ele>962</ele>
        <time>2021-08-08T12:12:36Z</time>
      </trkpt>
      <trkpt lat="45.79189" lon="2.94399">
        <ele>961.8</ele>
        <time>2021-08-08T12:12:37Z</time>
      </trkpt>
      <trkpt lat="45.7919" lon="2.94407">
        <ele>961.9</ele>
        <time>2021-08-08T12:12:41Z</time>
      </trkpt>
      <trkpt lat="45.79192" lon="2.94415">
        <ele>962.3</ele>
        <time>2021-08-08T12:12:44Z</time>
      </trkpt>
      <trkpt lat="45.79192" lon="2.9442">
        <ele>962.6</ele>
        <time>2021-08-08T12:12:46Z</time>
      </trkpt>
      <trkpt lat="45.79193" lon="2.94423">
        <ele>962.6</ele>
        <time>2021-08-08T12:12:47Z</time>
      </trkpt>
      <trkpt lat="45.79194" lon="2.94426">
        <ele>963</ele>
        <time>2021-08-08T12:12:48Z</time>
      </trkpt>
      <trkpt lat="45.79197" lon="2.94429">
        <ele>963.2</ele>
        <time>2021-08-08T12:12:51Z</time>
      </trkpt>
      <trkpt lat="45.79199" lon="2.9443">
        <ele>963.2</ele>
        <time>2021-08-08T12:12:53Z</time>
      </trkpt>
      <trkpt lat="45.79204" lon="2.94431">
        <ele>963.5</ele>
        <time>2021-08-08T12:12:55Z</time>
      </trkpt>
      <trkpt lat="45.79205" lon="2.94432">
        <ele>964</ele>
        <time>2021-08-08T12:12:58Z</time>
      </trkpt>
      <trkpt lat="45.79208" lon="2.94433">
        <ele>964.6</ele>
        <time>2021-08-08T12:13:00Z</time>
      </trkpt>
      <trkpt lat="45.79209" lon="2.94437">
        <ele>964.8</ele>
        <time>2021-08-08T12:13:03Z</time>
      </trkpt>
      <trkpt lat="45.7921" lon="2.94438">
        <ele>964.8</ele>
        <time>2021-08-08T12:13:04Z</time>
      </trkpt>
      <trkpt lat="45.79211" lon="2.9444">
        <ele>965</ele>
        <time>2021-08-08T12:13:05Z</time>
      </trkpt>
      <trkpt lat="45.79215" lon="2.94444">
        <ele>964.7</ele>
        <time>2021-08-08T12:13:08Z</time>
      </trkpt>
      <trkpt lat="45.79216" lon="2.94447">
        <ele>964.4</ele>
        <time>2021-08-08T12:13:09Z</time>
      </trkpt>
      <trkpt lat="45.79215" lon="2.94458">
        <ele>964</ele>
        <time>2021-08-08T12:13:13Z</time>
      </trkpt>
      <trkpt lat="45.79215" lon="2.9446">
        <ele>963.8</ele>
        <time>2021-08-08T12:13:14Z</time>
      </trkpt>
      <trkpt lat="45.79215" lon="2.94461">
        <ele>963.8</ele>
        <time>2021-08-08T12:13:15Z</time>
      </trkpt>
      <trkpt lat="45.79213" lon="2.94462">
        <ele>963.8</ele>
        <time>2021-08-08T12:13:19Z</time>
      </trkpt>
      <trkpt lat="45.79204" lon="2.94464">
        <ele>964.2</ele>
        <time>2021-08-08T12:13:28Z</time>
      </trkpt>
      <trkpt lat="45.79199" lon="2.94462">
        <ele>965.8</ele>
        <time>2021-08-08T12:13:35Z</time>
      </trkpt>
      <trkpt lat="45.79198" lon="2.9446">
        <ele>966.1</ele>
        <time>2021-08-08T12:13:36Z</time>
      </trkpt>
      <trkpt lat="45.79194" lon="2.94452">
        <ele>966.3</ele>
        <time>2021-08-08T12:13:41Z</time>
      </trkpt>
      <trkpt lat="45.79185" lon="2.94449">
        <ele>967.3</ele>
        <time>2021-08-08T12:13:46Z</time>
      </trkpt>
      <trkpt lat="45.79184" lon="2.94448">
        <ele>967.5</ele>
        <time>2021-08-08T12:13:47Z</time>
      </trkpt>
      <trkpt lat="45.79177" lon="2.94447">
        <ele>968.9</ele>
        <time>2021-08-08T12:13:53Z</time>
      </trkpt>
      <trkpt lat="45.7917" lon="2.94442">
        <ele>969.4</ele>
        <time>2021-08-08T12:14:00Z</time>
      </trkpt>
      <trkpt lat="45.79169" lon="2.94441">
        <ele>969.3</ele>
        <time>2021-08-08T12:14:01Z</time>
      </trkpt>
      <trkpt lat="45.79169" lon="2.94438">
        <ele>968.8</ele>
        <time>2021-08-08T12:14:02Z</time>
      </trkpt>
      <trkpt lat="45.79167" lon="2.94437">
        <ele>969.1</ele>
        <time>2021-08-08T12:14:03Z</time>
      </trkpt>
      <trkpt lat="45.79166" lon="2.94435">
        <ele>969.1</ele>
        <time>2021-08-08T12:14:05Z</time>
      </trkpt>
      <trkpt lat="45.79164" lon="2.94417">
        <ele>967.9</ele>
        <time>2021-08-08T12:14:16Z</time>
      </trkpt>
      <trkpt lat="45.79163" lon="2.94416">
        <ele>968</ele>
        <time>2021-08-08T12:14:17Z</time>
      </trkpt>
      <trkpt lat="45.79162" lon="2.94413">
        <ele>967.1</ele>
        <time>2021-08-08T12:14:23Z</time>
      </trkpt>
      <trkpt lat="45.79157" lon="2.94413">
        <ele>967</ele>
        <time>2021-08-08T12:14:26Z</time>
      </trkpt>
      <trkpt lat="45.79153" lon="2.94412">
        <ele>966.9</ele>
        <time>2021-08-08T12:14:29Z</time>
      </trkpt>
      <trkpt lat="45.7915" lon="2.94412">
        <ele>967</ele>
        <time>2021-08-08T12:14:33Z</time>
      </trkpt>
      <trkpt lat="45.79151" lon="2.94412">
        <ele>966.7</ele>
        <time>2021-08-08T12:14:34Z</time>
      </trkpt>
      <trkpt lat="45.7915" lon="2.94415">
        <ele>964.9</ele>
        <time>2021-08-08T12:14:43Z</time>
      </trkpt>
      <trkpt lat="45.79148" lon="2.94417">
        <ele>963.8</ele>
        <time>2021-08-08T12:14:47Z</time>
      </trkpt>
      <trkpt lat="45.79143" lon="2.94417">
        <ele>963.5</ele>
        <time>2021-08-08T12:14:50Z</time>
      </trkpt>
      <trkpt lat="45.79137" lon="2.94419">
        <ele>963</ele>
        <time>2021-08-08T12:14:53Z</time>
      </trkpt>
      <trkpt lat="45.79134" lon="2.94417">
        <ele>963</ele>
        <time>2021-08-08T12:14:54Z</time>
      </trkpt>
      <trkpt lat="45.79131" lon="2.94416">
        <ele>963.4</ele>
        <time>2021-08-08T12:14:55Z</time>
      </trkpt>
      <trkpt lat="45.79126" lon="2.9441">
        <ele>961.5</ele>
        <time>2021-08-08T12:14:58Z</time>
      </trkpt>
      <trkpt lat="45.79119" lon="2.9441">
        <ele>961.8</ele>
        <time>2021-08-08T12:15:01Z</time>
      </trkpt>
      <trkpt lat="45.79114" lon="2.94409">
        <ele>962.6</ele>
        <time>2021-08-08T12:15:04Z</time>
      </trkpt>
      <trkpt lat="45.7911" lon="2.94413">
        <ele>962.5</ele>
        <time>2021-08-08T12:15:05Z</time>
      </trkpt>
      <trkpt lat="45.79106" lon="2.94415">
        <ele>962.9</ele>
        <time>2021-08-08T12:15:08Z</time>
      </trkpt>
      <trkpt lat="45.791" lon="2.94414">
        <ele>963.7</ele>
        <time>2021-08-08T12:15:12Z</time>
      </trkpt>
      <trkpt lat="45.79092" lon="2.94417">
        <ele>964.6</ele>
        <time>2021-08-08T12:15:15Z</time>
      </trkpt>
      <trkpt lat="45.79088" lon="2.94417">
        <ele>964.9</ele>
        <time>2021-08-08T12:15:16Z</time>
      </trkpt>
      <trkpt lat="45.79082" lon="2.9442">
        <ele>965.6</ele>
        <time>2021-08-08T12:15:18Z</time>
      </trkpt>
      <trkpt lat="45.79074" lon="2.94416">
        <ele>967.1</ele>
        <time>2021-08-08T12:15:20Z</time>
      </trkpt>
      <trkpt lat="45.79071" lon="2.94415">
        <ele>967.8</ele>
        <time>2021-08-08T12:15:21Z</time>
      </trkpt>
      <trkpt lat="45.79066" lon="2.94411">
        <ele>968.8</ele>
        <time>2021-08-08T12:15:23Z</time>
      </trkpt>
      <trkpt lat="45.7906" lon="2.9441">
        <ele>969.9</ele>
        <time>2021-08-08T12:15:25Z</time>
      </trkpt>
      <trkpt lat="45.79057" lon="2.9441">
        <ele>970.4</ele>
        <time>2021-08-08T12:15:26Z</time>
      </trkpt>
      <trkpt lat="45.79052" lon="2.94409">
        <ele>972</ele>
        <time>2021-08-08T12:15:28Z</time>
      </trkpt>
      <trkpt lat="45.79046" lon="2.94405">
        <ele>975</ele>
        <time>2021-08-08T12:15:33Z</time>
      </trkpt>
      <trkpt lat="45.79044" lon="2.94407">
        <ele>975.9</ele>
        <time>2021-08-08T12:15:35Z</time>
      </trkpt>
      <trkpt lat="45.79042" lon="2.94407">
        <ele>978.1</ele>
        <time>2021-08-08T12:15:37Z</time>
      </trkpt>
      <trkpt lat="45.79039" lon="2.94408">
        <ele>979.2</ele>
        <time>2021-08-08T12:15:38Z</time>
      </trkpt>
      <trkpt lat="45.79038" lon="2.94407">
        <ele>980.1</ele>
        <time>2021-08-08T12:15:39Z</time>
      </trkpt>
      <trkpt lat="45.79037" lon="2.94406">
        <ele>980.7</ele>
        <time>2021-08-08T12:15:40Z</time>
      </trkpt>
      <trkpt lat="45.79032" lon="2.94406">
        <ele>981.7</ele>
        <time>2021-08-08T12:15:42Z</time>
      </trkpt>
      <trkpt lat="45.7903" lon="2.94403">
        <ele>983.4</ele>
        <time>2021-08-08T12:15:44Z</time>
      </trkpt>
      <trkpt lat="45.79028" lon="2.94404">
        <ele>985.1</ele>
        <time>2021-08-08T12:15:47Z</time>
      </trkpt>
      <trkpt lat="45.79026" lon="2.94402">
        <ele>987</ele>
        <time>2021-08-08T12:15:52Z</time>
      </trkpt>
      <trkpt lat="45.79022" lon="2.94402">
        <ele>988.9</ele>
        <time>2021-08-08T12:15:57Z</time>
      </trkpt>
      <trkpt lat="45.79019" lon="2.94404">
        <ele>990.2</ele>
        <time>2021-08-08T12:16:01Z</time>
      </trkpt>
      <trkpt lat="45.79018" lon="2.94404">
        <ele>990.5</ele>
        <time>2021-08-08T12:16:02Z</time>
      </trkpt>
      <trkpt lat="45.79015" lon="2.94404">
        <ele>992.5</ele>
        <time>2021-08-08T12:16:07Z</time>
      </trkpt>
      <trkpt lat="45.79009" lon="2.94398">
        <ele>994</ele>
        <time>2021-08-08T12:16:12Z</time>
      </trkpt>
      <trkpt lat="45.79002" lon="2.944">
        <ele>995.7</ele>
        <time>2021-08-08T12:16:17Z</time>
      </trkpt>
      <trkpt lat="45.79" lon="2.94398">
        <ele>996.3</ele>
        <time>2021-08-08T12:16:18Z</time>
      </trkpt>
      <trkpt lat="45.78994" lon="2.94398">
        <ele>998.5</ele>
        <time>2021-08-08T12:16:23Z</time>
      </trkpt>
      <trkpt lat="45.78984" lon="2.94405">
        <ele>1001.1</ele>
        <time>2021-08-08T12:16:30Z</time>
      </trkpt>
      <trkpt lat="45.78983" lon="2.94405">
        <ele>1001.5</ele>
        <time>2021-08-08T12:16:31Z</time>
      </trkpt>
      <trkpt lat="45.78979" lon="2.94406">
        <ele>1002.5</ele>
        <time>2021-08-08T12:16:34Z</time>
      </trkpt>
      <trkpt lat="45.78972" lon="2.9441">
        <ele>1003.9</ele>
        <time>2021-08-08T12:16:36Z</time>
      </trkpt>
      <trkpt lat="45.78968" lon="2.94406">
        <ele>1005.3</ele>
        <time>2021-08-08T12:16:39Z</time>
      </trkpt>
      <trkpt lat="45.78964" lon="2.94406">
        <ele>1006.2</ele>
        <time>2021-08-08T12:16:41Z</time>
      </trkpt>
      <trkpt lat="45.78962" lon="2.94405">
        <ele>1005.2</ele>
        <time>2021-08-08T12:16:42Z</time>
      </trkpt>
      <trkpt lat="45.78956" lon="2.94408">
        <ele>1008</ele>
        <time>2021-08-08T12:16:46Z</time>
      </trkpt>
      <trkpt lat="45.78952" lon="2.94408">
        <ele>1008.7</ele>
        <time>2021-08-08T12:16:49Z</time>
      </trkpt>
      <trkpt lat="45.78949" lon="2.94406">
        <ele>1009.9</ele>
        <time>2021-08-08T12:16:52Z</time>
      </trkpt>
      <trkpt lat="45.78946" lon="2.94406">
        <ele>1010.1</ele>
        <time>2021-08-08T12:16:53Z</time>
      </trkpt>
      <trkpt lat="45.78944" lon="2.94406">
        <ele>1010.7</ele>
        <time>2021-08-08T12:16:54Z</time>
      </trkpt>
      <trkpt lat="45.78941" lon="2.94408">
        <ele>1012.5</ele>
        <time>2021-08-08T12:16:56Z</time>
      </trkpt>
      <trkpt lat="45.78933" lon="2.94407">
        <ele>1015.6</ele>
        <time>2021-08-08T12:17:02Z</time>
      </trkpt>
      <trkpt lat="45.78928" lon="2.94406">
        <ele>1016.9</ele>
        <time>2021-08-08T12:17:05Z</time>
      </trkpt>
      <trkpt lat="45.78926" lon="2.94406">
        <ele>1017.5</ele>
        <time>2021-08-08T12:17:06Z</time>
      </trkpt>
      <trkpt lat="45.78924" lon="2.94405">
        <ele>1018</ele>
        <time>2021-08-08T12:17:07Z</time>
      </trkpt>
      <trkpt lat="45.78913" lon="2.94407">
        <ele>1020.7</ele>
        <time>2021-08-08T12:17:13Z</time>
      </trkpt>
      <trkpt lat="45.78912" lon="2.94408">
        <ele>1021.3</ele>
        <time>2021-08-08T12:17:14Z</time>
      </trkpt>
      <trkpt lat="45.78908" lon="2.94407">
        <ele>1023.9</ele>
        <time>2021-08-08T12:17:17Z</time>
      </trkpt>
      <trkpt lat="45.78907" lon="2.94407">
        <ele>1024.6</ele>
        <time>2021-08-08T12:17:18Z</time>
      </trkpt>
      <trkpt lat="45.78903" lon="2.94409">
        <ele>1027.9</ele>
        <time>2021-08-08T12:17:27Z</time>
      </trkpt>
      <trkpt lat="45.78901" lon="2.94408">
        <ele>1028.2</ele>
        <time>2021-08-08T12:17:29Z</time>
      </trkpt>
      <trkpt lat="45.78898" lon="2.94409">
        <ele>1028.9</ele>
        <time>2021-08-08T12:17:38Z</time>
      </trkpt>
      <trkpt lat="45.78895" lon="2.94408">
        <ele>1029</ele>
        <time>2021-08-08T12:17:46Z</time>
      </trkpt>
      <trkpt lat="45.7889" lon="2.94401">
        <ele>1030.4</ele>
        <time>2021-08-08T12:17:54Z</time>
      </trkpt>
      <trkpt lat="45.78889" lon="2.94404">
        <ele>1030.3</ele>
        <time>2021-08-08T12:17:55Z</time>
      </trkpt>
      <trkpt lat="45.78889" lon="2.94401">
        <ele>1031</ele>
        <time>2021-08-08T12:18:00Z</time>
      </trkpt>
      <trkpt lat="45.78887" lon="2.94404">
        <ele>1031.7</ele>
        <time>2021-08-08T12:18:01Z</time>
      </trkpt>
      <trkpt lat="45.78885" lon="2.94415">
        <ele>1033.9</ele>
        <time>2021-08-08T12:18:07Z</time>
      </trkpt>
      <trkpt lat="45.78886" lon="2.94419">
        <ele>1034.6</ele>
        <time>2021-08-08T12:18:10Z</time>
      </trkpt>
      <trkpt lat="45.78886" lon="2.94419">
        <ele>1035.2</ele>
        <time>2021-08-08T12:18:11Z</time>
      </trkpt>
      <trkpt lat="45.78885" lon="2.94421">
        <ele>1037.5</ele>
        <time>2021-08-08T12:18:41Z</time>
      </trkpt>
      <trkpt lat="45.78886" lon="2.94415">
        <ele>1039.8</ele>
        <time>2021-08-08T12:18:42Z</time>
      </trkpt>
      <trkpt lat="45.78891" lon="2.94406">
        <ele>1040.7</ele>
        <time>2021-08-08T12:18:54Z</time>
      </trkpt>
      <trkpt lat="45.78892" lon="2.944">
        <ele>1039.7</ele>
        <time>2021-08-08T12:18:57Z</time>
      </trkpt>
      <trkpt lat="45.78891" lon="2.94399">
        <ele>1039.8</ele>
        <time>2021-08-08T12:18:58Z</time>
      </trkpt>
      <trkpt lat="45.78891" lon="2.94397">
        <ele>1040.3</ele>
        <time>2021-08-08T12:19:04Z</time>
      </trkpt>
      <trkpt lat="45.78888" lon="2.94394">
        <ele>1040.3</ele>
        <time>2021-08-08T12:19:05Z</time>
      </trkpt>
      <trkpt lat="45.78889" lon="2.94396">
        <ele>1040.1</ele>
        <time>2021-08-08T12:19:10Z</time>
      </trkpt>
      <trkpt lat="45.78885" lon="2.94399">
        <ele>1039.9</ele>
        <time>2021-08-08T12:19:11Z</time>
      </trkpt>
      <trkpt lat="45.78882" lon="2.94398">
        <ele>1039.8</ele>
        <time>2021-08-08T12:19:12Z</time>
      </trkpt>
      <trkpt lat="45.78884" lon="2.94406">
        <ele>1038.8</ele>
        <time>2021-08-08T12:19:16Z</time>
      </trkpt>
      <trkpt lat="45.78884" lon="2.94406">
        <ele>1038.5</ele>
        <time>2021-08-08T12:19:17Z</time>
      </trkpt>
      <trkpt lat="45.78883" lon="2.94412">
        <ele>1038.1</ele>
        <time>2021-08-08T12:19:18Z</time>
      </trkpt>
      <trkpt lat="45.78883" lon="2.94406">
        <ele>1036</ele>
        <time>2021-08-08T12:19:34Z</time>
      </trkpt>
      <trkpt lat="45.78888" lon="2.94408">
        <ele>1037.5</ele>
        <time>2021-08-08T12:19:39Z</time>
      </trkpt>
      <trkpt lat="45.78889" lon="2.94411">
        <ele>1037.8</ele>
        <time>2021-08-08T12:19:43Z</time>
      </trkpt>
      <trkpt lat="45.78893" lon="2.94415">
        <ele>1039.3</ele>
        <time>2021-08-08T12:19:46Z</time>
      </trkpt>
      <trkpt lat="45.78893" lon="2.94417">
        <ele>1039.7</ele>
        <time>2021-08-08T12:19:47Z</time>
      </trkpt>
      <trkpt lat="45.78896" lon="2.94423">
        <ele>1041.3</ele>
        <time>2021-08-08T12:19:51Z</time>
      </trkpt>
      <trkpt lat="45.78896" lon="2.94426">
        <ele>1041.6</ele>
        <time>2021-08-08T12:19:52Z</time>
      </trkpt>
      <trkpt lat="45.78897" lon="2.94429">
        <ele>1042.1</ele>
        <time>2021-08-08T12:19:54Z</time>
      </trkpt>
      <trkpt lat="45.78897" lon="2.94432">
        <ele>1042.1</ele>
        <time>2021-08-08T12:19:55Z</time>
      </trkpt>
      <trkpt lat="45.78899" lon="2.94435">
        <ele>1042.7</ele>
        <time>2021-08-08T12:19:57Z</time>
      </trkpt>
      <trkpt lat="45.789" lon="2.94436">
        <ele>1042.8</ele>
        <time>2021-08-08T12:19:58Z</time>
      </trkpt>
      <trkpt lat="45.78903" lon="2.94441">
        <ele>1043.6</ele>
        <time>2021-08-08T12:20:02Z</time>
      </trkpt>
      <trkpt lat="45.78905" lon="2.94443">
        <ele>1043.6</ele>
        <time>2021-08-08T12:20:04Z</time>
      </trkpt>
      <trkpt lat="45.78909" lon="2.94448">
        <ele>1043.4</ele>
        <time>2021-08-08T12:20:09Z</time>
      </trkpt>
      <trkpt lat="45.78909" lon="2.94452">
        <ele>1042.9</ele>
        <time>2021-08-08T12:20:14Z</time>
      </trkpt>
      <trkpt lat="45.7891" lon="2.94453">
        <ele>1043</ele>
        <time>2021-08-08T12:20:15Z</time>
      </trkpt>
      <trkpt lat="45.7891" lon="2.94459">
        <ele>1043.7</ele>
        <time>2021-08-08T12:20:19Z</time>
      </trkpt>
      <trkpt lat="45.78913" lon="2.94464">
        <ele>1044</ele>
        <time>2021-08-08T12:20:21Z</time>
      </trkpt>
      <trkpt lat="45.78914" lon="2.94472">
        <ele>1044.6</ele>
        <time>2021-08-08T12:20:27Z</time>
      </trkpt>
      <trkpt lat="45.78914" lon="2.94474">
        <ele>1044.9</ele>
        <time>2021-08-08T12:20:28Z</time>
      </trkpt>
      <trkpt lat="45.78915" lon="2.94476">
        <ele>1044.9</ele>
        <time>2021-08-08T12:20:29Z</time>
      </trkpt>
      <trkpt lat="45.78913" lon="2.94482">
        <ele>1045.6</ele>
        <time>2021-08-08T12:20:34Z</time>
      </trkpt>
      <trkpt lat="45.78915" lon="2.94492">
        <ele>1046.7</ele>
        <time>2021-08-08T12:20:41Z</time>
      </trkpt>
      <trkpt lat="45.78918" lon="2.94498">
        <ele>1046.2</ele>
        <time>2021-08-08T12:20:44Z</time>
      </trkpt>
      <trkpt lat="45.78918" lon="2.945">
        <ele>1046</ele>
        <time>2021-08-08T12:20:45Z</time>
      </trkpt>
      <trkpt lat="45.78917" lon="2.94503">
        <ele>1045.7</ele>
        <time>2021-08-08T12:20:46Z</time>
      </trkpt>
      <trkpt lat="45.78915" lon="2.94529">
        <ele>1044</ele>
        <time>2021-08-08T12:20:55Z</time>
      </trkpt>
      <trkpt lat="45.78915" lon="2.9453">
        <ele>1043.7</ele>
        <time>2021-08-08T12:20:56Z</time>
      </trkpt>
      <trkpt lat="45.78914" lon="2.94534">
        <ele>1043.7</ele>
        <time>2021-08-08T12:20:58Z</time>
      </trkpt>
      <trkpt lat="45.78911" lon="2.9454">
        <ele>1043.1</ele>
        <time>2021-08-08T12:21:02Z</time>
      </trkpt>
      <trkpt lat="45.7891" lon="2.9455">
        <ele>1043.6</ele>
        <time>2021-08-08T12:21:06Z</time>
      </trkpt>
      <trkpt lat="45.7891" lon="2.9455">
        <ele>1043.2</ele>
        <time>2021-08-08T12:21:07Z</time>
      </trkpt>
      <trkpt lat="45.7891" lon="2.94552">
        <ele>1043.4</ele>
        <time>2021-08-08T12:21:08Z</time>
      </trkpt>
      <trkpt lat="45.78913" lon="2.94557">
        <ele>1044.5</ele>
        <time>2021-08-08T12:21:13Z</time>
      </trkpt>
      <trkpt lat="45.78913" lon="2.94569">
        <ele>1045.5</ele>
        <time>2021-08-08T12:21:21Z</time>
      </trkpt>
      <trkpt lat="45.78914" lon="2.94574">
        <ele>1045.7</ele>
        <time>2021-08-08T12:21:23Z</time>
      </trkpt>
      <trkpt lat="45.78915" lon="2.94576">
        <ele>1045.9</ele>
        <time>2021-08-08T12:21:24Z</time>
      </trkpt>
      <trkpt lat="45.78916" lon="2.94582">
        <ele>1046.5</ele>
        <time>2021-08-08T12:21:27Z</time>
      </trkpt>
      <trkpt lat="45.78915" lon="2.94588">
        <ele>1046.4</ele>
        <time>2021-08-08T12:21:29Z</time>
      </trkpt>
      <trkpt lat="45.78919" lon="2.94597">
        <ele>1047.9</ele>
        <time>2021-08-08T12:21:34Z</time>
      </trkpt>
      <trkpt lat="45.78919" lon="2.94599">
        <ele>1048.4</ele>
        <time>2021-08-08T12:21:35Z</time>
      </trkpt>
      <trkpt lat="45.78927" lon="2.94606">
        <ele>1051.2</ele>
        <time>2021-08-08T12:21:42Z</time>
      </trkpt>
      <trkpt lat="45.7893" lon="2.94611">
        <ele>1053</ele>
        <time>2021-08-08T12:21:47Z</time>
      </trkpt>
      <trkpt lat="45.78933" lon="2.94611">
        <ele>1055.2</ele>
        <time>2021-08-08T12:21:53Z</time>
      </trkpt>
      <trkpt lat="45.78935" lon="2.94612">
        <ele>1054.5</ele>
        <time>2021-08-08T12:21:54Z</time>
      </trkpt>
      <trkpt lat="45.78941" lon="2.94619">
        <ele>1053.8</ele>
        <time>2021-08-08T12:21:58Z</time>
      </trkpt>
      <trkpt lat="45.78945" lon="2.94626">
        <ele>1054.1</ele>
        <time>2021-08-08T12:22:03Z</time>
      </trkpt>
      <trkpt lat="45.78947" lon="2.9463">
        <ele>1054.1</ele>
        <time>2021-08-08T12:22:05Z</time>
      </trkpt>
      <trkpt lat="45.78947" lon="2.94634">
        <ele>1054.1</ele>
        <time>2021-08-08T12:22:06Z</time>
      </trkpt>
      <trkpt lat="45.78947" lon="2.94636">
        <ele>1054.2</ele>
        <time>2021-08-08T12:22:07Z</time>
      </trkpt>
      <trkpt lat="45.78949" lon="2.94645">
        <ele>1054.2</ele>
        <time>2021-08-08T12:22:11Z</time>
      </trkpt>
      <trkpt lat="45.78956" lon="2.94655">
        <ele>1054.1</ele>
        <time>2021-08-08T12:22:18Z</time>
      </trkpt>
      <trkpt lat="45.78956" lon="2.94656">
        <ele>1054</ele>
        <time>2021-08-08T12:22:19Z</time>
      </trkpt>
      <trkpt lat="45.78969" lon="2.94674">
        <ele>1057.9</ele>
        <time>2021-08-08T12:22:35Z</time>
      </trkpt>
      <trkpt lat="45.7897" lon="2.94675">
        <ele>1058.2</ele>
        <time>2021-08-08T12:22:36Z</time>
      </trkpt>
      <trkpt lat="45.78972" lon="2.9468">
        <ele>1058.9</ele>
        <time>2021-08-08T12:22:41Z</time>
      </trkpt>
      <trkpt lat="45.78974" lon="2.9468">
        <ele>1060</ele>
        <time>2021-08-08T12:22:45Z</time>
      </trkpt>
      <trkpt lat="45.78976" lon="2.94682">
        <ele>1060.8</ele>
        <time>2021-08-08T12:22:50Z</time>
      </trkpt>
      <trkpt lat="45.78977" lon="2.94691">
        <ele>1061.3</ele>
        <time>2021-08-08T12:22:56Z</time>
      </trkpt>
      <trkpt lat="45.78979" lon="2.94695">
        <ele>1062.1</ele>
        <time>2021-08-08T12:23:00Z</time>
      </trkpt>
      <trkpt lat="45.7898" lon="2.94696">
        <ele>1062.1</ele>
        <time>2021-08-08T12:23:01Z</time>
      </trkpt>
      <trkpt lat="45.7898" lon="2.94704">
        <ele>1063.1</ele>
        <time>2021-08-08T12:23:07Z</time>
      </trkpt>
      <trkpt lat="45.78982" lon="2.9471">
        <ele>1063.9</ele>
        <time>2021-08-08T12:23:13Z</time>
      </trkpt>
      <trkpt lat="45.78988" lon="2.94716">
        <ele>1066.8</ele>
        <time>2021-08-08T12:23:22Z</time>
      </trkpt>
      <trkpt lat="45.78989" lon="2.94715">
        <ele>1067.5</ele>
        <time>2021-08-08T12:23:23Z</time>
      </trkpt>
      <trkpt lat="45.7899" lon="2.94716">
        <ele>1067.6</ele>
        <time>2021-08-08T12:23:24Z</time>
      </trkpt>
      <trkpt lat="45.78992" lon="2.94724">
        <ele>1068.7</ele>
        <time>2021-08-08T12:23:29Z</time>
      </trkpt>
      <trkpt lat="45.78994" lon="2.94726">
        <ele>1070.3</ele>
        <time>2021-08-08T12:23:33Z</time>
      </trkpt>
      <trkpt lat="45.78995" lon="2.94732">
        <ele>1071.2</ele>
        <time>2021-08-08T12:23:37Z</time>
      </trkpt>
      <trkpt lat="45.78998" lon="2.94734">
        <ele>1071.9</ele>
        <time>2021-08-08T12:23:42Z</time>
      </trkpt>
      <trkpt lat="45.78998" lon="2.94735">
        <ele>1071.9</ele>
        <time>2021-08-08T12:23:43Z</time>
      </trkpt>
      <trkpt lat="45.79" lon="2.94739">
        <ele>1072.1</ele>
        <time>2021-08-08T12:23:47Z</time>
      </trkpt>
      <trkpt lat="45.79005" lon="2.94738">
        <ele>1073.2</ele>
        <time>2021-08-08T12:23:56Z</time>
      </trkpt>
      <trkpt lat="45.79008" lon="2.94746">
        <ele>1073.5</ele>
        <time>2021-08-08T12:24:02Z</time>
      </trkpt>
      <trkpt lat="45.7901" lon="2.94747">
        <ele>1073.5</ele>
        <time>2021-08-08T12:24:04Z</time>
      </trkpt>
      <trkpt lat="45.79011" lon="2.94747">
        <ele>1073.5</ele>
        <time>2021-08-08T12:24:05Z</time>
      </trkpt>
      <trkpt lat="45.79012" lon="2.94746">
        <ele>1073.4</ele>
        <time>2021-08-08T12:24:06Z</time>
      </trkpt>
      <trkpt lat="45.79013" lon="2.94746">
        <ele>1073.4</ele>
        <time>2021-08-08T12:24:07Z</time>
      </trkpt>
      <trkpt lat="45.79013" lon="2.94752">
        <ele>1074</ele>
        <time>2021-08-08T12:24:09Z</time>
      </trkpt>
      <trkpt lat="45.79013" lon="2.94767">
        <ele>1075.5</ele>
        <time>2021-08-08T12:24:17Z</time>
      </trkpt>
      <trkpt lat="45.79013" lon="2.94768">
        <ele>1075.6</ele>
        <time>2021-08-08T12:24:18Z</time>
      </trkpt>
      <trkpt lat="45.79012" lon="2.94776">
        <ele>1075.8</ele>
        <time>2021-08-08T12:24:24Z</time>
      </trkpt>
      <trkpt lat="45.79018" lon="2.9479">
        <ele>1077</ele>
        <time>2021-08-08T12:24:41Z</time>
      </trkpt>
      <trkpt lat="45.79019" lon="2.94791">
        <ele>1077.4</ele>
        <time>2021-08-08T12:24:42Z</time>
      </trkpt>
      <trkpt lat="45.7902" lon="2.94791">
        <ele>1077.9</ele>
        <time>2021-08-08T12:24:43Z</time>
      </trkpt>
      <trkpt lat="45.7902" lon="2.94795">
        <ele>1078.4</ele>
        <time>2021-08-08T12:24:48Z</time>
      </trkpt>
      <trkpt lat="45.79019" lon="2.94797">
        <ele>1078.9</ele>
        <time>2021-08-08T12:24:58Z</time>
      </trkpt>
      <trkpt lat="45.7902" lon="2.94805">
        <ele>1079.6</ele>
        <time>2021-08-08T12:24:59Z</time>
      </trkpt>
      <trkpt lat="45.79019" lon="2.94812">
        <ele>1083</ele>
        <time>2021-08-08T12:25:05Z</time>
      </trkpt>
      <trkpt lat="45.79017" lon="2.94813">
        <ele>1084</ele>
        <time>2021-08-08T12:25:08Z</time>
      </trkpt>
      <trkpt lat="45.79018" lon="2.94818">
        <ele>1085.7</ele>
        <time>2021-08-08T12:25:19Z</time>
      </trkpt>
      <trkpt lat="45.79019" lon="2.94819">
        <ele>1085.7</ele>
        <time>2021-08-08T12:25:20Z</time>
      </trkpt>
      <trkpt lat="45.79021" lon="2.94826">
        <ele>1087.9</ele>
        <time>2021-08-08T12:25:28Z</time>
      </trkpt>
      <trkpt lat="45.79019" lon="2.94834">
        <ele>1090.4</ele>
        <time>2021-08-08T12:25:43Z</time>
      </trkpt>
      <trkpt lat="45.79019" lon="2.94841">
        <ele>1095.5</ele>
        <time>2021-08-08T12:25:58Z</time>
      </trkpt>
      <trkpt lat="45.79019" lon="2.94842">
        <ele>1095.7</ele>
        <time>2021-08-08T12:25:59Z</time>
      </trkpt>
      <trkpt lat="45.79019" lon="2.94842">
        <ele>1095.7</ele>
        <time>2021-08-08T12:26:00Z</time>
      </trkpt>
      <trkpt lat="45.79018" lon="2.94849">
        <ele>1096.6</ele>
        <time>2021-08-08T12:26:08Z</time>
      </trkpt>
      <trkpt lat="45.79013" lon="2.94856">
        <ele>1096.8</ele>
        <time>2021-08-08T12:26:17Z</time>
      </trkpt>
      <trkpt lat="45.79012" lon="2.94862">
        <ele>1096.6</ele>
        <time>2021-08-08T12:26:23Z</time>
      </trkpt>
      <trkpt lat="45.79011" lon="2.94862">
        <ele>1096.7</ele>
        <time>2021-08-08T12:26:24Z</time>
      </trkpt>
      <trkpt lat="45.79008" lon="2.94865">
        <ele>1096.5</ele>
        <time>2021-08-08T12:26:30Z</time>
      </trkpt>
      <trkpt lat="45.79004" lon="2.94876">
        <ele>1097.9</ele>
        <time>2021-08-08T12:26:47Z</time>
      </trkpt>
      <trkpt lat="45.79004" lon="2.94883">
        <ele>1097.8</ele>
        <time>2021-08-08T12:26:59Z</time>
      </trkpt>
      <trkpt lat="45.79004" lon="2.94883">
        <ele>1097.8</ele>
        <time>2021-08-08T12:27:00Z</time>
      </trkpt>
      <trkpt lat="45.79006" lon="2.94885">
        <ele>1097.8</ele>
        <time>2021-08-08T12:27:11Z</time>
      </trkpt>
      <trkpt lat="45.79002" lon="2.94894">
        <ele>1098.7</ele>
        <time>2021-08-08T12:27:15Z</time>
      </trkpt>
      <trkpt lat="45.79003" lon="2.94897">
        <ele>1099</ele>
        <time>2021-08-08T12:27:20Z</time>
      </trkpt>
      <trkpt lat="45.79005" lon="2.94904">
        <ele>1099.1</ele>
        <time>2021-08-08T12:27:30Z</time>
      </trkpt>
      <trkpt lat="45.79002" lon="2.94909">
        <ele>1099.2</ele>
        <time>2021-08-08T12:27:44Z</time>
      </trkpt>
      <trkpt lat="45.79002" lon="2.9491">
        <ele>1099.3</ele>
        <time>2021-08-08T12:27:45Z</time>
      </trkpt>
      <trkpt lat="45.79001" lon="2.9491">
        <ele>1099.6</ele>
        <time>2021-08-08T12:27:46Z</time>
      </trkpt>
      <trkpt lat="45.79" lon="2.94917">
        <ele>1101.1</ele>
        <time>2021-08-08T12:28:08Z</time>
      </trkpt>
      <trkpt lat="45.79004" lon="2.94927">
        <ele>1106.2</ele>
        <time>2021-08-08T12:28:23Z</time>
      </trkpt>
      <trkpt lat="45.79005" lon="2.94932">
        <ele>1107</ele>
        <time>2021-08-08T12:28:30Z</time>
      </trkpt>
      <trkpt lat="45.79005" lon="2.94932">
        <ele>1107.1</ele>
        <time>2021-08-08T12:28:31Z</time>
      </trkpt>
      <trkpt lat="45.79005" lon="2.94936">
        <ele>1110.3</ele>
        <time>2021-08-08T12:28:56Z</time>
      </trkpt>
      <trkpt lat="45.79007" lon="2.94939">
        <ele>1111.5</ele>
        <time>2021-08-08T12:29:12Z</time>
      </trkpt>
      <trkpt lat="45.79005" lon="2.94952">
        <ele>1114.4</ele>
        <time>2021-08-08T12:29:30Z</time>
      </trkpt>
      <trkpt lat="45.79007" lon="2.94955">
        <ele>1114.8</ele>
        <time>2021-08-08T12:29:37Z</time>
      </trkpt>
      <trkpt lat="45.79007" lon="2.94956">
        <ele>1114.9</ele>
        <time>2021-08-08T12:29:38Z</time>
      </trkpt>
      <trkpt lat="45.79013" lon="2.94968">
        <ele>1120</ele>
        <time>2021-08-08T12:30:04Z</time>
      </trkpt>
      <trkpt lat="45.79015" lon="2.94969">
        <ele>1120.7</ele>
        <time>2021-08-08T12:30:17Z</time>
      </trkpt>
      <trkpt lat="45.79017" lon="2.94976">
        <ele>1122.3</ele>
        <time>2021-08-08T12:30:24Z</time>
      </trkpt>
      <trkpt lat="45.79018" lon="2.94977">
        <ele>1122.4</ele>
        <time>2021-08-08T12:30:25Z</time>
      </trkpt>
      <trkpt lat="45.79018" lon="2.94991">
        <ele>1124.8</ele>
        <time>2021-08-08T12:30:39Z</time>
      </trkpt>
      <trkpt lat="45.7902" lon="2.94994">
        <ele>1125.4</ele>
        <time>2021-08-08T12:30:44Z</time>
      </trkpt>
      <trkpt lat="45.79023" lon="2.95">
        <ele>1127.1</ele>
        <time>2021-08-08T12:30:53Z</time>
      </trkpt>
      <trkpt lat="45.79024" lon="2.95">
        <ele>1127.2</ele>
        <time>2021-08-08T12:30:54Z</time>
      </trkpt>
      <trkpt lat="45.79024" lon="2.95005">
        <ele>1128.4</ele>
        <time>2021-08-08T12:31:02Z</time>
      </trkpt>
      <trkpt lat="45.79022" lon="2.95012">
        <ele>1131.4</ele>
        <time>2021-08-08T12:31:15Z</time>
      </trkpt>
      <trkpt lat="45.79024" lon="2.95014">
        <ele>1133</ele>
        <time>2021-08-08T12:31:19Z</time>
      </trkpt>
      <trkpt lat="45.79029" lon="2.95014">
        <ele>1138.3</ele>
        <time>2021-08-08T12:31:36Z</time>
      </trkpt>
      <trkpt lat="45.7903" lon="2.95018">
        <ele>1139</ele>
        <time>2021-08-08T12:31:40Z</time>
      </trkpt>
      <trkpt lat="45.79031" lon="2.95019">
        <ele>1139.2</ele>
        <time>2021-08-08T12:31:41Z</time>
      </trkpt>
      <trkpt lat="45.79031" lon="2.95023">
        <ele>1140.4</ele>
        <time>2021-08-08T12:31:45Z</time>
      </trkpt>
      <trkpt lat="45.7903" lon="2.95029">
        <ele>1142</ele>
        <time>2021-08-08T12:31:53Z</time>
      </trkpt>
      <trkpt lat="45.79031" lon="2.95037">
        <ele>1144</ele>
        <time>2021-08-08T12:32:04Z</time>
      </trkpt>
      <trkpt lat="45.79029" lon="2.95041">
        <ele>1144.5</ele>
        <time>2021-08-08T12:32:08Z</time>
      </trkpt>
      <trkpt lat="45.79029" lon="2.95042">
        <ele>1144.7</ele>
        <time>2021-08-08T12:32:09Z</time>
      </trkpt>
      <trkpt lat="45.79026" lon="2.95049">
        <ele>1146.3</ele>
        <time>2021-08-08T12:32:18Z</time>
      </trkpt>
      <trkpt lat="45.79028" lon="2.95059">
        <ele>1147.9</ele>
        <time>2021-08-08T12:32:28Z</time>
      </trkpt>
      <trkpt lat="45.79028" lon="2.95067">
        <ele>1148.7</ele>
        <time>2021-08-08T12:32:35Z</time>
      </trkpt>
      <trkpt lat="45.79028" lon="2.95067">
        <ele>1148.9</ele>
        <time>2021-08-08T12:32:36Z</time>
      </trkpt>
      <trkpt lat="45.79026" lon="2.95073">
        <ele>1149.6</ele>
        <time>2021-08-08T12:32:42Z</time>
      </trkpt>
      <trkpt lat="45.79026" lon="2.95082">
        <ele>1150.5</ele>
        <time>2021-08-08T12:32:49Z</time>
      </trkpt>
      <trkpt lat="45.79029" lon="2.95087">
        <ele>1151.7</ele>
        <time>2021-08-08T12:32:57Z</time>
      </trkpt>
      <trkpt lat="45.7903" lon="2.95088">
        <ele>1151.8</ele>
        <time>2021-08-08T12:32:58Z</time>
      </trkpt>
      <trkpt lat="45.79035" lon="2.95095">
        <ele>1153.2</ele>
        <time>2021-08-08T12:33:08Z</time>
      </trkpt>
      <trkpt lat="45.79037" lon="2.95104">
        <ele>1154.6</ele>
        <time>2021-08-08T12:33:17Z</time>
      </trkpt>
      <trkpt lat="45.79036" lon="2.95108">
        <ele>1154.7</ele>
        <time>2021-08-08T12:33:20Z</time>
      </trkpt>
      <trkpt lat="45.79036" lon="2.95109">
        <ele>1154.9</ele>
        <time>2021-08-08T12:33:21Z</time>
      </trkpt>
      <trkpt lat="45.79035" lon="2.95116">
        <ele>1156.4</ele>
        <time>2021-08-08T12:33:29Z</time>
      </trkpt>
      <trkpt lat="45.79037" lon="2.95119">
        <ele>1157.2</ele>
        <time>2021-08-08T12:33:33Z</time>
      </trkpt>
      <trkpt lat="45.79038" lon="2.95122">
        <ele>1158.2</ele>
        <time>2021-08-08T12:33:37Z</time>
      </trkpt>
      <trkpt lat="45.79036" lon="2.95128">
        <ele>1159.7</ele>
        <time>2021-08-08T12:33:45Z</time>
      </trkpt>
      <trkpt lat="45.79037" lon="2.95133">
        <ele>1160.4</ele>
        <time>2021-08-08T12:33:49Z</time>
      </trkpt>
      <trkpt lat="45.79037" lon="2.95134">
        <ele>1160.6</ele>
        <time>2021-08-08T12:33:50Z</time>
      </trkpt>
      <trkpt lat="45.79038" lon="2.95143">
        <ele>1162</ele>
        <time>2021-08-08T12:33:58Z</time>
      </trkpt>
      <trkpt lat="45.79042" lon="2.95155">
        <ele>1164.6</ele>
        <time>2021-08-08T12:34:11Z</time>
      </trkpt>
      <trkpt lat="45.79042" lon="2.95159">
        <ele>1166.2</ele>
        <time>2021-08-08T12:34:16Z</time>
      </trkpt>
      <trkpt lat="45.79042" lon="2.95159">
        <ele>1166.6</ele>
        <time>2021-08-08T12:34:17Z</time>
      </trkpt>
      <trkpt lat="45.7904" lon="2.95166">
        <ele>1170.2</ele>
        <time>2021-08-08T12:34:31Z</time>
      </trkpt>
      <trkpt lat="45.79041" lon="2.9517">
        <ele>1171.2</ele>
        <time>2021-08-08T12:34:37Z</time>
      </trkpt>
      <trkpt lat="45.79043" lon="2.95172">
        <ele>1171.7</ele>
        <time>2021-08-08T12:34:40Z</time>
      </trkpt>
      <trkpt lat="45.79046" lon="2.95182">
        <ele>1173.6</ele>
        <time>2021-08-08T12:34:48Z</time>
      </trkpt>
      <trkpt lat="45.79047" lon="2.95182">
        <ele>1173.8</ele>
        <time>2021-08-08T12:34:49Z</time>
      </trkpt>
      <trkpt lat="45.7905" lon="2.95189">
        <ele>1176.2</ele>
        <time>2021-08-08T12:35:01Z</time>
      </trkpt>
      <trkpt lat="45.79053" lon="2.95205">
        <ele>1179.3</ele>
        <time>2021-08-08T12:35:15Z</time>
      </trkpt>
      <trkpt lat="45.79053" lon="2.95205">
        <ele>1179.6</ele>
        <time>2021-08-08T12:35:16Z</time>
      </trkpt>
      <trkpt lat="45.79054" lon="2.95209">
        <ele>1180.7</ele>
        <time>2021-08-08T12:35:20Z</time>
      </trkpt>
      <trkpt lat="45.7906" lon="2.95219">
        <ele>1184.2</ele>
        <time>2021-08-08T12:35:33Z</time>
      </trkpt>
      <trkpt lat="45.79063" lon="2.95225">
        <ele>1186.1</ele>
        <time>2021-08-08T12:35:40Z</time>
      </trkpt>
      <trkpt lat="45.79064" lon="2.95226">
        <ele>1186.4</ele>
        <time>2021-08-08T12:35:41Z</time>
      </trkpt>
      <trkpt lat="45.79066" lon="2.9523">
        <ele>1187.6</ele>
        <time>2021-08-08T12:35:45Z</time>
      </trkpt>
      <trkpt lat="45.79067" lon="2.95236">
        <ele>1188.6</ele>
        <time>2021-08-08T12:35:51Z</time>
      </trkpt>
      <trkpt lat="45.79071" lon="2.95243">
        <ele>1189.5</ele>
        <time>2021-08-08T12:35:58Z</time>
      </trkpt>
      <trkpt lat="45.79073" lon="2.95245">
        <ele>1189.8</ele>
        <time>2021-08-08T12:36:01Z</time>
      </trkpt>
      <trkpt lat="45.79074" lon="2.95246">
        <ele>1189.9</ele>
        <time>2021-08-08T12:36:02Z</time>
      </trkpt>
      <trkpt lat="45.79077" lon="2.95249">
        <ele>1190.6</ele>
        <time>2021-08-08T12:36:06Z</time>
      </trkpt>
      <trkpt lat="45.79081" lon="2.95258">
        <ele>1192.2</ele>
        <time>2021-08-08T12:36:15Z</time>
      </trkpt>
      <trkpt lat="45.79086" lon="2.95265">
        <ele>1194.1</ele>
        <time>2021-08-08T12:36:22Z</time>
      </trkpt>
      <trkpt lat="45.79086" lon="2.95266">
        <ele>1194.2</ele>
        <time>2021-08-08T12:36:23Z</time>
      </trkpt>
      <trkpt lat="45.79087" lon="2.9527">
        <ele>1195.2</ele>
        <time>2021-08-08T12:36:28Z</time>
      </trkpt>
      <trkpt lat="45.79091" lon="2.95281">
        <ele>1197.2</ele>
        <time>2021-08-08T12:36:38Z</time>
      </trkpt>
      <trkpt lat="45.79091" lon="2.95288">
        <ele>1198.6</ele>
        <time>2021-08-08T12:36:45Z</time>
      </trkpt>
      <trkpt lat="45.79091" lon="2.95288">
        <ele>1198.7</ele>
        <time>2021-08-08T12:36:46Z</time>
      </trkpt>
      <trkpt lat="45.7909" lon="2.95291">
        <ele>1201.7</ele>
        <time>2021-08-08T12:37:20Z</time>
      </trkpt>
      <trkpt lat="45.79089" lon="2.95291">
        <ele>1201.6</ele>
        <time>2021-08-08T12:37:40Z</time>
      </trkpt>
      <trkpt lat="45.79089" lon="2.95296">
        <ele>1200.6</ele>
        <time>2021-08-08T12:37:41Z</time>
      </trkpt>
      <trkpt lat="45.7909" lon="2.95293">
        <ele>1201.6</ele>
        <time>2021-08-08T12:38:23Z</time>
      </trkpt>
      <trkpt lat="45.79081" lon="2.95294">
        <ele>1197.9</ele>
        <time>2021-08-08T12:38:50Z</time>
      </trkpt>
      <trkpt lat="45.79083" lon="2.95298">
        <ele>1198</ele>
        <time>2021-08-08T12:38:54Z</time>
      </trkpt>
      <trkpt lat="45.79084" lon="2.95298">
        <ele>1198.1</ele>
        <time>2021-08-08T12:38:55Z</time>
      </trkpt>
      <trkpt lat="45.79084" lon="2.95302">
        <ele>1198.5</ele>
        <time>2021-08-08T12:38:59Z</time>
      </trkpt>
      <trkpt lat="45.79084" lon="2.95324">
        <ele>1200.8</ele>
        <time>2021-08-08T12:39:18Z</time>
      </trkpt>
      <trkpt lat="45.79084" lon="2.95326">
        <ele>1200.9</ele>
        <time>2021-08-08T12:39:19Z</time>
      </trkpt>
      <trkpt lat="45.7908" lon="2.95345">
        <ele>1203.4</ele>
        <time>2021-08-08T12:39:34Z</time>
      </trkpt>
      <trkpt lat="45.79081" lon="2.9535">
        <ele>1204.4</ele>
        <time>2021-08-08T12:39:37Z</time>
      </trkpt>
      <trkpt lat="45.79081" lon="2.95351">
        <ele>1204.5</ele>
        <time>2021-08-08T12:39:38Z</time>
      </trkpt>
      <trkpt lat="45.79081" lon="2.95354">
        <ele>1205.2</ele>
        <time>2021-08-08T12:39:41Z</time>
      </trkpt>
      <trkpt lat="45.7908" lon="2.9536">
        <ele>1205.9</ele>
        <time>2021-08-08T12:39:45Z</time>
      </trkpt>
      <trkpt lat="45.79076" lon="2.95375">
        <ele>1207.1</ele>
        <time>2021-08-08T12:39:54Z</time>
      </trkpt>
      <trkpt lat="45.79075" lon="2.95377">
        <ele>1207.3</ele>
        <time>2021-08-08T12:39:55Z</time>
      </trkpt>
      <trkpt lat="45.79073" lon="2.95397">
        <ele>1208.8</ele>
        <time>2021-08-08T12:40:09Z</time>
      </trkpt>
      <trkpt lat="45.79071" lon="2.95401">
        <ele>1209.3</ele>
        <time>2021-08-08T12:40:13Z</time>
      </trkpt>
      <trkpt lat="45.79071" lon="2.95403">
        <ele>1209.4</ele>
        <time>2021-08-08T12:40:14Z</time>
      </trkpt>
      <trkpt lat="45.79067" lon="2.95414">
        <ele>1209.8</ele>
        <time>2021-08-08T12:40:22Z</time>
      </trkpt>
      <trkpt lat="45.79066" lon="2.95428">
        <ele>1211.4</ele>
        <time>2021-08-08T12:40:34Z</time>
      </trkpt>
      <trkpt lat="45.79065" lon="2.95429">
        <ele>1211.6</ele>
        <time>2021-08-08T12:40:35Z</time>
      </trkpt>
      <trkpt lat="45.79062" lon="2.95452">
        <ele>1213.9</ele>
        <time>2021-08-08T12:40:50Z</time>
      </trkpt>
      <trkpt lat="45.79062" lon="2.95453">
        <ele>1214</ele>
        <time>2021-08-08T12:40:51Z</time>
      </trkpt>
      <trkpt lat="45.79062" lon="2.95457">
        <ele>1214.6</ele>
        <time>2021-08-08T12:40:55Z</time>
      </trkpt>
      <trkpt lat="45.7906" lon="2.95467">
        <ele>1216.4</ele>
        <time>2021-08-08T12:41:04Z</time>
      </trkpt>
      <trkpt lat="45.79059" lon="2.95477">
        <ele>1218.1</ele>
        <time>2021-08-08T12:41:11Z</time>
      </trkpt>
      <trkpt lat="45.79058" lon="2.95478">
        <ele>1218.3</ele>
        <time>2021-08-08T12:41:12Z</time>
      </trkpt>
      <trkpt lat="45.79056" lon="2.95488">
        <ele>1219.8</ele>
        <time>2021-08-08T12:41:20Z</time>
      </trkpt>
      <trkpt lat="45.79053" lon="2.95493">
        <ele>1220.7</ele>
        <time>2021-08-08T12:41:25Z</time>
      </trkpt>
      <trkpt lat="45.79052" lon="2.95501">
        <ele>1221.9</ele>
        <time>2021-08-08T12:41:32Z</time>
      </trkpt>
      <trkpt lat="45.79051" lon="2.95501">
        <ele>1222.1</ele>
        <time>2021-08-08T12:41:33Z</time>
      </trkpt>
      <trkpt lat="45.79049" lon="2.95504">
        <ele>1222.9</ele>
        <time>2021-08-08T12:41:38Z</time>
      </trkpt>
      <trkpt lat="45.79049" lon="2.95507">
        <ele>1224</ele>
        <time>2021-08-08T12:41:43Z</time>
      </trkpt>
      <trkpt lat="45.79049" lon="2.9552">
        <ele>1227.9</ele>
        <time>2021-08-08T12:42:29Z</time>
      </trkpt>
      <trkpt lat="45.79048" lon="2.95527">
        <ele>1228.6</ele>
        <time>2021-08-08T12:42:38Z</time>
      </trkpt>
      <trkpt lat="45.79048" lon="2.95527">
        <ele>1228.7</ele>
        <time>2021-08-08T12:42:39Z</time>
      </trkpt>
      <trkpt lat="45.79046" lon="2.9553">
        <ele>1230</ele>
        <time>2021-08-08T12:42:46Z</time>
      </trkpt>
      <trkpt lat="45.79045" lon="2.95533">
        <ele>1230.2</ele>
        <time>2021-08-08T12:42:49Z</time>
      </trkpt>
      <trkpt lat="45.79044" lon="2.9555">
        <ele>1230.6</ele>
        <time>2021-08-08T12:43:17Z</time>
      </trkpt>
      <trkpt lat="45.79044" lon="2.95551">
        <ele>1230.4</ele>
        <time>2021-08-08T12:43:18Z</time>
      </trkpt>
      <trkpt lat="45.79042" lon="2.95576">
        <ele>1226.4</ele>
        <time>2021-08-08T12:43:40Z</time>
      </trkpt>
      <trkpt lat="45.79042" lon="2.95578">
        <ele>1226.2</ele>
        <time>2021-08-08T12:43:41Z</time>
      </trkpt>
      <trkpt lat="45.79039" lon="2.95604">
        <ele>1221.2</ele>
        <time>2021-08-08T12:44:02Z</time>
      </trkpt>
      <trkpt lat="45.79039" lon="2.95605">
        <ele>1220.9</ele>
        <time>2021-08-08T12:44:03Z</time>
      </trkpt>
      <trkpt lat="45.79037" lon="2.95615">
        <ele>1218.4</ele>
        <time>2021-08-08T12:44:11Z</time>
      </trkpt>
      <trkpt lat="45.79037" lon="2.95629">
        <ele>1215.4</ele>
        <time>2021-08-08T12:44:21Z</time>
      </trkpt>
      <trkpt lat="45.79037" lon="2.9563">
        <ele>1215.1</ele>
        <time>2021-08-08T12:44:22Z</time>
      </trkpt>
      <trkpt lat="45.79038" lon="2.95638">
        <ele>1213.2</ele>
        <time>2021-08-08T12:44:29Z</time>
      </trkpt>
      <trkpt lat="45.79037" lon="2.95655">
        <ele>1209.9</ele>
        <time>2021-08-08T12:44:41Z</time>
      </trkpt>
      <trkpt lat="45.79037" lon="2.95658">
        <ele>1209.6</ele>
        <time>2021-08-08T12:44:42Z</time>
      </trkpt>
      <trkpt lat="45.79036" lon="2.95666">
        <ele>1207.8</ele>
        <time>2021-08-08T12:44:47Z</time>
      </trkpt>
      <trkpt lat="45.79036" lon="2.95685">
        <ele>1203.5</ele>
        <time>2021-08-08T12:44:58Z</time>
      </trkpt>
      <trkpt lat="45.79036" lon="2.95686">
        <ele>1203.1</ele>
        <time>2021-08-08T12:44:59Z</time>
      </trkpt>
      <trkpt lat="45.79033" lon="2.95693">
        <ele>1200.8</ele>
        <time>2021-08-08T12:45:04Z</time>
      </trkpt>
      <trkpt lat="45.79033" lon="2.95699">
        <ele>1199.1</ele>
        <time>2021-08-08T12:45:08Z</time>
      </trkpt>
      <trkpt lat="45.79032" lon="2.9571">
        <ele>1195.9</ele>
        <time>2021-08-08T12:45:17Z</time>
      </trkpt>
      <trkpt lat="45.79032" lon="2.95711">
        <ele>1195.5</ele>
        <time>2021-08-08T12:45:18Z</time>
      </trkpt>
      <trkpt lat="45.79029" lon="2.95737">
        <ele>1190.8</ele>
        <time>2021-08-08T12:45:35Z</time>
      </trkpt>
      <trkpt lat="45.79029" lon="2.95738">
        <ele>1190.5</ele>
        <time>2021-08-08T12:45:36Z</time>
      </trkpt>
      <trkpt lat="45.79026" lon="2.9576">
        <ele>1187.8</ele>
        <time>2021-08-08T12:45:49Z</time>
      </trkpt>
      <trkpt lat="45.79026" lon="2.95761">
        <ele>1187.5</ele>
        <time>2021-08-08T12:45:50Z</time>
      </trkpt>
      <trkpt lat="45.79026" lon="2.9577">
        <ele>1186.1</ele>
        <time>2021-08-08T12:45:55Z</time>
      </trkpt>
      <trkpt lat="45.79022" lon="2.95787">
        <ele>1182.3</ele>
        <time>2021-08-08T12:46:07Z</time>
      </trkpt>
      <trkpt lat="45.79022" lon="2.95788">
        <ele>1182</ele>
        <time>2021-08-08T12:46:08Z</time>
      </trkpt>
      <trkpt lat="45.7902" lon="2.95802">
        <ele>1178.2</ele>
        <time>2021-08-08T12:46:28Z</time>
      </trkpt>
      <trkpt lat="45.79018" lon="2.95812">
        <ele>1175.9</ele>
        <time>2021-08-08T12:46:40Z</time>
      </trkpt>
      <trkpt lat="45.79018" lon="2.95812">
        <ele>1175.8</ele>
        <time>2021-08-08T12:46:41Z</time>
      </trkpt>
      <trkpt lat="45.79018" lon="2.95824">
        <ele>1173.8</ele>
        <time>2021-08-08T12:47:10Z</time>
      </trkpt>
      <trkpt lat="45.79016" lon="2.9583">
        <ele>1173.3</ele>
        <time>2021-08-08T12:47:14Z</time>
      </trkpt>
      <trkpt lat="45.79016" lon="2.95838">
        <ele>1172.9</ele>
        <time>2021-08-08T12:47:19Z</time>
      </trkpt>
      <trkpt lat="45.79015" lon="2.95838">
        <ele>1172.8</ele>
        <time>2021-08-08T12:47:20Z</time>
      </trkpt>
      <trkpt lat="45.79015" lon="2.95856">
        <ele>1170.2</ele>
        <time>2021-08-08T12:47:32Z</time>
      </trkpt>
      <trkpt lat="45.79013" lon="2.95864">
        <ele>1169.3</ele>
        <time>2021-08-08T12:47:37Z</time>
      </trkpt>
      <trkpt lat="45.79013" lon="2.95865">
        <ele>1169.1</ele>
        <time>2021-08-08T12:47:38Z</time>
      </trkpt>
      <trkpt lat="45.79009" lon="2.95876">
        <ele>1167.8</ele>
        <time>2021-08-08T12:47:45Z</time>
      </trkpt>
      <trkpt lat="45.79007" lon="2.95879">
        <ele>1167.5</ele>
        <time>2021-08-08T12:47:47Z</time>
      </trkpt>
      <trkpt lat="45.79003" lon="2.95882">
        <ele>1167</ele>
        <time>2021-08-08T12:47:51Z</time>
      </trkpt>
      <trkpt lat="45.79002" lon="2.95883">
        <ele>1166.8</ele>
        <time>2021-08-08T12:47:52Z</time>
      </trkpt>
      <trkpt lat="45.78988" lon="2.95884">
        <ele>1165.5</ele>
        <time>2021-08-08T12:48:01Z</time>
      </trkpt>
      <trkpt lat="45.78987" lon="2.95883">
        <ele>1165.2</ele>
        <time>2021-08-08T12:48:02Z</time>
      </trkpt>
      <trkpt lat="45.78984" lon="2.95877">
        <ele>1164.1</ele>
        <time>2021-08-08T12:48:06Z</time>
      </trkpt>
      <trkpt lat="45.78982" lon="2.95877">
        <ele>1164</ele>
        <time>2021-08-08T12:48:07Z</time>
      </trkpt>
      <trkpt lat="45.78979" lon="2.95873">
        <ele>1163.1</ele>
        <time>2021-08-08T12:48:10Z</time>
      </trkpt>
      <trkpt lat="45.78973" lon="2.9587">
        <ele>1162.4</ele>
        <time>2021-08-08T12:48:20Z</time>
      </trkpt>
      <trkpt lat="45.78972" lon="2.9587">
        <ele>1162.1</ele>
        <time>2021-08-08T12:48:21Z</time>
      </trkpt>
      <trkpt lat="45.78965" lon="2.95863">
        <ele>1161.3</ele>
        <time>2021-08-08T12:48:27Z</time>
      </trkpt>
      <trkpt lat="45.7896" lon="2.9586">
        <ele>1160.8</ele>
        <time>2021-08-08T12:48:31Z</time>
      </trkpt>
      <trkpt lat="45.78959" lon="2.9586">
        <ele>1160.7</ele>
        <time>2021-08-08T12:48:32Z</time>
      </trkpt>
      <trkpt lat="45.78953" lon="2.95859">
        <ele>1160.1</ele>
        <time>2021-08-08T12:48:35Z</time>
      </trkpt>
      <trkpt lat="45.78948" lon="2.9586">
        <ele>1159.5</ele>
        <time>2021-08-08T12:48:38Z</time>
      </trkpt>
      <trkpt lat="45.78942" lon="2.95856">
        <ele>1159</ele>
        <time>2021-08-08T12:48:43Z</time>
      </trkpt>
      <trkpt lat="45.78941" lon="2.95856">
        <ele>1158.9</ele>
        <time>2021-08-08T12:48:44Z</time>
      </trkpt>
      <trkpt lat="45.78933" lon="2.95852">
        <ele>1158.3</ele>
        <time>2021-08-08T12:48:50Z</time>
      </trkpt>
      <trkpt lat="45.7893" lon="2.95852">
        <ele>1158.1</ele>
        <time>2021-08-08T12:48:52Z</time>
      </trkpt>
      <trkpt lat="45.78923" lon="2.9585">
        <ele>1158.3</ele>
        <time>2021-08-08T12:48:57Z</time>
      </trkpt>
      <trkpt lat="45.78922" lon="2.95849">
        <ele>1158.5</ele>
        <time>2021-08-08T12:48:58Z</time>
      </trkpt>
      <trkpt lat="45.78915" lon="2.95847">
        <ele>1159.2</ele>
        <time>2021-08-08T12:49:02Z</time>
      </trkpt>
      <trkpt lat="45.78908" lon="2.95848">
        <ele>1159.4</ele>
        <time>2021-08-08T12:49:07Z</time>
      </trkpt>
      <trkpt lat="45.78906" lon="2.95848">
        <ele>1159.4</ele>
        <time>2021-08-08T12:49:08Z</time>
      </trkpt>
      <trkpt lat="45.78898" lon="2.95847">
        <ele>1159</ele>
        <time>2021-08-08T12:49:14Z</time>
      </trkpt>
      <trkpt lat="45.7889" lon="2.95847">
        <ele>1158.3</ele>
        <time>2021-08-08T12:49:20Z</time>
      </trkpt>
      <trkpt lat="45.78886" lon="2.95849">
        <ele>1158</ele>
        <time>2021-08-08T12:49:23Z</time>
      </trkpt>
      <trkpt lat="45.78885" lon="2.95849">
        <ele>1157.5</ele>
        <time>2021-08-08T12:49:24Z</time>
      </trkpt>
      <trkpt lat="45.7888" lon="2.95854">
        <ele>1157.1</ele>
        <time>2021-08-08T12:49:28Z</time>
      </trkpt>
      <trkpt lat="45.78875" lon="2.95862">
        <ele>1156.3</ele>
        <time>2021-08-08T12:49:33Z</time>
      </trkpt>
      <trkpt lat="45.78873" lon="2.95865">
        <ele>1156.3</ele>
        <time>2021-08-08T12:49:34Z</time>
      </trkpt>
      <trkpt lat="45.78863" lon="2.9588">
        <ele>1155.3</ele>
        <time>2021-08-08T12:49:43Z</time>
      </trkpt>
      <trkpt lat="45.78862" lon="2.95882">
        <ele>1155.3</ele>
        <time>2021-08-08T12:49:44Z</time>
      </trkpt>
      <trkpt lat="45.78854" lon="2.9589">
        <ele>1155.6</ele>
        <time>2021-08-08T12:49:51Z</time>
      </trkpt>
      <trkpt lat="45.7885" lon="2.95898">
        <ele>1155.9</ele>
        <time>2021-08-08T12:49:56Z</time>
      </trkpt>
      <trkpt lat="45.7885" lon="2.959">
        <ele>1155.9</ele>
        <time>2021-08-08T12:49:57Z</time>
      </trkpt>
      <trkpt lat="45.78845" lon="2.95907">
        <ele>1155.1</ele>
        <time>2021-08-08T12:50:02Z</time>
      </trkpt>
      <trkpt lat="45.78841" lon="2.95919">
        <ele>1154.9</ele>
        <time>2021-08-08T12:50:08Z</time>
      </trkpt>
      <trkpt lat="45.7884" lon="2.95921">
        <ele>1154.8</ele>
        <time>2021-08-08T12:50:09Z</time>
      </trkpt>
      <trkpt lat="45.78831" lon="2.95937">
        <ele>1153.2</ele>
        <time>2021-08-08T12:50:20Z</time>
      </trkpt>
      <trkpt lat="45.7883" lon="2.95939">
        <ele>1152.9</ele>
        <time>2021-08-08T12:50:21Z</time>
      </trkpt>
      <trkpt lat="45.78823" lon="2.9595">
        <ele>1150.5</ele>
        <time>2021-08-08T12:50:37Z</time>
      </trkpt>
      <trkpt lat="45.78822" lon="2.95956">
        <ele>1149.5</ele>
        <time>2021-08-08T12:50:41Z</time>
      </trkpt>
      <trkpt lat="45.7882" lon="2.95957">
        <ele>1148.6</ele>
        <time>2021-08-08T12:50:47Z</time>
      </trkpt>
      <trkpt lat="45.78819" lon="2.95957">
        <ele>1148.6</ele>
        <time>2021-08-08T12:50:48Z</time>
      </trkpt>
      <trkpt lat="45.78819" lon="2.95956">
        <ele>1148.5</ele>
        <time>2021-08-08T12:50:49Z</time>
      </trkpt>
      <trkpt lat="45.78821" lon="2.95963">
        <ele>1148.9</ele>
        <time>2021-08-08T12:50:55Z</time>
      </trkpt>
      <trkpt lat="45.7882" lon="2.95976">
        <ele>1148.3</ele>
        <time>2021-08-08T12:51:11Z</time>
      </trkpt>
      <trkpt lat="45.78817" lon="2.95979">
        <ele>1147.7</ele>
        <time>2021-08-08T12:51:16Z</time>
      </trkpt>
      <trkpt lat="45.78817" lon="2.9598">
        <ele>1147.7</ele>
        <time>2021-08-08T12:51:17Z</time>
      </trkpt>
      <trkpt lat="45.78811" lon="2.95994">
        <ele>1146.6</ele>
        <time>2021-08-08T12:51:28Z</time>
      </trkpt>
      <trkpt lat="45.78811" lon="2.96002">
        <ele>1146.1</ele>
        <time>2021-08-08T12:51:33Z</time>
      </trkpt>
      <trkpt lat="45.78811" lon="2.96004">
        <ele>1145.9</ele>
        <time>2021-08-08T12:51:34Z</time>
      </trkpt>
      <trkpt lat="45.78811" lon="2.96015">
        <ele>1145.2</ele>
        <time>2021-08-08T12:51:41Z</time>
      </trkpt>
      <trkpt lat="45.78813" lon="2.96028">
        <ele>1144.2</ele>
        <time>2021-08-08T12:51:50Z</time>
      </trkpt>
      <trkpt lat="45.78813" lon="2.9603">
        <ele>1144.2</ele>
        <time>2021-08-08T12:51:51Z</time>
      </trkpt>
      <trkpt lat="45.78814" lon="2.96037">
        <ele>1143.8</ele>
        <time>2021-08-08T12:51:55Z</time>
      </trkpt>
      <trkpt lat="45.78817" lon="2.9605">
        <ele>1143.3</ele>
        <time>2021-08-08T12:52:01Z</time>
      </trkpt>
      <trkpt lat="45.78816" lon="2.96052">
        <ele>1143.1</ele>
        <time>2021-08-08T12:52:02Z</time>
      </trkpt>
      <trkpt lat="45.78817" lon="2.96062">
        <ele>1142.2</ele>
        <time>2021-08-08T12:52:07Z</time>
      </trkpt>
      <trkpt lat="45.78815" lon="2.96069">
        <ele>1141.4</ele>
        <time>2021-08-08T12:52:09Z</time>
      </trkpt>
      <trkpt lat="45.78814" lon="2.96077">
        <ele>1140.9</ele>
        <time>2021-08-08T12:52:12Z</time>
      </trkpt>
      <trkpt lat="45.78814" lon="2.96079">
        <ele>1140.7</ele>
        <time>2021-08-08T12:52:13Z</time>
      </trkpt>
      <trkpt lat="45.78815" lon="2.96096">
        <ele>1139.9</ele>
        <time>2021-08-08T12:52:20Z</time>
      </trkpt>
      <trkpt lat="45.78814" lon="2.96104">
        <ele>1139.6</ele>
        <time>2021-08-08T12:52:24Z</time>
      </trkpt>
      <trkpt lat="45.78814" lon="2.96106">
        <ele>1139.6</ele>
        <time>2021-08-08T12:52:25Z</time>
      </trkpt>
      <trkpt lat="45.78813" lon="2.96127">
        <ele>1137.7</ele>
        <time>2021-08-08T12:52:35Z</time>
      </trkpt>
      <trkpt lat="45.78813" lon="2.96129">
        <ele>1137.5</ele>
        <time>2021-08-08T12:52:36Z</time>
      </trkpt>
      <trkpt lat="45.78815" lon="2.96151">
        <ele>1136.3</ele>
        <time>2021-08-08T12:52:47Z</time>
      </trkpt>
      <trkpt lat="45.78815" lon="2.96153">
        <ele>1136</ele>
        <time>2021-08-08T12:52:48Z</time>
      </trkpt>
      <trkpt lat="45.78814" lon="2.96158">
        <ele>1135</ele>
        <time>2021-08-08T12:52:51Z</time>
      </trkpt>
      <trkpt lat="45.78814" lon="2.96171">
        <ele>1134.4</ele>
        <time>2021-08-08T12:52:57Z</time>
      </trkpt>
      <trkpt lat="45.78814" lon="2.96173">
        <ele>1134.3</ele>
        <time>2021-08-08T12:52:58Z</time>
      </trkpt>
      <trkpt lat="45.78813" lon="2.96193">
        <ele>1133.2</ele>
        <time>2021-08-08T12:53:07Z</time>
      </trkpt>
      <trkpt lat="45.78813" lon="2.96196">
        <ele>1133.2</ele>
        <time>2021-08-08T12:53:08Z</time>
      </trkpt>
      <trkpt lat="45.78811" lon="2.96208">
        <ele>1133.6</ele>
        <time>2021-08-08T12:53:13Z</time>
      </trkpt>
      <trkpt lat="45.78811" lon="2.96219">
        <ele>1134.2</ele>
        <time>2021-08-08T12:53:19Z</time>
      </trkpt>
      <trkpt lat="45.78811" lon="2.9622">
        <ele>1134.2</ele>
        <time>2021-08-08T12:53:20Z</time>
      </trkpt>
      <trkpt lat="45.78812" lon="2.96227">
        <ele>1134.2</ele>
        <time>2021-08-08T12:53:28Z</time>
      </trkpt>
      <trkpt lat="45.7881" lon="2.96241">
        <ele>1133.6</ele>
        <time>2021-08-08T12:53:34Z</time>
      </trkpt>
      <trkpt lat="45.7881" lon="2.96243">
        <ele>1133.6</ele>
        <time>2021-08-08T12:53:35Z</time>
      </trkpt>
      <trkpt lat="45.78808" lon="2.96252">
        <ele>1133.3</ele>
        <time>2021-08-08T12:53:40Z</time>
      </trkpt>
      <trkpt lat="45.78804" lon="2.96264">
        <ele>1133.1</ele>
        <time>2021-08-08T12:53:46Z</time>
      </trkpt>
      <trkpt lat="45.78804" lon="2.96267">
        <ele>1133.1</ele>
        <time>2021-08-08T12:53:47Z</time>
      </trkpt>
      <trkpt lat="45.788" lon="2.96277">
        <ele>1132.9</ele>
        <time>2021-08-08T12:53:51Z</time>
      </trkpt>
      <trkpt lat="45.78795" lon="2.96286">
        <ele>1131.8</ele>
        <time>2021-08-08T12:53:56Z</time>
      </trkpt>
      <trkpt lat="45.78794" lon="2.96288">
        <ele>1131.5</ele>
        <time>2021-08-08T12:53:57Z</time>
      </trkpt>
      <trkpt lat="45.78785" lon="2.96305">
        <ele>1129.7</ele>
        <time>2021-08-08T12:54:06Z</time>
      </trkpt>
      <trkpt lat="45.78784" lon="2.96307">
        <ele>1129.6</ele>
        <time>2021-08-08T12:54:07Z</time>
      </trkpt>
      <trkpt lat="45.78775" lon="2.96326">
        <ele>1130.2</ele>
        <time>2021-08-08T12:54:18Z</time>
      </trkpt>
      <trkpt lat="45.78774" lon="2.96327">
        <ele>1130.1</ele>
        <time>2021-08-08T12:54:19Z</time>
      </trkpt>
      <trkpt lat="45.78767" lon="2.96336">
        <ele>1129.5</ele>
        <time>2021-08-08T12:54:28Z</time>
      </trkpt>
      <trkpt lat="45.78767" lon="2.96339">
        <ele>1129.1</ele>
        <time>2021-08-08T12:54:30Z</time>
      </trkpt>
      <trkpt lat="45.78771" lon="2.96348">
        <ele>1127.9</ele>
        <time>2021-08-08T12:54:37Z</time>
      </trkpt>
      <trkpt lat="45.78772" lon="2.9635">
        <ele>1127.8</ele>
        <time>2021-08-08T12:54:38Z</time>
      </trkpt>
      <trkpt lat="45.78778" lon="2.9636">
        <ele>1127.4</ele>
        <time>2021-08-08T12:54:45Z</time>
      </trkpt>
      <trkpt lat="45.78783" lon="2.96366">
        <ele>1128.3</ele>
        <time>2021-08-08T12:54:50Z</time>
      </trkpt>
      <trkpt lat="45.78784" lon="2.96367">
        <ele>1128.5</ele>
        <time>2021-08-08T12:54:51Z</time>
      </trkpt>
      <trkpt lat="45.7879" lon="2.96374">
        <ele>1129.3</ele>
        <time>2021-08-08T12:54:55Z</time>
      </trkpt>
      <trkpt lat="45.78794" lon="2.96384">
        <ele>1130</ele>
        <time>2021-08-08T12:55:00Z</time>
      </trkpt>
      <trkpt lat="45.78794" lon="2.96385">
        <ele>1130.2</ele>
        <time>2021-08-08T12:55:01Z</time>
      </trkpt>
      <trkpt lat="45.78801" lon="2.96396">
        <ele>1131.4</ele>
        <time>2021-08-08T12:55:08Z</time>
      </trkpt>
      <trkpt lat="45.78804" lon="2.96402">
        <ele>1132.1</ele>
        <time>2021-08-08T12:55:11Z</time>
      </trkpt>
      <trkpt lat="45.78804" lon="2.96404">
        <ele>1132.4</ele>
        <time>2021-08-08T12:55:12Z</time>
      </trkpt>
      <trkpt lat="45.7881" lon="2.96422">
        <ele>1134.1</ele>
        <time>2021-08-08T12:55:21Z</time>
      </trkpt>
      <trkpt lat="45.78811" lon="2.96424">
        <ele>1134.4</ele>
        <time>2021-08-08T12:55:22Z</time>
      </trkpt>
      <trkpt lat="45.78817" lon="2.96441">
        <ele>1136.5</ele>
        <time>2021-08-08T12:55:31Z</time>
      </trkpt>
      <trkpt lat="45.78818" lon="2.96443">
        <ele>1136.6</ele>
        <time>2021-08-08T12:55:32Z</time>
      </trkpt>
      <trkpt lat="45.78825" lon="2.96462">
        <ele>1136.5</ele>
        <time>2021-08-08T12:55:42Z</time>
      </trkpt>
      <trkpt lat="45.78825" lon="2.96464">
        <ele>1136.3</ele>
        <time>2021-08-08T12:55:43Z</time>
      </trkpt>
      <trkpt lat="45.78832" lon="2.96476">
        <ele>1137.2</ele>
        <time>2021-08-08T12:55:52Z</time>
      </trkpt>
      <trkpt lat="45.78835" lon="2.96478">
        <ele>1137.3</ele>
        <time>2021-08-08T12:55:54Z</time>
      </trkpt>
      <trkpt lat="45.78836" lon="2.96482">
        <ele>1136.8</ele>
        <time>2021-08-08T12:55:58Z</time>
      </trkpt>
      <trkpt lat="45.78837" lon="2.96483">
        <ele>1136.5</ele>
        <time>2021-08-08T12:55:59Z</time>
      </trkpt>
      <trkpt lat="45.78841" lon="2.96488">
        <ele>1136.9</ele>
        <time>2021-08-08T12:56:06Z</time>
      </trkpt>
      <trkpt lat="45.78849" lon="2.96475">
        <ele>1135.1</ele>
        <time>2021-08-08T12:56:32Z</time>
      </trkpt>
      <trkpt lat="45.7885" lon="2.96473">
        <ele>1135</ele>
        <time>2021-08-08T12:56:33Z</time>
      </trkpt>
      <trkpt lat="45.78854" lon="2.96467">
        <ele>1134.6</ele>
        <time>2021-08-08T12:56:38Z</time>
      </trkpt>
      <trkpt lat="45.78858" lon="2.96451">
        <ele>1133.7</ele>
        <time>2021-08-08T12:56:52Z</time>
      </trkpt>
      <trkpt lat="45.78859" lon="2.96449">
        <ele>1133.7</ele>
        <time>2021-08-08T12:56:53Z</time>
      </trkpt>
      <trkpt lat="45.78859" lon="2.96426">
        <ele>1134.1</ele>
        <time>2021-08-08T12:57:06Z</time>
      </trkpt>
      <trkpt lat="45.78859" lon="2.96424">
        <ele>1134.1</ele>
        <time>2021-08-08T12:57:07Z</time>
      </trkpt>
      <trkpt lat="45.7887" lon="2.96408">
        <ele>1134.5</ele>
        <time>2021-08-08T12:57:20Z</time>
      </trkpt>
      <trkpt lat="45.7887" lon="2.96407">
        <ele>1134.6</ele>
        <time>2021-08-08T12:57:21Z</time>
      </trkpt>
      <trkpt lat="45.78877" lon="2.964">
        <ele>1135.3</ele>
        <time>2021-08-08T12:57:28Z</time>
      </trkpt>
      <trkpt lat="45.78882" lon="2.96388">
        <ele>1136.9</ele>
        <time>2021-08-08T12:57:38Z</time>
      </trkpt>
      <trkpt lat="45.78882" lon="2.96387">
        <ele>1137.1</ele>
        <time>2021-08-08T12:57:39Z</time>
      </trkpt>
      <trkpt lat="45.78889" lon="2.96378">
        <ele>1138.5</ele>
        <time>2021-08-08T12:57:47Z</time>
      </trkpt>
      <trkpt lat="45.78894" lon="2.96369">
        <ele>1140.1</ele>
        <time>2021-08-08T12:57:55Z</time>
      </trkpt>
      <trkpt lat="45.78894" lon="2.96368">
        <ele>1140.2</ele>
        <time>2021-08-08T12:57:56Z</time>
      </trkpt>
      <trkpt lat="45.78898" lon="2.96358">
        <ele>1141.2</ele>
        <time>2021-08-08T12:58:04Z</time>
      </trkpt>
      <trkpt lat="45.78899" lon="2.96345">
        <ele>1144.1</ele>
        <time>2021-08-08T12:58:18Z</time>
      </trkpt>
      <trkpt lat="45.789" lon="2.96344">
        <ele>1144.5</ele>
        <time>2021-08-08T12:58:19Z</time>
      </trkpt>
      <trkpt lat="45.78907" lon="2.96321">
        <ele>1148.2</ele>
        <time>2021-08-08T12:58:43Z</time>
      </trkpt>
      <trkpt lat="45.78907" lon="2.9632">
        <ele>1148.5</ele>
        <time>2021-08-08T12:58:44Z</time>
      </trkpt>
      <trkpt lat="45.78909" lon="2.9631">
        <ele>1150.2</ele>
        <time>2021-08-08T12:58:53Z</time>
      </trkpt>
      <trkpt lat="45.78911" lon="2.96304">
        <ele>1151.2</ele>
        <time>2021-08-08T12:58:58Z</time>
      </trkpt>
      <trkpt lat="45.78913" lon="2.96296">
        <ele>1153.3</ele>
        <time>2021-08-08T12:59:06Z</time>
      </trkpt>
      <trkpt lat="45.78913" lon="2.96295">
        <ele>1153.5</ele>
        <time>2021-08-08T12:59:07Z</time>
      </trkpt>
      <trkpt lat="45.78916" lon="2.96287">
        <ele>1155.7</ele>
        <time>2021-08-08T12:59:16Z</time>
      </trkpt>
      <trkpt lat="45.78917" lon="2.96277">
        <ele>1157.7</ele>
        <time>2021-08-08T12:59:27Z</time>
      </trkpt>
      <trkpt lat="45.7892" lon="2.96272">
        <ele>1158.7</ele>
        <time>2021-08-08T12:59:33Z</time>
      </trkpt>
      <trkpt lat="45.78921" lon="2.96271">
        <ele>1158.9</ele>
        <time>2021-08-08T12:59:34Z</time>
      </trkpt>
      <trkpt lat="45.78923" lon="2.96268">
        <ele>1159.8</ele>
        <time>2021-08-08T12:59:41Z</time>
      </trkpt>
      <trkpt lat="45.78926" lon="2.96257">
        <ele>1165.1</ele>
        <time>2021-08-08T13:00:07Z</time>
      </trkpt>
      <trkpt lat="45.78924" lon="2.96248">
        <ele>1167.9</ele>
        <time>2021-08-08T13:00:24Z</time>
      </trkpt>
      <trkpt lat="45.78924" lon="2.96247">
        <ele>1168.1</ele>
        <time>2021-08-08T13:00:25Z</time>
      </trkpt>
      <trkpt lat="45.78931" lon="2.96244">
        <ele>1172.3</ele>
        <time>2021-08-08T13:00:42Z</time>
      </trkpt>
      <trkpt lat="45.78938" lon="2.96243">
        <ele>1174.7</ele>
        <time>2021-08-08T13:00:56Z</time>
      </trkpt>
      <trkpt lat="45.7894" lon="2.96239">
        <ele>1175.5</ele>
        <time>2021-08-08T13:01:01Z</time>
      </trkpt>
      <trkpt lat="45.7894" lon="2.96238">
        <ele>1175.7</ele>
        <time>2021-08-08T13:01:02Z</time>
      </trkpt>
      <trkpt lat="45.78943" lon="2.96233">
        <ele>1177.9</ele>
        <time>2021-08-08T13:01:21Z</time>
      </trkpt>
      <trkpt lat="45.78946" lon="2.96238">
        <ele>1178.5</ele>
        <time>2021-08-08T13:01:27Z</time>
      </trkpt>
      <trkpt lat="45.78948" lon="2.96238">
        <ele>1178.7</ele>
        <time>2021-08-08T13:01:30Z</time>
      </trkpt>
      <trkpt lat="45.78953" lon="2.96234">
        <ele>1179.8</ele>
        <time>2021-08-08T13:01:41Z</time>
      </trkpt>
      <trkpt lat="45.78953" lon="2.96233">
        <ele>1179.8</ele>
        <time>2021-08-08T13:01:42Z</time>
      </trkpt>
      <trkpt lat="45.78956" lon="2.96229">
        <ele>1180.7</ele>
        <time>2021-08-08T13:01:48Z</time>
      </trkpt>
      <trkpt lat="45.78959" lon="2.96229">
        <ele>1181.7</ele>
        <time>2021-08-08T13:01:52Z</time>
      </trkpt>
      <trkpt lat="45.78963" lon="2.9623">
        <ele>1182.3</ele>
        <time>2021-08-08T13:01:56Z</time>
      </trkpt>
      <trkpt lat="45.78967" lon="2.96229">
        <ele>1183.2</ele>
        <time>2021-08-08T13:02:01Z</time>
      </trkpt>
      <trkpt lat="45.78968" lon="2.96229">
        <ele>1183.3</ele>
        <time>2021-08-08T13:02:02Z</time>
      </trkpt>
      <trkpt lat="45.78973" lon="2.96227">
        <ele>1184.2</ele>
        <time>2021-08-08T13:02:09Z</time>
      </trkpt>
      <trkpt lat="45.78977" lon="2.96228">
        <ele>1184.7</ele>
        <time>2021-08-08T13:02:14Z</time>
      </trkpt>
      <trkpt lat="45.78979" lon="2.9623">
        <ele>1185</ele>
        <time>2021-08-08T13:02:17Z</time>
      </trkpt>
      <trkpt lat="45.78985" lon="2.96229">
        <ele>1185.7</ele>
        <time>2021-08-08T13:02:23Z</time>
      </trkpt>
      <trkpt lat="45.78986" lon="2.96229">
        <ele>1185.8</ele>
        <time>2021-08-08T13:02:24Z</time>
      </trkpt>
      <trkpt lat="45.78995" lon="2.96226">
        <ele>1187.6</ele>
        <time>2021-08-08T13:02:35Z</time>
      </trkpt>
      <trkpt lat="45.79002" lon="2.96228">
        <ele>1188.9</ele>
        <time>2021-08-08T13:02:44Z</time>
      </trkpt>
      <trkpt lat="45.79003" lon="2.96228">
        <ele>1189</ele>
        <time>2021-08-08T13:02:45Z</time>
      </trkpt>
      <trkpt lat="45.79015" lon="2.96226">
        <ele>1189.5</ele>
        <time>2021-08-08T13:03:07Z</time>
      </trkpt>
      <trkpt lat="45.79018" lon="2.96226">
        <ele>1189.5</ele>
        <time>2021-08-08T13:03:10Z</time>
      </trkpt>
      <trkpt lat="45.79018" lon="2.96227">
        <ele>1189.5</ele>
        <time>2021-08-08T13:03:11Z</time>
      </trkpt>
      <trkpt lat="45.79018" lon="2.96229">
        <ele>1189.4</ele>
        <time>2021-08-08T13:03:12Z</time>
      </trkpt>
      <trkpt lat="45.7902" lon="2.96239">
        <ele>1188.9</ele>
        <time>2021-08-08T13:03:20Z</time>
      </trkpt>
      <trkpt lat="45.79027" lon="2.9625">
        <ele>1187.5</ele>
        <time>2021-08-08T13:03:30Z</time>
      </trkpt>
      <trkpt lat="45.79027" lon="2.96252">
        <ele>1187.4</ele>
        <time>2021-08-08T13:03:31Z</time>
      </trkpt>
      <trkpt lat="45.79034" lon="2.96272">
        <ele>1185.4</ele>
        <time>2021-08-08T13:03:47Z</time>
      </trkpt>
      <trkpt lat="45.79035" lon="2.96273">
        <ele>1185.3</ele>
        <time>2021-08-08T13:03:48Z</time>
      </trkpt>
      <trkpt lat="45.79038" lon="2.96276">
        <ele>1185.1</ele>
        <time>2021-08-08T13:03:51Z</time>
      </trkpt>
      <trkpt lat="45.79042" lon="2.96294">
        <ele>1182.3</ele>
        <time>2021-08-08T13:04:02Z</time>
      </trkpt>
      <trkpt lat="45.79043" lon="2.96295">
        <ele>1182</ele>
        <time>2021-08-08T13:04:03Z</time>
      </trkpt>
      <trkpt lat="45.79046" lon="2.96318">
        <ele>1176.1</ele>
        <time>2021-08-08T13:04:23Z</time>
      </trkpt>
      <trkpt lat="45.79047" lon="2.9632">
        <ele>1175.9</ele>
        <time>2021-08-08T13:04:24Z</time>
      </trkpt>
      <trkpt lat="45.79047" lon="2.9633">
        <ele>1173.3</ele>
        <time>2021-08-08T13:04:32Z</time>
      </trkpt>
      <trkpt lat="45.79049" lon="2.96345">
        <ele>1169.2</ele>
        <time>2021-08-08T13:04:43Z</time>
      </trkpt>
      <trkpt lat="45.7905" lon="2.96346">
        <ele>1168.8</ele>
        <time>2021-08-08T13:04:44Z</time>
      </trkpt>
      <trkpt lat="45.79051" lon="2.96357">
        <ele>1166.6</ele>
        <time>2021-08-08T13:04:52Z</time>
      </trkpt>
      <trkpt lat="45.79056" lon="2.96364">
        <ele>1165</ele>
        <time>2021-08-08T13:04:58Z</time>
      </trkpt>
      <trkpt lat="45.79057" lon="2.96369">
        <ele>1164.1</ele>
        <time>2021-08-08T13:05:01Z</time>
      </trkpt>
      <trkpt lat="45.79058" lon="2.9637">
        <ele>1163.8</ele>
        <time>2021-08-08T13:05:02Z</time>
      </trkpt>
      <trkpt lat="45.7906" lon="2.96381">
        <ele>1161</ele>
        <time>2021-08-08T13:05:10Z</time>
      </trkpt>
      <trkpt lat="45.79062" lon="2.96395">
        <ele>1158.6</ele>
        <time>2021-08-08T13:05:20Z</time>
      </trkpt>
      <trkpt lat="45.79063" lon="2.96397">
        <ele>1158.4</ele>
        <time>2021-08-08T13:05:21Z</time>
      </trkpt>
      <trkpt lat="45.79065" lon="2.96408">
        <ele>1155.7</ele>
        <time>2021-08-08T13:05:29Z</time>
      </trkpt>
      <trkpt lat="45.79071" lon="2.9642">
        <ele>1153.2</ele>
        <time>2021-08-08T13:05:38Z</time>
      </trkpt>
      <trkpt lat="45.79072" lon="2.96421">
        <ele>1152.9</ele>
        <time>2021-08-08T13:05:39Z</time>
      </trkpt>
      <trkpt lat="45.79081" lon="2.96435">
        <ele>1148.8</ele>
        <time>2021-08-08T13:05:51Z</time>
      </trkpt>
      <trkpt lat="45.79083" lon="2.96438">
        <ele>1147.4</ele>
        <time>2021-08-08T13:05:55Z</time>
      </trkpt>
      <trkpt lat="45.79084" lon="2.96439">
        <ele>1146.8</ele>
        <time>2021-08-08T13:05:56Z</time>
      </trkpt>
      <trkpt lat="45.79088" lon="2.96456">
        <ele>1143</ele>
        <time>2021-08-08T13:06:05Z</time>
      </trkpt>
      <trkpt lat="45.79089" lon="2.96458">
        <ele>1142.9</ele>
        <time>2021-08-08T13:06:06Z</time>
      </trkpt>
      <trkpt lat="45.791" lon="2.96479">
        <ele>1140.4</ele>
        <time>2021-08-08T13:06:20Z</time>
      </trkpt>
      <trkpt lat="45.79101" lon="2.96481">
        <ele>1140.3</ele>
        <time>2021-08-08T13:06:21Z</time>
      </trkpt>
      <trkpt lat="45.79102" lon="2.96486">
        <ele>1139.6</ele>
        <time>2021-08-08T13:06:24Z</time>
      </trkpt>
      <trkpt lat="45.79104" lon="2.96491">
        <ele>1139</ele>
        <time>2021-08-08T13:06:27Z</time>
      </trkpt>
      <trkpt lat="45.79107" lon="2.96501">
        <ele>1136.8</ele>
        <time>2021-08-08T13:06:33Z</time>
      </trkpt>
      <trkpt lat="45.79108" lon="2.96503">
        <ele>1136.3</ele>
        <time>2021-08-08T13:06:34Z</time>
      </trkpt>
      <trkpt lat="45.79112" lon="2.96513">
        <ele>1133.8</ele>
        <time>2021-08-08T13:06:39Z</time>
      </trkpt>
      <trkpt lat="45.79114" lon="2.96523">
        <ele>1131.2</ele>
        <time>2021-08-08T13:06:44Z</time>
      </trkpt>
      <trkpt lat="45.79114" lon="2.96524">
        <ele>1130.6</ele>
        <time>2021-08-08T13:06:45Z</time>
      </trkpt>
      <trkpt lat="45.79122" lon="2.96534">
        <ele>1127.9</ele>
        <time>2021-08-08T13:06:52Z</time>
      </trkpt>
      <trkpt lat="45.79124" lon="2.96542">
        <ele>1126.2</ele>
        <time>2021-08-08T13:06:57Z</time>
      </trkpt>
      <trkpt lat="45.79124" lon="2.96544">
        <ele>1126</ele>
        <time>2021-08-08T13:06:58Z</time>
      </trkpt>
      <trkpt lat="45.79132" lon="2.96561">
        <ele>1122.9</ele>
        <time>2021-08-08T13:07:07Z</time>
      </trkpt>
      <trkpt lat="45.79132" lon="2.96563">
        <ele>1122.6</ele>
        <time>2021-08-08T13:07:08Z</time>
      </trkpt>
      <trkpt lat="45.79136" lon="2.96571">
        <ele>1121.6</ele>
        <time>2021-08-08T13:07:13Z</time>
      </trkpt>
      <trkpt lat="45.79137" lon="2.96581">
        <ele>1119.8</ele>
        <time>2021-08-08T13:07:19Z</time>
      </trkpt>
      <trkpt lat="45.79139" lon="2.96585">
        <ele>1119.1</ele>
        <time>2021-08-08T13:07:21Z</time>
      </trkpt>
      <trkpt lat="45.7914" lon="2.96587">
        <ele>1118.7</ele>
        <time>2021-08-08T13:07:22Z</time>
      </trkpt>
      <trkpt lat="45.79151" lon="2.96602">
        <ele>1116.6</ele>
        <time>2021-08-08T13:07:33Z</time>
      </trkpt>
      <trkpt lat="45.79152" lon="2.96604">
        <ele>1116.5</ele>
        <time>2021-08-08T13:07:34Z</time>
      </trkpt>
      <trkpt lat="45.79156" lon="2.96615">
        <ele>1116.4</ele>
        <time>2021-08-08T13:07:40Z</time>
      </trkpt>
      <trkpt lat="45.79161" lon="2.96624">
        <ele>1116.5</ele>
        <time>2021-08-08T13:07:46Z</time>
      </trkpt>
      <trkpt lat="45.79162" lon="2.96626">
        <ele>1116.4</ele>
        <time>2021-08-08T13:07:47Z</time>
      </trkpt>
      <trkpt lat="45.79166" lon="2.96632">
        <ele>1116</ele>
        <time>2021-08-08T13:07:51Z</time>
      </trkpt>
      <trkpt lat="45.79169" lon="2.96641">
        <ele>1114.7</ele>
        <time>2021-08-08T13:07:56Z</time>
      </trkpt>
      <trkpt lat="45.7917" lon="2.96643">
        <ele>1114.3</ele>
        <time>2021-08-08T13:07:57Z</time>
      </trkpt>
      <trkpt lat="45.79173" lon="2.9665">
        <ele>1113.3</ele>
        <time>2021-08-08T13:08:01Z</time>
      </trkpt>
      <trkpt lat="45.79178" lon="2.96661">
        <ele>1111.7</ele>
        <time>2021-08-08T13:08:07Z</time>
      </trkpt>
      <trkpt lat="45.79179" lon="2.96663">
        <ele>1111.5</ele>
        <time>2021-08-08T13:08:08Z</time>
      </trkpt>
      <trkpt lat="45.79187" lon="2.96679">
        <ele>1108.7</ele>
        <time>2021-08-08T13:08:17Z</time>
      </trkpt>
      <trkpt lat="45.79188" lon="2.96684">
        <ele>1108.2</ele>
        <time>2021-08-08T13:08:19Z</time>
      </trkpt>
      <trkpt lat="45.79189" lon="2.96686">
        <ele>1108.1</ele>
        <time>2021-08-08T13:08:20Z</time>
      </trkpt>
      <trkpt lat="45.79193" lon="2.96699">
        <ele>1106.6</ele>
        <time>2021-08-08T13:08:27Z</time>
      </trkpt>
      <trkpt lat="45.79196" lon="2.96705">
        <ele>1106</ele>
        <time>2021-08-08T13:08:30Z</time>
      </trkpt>
      <trkpt lat="45.79196" lon="2.96707">
        <ele>1105.8</ele>
        <time>2021-08-08T13:08:31Z</time>
      </trkpt>
      <trkpt lat="45.79201" lon="2.96713">
        <ele>1104.8</ele>
        <time>2021-08-08T13:08:35Z</time>
      </trkpt>
      <trkpt lat="45.79206" lon="2.96716">
        <ele>1104.1</ele>
        <time>2021-08-08T13:08:38Z</time>
      </trkpt>
      <trkpt lat="45.79209" lon="2.96719">
        <ele>1103.4</ele>
        <time>2021-08-08T13:08:40Z</time>
      </trkpt>
      <trkpt lat="45.79209" lon="2.96721">
        <ele>1103.1</ele>
        <time>2021-08-08T13:08:41Z</time>
      </trkpt>
      <trkpt lat="45.79222" lon="2.96737">
        <ele>1097.9</ele>
        <time>2021-08-08T13:08:50Z</time>
      </trkpt>
      <trkpt lat="45.79223" lon="2.96738">
        <ele>1097.5</ele>
        <time>2021-08-08T13:08:51Z</time>
      </trkpt>
      <trkpt lat="45.79234" lon="2.96753">
        <ele>1095.1</ele>
        <time>2021-08-08T13:09:01Z</time>
      </trkpt>
      <trkpt lat="45.79235" lon="2.96754">
        <ele>1094.8</ele>
        <time>2021-08-08T13:09:02Z</time>
      </trkpt>
      <trkpt lat="45.7924" lon="2.96762">
        <ele>1093.7</ele>
        <time>2021-08-08T13:09:06Z</time>
      </trkpt>
      <trkpt lat="45.79247" lon="2.96768">
        <ele>1092.2</ele>
        <time>2021-08-08T13:09:11Z</time>
      </trkpt>
      <trkpt lat="45.79248" lon="2.9677">
        <ele>1092</ele>
        <time>2021-08-08T13:09:12Z</time>
      </trkpt>
      <trkpt lat="45.79258" lon="2.96785">
        <ele>1090.3</ele>
        <time>2021-08-08T13:09:21Z</time>
      </trkpt>
      <trkpt lat="45.79259" lon="2.96787">
        <ele>1090</ele>
        <time>2021-08-08T13:09:22Z</time>
      </trkpt>
      <trkpt lat="45.79263" lon="2.96793">
        <ele>1088.1</ele>
        <time>2021-08-08T13:09:26Z</time>
      </trkpt>
      <trkpt lat="45.7927" lon="2.96801">
        <ele>1085.6</ele>
        <time>2021-08-08T13:09:31Z</time>
      </trkpt>
      <trkpt lat="45.79272" lon="2.96802">
        <ele>1085.2</ele>
        <time>2021-08-08T13:09:32Z</time>
      </trkpt>
      <trkpt lat="45.79277" lon="2.96806">
        <ele>1084.5</ele>
        <time>2021-08-08T13:09:35Z</time>
      </trkpt>
      <trkpt lat="45.79284" lon="2.96815">
        <ele>1084</ele>
        <time>2021-08-08T13:09:41Z</time>
      </trkpt>
      <trkpt lat="45.79286" lon="2.96816">
        <ele>1083.9</ele>
        <time>2021-08-08T13:09:42Z</time>
      </trkpt>
      <trkpt lat="45.79293" lon="2.96828">
        <ele>1083.6</ele>
        <time>2021-08-08T13:09:48Z</time>
      </trkpt>
      <trkpt lat="45.79297" lon="2.96831">
        <ele>1082.9</ele>
        <time>2021-08-08T13:09:51Z</time>
      </trkpt>
      <trkpt lat="45.79298" lon="2.96832">
        <ele>1082.6</ele>
        <time>2021-08-08T13:09:52Z</time>
      </trkpt>
      <trkpt lat="45.79303" lon="2.96834">
        <ele>1082.9</ele>
        <time>2021-08-08T13:09:55Z</time>
      </trkpt>
      <trkpt lat="45.7931" lon="2.96842">
        <ele>1081.3</ele>
        <time>2021-08-08T13:10:01Z</time>
      </trkpt>
      <trkpt lat="45.79311" lon="2.96844">
        <ele>1081</ele>
        <time>2021-08-08T13:10:02Z</time>
      </trkpt>
      <trkpt lat="45.79311" lon="2.96846">
        <ele>1080.4</ele>
        <time>2021-08-08T13:10:03Z</time>
      </trkpt>
      <trkpt lat="45.79318" lon="2.96867">
        <ele>1077.8</ele>
        <time>2021-08-08T13:10:12Z</time>
      </trkpt>
      <trkpt lat="45.79319" lon="2.96869">
        <ele>1077.6</ele>
        <time>2021-08-08T13:10:13Z</time>
      </trkpt>
      <trkpt lat="45.79323" lon="2.96875">
        <ele>1077.5</ele>
        <time>2021-08-08T13:10:16Z</time>
      </trkpt>
      <trkpt lat="45.79329" lon="2.96888">
        <ele>1076.8</ele>
        <time>2021-08-08T13:10:23Z</time>
      </trkpt>
      <trkpt lat="45.7933" lon="2.9689">
        <ele>1076.7</ele>
        <time>2021-08-08T13:10:24Z</time>
      </trkpt>
      <trkpt lat="45.79331" lon="2.96894">
        <ele>1076.6</ele>
        <time>2021-08-08T13:10:26Z</time>
      </trkpt>
      <trkpt lat="45.79338" lon="2.96905">
        <ele>1077.1</ele>
        <time>2021-08-08T13:10:35Z</time>
      </trkpt>
      <trkpt lat="45.79341" lon="2.96906">
        <ele>1077.8</ele>
        <time>2021-08-08T13:10:39Z</time>
      </trkpt>
      <trkpt lat="45.79342" lon="2.96907">
        <ele>1077.8</ele>
        <time>2021-08-08T13:10:40Z</time>
      </trkpt>
      <trkpt lat="45.79344" lon="2.96909">
        <ele>1077.7</ele>
        <time>2021-08-08T13:10:44Z</time>
      </trkpt>
      <trkpt lat="45.79345" lon="2.96912">
        <ele>1077.5</ele>
        <time>2021-08-08T13:10:51Z</time>
      </trkpt>
      <trkpt lat="45.79346" lon="2.96922">
        <ele>1077.2</ele>
        <time>2021-08-08T13:10:59Z</time>
      </trkpt>
      <trkpt lat="45.79345" lon="2.96925">
        <ele>1076.8</ele>
        <time>2021-08-08T13:11:02Z</time>
      </trkpt>
      <trkpt lat="45.79346" lon="2.9693">
        <ele>1076.3</ele>
        <time>2021-08-08T13:11:07Z</time>
      </trkpt>
      <trkpt lat="45.79347" lon="2.96932">
        <ele>1076.3</ele>
        <time>2021-08-08T13:11:08Z</time>
      </trkpt>
      <trkpt lat="45.7935" lon="2.96947">
        <ele>1076.5</ele>
        <time>2021-08-08T13:11:17Z</time>
      </trkpt>
      <trkpt lat="45.7935" lon="2.96954">
        <ele>1076.6</ele>
        <time>2021-08-08T13:11:20Z</time>
      </trkpt>
      <trkpt lat="45.79351" lon="2.96955">
        <ele>1076.6</ele>
        <time>2021-08-08T13:11:21Z</time>
      </trkpt>
      <trkpt lat="45.7935" lon="2.96968">
        <ele>1077.3</ele>
        <time>2021-08-08T13:11:25Z</time>
      </trkpt>
      <trkpt lat="45.79352" lon="2.96982">
        <ele>1077.6</ele>
        <time>2021-08-08T13:11:33Z</time>
      </trkpt>
      <trkpt lat="45.79352" lon="2.96984">
        <ele>1077.7</ele>
        <time>2021-08-08T13:11:34Z</time>
      </trkpt>
      <trkpt lat="45.7936" lon="2.97005">
        <ele>1078.6</ele>
        <time>2021-08-08T13:11:51Z</time>
      </trkpt>
      <trkpt lat="45.7936" lon="2.97006">
        <ele>1078.7</ele>
        <time>2021-08-08T13:11:52Z</time>
      </trkpt>
      <trkpt lat="45.79365" lon="2.97018">
        <ele>1080.8</ele>
        <time>2021-08-08T13:12:05Z</time>
      </trkpt>
      <trkpt lat="45.79368" lon="2.97028">
        <ele>1081.4</ele>
        <time>2021-08-08T13:12:12Z</time>
      </trkpt>
      <trkpt lat="45.79368" lon="2.97029">
        <ele>1081.5</ele>
        <time>2021-08-08T13:12:13Z</time>
      </trkpt>
      <trkpt lat="45.7937" lon="2.97034">
        <ele>1081.8</ele>
        <time>2021-08-08T13:12:16Z</time>
      </trkpt>
      <trkpt lat="45.79372" lon="2.97043">
        <ele>1083.3</ele>
        <time>2021-08-08T13:12:24Z</time>
      </trkpt>
      <trkpt lat="45.79376" lon="2.97052">
        <ele>1085.3</ele>
        <time>2021-08-08T13:12:35Z</time>
      </trkpt>
      <trkpt lat="45.79376" lon="2.97053">
        <ele>1085.4</ele>
        <time>2021-08-08T13:12:36Z</time>
      </trkpt>
      <trkpt lat="45.79378" lon="2.97061">
        <ele>1085.7</ele>
        <time>2021-08-08T13:12:43Z</time>
      </trkpt>
      <trkpt lat="45.7938" lon="2.97063">
        <ele>1086.1</ele>
        <time>2021-08-08T13:12:46Z</time>
      </trkpt>
      <trkpt lat="45.7938" lon="2.9707">
        <ele>1087.3</ele>
        <time>2021-08-08T13:12:52Z</time>
      </trkpt>
      <trkpt lat="45.79384" lon="2.97076">
        <ele>1088.4</ele>
        <time>2021-08-08T13:12:57Z</time>
      </trkpt>
      <trkpt lat="45.79384" lon="2.97077">
        <ele>1088.5</ele>
        <time>2021-08-08T13:12:58Z</time>
      </trkpt>
      <trkpt lat="45.79388" lon="2.97082">
        <ele>1091.4</ele>
        <time>2021-08-08T13:13:06Z</time>
      </trkpt>
      <trkpt lat="45.79394" lon="2.97097">
        <ele>1095.1</ele>
        <time>2021-08-08T13:13:20Z</time>
      </trkpt>
      <trkpt lat="45.79395" lon="2.97099">
        <ele>1095.3</ele>
        <time>2021-08-08T13:13:21Z</time>
      </trkpt>
      <trkpt lat="45.794" lon="2.9712">
        <ele>1098.6</ele>
        <time>2021-08-08T13:13:37Z</time>
      </trkpt>
      <trkpt lat="45.79401" lon="2.97121">
        <ele>1098.7</ele>
        <time>2021-08-08T13:13:38Z</time>
      </trkpt>
      <trkpt lat="45.79405" lon="2.97126">
        <ele>1099.2</ele>
        <time>2021-08-08T13:13:44Z</time>
      </trkpt>
      <trkpt lat="45.7941" lon="2.97135">
        <ele>1100.4</ele>
        <time>2021-08-08T13:13:51Z</time>
      </trkpt>
      <trkpt lat="45.79413" lon="2.97138">
        <ele>1101.6</ele>
        <time>2021-08-08T13:13:55Z</time>
      </trkpt>
      <trkpt lat="45.79413" lon="2.97139">
        <ele>1101.8</ele>
        <time>2021-08-08T13:13:56Z</time>
      </trkpt>
      <trkpt lat="45.79416" lon="2.97146">
        <ele>1103.6</ele>
        <time>2021-08-08T13:14:03Z</time>
      </trkpt>
      <trkpt lat="45.79419" lon="2.97149">
        <ele>1104.9</ele>
        <time>2021-08-08T13:14:07Z</time>
      </trkpt>
      <trkpt lat="45.79426" lon="2.97157">
        <ele>1106.6</ele>
        <time>2021-08-08T13:14:14Z</time>
      </trkpt>
      <trkpt lat="45.79427" lon="2.97157">
        <ele>1106.9</ele>
        <time>2021-08-08T13:14:15Z</time>
      </trkpt>
      <trkpt lat="45.79431" lon="2.97161">
        <ele>1109.7</ele>
        <time>2021-08-08T13:14:21Z</time>
      </trkpt>
      <trkpt lat="45.79438" lon="2.97175">
        <ele>1114.6</ele>
        <time>2021-08-08T13:14:32Z</time>
      </trkpt>
      <trkpt lat="45.79439" lon="2.97176">
        <ele>1115</ele>
        <time>2021-08-08T13:14:33Z</time>
      </trkpt>
      <trkpt lat="45.79443" lon="2.97182">
        <ele>1116.7</ele>
        <time>2021-08-08T13:14:38Z</time>
      </trkpt>
      <trkpt lat="45.79443" lon="2.97189">
        <ele>1117.4</ele>
        <time>2021-08-08T13:14:41Z</time>
      </trkpt>
      <trkpt lat="45.79447" lon="2.97195">
        <ele>1119.5</ele>
        <time>2021-08-08T13:14:48Z</time>
      </trkpt>
      <trkpt lat="45.79448" lon="2.97195">
        <ele>1119.8</ele>
        <time>2021-08-08T13:14:49Z</time>
      </trkpt>
      <trkpt lat="45.79458" lon="2.97206">
        <ele>1123.7</ele>
        <time>2021-08-08T13:15:01Z</time>
      </trkpt>
      <trkpt lat="45.79463" lon="2.9721">
        <ele>1125.9</ele>
        <time>2021-08-08T13:15:07Z</time>
      </trkpt>
      <trkpt lat="45.79463" lon="2.97211">
        <ele>1126.3</ele>
        <time>2021-08-08T13:15:08Z</time>
      </trkpt>
      <trkpt lat="45.79472" lon="2.97224">
        <ele>1130.1</ele>
        <time>2021-08-08T13:15:20Z</time>
      </trkpt>
      <trkpt lat="45.79474" lon="2.97226">
        <ele>1130.8</ele>
        <time>2021-08-08T13:15:22Z</time>
      </trkpt>
      <trkpt lat="45.79477" lon="2.97228">
        <ele>1131.8</ele>
        <time>2021-08-08T13:15:25Z</time>
      </trkpt>
      <trkpt lat="45.79478" lon="2.9723">
        <ele>1132.2</ele>
        <time>2021-08-08T13:15:26Z</time>
      </trkpt>
      <trkpt lat="45.79483" lon="2.97233">
        <ele>1134</ele>
        <time>2021-08-08T13:15:31Z</time>
      </trkpt>
      <trkpt lat="45.79493" lon="2.97243">
        <ele>1139.5</ele>
        <time>2021-08-08T13:15:48Z</time>
      </trkpt>
      <trkpt lat="45.79493" lon="2.97243">
        <ele>1139.7</ele>
        <time>2021-08-08T13:15:49Z</time>
      </trkpt>
      <trkpt lat="45.79498" lon="2.97248">
        <ele>1142.4</ele>
        <time>2021-08-08T13:15:56Z</time>
      </trkpt>
      <trkpt lat="45.79503" lon="2.97257">
        <ele>1145</ele>
        <time>2021-08-08T13:16:04Z</time>
      </trkpt>
      <trkpt lat="45.79505" lon="2.97259">
        <ele>1146</ele>
        <time>2021-08-08T13:16:07Z</time>
      </trkpt>
      <trkpt lat="45.79505" lon="2.97259">
        <ele>1146.3</ele>
        <time>2021-08-08T13:16:08Z</time>
      </trkpt>
      <trkpt lat="45.79515" lon="2.97271">
        <ele>1151.7</ele>
        <time>2021-08-08T13:16:27Z</time>
      </trkpt>
      <trkpt lat="45.7952" lon="2.97274">
        <ele>1153.8</ele>
        <time>2021-08-08T13:16:33Z</time>
      </trkpt>
      <trkpt lat="45.79521" lon="2.97274">
        <ele>1154.1</ele>
        <time>2021-08-08T13:16:34Z</time>
      </trkpt>
      <trkpt lat="45.79531" lon="2.97286">
        <ele>1157.2</ele>
        <time>2021-08-08T13:16:48Z</time>
      </trkpt>
      <trkpt lat="45.79535" lon="2.97288">
        <ele>1158</ele>
        <time>2021-08-08T13:16:52Z</time>
      </trkpt>
      <trkpt lat="45.79536" lon="2.97288">
        <ele>1158.3</ele>
        <time>2021-08-08T13:16:53Z</time>
      </trkpt>
      <trkpt lat="45.79538" lon="2.97291">
        <ele>1158.9</ele>
        <time>2021-08-08T13:16:58Z</time>
      </trkpt>
      <trkpt lat="45.79542" lon="2.97299">
        <ele>1158.9</ele>
        <time>2021-08-08T13:17:08Z</time>
      </trkpt>
      <trkpt lat="45.79548" lon="2.97308">
        <ele>1160</ele>
        <time>2021-08-08T13:17:22Z</time>
      </trkpt>
      <trkpt lat="45.79548" lon="2.97308">
        <ele>1160</ele>
        <time>2021-08-08T13:17:23Z</time>
      </trkpt>
      <trkpt lat="45.79555" lon="2.97312">
        <ele>1160.4</ele>
        <time>2021-08-08T13:17:33Z</time>
      </trkpt>
      <trkpt lat="45.7956" lon="2.97324">
        <ele>1161.1</ele>
        <time>2021-08-08T13:17:44Z</time>
      </trkpt>
      <trkpt lat="45.7956" lon="2.97325">
        <ele>1161.2</ele>
        <time>2021-08-08T13:17:45Z</time>
      </trkpt>
      <trkpt lat="45.79569" lon="2.97338">
        <ele>1162.7</ele>
        <time>2021-08-08T13:18:02Z</time>
      </trkpt>
      <trkpt lat="45.79575" lon="2.97341">
        <ele>1163.5</ele>
        <time>2021-08-08T13:18:09Z</time>
      </trkpt>
      <trkpt lat="45.79575" lon="2.97342">
        <ele>1163.6</ele>
        <time>2021-08-08T13:18:10Z</time>
      </trkpt>
      <trkpt lat="45.7958" lon="2.97345">
        <ele>1164.4</ele>
        <time>2021-08-08T13:18:17Z</time>
      </trkpt>
      <trkpt lat="45.79583" lon="2.9735">
        <ele>1165.3</ele>
        <time>2021-08-08T13:18:24Z</time>
      </trkpt>
      <trkpt lat="45.79587" lon="2.97353">
        <ele>1166.1</ele>
        <time>2021-08-08T13:18:30Z</time>
      </trkpt>
      <trkpt lat="45.7959" lon="2.97353">
        <ele>1166.7</ele>
        <time>2021-08-08T13:18:33Z</time>
      </trkpt>
      <trkpt lat="45.7959" lon="2.97353">
        <ele>1166.8</ele>
        <time>2021-08-08T13:18:34Z</time>
      </trkpt>
      <trkpt lat="45.79596" lon="2.97355">
        <ele>1167.4</ele>
        <time>2021-08-08T13:18:41Z</time>
      </trkpt>
      <trkpt lat="45.79602" lon="2.97355">
        <ele>1167.9</ele>
        <time>2021-08-08T13:18:47Z</time>
      </trkpt>
      <trkpt lat="45.79607" lon="2.97358">
        <ele>1168.4</ele>
        <time>2021-08-08T13:18:53Z</time>
      </trkpt>
      <trkpt lat="45.79608" lon="2.97358">
        <ele>1168.5</ele>
        <time>2021-08-08T13:18:54Z</time>
      </trkpt>
      <trkpt lat="45.79611" lon="2.97358">
        <ele>1168.8</ele>
        <time>2021-08-08T13:18:59Z</time>
      </trkpt>
      <trkpt lat="45.79613" lon="2.9736">
        <ele>1168.9</ele>
        <time>2021-08-08T13:19:03Z</time>
      </trkpt>
      <trkpt lat="45.79623" lon="2.9737">
        <ele>1171.2</ele>
        <time>2021-08-08T13:19:18Z</time>
      </trkpt>
      <trkpt lat="45.79623" lon="2.97371">
        <ele>1171.4</ele>
        <time>2021-08-08T13:19:19Z</time>
      </trkpt>
      <trkpt lat="45.79632" lon="2.97374">
        <ele>1172.4</ele>
        <time>2021-08-08T13:19:29Z</time>
      </trkpt>
      <trkpt lat="45.79634" lon="2.97373">
        <ele>1172.8</ele>
        <time>2021-08-08T13:19:31Z</time>
      </trkpt>
      <trkpt lat="45.7964" lon="2.97374">
        <ele>1173.9</ele>
        <time>2021-08-08T13:19:38Z</time>
      </trkpt>
      <trkpt lat="45.7964" lon="2.97374">
        <ele>1174</ele>
        <time>2021-08-08T13:19:39Z</time>
      </trkpt>
      <trkpt lat="45.79648" lon="2.97375">
        <ele>1175.5</ele>
        <time>2021-08-08T13:19:48Z</time>
      </trkpt>
      <trkpt lat="45.7965" lon="2.97377">
        <ele>1176.2</ele>
        <time>2021-08-08T13:19:50Z</time>
      </trkpt>
      <trkpt lat="45.79652" lon="2.97377">
        <ele>1177.7</ele>
        <time>2021-08-08T13:19:55Z</time>
      </trkpt>
      <trkpt lat="45.79658" lon="2.97377">
        <ele>1180</ele>
        <time>2021-08-08T13:20:02Z</time>
      </trkpt>
      <trkpt lat="45.79659" lon="2.97376">
        <ele>1180.3</ele>
        <time>2021-08-08T13:20:03Z</time>
      </trkpt>
      <trkpt lat="45.7966" lon="2.97376">
        <ele>1180.7</ele>
        <time>2021-08-08T13:20:04Z</time>
      </trkpt>
      <trkpt lat="45.79662" lon="2.97377">
        <ele>1181.6</ele>
        <time>2021-08-08T13:20:07Z</time>
      </trkpt>
      <trkpt lat="45.79665" lon="2.97381">
        <ele>1182.2</ele>
        <time>2021-08-08T13:20:11Z</time>
      </trkpt>
      <trkpt lat="45.79669" lon="2.97383">
        <ele>1183.3</ele>
        <time>2021-08-08T13:20:15Z</time>
      </trkpt>
      <trkpt lat="45.79674" lon="2.97383">
        <ele>1184.1</ele>
        <time>2021-08-08T13:20:18Z</time>
      </trkpt>
      <trkpt lat="45.79675" lon="2.97383">
        <ele>1184.4</ele>
        <time>2021-08-08T13:20:19Z</time>
      </trkpt>
      <trkpt lat="45.79689" lon="2.97381">
        <ele>1186.4</ele>
        <time>2021-08-08T13:20:29Z</time>
      </trkpt>
      <trkpt lat="45.79692" lon="2.97379">
        <ele>1186.2</ele>
        <time>2021-08-08T13:20:32Z</time>
      </trkpt>
      <trkpt lat="45.79694" lon="2.97379">
        <ele>1186.1</ele>
        <time>2021-08-08T13:20:33Z</time>
      </trkpt>
      <trkpt lat="45.79709" lon="2.97372">
        <ele>1185</ele>
        <time>2021-08-08T13:20:43Z</time>
      </trkpt>
      <trkpt lat="45.7971" lon="2.97372">
        <ele>1184.8</ele>
        <time>2021-08-08T13:20:44Z</time>
      </trkpt>
      <trkpt lat="45.7972" lon="2.9737">
        <ele>1183</ele>
        <time>2021-08-08T13:20:50Z</time>
      </trkpt>
      <trkpt lat="45.79725" lon="2.97367">
        <ele>1182</ele>
        <time>2021-08-08T13:20:53Z</time>
      </trkpt>
      <trkpt lat="45.79727" lon="2.97366">
        <ele>1181.8</ele>
        <time>2021-08-08T13:20:54Z</time>
      </trkpt>
      <trkpt lat="45.79741" lon="2.97358">
        <ele>1179.9</ele>
        <time>2021-08-08T13:21:05Z</time>
      </trkpt>
      <trkpt lat="45.79742" lon="2.97357">
        <ele>1179.9</ele>
        <time>2021-08-08T13:21:06Z</time>
      </trkpt>
      <trkpt lat="45.79752" lon="2.97354">
        <ele>1178.4</ele>
        <time>2021-08-08T13:21:13Z</time>
      </trkpt>
      <trkpt lat="45.79756" lon="2.97351">
        <ele>1178.7</ele>
        <time>2021-08-08T13:21:17Z</time>
      </trkpt>
      <trkpt lat="45.79757" lon="2.9735">
        <ele>1178.6</ele>
        <time>2021-08-08T13:21:18Z</time>
      </trkpt>
      <trkpt lat="45.79761" lon="2.97346">
        <ele>1178</ele>
        <time>2021-08-08T13:21:21Z</time>
      </trkpt>
      <trkpt lat="45.79767" lon="2.97333">
        <ele>1176.7</ele>
        <time>2021-08-08T13:21:30Z</time>
      </trkpt>
      <trkpt lat="45.79768" lon="2.97332">
        <ele>1176.6</ele>
        <time>2021-08-08T13:21:31Z</time>
      </trkpt>
      <trkpt lat="45.79774" lon="2.97323">
        <ele>1176.3</ele>
        <time>2021-08-08T13:21:37Z</time>
      </trkpt>
      <trkpt lat="45.79779" lon="2.97319">
        <ele>1174.7</ele>
        <time>2021-08-08T13:21:42Z</time>
      </trkpt>
      <trkpt lat="45.79782" lon="2.97315">
        <ele>1173.6</ele>
        <time>2021-08-08T13:21:45Z</time>
      </trkpt>
      <trkpt lat="45.79784" lon="2.97314">
        <ele>1173.4</ele>
        <time>2021-08-08T13:21:46Z</time>
      </trkpt>
      <trkpt lat="45.7979" lon="2.9731">
        <ele>1172.4</ele>
        <time>2021-08-08T13:21:50Z</time>
      </trkpt>
      <trkpt lat="45.79795" lon="2.973">
        <ele>1170.8</ele>
        <time>2021-08-08T13:21:56Z</time>
      </trkpt>
      <trkpt lat="45.79795" lon="2.97298">
        <ele>1170.5</ele>
        <time>2021-08-08T13:21:57Z</time>
      </trkpt>
      <trkpt lat="45.79796" lon="2.97294">
        <ele>1170</ele>
        <time>2021-08-08T13:21:59Z</time>
      </trkpt>
      <trkpt lat="45.79803" lon="2.97282">
        <ele>1169.2</ele>
        <time>2021-08-08T13:22:06Z</time>
      </trkpt>
      <trkpt lat="45.79804" lon="2.9728">
        <ele>1169.2</ele>
        <time>2021-08-08T13:22:07Z</time>
      </trkpt>
      <trkpt lat="45.79813" lon="2.97259">
        <ele>1168.7</ele>
        <time>2021-08-08T13:22:19Z</time>
      </trkpt>
      <trkpt lat="45.79814" lon="2.97257">
        <ele>1168.9</ele>
        <time>2021-08-08T13:22:20Z</time>
      </trkpt>
      <trkpt lat="45.79814" lon="2.97251">
        <ele>1168.8</ele>
        <time>2021-08-08T13:22:23Z</time>
      </trkpt>
      <trkpt lat="45.79818" lon="2.9724">
        <ele>1167.7</ele>
        <time>2021-08-08T13:22:30Z</time>
      </trkpt>
      <trkpt lat="45.79818" lon="2.97237">
        <ele>1167.2</ele>
        <time>2021-08-08T13:22:31Z</time>
      </trkpt>
      <trkpt lat="45.79819" lon="2.97235">
        <ele>1166.9</ele>
        <time>2021-08-08T13:22:32Z</time>
      </trkpt>
      <trkpt lat="45.7982" lon="2.97212">
        <ele>1163.1</ele>
        <time>2021-08-08T13:22:43Z</time>
      </trkpt>
      <trkpt lat="45.7982" lon="2.9721">
        <ele>1162.6</ele>
        <time>2021-08-08T13:22:44Z</time>
      </trkpt>
      <trkpt lat="45.7982" lon="2.97186">
        <ele>1159.2</ele>
        <time>2021-08-08T13:22:57Z</time>
      </trkpt>
      <trkpt lat="45.7982" lon="2.97183">
        <ele>1158.8</ele>
        <time>2021-08-08T13:22:58Z</time>
      </trkpt>
      <trkpt lat="45.79818" lon="2.97171">
        <ele>1156.9</ele>
        <time>2021-08-08T13:23:05Z</time>
      </trkpt>
      <trkpt lat="45.79818" lon="2.97163">
        <ele>1156</ele>
        <time>2021-08-08T13:23:09Z</time>
      </trkpt>
      <trkpt lat="45.79818" lon="2.97161">
        <ele>1155.4</ele>
        <time>2021-08-08T13:23:10Z</time>
      </trkpt>
      <trkpt lat="45.79817" lon="2.97156">
        <ele>1154.2</ele>
        <time>2021-08-08T13:23:13Z</time>
      </trkpt>
      <trkpt lat="45.79815" lon="2.97149">
        <ele>1153.5</ele>
        <time>2021-08-08T13:23:17Z</time>
      </trkpt>
      <trkpt lat="45.79815" lon="2.97142">
        <ele>1153</ele>
        <time>2021-08-08T13:23:20Z</time>
      </trkpt>
      <trkpt lat="45.79815" lon="2.9714">
        <ele>1152.8</ele>
        <time>2021-08-08T13:23:21Z</time>
      </trkpt>
      <trkpt lat="45.79811" lon="2.97126">
        <ele>1153.5</ele>
        <time>2021-08-08T13:23:27Z</time>
      </trkpt>
      <trkpt lat="45.79812" lon="2.97124">
        <ele>1153.4</ele>
        <time>2021-08-08T13:23:28Z</time>
      </trkpt>
      <trkpt lat="45.79815" lon="2.97124">
        <ele>1153.2</ele>
        <time>2021-08-08T13:23:35Z</time>
      </trkpt>
      <trkpt lat="45.79815" lon="2.97125">
        <ele>1153</ele>
        <time>2021-08-08T13:23:36Z</time>
      </trkpt>
      <trkpt lat="45.79817" lon="2.97129">
        <ele>1152.5</ele>
        <time>2021-08-08T13:23:39Z</time>
      </trkpt>
      <trkpt lat="45.79828" lon="2.97142">
        <ele>1150</ele>
        <time>2021-08-08T13:23:52Z</time>
      </trkpt>
      <trkpt lat="45.79828" lon="2.97143">
        <ele>1149.6</ele>
        <time>2021-08-08T13:23:53Z</time>
      </trkpt>
      <trkpt lat="45.79834" lon="2.97149">
        <ele>1148.3</ele>
        <time>2021-08-08T13:23:58Z</time>
      </trkpt>
      <trkpt lat="45.79838" lon="2.9716">
        <ele>1146.8</ele>
        <time>2021-08-08T13:24:04Z</time>
      </trkpt>
      <trkpt lat="45.79838" lon="2.97164">
        <ele>1146.5</ele>
        <time>2021-08-08T13:24:05Z</time>
      </trkpt>
      <trkpt lat="45.79841" lon="2.97175">
        <ele>1144.9</ele>
        <time>2021-08-08T13:24:11Z</time>
      </trkpt>
      <trkpt lat="45.79844" lon="2.97186">
        <ele>1143.3</ele>
        <time>2021-08-08T13:24:17Z</time>
      </trkpt>
      <trkpt lat="45.79845" lon="2.97188">
        <ele>1143.1</ele>
        <time>2021-08-08T13:24:18Z</time>
      </trkpt>
      <trkpt lat="45.79847" lon="2.97206">
        <ele>1140.9</ele>
        <time>2021-08-08T13:24:28Z</time>
      </trkpt>
      <trkpt lat="45.79847" lon="2.97214">
        <ele>1139.4</ele>
        <time>2021-08-08T13:24:33Z</time>
      </trkpt>
      <trkpt lat="45.79848" lon="2.97215">
        <ele>1139.1</ele>
        <time>2021-08-08T13:24:34Z</time>
      </trkpt>
      <trkpt lat="45.79853" lon="2.97239">
        <ele>1135.7</ele>
        <time>2021-08-08T13:24:50Z</time>
      </trkpt>
      <trkpt lat="45.79853" lon="2.97243">
        <ele>1136.1</ele>
        <time>2021-08-08T13:24:51Z</time>
      </trkpt>
      <trkpt lat="45.79853" lon="2.97248">
        <ele>1135.9</ele>
        <time>2021-08-08T13:24:54Z</time>
      </trkpt>
      <trkpt lat="45.79859" lon="2.97263">
        <ele>1137.2</ele>
        <time>2021-08-08T13:25:02Z</time>
      </trkpt>
      <trkpt lat="45.79859" lon="2.97265">
        <ele>1137.4</ele>
        <time>2021-08-08T13:25:03Z</time>
      </trkpt>
      <trkpt lat="45.79861" lon="2.97269">
        <ele>1137.4</ele>
        <time>2021-08-08T13:25:05Z</time>
      </trkpt>
      <trkpt lat="45.79865" lon="2.97288">
        <ele>1137.4</ele>
        <time>2021-08-08T13:25:17Z</time>
      </trkpt>
      <trkpt lat="45.79864" lon="2.97289">
        <ele>1137.5</ele>
        <time>2021-08-08T13:25:18Z</time>
      </trkpt>
      <trkpt lat="45.79865" lon="2.97309">
        <ele>1134.1</ele>
        <time>2021-08-08T13:25:30Z</time>
      </trkpt>
      <trkpt lat="45.79863" lon="2.97314">
        <ele>1132.5</ele>
        <time>2021-08-08T13:25:31Z</time>
      </trkpt>
      <trkpt lat="45.79862" lon="2.97316">
        <ele>1132</ele>
        <time>2021-08-08T13:25:32Z</time>
      </trkpt>
      <trkpt lat="45.79861" lon="2.97324">
        <ele>1129.8</ele>
        <time>2021-08-08T13:25:36Z</time>
      </trkpt>
      <trkpt lat="45.79864" lon="2.9734">
        <ele>1129.5</ele>
        <time>2021-08-08T13:25:45Z</time>
      </trkpt>
      <trkpt lat="45.79864" lon="2.97342">
        <ele>1129.2</ele>
        <time>2021-08-08T13:25:46Z</time>
      </trkpt>
      <trkpt lat="45.79863" lon="2.97364">
        <ele>1127.1</ele>
        <time>2021-08-08T13:25:56Z</time>
      </trkpt>
      <trkpt lat="45.79863" lon="2.97366">
        <ele>1126.7</ele>
        <time>2021-08-08T13:25:57Z</time>
      </trkpt>
      <trkpt lat="45.79862" lon="2.97374">
        <ele>1125.7</ele>
        <time>2021-08-08T13:26:01Z</time>
      </trkpt>
      <trkpt lat="45.79859" lon="2.97382">
        <ele>1123.7</ele>
        <time>2021-08-08T13:26:07Z</time>
      </trkpt>
      <trkpt lat="45.79858" lon="2.97389">
        <ele>1123.3</ele>
        <time>2021-08-08T13:26:11Z</time>
      </trkpt>
      <trkpt lat="45.79859" lon="2.97389">
        <ele>1123</ele>
        <time>2021-08-08T13:26:12Z</time>
      </trkpt>
      <trkpt lat="45.79859" lon="2.97398">
        <ele>1122.2</ele>
        <time>2021-08-08T13:26:17Z</time>
      </trkpt>
      <trkpt lat="45.79858" lon="2.97412">
        <ele>1120.6</ele>
        <time>2021-08-08T13:26:24Z</time>
      </trkpt>
      <trkpt lat="45.79857" lon="2.97414">
        <ele>1120.4</ele>
        <time>2021-08-08T13:26:25Z</time>
      </trkpt>
      <trkpt lat="45.79856" lon="2.97422">
        <ele>1119.1</ele>
        <time>2021-08-08T13:26:29Z</time>
      </trkpt>
      <trkpt lat="45.79856" lon="2.97436">
        <ele>1117.6</ele>
        <time>2021-08-08T13:26:35Z</time>
      </trkpt>
      <trkpt lat="45.79856" lon="2.97439">
        <ele>1117.4</ele>
        <time>2021-08-08T13:26:36Z</time>
      </trkpt>
      <trkpt lat="45.79857" lon="2.97451">
        <ele>1116</ele>
        <time>2021-08-08T13:26:42Z</time>
      </trkpt>
      <trkpt lat="45.79855" lon="2.97462">
        <ele>1114.8</ele>
        <time>2021-08-08T13:26:49Z</time>
      </trkpt>
      <trkpt lat="45.79855" lon="2.97463">
        <ele>1114.6</ele>
        <time>2021-08-08T13:26:50Z</time>
      </trkpt>
      <trkpt lat="45.79854" lon="2.97479">
        <ele>1113.4</ele>
        <time>2021-08-08T13:26:56Z</time>
      </trkpt>
      <trkpt lat="45.79853" lon="2.97488">
        <ele>1112.7</ele>
        <time>2021-08-08T13:26:59Z</time>
      </trkpt>
      <trkpt lat="45.79852" lon="2.9749">
        <ele>1112.3</ele>
        <time>2021-08-08T13:27:00Z</time>
      </trkpt>
      <trkpt lat="45.79849" lon="2.975">
        <ele>1111</ele>
        <time>2021-08-08T13:27:04Z</time>
      </trkpt>
      <trkpt lat="45.79847" lon="2.97511">
        <ele>1109.1</ele>
        <time>2021-08-08T13:27:10Z</time>
      </trkpt>
      <trkpt lat="45.79846" lon="2.97514">
        <ele>1108.8</ele>
        <time>2021-08-08T13:27:11Z</time>
      </trkpt>
      <trkpt lat="45.79839" lon="2.97536">
        <ele>1105.4</ele>
        <time>2021-08-08T13:27:20Z</time>
      </trkpt>
      <trkpt lat="45.79839" lon="2.97537">
        <ele>1105</ele>
        <time>2021-08-08T13:27:21Z</time>
      </trkpt>
      <trkpt lat="45.79832" lon="2.97558">
        <ele>1101.9</ele>
        <time>2021-08-08T13:27:31Z</time>
      </trkpt>
      <trkpt lat="45.79831" lon="2.9756">
        <ele>1101.6</ele>
        <time>2021-08-08T13:27:32Z</time>
      </trkpt>
      <trkpt lat="45.79828" lon="2.97563">
        <ele>1100.3</ele>
        <time>2021-08-08T13:27:35Z</time>
      </trkpt>
      <trkpt lat="45.79827" lon="2.97565">
        <ele>1099.6</ele>
        <time>2021-08-08T13:27:37Z</time>
      </trkpt>
      <trkpt lat="45.79822" lon="2.97581">
        <ele>1096.6</ele>
        <time>2021-08-08T13:27:46Z</time>
      </trkpt>
      <trkpt lat="45.79822" lon="2.97583">
        <ele>1096.3</ele>
        <time>2021-08-08T13:27:47Z</time>
      </trkpt>
      <trkpt lat="45.7982" lon="2.97599">
        <ele>1094.3</ele>
        <time>2021-08-08T13:27:58Z</time>
      </trkpt>
      <trkpt lat="45.7982" lon="2.97607">
        <ele>1092.4</ele>
        <time>2021-08-08T13:28:04Z</time>
      </trkpt>
      <trkpt lat="45.7982" lon="2.9761">
        <ele>1091.9</ele>
        <time>2021-08-08T13:28:05Z</time>
      </trkpt>
      <trkpt lat="45.79819" lon="2.97624">
        <ele>1090.8</ele>
        <time>2021-08-08T13:28:10Z</time>
      </trkpt>
      <trkpt lat="45.7982" lon="2.97631">
        <ele>1089.7</ele>
        <time>2021-08-08T13:28:14Z</time>
      </trkpt>
      <trkpt lat="45.79821" lon="2.97633">
        <ele>1089.6</ele>
        <time>2021-08-08T13:28:15Z</time>
      </trkpt>
      <trkpt lat="45.79822" lon="2.97635">
        <ele>1089.5</ele>
        <time>2021-08-08T13:28:16Z</time>
      </trkpt>
      <trkpt lat="45.79824" lon="2.9764">
        <ele>1088.7</ele>
        <time>2021-08-08T13:28:20Z</time>
      </trkpt>
      <trkpt lat="45.79826" lon="2.97654">
        <ele>1087.5</ele>
        <time>2021-08-08T13:28:26Z</time>
      </trkpt>
      <trkpt lat="45.79826" lon="2.97657">
        <ele>1087.1</ele>
        <time>2021-08-08T13:28:27Z</time>
      </trkpt>
      <trkpt lat="45.79825" lon="2.97659">
        <ele>1086.7</ele>
        <time>2021-08-08T13:28:28Z</time>
      </trkpt>
      <trkpt lat="45.79828" lon="2.97666">
        <ele>1085.7</ele>
        <time>2021-08-08T13:28:32Z</time>
      </trkpt>
      <trkpt lat="45.79826" lon="2.97676">
        <ele>1082.9</ele>
        <time>2021-08-08T13:28:39Z</time>
      </trkpt>
      <trkpt lat="45.79824" lon="2.97679">
        <ele>1082.4</ele>
        <time>2021-08-08T13:28:43Z</time>
      </trkpt>
      <trkpt lat="45.79823" lon="2.97679">
        <ele>1082.2</ele>
        <time>2021-08-08T13:28:44Z</time>
      </trkpt>
      <trkpt lat="45.79817" lon="2.97679">
        <ele>1080.7</ele>
        <time>2021-08-08T13:28:49Z</time>
      </trkpt>
      <trkpt lat="45.79812" lon="2.97681">
        <ele>1078.8</ele>
        <time>2021-08-08T13:28:54Z</time>
      </trkpt>
      <trkpt lat="45.79807" lon="2.97682">
        <ele>1076.7</ele>
        <time>2021-08-08T13:28:58Z</time>
      </trkpt>
      <trkpt lat="45.79806" lon="2.97682">
        <ele>1076.3</ele>
        <time>2021-08-08T13:28:59Z</time>
      </trkpt>
      <trkpt lat="45.79803" lon="2.97684">
        <ele>1075.8</ele>
        <time>2021-08-08T13:29:02Z</time>
      </trkpt>
      <trkpt lat="45.79802" lon="2.97687">
        <ele>1075.5</ele>
        <time>2021-08-08T13:29:04Z</time>
      </trkpt>
      <trkpt lat="45.79802" lon="2.97697">
        <ele>1074.7</ele>
        <time>2021-08-08T13:29:09Z</time>
      </trkpt>
      <trkpt lat="45.79803" lon="2.97702">
        <ele>1074.4</ele>
        <time>2021-08-08T13:29:11Z</time>
      </trkpt>
      <trkpt lat="45.79803" lon="2.97704">
        <ele>1074.3</ele>
        <time>2021-08-08T13:29:12Z</time>
      </trkpt>
      <trkpt lat="45.79806" lon="2.97714">
        <ele>1072.8</ele>
        <time>2021-08-08T13:29:20Z</time>
      </trkpt>
      <trkpt lat="45.79806" lon="2.97722">
        <ele>1071.9</ele>
        <time>2021-08-08T13:29:26Z</time>
      </trkpt>
      <trkpt lat="45.79809" lon="2.97726">
        <ele>1071.8</ele>
        <time>2021-08-08T13:29:29Z</time>
      </trkpt>
      <trkpt lat="45.7981" lon="2.97728">
        <ele>1071.7</ele>
        <time>2021-08-08T13:29:30Z</time>
      </trkpt>
      <trkpt lat="45.79814" lon="2.97731">
        <ele>1071.3</ele>
        <time>2021-08-08T13:29:33Z</time>
      </trkpt>
      <trkpt lat="45.79815" lon="2.97733">
        <ele>1071.3</ele>
        <time>2021-08-08T13:29:35Z</time>
      </trkpt>
      <trkpt lat="45.7982" lon="2.97744">
        <ele>1070.9</ele>
        <time>2021-08-08T13:29:42Z</time>
      </trkpt>
      <trkpt lat="45.79822" lon="2.97747">
        <ele>1069.9</ele>
        <time>2021-08-08T13:29:45Z</time>
      </trkpt>
      <trkpt lat="45.79823" lon="2.97748">
        <ele>1069.7</ele>
        <time>2021-08-08T13:29:46Z</time>
      </trkpt>
      <trkpt lat="45.79827" lon="2.97753">
        <ele>1069.7</ele>
        <time>2021-08-08T13:29:50Z</time>
      </trkpt>
      <trkpt lat="45.79831" lon="2.97755">
        <ele>1069.1</ele>
        <time>2021-08-08T13:29:55Z</time>
      </trkpt>
      <trkpt lat="45.79833" lon="2.97762">
        <ele>1068.7</ele>
        <time>2021-08-08T13:29:59Z</time>
      </trkpt>
      <trkpt lat="45.79834" lon="2.97764">
        <ele>1068.5</ele>
        <time>2021-08-08T13:30:00Z</time>
      </trkpt>
      <trkpt lat="45.79835" lon="2.97765">
        <ele>1068.3</ele>
        <time>2021-08-08T13:30:01Z</time>
      </trkpt>
      <trkpt lat="45.79838" lon="2.97777">
        <ele>1068</ele>
        <time>2021-08-08T13:30:07Z</time>
      </trkpt>
      <trkpt lat="45.79842" lon="2.97787">
        <ele>1067.1</ele>
        <time>2021-08-08T13:30:12Z</time>
      </trkpt>
      <trkpt lat="45.79842" lon="2.97789">
        <ele>1067.1</ele>
        <time>2021-08-08T13:30:13Z</time>
      </trkpt>
      <trkpt lat="45.79847" lon="2.978">
        <ele>1066.9</ele>
        <time>2021-08-08T13:30:20Z</time>
      </trkpt>
      <trkpt lat="45.7985" lon="2.97803">
        <ele>1066.9</ele>
        <time>2021-08-08T13:30:22Z</time>
      </trkpt>
      <trkpt lat="45.79853" lon="2.97805">
        <ele>1066.9</ele>
        <time>2021-08-08T13:30:24Z</time>
      </trkpt>
      <trkpt lat="45.79855" lon="2.97805">
        <ele>1066.9</ele>
        <time>2021-08-08T13:30:25Z</time>
      </trkpt>
      <trkpt lat="45.79864" lon="2.97804">
        <ele>1066.2</ele>
        <time>2021-08-08T13:30:31Z</time>
      </trkpt>
      <trkpt lat="45.79868" lon="2.978">
        <ele>1065.8</ele>
        <time>2021-08-08T13:30:34Z</time>
      </trkpt>
      <trkpt lat="45.79869" lon="2.97799">
        <ele>1065.5</ele>
        <time>2021-08-08T13:30:35Z</time>
      </trkpt>
      <trkpt lat="45.79879" lon="2.97793">
        <ele>1064.1</ele>
        <time>2021-08-08T13:30:42Z</time>
      </trkpt>
      <trkpt lat="45.79884" lon="2.97794">
        <ele>1063.5</ele>
        <time>2021-08-08T13:30:45Z</time>
      </trkpt>
      <trkpt lat="45.79885" lon="2.97794">
        <ele>1063.4</ele>
        <time>2021-08-08T13:30:46Z</time>
      </trkpt>
      <trkpt lat="45.7989" lon="2.97795">
        <ele>1062.8</ele>
        <time>2021-08-08T13:30:50Z</time>
      </trkpt>
      <trkpt lat="45.79895" lon="2.97794">
        <ele>1062.1</ele>
        <time>2021-08-08T13:30:54Z</time>
      </trkpt>
      <trkpt lat="45.799" lon="2.97791">
        <ele>1061.4</ele>
        <time>2021-08-08T13:30:59Z</time>
      </trkpt>
      <trkpt lat="45.79901" lon="2.9779">
        <ele>1061.4</ele>
        <time>2021-08-08T13:31:00Z</time>
      </trkpt>
      <trkpt lat="45.79919" lon="2.9779">
        <ele>1060.1</ele>
        <time>2021-08-08T13:31:10Z</time>
      </trkpt>
      <trkpt lat="45.7992" lon="2.97789">
        <ele>1059.6</ele>
        <time>2021-08-08T13:31:11Z</time>
      </trkpt>
      <trkpt lat="45.79921" lon="2.9779">
        <ele>1059.6</ele>
        <time>2021-08-08T13:31:12Z</time>
      </trkpt>
      <trkpt lat="45.79929" lon="2.97789">
        <ele>1059.3</ele>
        <time>2021-08-08T13:31:16Z</time>
      </trkpt>
      <trkpt lat="45.79933" lon="2.97786">
        <ele>1059.3</ele>
        <time>2021-08-08T13:31:18Z</time>
      </trkpt>
      <trkpt lat="45.79941" lon="2.97782">
        <ele>1059.1</ele>
        <time>2021-08-08T13:31:21Z</time>
      </trkpt>
      <trkpt lat="45.79943" lon="2.97782">
        <ele>1059</ele>
        <time>2021-08-08T13:31:22Z</time>
      </trkpt>
      <trkpt lat="45.79957" lon="2.97777">
        <ele>1058</ele>
        <time>2021-08-08T13:31:31Z</time>
      </trkpt>
      <trkpt lat="45.7996" lon="2.97774">
        <ele>1057.2</ele>
        <time>2021-08-08T13:31:34Z</time>
      </trkpt>
      <trkpt lat="45.79962" lon="2.97774">
        <ele>1057</ele>
        <time>2021-08-08T13:31:35Z</time>
      </trkpt>
      <trkpt lat="45.79967" lon="2.97767">
        <ele>1056.5</ele>
        <time>2021-08-08T13:31:40Z</time>
      </trkpt>
      <trkpt lat="45.79972" lon="2.97764">
        <ele>1056.5</ele>
        <time>2021-08-08T13:31:43Z</time>
      </trkpt>
      <trkpt lat="45.79973" lon="2.97763">
        <ele>1056.3</ele>
        <time>2021-08-08T13:31:44Z</time>
      </trkpt>
      <trkpt lat="45.79975" lon="2.97761">
        <ele>1056</ele>
        <time>2021-08-08T13:31:45Z</time>
      </trkpt>
      <trkpt lat="45.79983" lon="2.97748">
        <ele>1055.8</ele>
        <time>2021-08-08T13:31:53Z</time>
      </trkpt>
      <trkpt lat="45.79985" lon="2.97741">
        <ele>1056.4</ele>
        <time>2021-08-08T13:31:56Z</time>
      </trkpt>
      <trkpt lat="45.79985" lon="2.97739">
        <ele>1056.4</ele>
        <time>2021-08-08T13:31:57Z</time>
      </trkpt>
      <trkpt lat="45.79986" lon="2.97731">
        <ele>1055.8</ele>
        <time>2021-08-08T13:32:01Z</time>
      </trkpt>
      <trkpt lat="45.7999" lon="2.97724">
        <ele>1054.4</ele>
        <time>2021-08-08T13:32:06Z</time>
      </trkpt>
      <trkpt lat="45.7999" lon="2.97717">
        <ele>1054.3</ele>
        <time>2021-08-08T13:32:09Z</time>
      </trkpt>
      <trkpt lat="45.79991" lon="2.97715">
        <ele>1054</ele>
        <time>2021-08-08T13:32:10Z</time>
      </trkpt>
      <trkpt lat="45.79993" lon="2.97708">
        <ele>1053.3</ele>
        <time>2021-08-08T13:32:13Z</time>
      </trkpt>
      <trkpt lat="45.8" lon="2.97696">
        <ele>1051</ele>
        <time>2021-08-08T13:32:19Z</time>
      </trkpt>
      <trkpt lat="45.80001" lon="2.97694">
        <ele>1050.7</ele>
        <time>2021-08-08T13:32:20Z</time>
      </trkpt>
      <trkpt lat="45.80006" lon="2.97684">
        <ele>1049.4</ele>
        <time>2021-08-08T13:32:25Z</time>
      </trkpt>
      <trkpt lat="45.8001" lon="2.97678">
        <ele>1047.7</ele>
        <time>2021-08-08T13:32:29Z</time>
      </trkpt>
      <trkpt lat="45.80011" lon="2.97676">
        <ele>1047</ele>
        <time>2021-08-08T13:32:30Z</time>
      </trkpt>
      <trkpt lat="45.80018" lon="2.97666">
        <ele>1041.6</ele>
        <time>2021-08-08T13:32:37Z</time>
      </trkpt>
      <trkpt lat="45.8002" lon="2.97662">
        <ele>1039.4</ele>
        <time>2021-08-08T13:32:40Z</time>
      </trkpt>
      <trkpt lat="45.80021" lon="2.97659">
        <ele>1038.8</ele>
        <time>2021-08-08T13:32:41Z</time>
      </trkpt>
      <trkpt lat="45.80024" lon="2.97634">
        <ele>1033</ele>
        <time>2021-08-08T13:32:50Z</time>
      </trkpt>
      <trkpt lat="45.80024" lon="2.97632">
        <ele>1032.2</ele>
        <time>2021-08-08T13:32:51Z</time>
      </trkpt>
      <trkpt lat="45.80026" lon="2.97625">
        <ele>1029.9</ele>
        <time>2021-08-08T13:32:54Z</time>
      </trkpt>
      <trkpt lat="45.80025" lon="2.97616">
        <ele>1027.9</ele>
        <time>2021-08-08T13:32:57Z</time>
      </trkpt>
      <trkpt lat="45.80027" lon="2.9761">
        <ele>1026.3</ele>
        <time>2021-08-08T13:33:00Z</time>
      </trkpt>
      <trkpt lat="45.80027" lon="2.97607">
        <ele>1025.8</ele>
        <time>2021-08-08T13:33:01Z</time>
      </trkpt>
      <trkpt lat="45.8003" lon="2.976">
        <ele>1023.7</ele>
        <time>2021-08-08T13:33:05Z</time>
      </trkpt>
      <trkpt lat="45.80028" lon="2.97591">
        <ele>1022.5</ele>
        <time>2021-08-08T13:33:08Z</time>
      </trkpt>
      <trkpt lat="45.80028" lon="2.97583">
        <ele>1021.4</ele>
        <time>2021-08-08T13:33:11Z</time>
      </trkpt>
      <trkpt lat="45.80028" lon="2.97581">
        <ele>1020.8</ele>
        <time>2021-08-08T13:33:12Z</time>
      </trkpt>
      <trkpt lat="45.80027" lon="2.97569">
        <ele>1017.4</ele>
        <time>2021-08-08T13:33:18Z</time>
      </trkpt>
      <trkpt lat="45.80028" lon="2.97559">
        <ele>1015.3</ele>
        <time>2021-08-08T13:33:23Z</time>
      </trkpt>
      <trkpt lat="45.80027" lon="2.97558">
        <ele>1015.2</ele>
        <time>2021-08-08T13:33:24Z</time>
      </trkpt>
      <trkpt lat="45.80027" lon="2.97554">
        <ele>1013.9</ele>
        <time>2021-08-08T13:33:27Z</time>
      </trkpt>
      <trkpt lat="45.8003" lon="2.97545">
        <ele>1011.3</ele>
        <time>2021-08-08T13:33:33Z</time>
      </trkpt>
      <trkpt lat="45.8003" lon="2.97534">
        <ele>1009.1</ele>
        <time>2021-08-08T13:33:39Z</time>
      </trkpt>
      <trkpt lat="45.8003" lon="2.97533">
        <ele>1008.7</ele>
        <time>2021-08-08T13:33:40Z</time>
      </trkpt>
      <trkpt lat="45.8003" lon="2.97529">
        <ele>1007.4</ele>
        <time>2021-08-08T13:33:44Z</time>
      </trkpt>
      <trkpt lat="45.80032" lon="2.97523">
        <ele>1005.7</ele>
        <time>2021-08-08T13:33:49Z</time>
      </trkpt>
      <trkpt lat="45.80031" lon="2.97517">
        <ele>1004.5</ele>
        <time>2021-08-08T13:33:52Z</time>
      </trkpt>
      <trkpt lat="45.80035" lon="2.9751">
        <ele>1002.8</ele>
        <time>2021-08-08T13:33:57Z</time>
      </trkpt>
      <trkpt lat="45.80036" lon="2.97508">
        <ele>1002.4</ele>
        <time>2021-08-08T13:33:58Z</time>
      </trkpt>
      <trkpt lat="45.80038" lon="2.97504">
        <ele>1001.3</ele>
        <time>2021-08-08T13:34:01Z</time>
      </trkpt>
      <trkpt lat="45.80039" lon="2.97497">
        <ele>1000.2</ele>
        <time>2021-08-08T13:34:04Z</time>
      </trkpt>
      <trkpt lat="45.80043" lon="2.9749">
        <ele>998.9</ele>
        <time>2021-08-08T13:34:09Z</time>
      </trkpt>
      <trkpt lat="45.80046" lon="2.97491">
        <ele>997.6</ele>
        <time>2021-08-08T13:34:10Z</time>
      </trkpt>
      <trkpt lat="45.80048" lon="2.9749">
        <ele>997.2</ele>
        <time>2021-08-08T13:34:11Z</time>
      </trkpt>
      <trkpt lat="45.8005" lon="2.97491">
        <ele>996.2</ele>
        <time>2021-08-08T13:34:12Z</time>
      </trkpt>
      <trkpt lat="45.80052" lon="2.9749">
        <ele>995.5</ele>
        <time>2021-08-08T13:34:13Z</time>
      </trkpt>
      <trkpt lat="45.80051" lon="2.97487">
        <ele>995.7</ele>
        <time>2021-08-08T13:34:14Z</time>
      </trkpt>
      <trkpt lat="45.80053" lon="2.97484">
        <ele>995.4</ele>
        <time>2021-08-08T13:34:15Z</time>
      </trkpt>
      <trkpt lat="45.80061" lon="2.97477">
        <ele>993.5</ele>
        <time>2021-08-08T13:34:20Z</time>
      </trkpt>
      <trkpt lat="45.80063" lon="2.97475">
        <ele>993.2</ele>
        <time>2021-08-08T13:34:21Z</time>
      </trkpt>
      <trkpt lat="45.80065" lon="2.97474">
        <ele>992.8</ele>
        <time>2021-08-08T13:34:22Z</time>
      </trkpt>
      <trkpt lat="45.80068" lon="2.97468">
        <ele>991.8</ele>
        <time>2021-08-08T13:34:24Z</time>
      </trkpt>
      <trkpt lat="45.80076" lon="2.97451">
        <ele>988.9</ele>
        <time>2021-08-08T13:34:30Z</time>
      </trkpt>
      <trkpt lat="45.80077" lon="2.97449">
        <ele>988.5</ele>
        <time>2021-08-08T13:34:31Z</time>
      </trkpt>
      <trkpt lat="45.8008" lon="2.97446">
        <ele>987.7</ele>
        <time>2021-08-08T13:34:33Z</time>
      </trkpt>
      <trkpt lat="45.80084" lon="2.97443">
        <ele>986.8</ele>
        <time>2021-08-08T13:34:36Z</time>
      </trkpt>
      <trkpt lat="45.80091" lon="2.97441">
        <ele>984.6</ele>
        <time>2021-08-08T13:34:41Z</time>
      </trkpt>
      <trkpt lat="45.80093" lon="2.9744">
        <ele>984.2</ele>
        <time>2021-08-08T13:34:42Z</time>
      </trkpt>
      <trkpt lat="45.80096" lon="2.97437">
        <ele>982.4</ele>
        <time>2021-08-08T13:34:46Z</time>
      </trkpt>
      <trkpt lat="45.80095" lon="2.97431">
        <ele>980.2</ele>
        <time>2021-08-08T13:34:51Z</time>
      </trkpt>
      <trkpt lat="45.80099" lon="2.97426">
        <ele>978.9</ele>
        <time>2021-08-08T13:34:58Z</time>
      </trkpt>
      <trkpt lat="45.801" lon="2.97429">
        <ele>978.2</ele>
        <time>2021-08-08T13:35:01Z</time>
      </trkpt>
      <trkpt lat="45.801" lon="2.97433">
        <ele>978.1</ele>
        <time>2021-08-08T13:35:03Z</time>
      </trkpt>
      <trkpt lat="45.801" lon="2.97433">
        <ele>978.3</ele>
        <time>2021-08-08T13:35:04Z</time>
      </trkpt>
      <trkpt lat="45.80099" lon="2.97434">
        <ele>979.1</ele>
        <time>2021-08-08T13:35:09Z</time>
      </trkpt>
      <trkpt lat="45.80097" lon="2.97432">
        <ele>979.9</ele>
        <time>2021-08-08T13:35:10Z</time>
      </trkpt>
      <trkpt lat="45.80099" lon="2.97435">
        <ele>981.9</ele>
        <time>2021-08-08T13:35:19Z</time>
      </trkpt>
      <trkpt lat="45.801" lon="2.97438">
        <ele>982</ele>
        <time>2021-08-08T13:35:20Z</time>
      </trkpt>
      <trkpt lat="45.80105" lon="2.97439">
        <ele>982.4</ele>
        <time>2021-08-08T13:35:23Z</time>
      </trkpt>
      <trkpt lat="45.80106" lon="2.97438">
        <ele>982.4</ele>
        <time>2021-08-08T13:35:24Z</time>
      </trkpt>
      <trkpt lat="45.80109" lon="2.97436">
        <ele>982.6</ele>
        <time>2021-08-08T13:35:26Z</time>
      </trkpt>
      <trkpt lat="45.80109" lon="2.97432">
        <ele>983.6</ele>
        <time>2021-08-08T13:35:28Z</time>
      </trkpt>
      <trkpt lat="45.80112" lon="2.97428">
        <ele>983.6</ele>
        <time>2021-08-08T13:35:33Z</time>
      </trkpt>
      <trkpt lat="45.80116" lon="2.97426">
        <ele>983.6</ele>
        <time>2021-08-08T13:35:39Z</time>
      </trkpt>
      <trkpt lat="45.80119" lon="2.97428">
        <ele>983.6</ele>
        <time>2021-08-08T13:35:42Z</time>
      </trkpt>
      <trkpt lat="45.8012" lon="2.97428">
        <ele>983.7</ele>
        <time>2021-08-08T13:35:43Z</time>
      </trkpt>
      <trkpt lat="45.80128" lon="2.97424">
        <ele>984.1</ele>
        <time>2021-08-08T13:35:49Z</time>
      </trkpt>
      <trkpt lat="45.80133" lon="2.97421">
        <ele>985.2</ele>
        <time>2021-08-08T13:35:54Z</time>
      </trkpt>
      <trkpt lat="45.80135" lon="2.97421">
        <ele>985.6</ele>
        <time>2021-08-08T13:35:55Z</time>
      </trkpt>
      <trkpt lat="45.80137" lon="2.9742">
        <ele>985.7</ele>
        <time>2021-08-08T13:35:56Z</time>
      </trkpt>
      <trkpt lat="45.80143" lon="2.9742">
        <ele>985.7</ele>
        <time>2021-08-08T13:35:59Z</time>
      </trkpt>
      <trkpt lat="45.80154" lon="2.97414">
        <ele>985.9</ele>
        <time>2021-08-08T13:36:05Z</time>
      </trkpt>
      <trkpt lat="45.80156" lon="2.97413">
        <ele>986.1</ele>
        <time>2021-08-08T13:36:06Z</time>
      </trkpt>
      <trkpt lat="45.8016" lon="2.9741">
        <ele>986.8</ele>
        <time>2021-08-08T13:36:09Z</time>
      </trkpt>
      <trkpt lat="45.80169" lon="2.97409">
        <ele>989</ele>
        <time>2021-08-08T13:36:16Z</time>
      </trkpt>
      <trkpt lat="45.80172" lon="2.97408">
        <ele>989.3</ele>
        <time>2021-08-08T13:36:18Z</time>
      </trkpt>
      <trkpt lat="45.80174" lon="2.97408">
        <ele>989.5</ele>
        <time>2021-08-08T13:36:19Z</time>
      </trkpt>
      <trkpt lat="45.80184" lon="2.97408">
        <ele>991.2</ele>
        <time>2021-08-08T13:36:23Z</time>
      </trkpt>
      <trkpt lat="45.80189" lon="2.97414">
        <ele>991.5</ele>
        <time>2021-08-08T13:36:28Z</time>
      </trkpt>
      <trkpt lat="45.80192" lon="2.97415">
        <ele>991.7</ele>
        <time>2021-08-08T13:36:30Z</time>
      </trkpt>
      <trkpt lat="45.80194" lon="2.97416">
        <ele>991.7</ele>
        <time>2021-08-08T13:36:31Z</time>
      </trkpt>
      <trkpt lat="45.80203" lon="2.97417">
        <ele>993.4</ele>
        <time>2021-08-08T13:36:34Z</time>
      </trkpt>
      <trkpt lat="45.80217" lon="2.97417">
        <ele>994.1</ele>
        <time>2021-08-08T13:36:40Z</time>
      </trkpt>
      <trkpt lat="45.80218" lon="2.97417">
        <ele>994.1</ele>
        <time>2021-08-08T13:36:41Z</time>
      </trkpt>
      <trkpt lat="45.80223" lon="2.97418">
        <ele>994.2</ele>
        <time>2021-08-08T13:36:44Z</time>
      </trkpt>
      <trkpt lat="45.80226" lon="2.9742">
        <ele>994.3</ele>
        <time>2021-08-08T13:36:46Z</time>
      </trkpt>
      <trkpt lat="45.80227" lon="2.97422">
        <ele>994.3</ele>
        <time>2021-08-08T13:36:47Z</time>
      </trkpt>
      <trkpt lat="45.80232" lon="2.97424">
        <ele>994.6</ele>
        <time>2021-08-08T13:36:50Z</time>
      </trkpt>
      <trkpt lat="45.80233" lon="2.97425">
        <ele>994.7</ele>
        <time>2021-08-08T13:36:51Z</time>
      </trkpt>
      <trkpt lat="45.80237" lon="2.97427">
        <ele>994.8</ele>
        <time>2021-08-08T13:36:53Z</time>
      </trkpt>
      <trkpt lat="45.80241" lon="2.97427">
        <ele>995.3</ele>
        <time>2021-08-08T13:36:55Z</time>
      </trkpt>
      <trkpt lat="45.80242" lon="2.9743">
        <ele>995.7</ele>
        <time>2021-08-08T13:36:56Z</time>
      </trkpt>
      <trkpt lat="45.8025" lon="2.97433">
        <ele>996.2</ele>
        <time>2021-08-08T13:37:02Z</time>
      </trkpt>
      <trkpt lat="45.80251" lon="2.97434">
        <ele>996.4</ele>
        <time>2021-08-08T13:37:03Z</time>
      </trkpt>
      <trkpt lat="45.80255" lon="2.97435">
        <ele>996.5</ele>
        <time>2021-08-08T13:37:05Z</time>
      </trkpt>
      <trkpt lat="45.80264" lon="2.97443">
        <ele>996.3</ele>
        <time>2021-08-08T13:37:12Z</time>
      </trkpt>
      <trkpt lat="45.80265" lon="2.97447">
        <ele>996.6</ele>
        <time>2021-08-08T13:37:13Z</time>
      </trkpt>
      <trkpt lat="45.80267" lon="2.97448">
        <ele>996.8</ele>
        <time>2021-08-08T13:37:14Z</time>
      </trkpt>
      <trkpt lat="45.80275" lon="2.97453">
        <ele>996.3</ele>
        <time>2021-08-08T13:37:19Z</time>
      </trkpt>
      <trkpt lat="45.80277" lon="2.97456">
        <ele>996.1</ele>
        <time>2021-08-08T13:37:21Z</time>
      </trkpt>
      <trkpt lat="45.8028" lon="2.97456">
        <ele>996</ele>
        <time>2021-08-08T13:37:23Z</time>
      </trkpt>
      <trkpt lat="45.80282" lon="2.97456">
        <ele>995.9</ele>
        <time>2021-08-08T13:37:24Z</time>
      </trkpt>
      <trkpt lat="45.80289" lon="2.9746">
        <ele>995.6</ele>
        <time>2021-08-08T13:37:28Z</time>
      </trkpt>
      <trkpt lat="45.80294" lon="2.9746">
        <ele>995.5</ele>
        <time>2021-08-08T13:37:31Z</time>
      </trkpt>
      <trkpt lat="45.80297" lon="2.97461">
        <ele>995.5</ele>
        <time>2021-08-08T13:37:33Z</time>
      </trkpt>
      <trkpt lat="45.80299" lon="2.97462">
        <ele>995.5</ele>
        <time>2021-08-08T13:37:34Z</time>
      </trkpt>
      <trkpt lat="45.8031" lon="2.97466">
        <ele>995.8</ele>
        <time>2021-08-08T13:37:40Z</time>
      </trkpt>
      <trkpt lat="45.80316" lon="2.97466">
        <ele>996</ele>
        <time>2021-08-08T13:37:43Z</time>
      </trkpt>
      <trkpt lat="45.80318" lon="2.97466">
        <ele>996.2</ele>
        <time>2021-08-08T13:37:44Z</time>
      </trkpt>
      <trkpt lat="45.80322" lon="2.97467">
        <ele>996.3</ele>
        <time>2021-08-08T13:37:46Z</time>
      </trkpt>
      <trkpt lat="45.80324" lon="2.97469">
        <ele>996.1</ele>
        <time>2021-08-08T13:37:48Z</time>
      </trkpt>
      <trkpt lat="45.80334" lon="2.9747">
        <ele>994.9</ele>
        <time>2021-08-08T13:37:53Z</time>
      </trkpt>
      <trkpt lat="45.80335" lon="2.97471">
        <ele>994.9</ele>
        <time>2021-08-08T13:37:54Z</time>
      </trkpt>
      <trkpt lat="45.80344" lon="2.97476">
        <ele>994.3</ele>
        <time>2021-08-08T13:38:00Z</time>
      </trkpt>
      <trkpt lat="45.80348" lon="2.9748">
        <ele>994</ele>
        <time>2021-08-08T13:38:03Z</time>
      </trkpt>
      <trkpt lat="45.8035" lon="2.97482">
        <ele>994</ele>
        <time>2021-08-08T13:38:04Z</time>
      </trkpt>
      <trkpt lat="45.80354" lon="2.97486">
        <ele>993.4</ele>
        <time>2021-08-08T13:38:08Z</time>
      </trkpt>
      <trkpt lat="45.80363" lon="2.97489">
        <ele>989.6</ele>
        <time>2021-08-08T13:38:15Z</time>
      </trkpt>
      <trkpt lat="45.80365" lon="2.97491">
        <ele>988.6</ele>
        <time>2021-08-08T13:38:16Z</time>
      </trkpt>
      <trkpt lat="45.80366" lon="2.97492">
        <ele>987.8</ele>
        <time>2021-08-08T13:38:17Z</time>
      </trkpt>
      <trkpt lat="45.80366" lon="2.97493">
        <ele>987</ele>
        <time>2021-08-08T13:38:18Z</time>
      </trkpt>
      <trkpt lat="45.80368" lon="2.97493">
        <ele>986.3</ele>
        <time>2021-08-08T13:38:19Z</time>
      </trkpt>
      <trkpt lat="45.80371" lon="2.97495">
        <ele>984.2</ele>
        <time>2021-08-08T13:38:22Z</time>
      </trkpt>
      <trkpt lat="45.8038" lon="2.97499">
        <ele>978.3</ele>
        <time>2021-08-08T13:38:29Z</time>
      </trkpt>
      <trkpt lat="45.80381" lon="2.97499">
        <ele>977.5</ele>
        <time>2021-08-08T13:38:30Z</time>
      </trkpt>
      <trkpt lat="45.80393" lon="2.97506">
        <ele>969.7</ele>
        <time>2021-08-08T13:38:40Z</time>
      </trkpt>
      <trkpt lat="45.80394" lon="2.97507">
        <ele>968.9</ele>
        <time>2021-08-08T13:38:41Z</time>
      </trkpt>
      <trkpt lat="45.80404" lon="2.97513">
        <ele>964.7</ele>
        <time>2021-08-08T13:38:47Z</time>
      </trkpt>
      <trkpt lat="45.80409" lon="2.97514">
        <ele>962.8</ele>
        <time>2021-08-08T13:38:50Z</time>
      </trkpt>
      <trkpt lat="45.80411" lon="2.97514">
        <ele>962.2</ele>
        <time>2021-08-08T13:38:51Z</time>
      </trkpt>
      <trkpt lat="45.80416" lon="2.97517">
        <ele>960.8</ele>
        <time>2021-08-08T13:38:54Z</time>
      </trkpt>
      <trkpt lat="45.80418" lon="2.97517">
        <ele>960.3</ele>
        <time>2021-08-08T13:38:55Z</time>
      </trkpt>
      <trkpt lat="45.80421" lon="2.97522">
        <ele>959.4</ele>
        <time>2021-08-08T13:38:59Z</time>
      </trkpt>
      <trkpt lat="45.80421" lon="2.9752">
        <ele>956.7</ele>
        <time>2021-08-08T13:39:24Z</time>
      </trkpt>
      <trkpt lat="45.80424" lon="2.97511">
        <ele>959.6</ele>
        <time>2021-08-08T13:39:25Z</time>
      </trkpt>
      <trkpt lat="45.80423" lon="2.97509">
        <ele>959.6</ele>
        <time>2021-08-08T13:39:26Z</time>
      </trkpt>
      <trkpt lat="45.80423" lon="2.97508">
        <ele>960.1</ele>
        <time>2021-08-08T13:39:27Z</time>
      </trkpt>
      <trkpt lat="45.8042" lon="2.97499">
        <ele>962.4</ele>
        <time>2021-08-08T13:39:32Z</time>
      </trkpt>
      <trkpt lat="45.80417" lon="2.97496">
        <ele>963.4</ele>
        <time>2021-08-08T13:39:36Z</time>
      </trkpt>
      <trkpt lat="45.80413" lon="2.97488">
        <ele>963.9</ele>
        <time>2021-08-08T13:39:42Z</time>
      </trkpt>
      <trkpt lat="45.80412" lon="2.97487">
        <ele>963.9</ele>
        <time>2021-08-08T13:39:43Z</time>
      </trkpt>
      <trkpt lat="45.804" lon="2.9747">
        <ele>965.2</ele>
        <time>2021-08-08T13:39:58Z</time>
      </trkpt>
      <trkpt lat="45.804" lon="2.97469">
        <ele>965.3</ele>
        <time>2021-08-08T13:39:59Z</time>
      </trkpt>
      <trkpt lat="45.80392" lon="2.97462">
        <ele>966</ele>
        <time>2021-08-08T13:40:05Z</time>
      </trkpt>
      <trkpt lat="45.80388" lon="2.97452">
        <ele>966.6</ele>
        <time>2021-08-08T13:40:13Z</time>
      </trkpt>
      <trkpt lat="45.80387" lon="2.97451">
        <ele>966.9</ele>
        <time>2021-08-08T13:40:14Z</time>
      </trkpt>
      <trkpt lat="45.80385" lon="2.97444">
        <ele>967.9</ele>
        <time>2021-08-08T13:40:19Z</time>
      </trkpt>
      <trkpt lat="45.80383" lon="2.97443">
        <ele>968.8</ele>
        <time>2021-08-08T13:40:22Z</time>
      </trkpt>
      <trkpt lat="45.80377" lon="2.97433">
        <ele>971.2</ele>
        <time>2021-08-08T13:40:32Z</time>
      </trkpt>
      <trkpt lat="45.80377" lon="2.97432">
        <ele>971.4</ele>
        <time>2021-08-08T13:40:33Z</time>
      </trkpt>
      <trkpt lat="45.80376" lon="2.97417">
        <ele>976.5</ele>
        <time>2021-08-08T13:40:57Z</time>
      </trkpt>
      <trkpt lat="45.80377" lon="2.97411">
        <ele>977.7</ele>
        <time>2021-08-08T13:41:09Z</time>
      </trkpt>
      <trkpt lat="45.80375" lon="2.97401">
        <ele>978.9</ele>
        <time>2021-08-08T13:41:14Z</time>
      </trkpt>
      <trkpt lat="45.80373" lon="2.974">
        <ele>978.9</ele>
        <time>2021-08-08T13:41:15Z</time>
      </trkpt>
      <trkpt lat="45.80372" lon="2.97396">
        <ele>979.6</ele>
        <time>2021-08-08T13:41:18Z</time>
      </trkpt>
      <trkpt lat="45.80372" lon="2.97388">
        <ele>980.3</ele>
        <time>2021-08-08T13:41:23Z</time>
      </trkpt>
      <trkpt lat="45.80368" lon="2.97378">
        <ele>980.6</ele>
        <time>2021-08-08T13:41:27Z</time>
      </trkpt>
      <trkpt lat="45.80368" lon="2.97375">
        <ele>980.7</ele>
        <time>2021-08-08T13:41:28Z</time>
      </trkpt>
      <trkpt lat="45.80364" lon="2.97369">
        <ele>980.6</ele>
        <time>2021-08-08T13:41:31Z</time>
      </trkpt>
      <trkpt lat="45.80364" lon="2.97354">
        <ele>980.8</ele>
        <time>2021-08-08T13:41:39Z</time>
      </trkpt>
      <trkpt lat="45.80364" lon="2.97352">
        <ele>980.9</ele>
        <time>2021-08-08T13:41:40Z</time>
      </trkpt>
      <trkpt lat="45.80365" lon="2.97344">
        <ele>980.9</ele>
        <time>2021-08-08T13:41:44Z</time>
      </trkpt>
      <trkpt lat="45.80364" lon="2.9733">
        <ele>982.6</ele>
        <time>2021-08-08T13:41:53Z</time>
      </trkpt>
      <trkpt lat="45.80364" lon="2.97329">
        <ele>982.6</ele>
        <time>2021-08-08T13:41:54Z</time>
      </trkpt>
      <trkpt lat="45.80363" lon="2.97318">
        <ele>982.9</ele>
        <time>2021-08-08T13:41:57Z</time>
      </trkpt>
      <trkpt lat="45.80359" lon="2.97305">
        <ele>984</ele>
        <time>2021-08-08T13:42:03Z</time>
      </trkpt>
      <trkpt lat="45.80359" lon="2.97303">
        <ele>984.3</ele>
        <time>2021-08-08T13:42:04Z</time>
      </trkpt>
      <trkpt lat="45.80362" lon="2.97289">
        <ele>986.3</ele>
        <time>2021-08-08T13:42:11Z</time>
      </trkpt>
      <trkpt lat="45.80361" lon="2.97281">
        <ele>987.1</ele>
        <time>2021-08-08T13:42:14Z</time>
      </trkpt>
      <trkpt lat="45.80362" lon="2.97278">
        <ele>987.2</ele>
        <time>2021-08-08T13:42:15Z</time>
      </trkpt>
      <trkpt lat="45.80364" lon="2.9726">
        <ele>988.6</ele>
        <time>2021-08-08T13:42:22Z</time>
      </trkpt>
      <trkpt lat="45.80364" lon="2.97255">
        <ele>989</ele>
        <time>2021-08-08T13:42:24Z</time>
      </trkpt>
      <trkpt lat="45.80363" lon="2.97253">
        <ele>989.4</ele>
        <time>2021-08-08T13:42:25Z</time>
      </trkpt>
      <trkpt lat="45.80365" lon="2.97242">
        <ele>989.8</ele>
        <time>2021-08-08T13:42:29Z</time>
      </trkpt>
      <trkpt lat="45.80364" lon="2.97231">
        <ele>990.8</ele>
        <time>2021-08-08T13:42:34Z</time>
      </trkpt>
      <trkpt lat="45.80364" lon="2.9723">
        <ele>991</ele>
        <time>2021-08-08T13:42:35Z</time>
      </trkpt>
      <trkpt lat="45.80363" lon="2.97223">
        <ele>991.3</ele>
        <time>2021-08-08T13:42:38Z</time>
      </trkpt>
      <trkpt lat="45.80357" lon="2.97211">
        <ele>991.7</ele>
        <time>2021-08-08T13:42:44Z</time>
      </trkpt>
      <trkpt lat="45.80356" lon="2.97209">
        <ele>991.9</ele>
        <time>2021-08-08T13:42:45Z</time>
      </trkpt>
      <trkpt lat="45.80354" lon="2.97203">
        <ele>992.8</ele>
        <time>2021-08-08T13:42:48Z</time>
      </trkpt>
      <trkpt lat="45.80354" lon="2.97198">
        <ele>992.9</ele>
        <time>2021-08-08T13:42:50Z</time>
      </trkpt>
      <trkpt lat="45.80354" lon="2.97182">
        <ele>993.4</ele>
        <time>2021-08-08T13:42:55Z</time>
      </trkpt>
      <trkpt lat="45.80354" lon="2.9718">
        <ele>993.4</ele>
        <time>2021-08-08T13:42:56Z</time>
      </trkpt>
      <trkpt lat="45.8035" lon="2.97171">
        <ele>993.9</ele>
        <time>2021-08-08T13:43:01Z</time>
      </trkpt>
      <trkpt lat="45.80346" lon="2.97158">
        <ele>994.6</ele>
        <time>2021-08-08T13:43:06Z</time>
      </trkpt>
      <trkpt lat="45.80345" lon="2.97156">
        <ele>994.8</ele>
        <time>2021-08-08T13:43:07Z</time>
      </trkpt>
      <trkpt lat="45.80345" lon="2.97154">
        <ele>994.8</ele>
        <time>2021-08-08T13:43:08Z</time>
      </trkpt>
      <trkpt lat="45.80344" lon="2.97146">
        <ele>995.1</ele>
        <time>2021-08-08T13:43:11Z</time>
      </trkpt>
      <trkpt lat="45.80344" lon="2.97134">
        <ele>995.8</ele>
        <time>2021-08-08T13:43:16Z</time>
      </trkpt>
      <trkpt lat="45.80343" lon="2.97132">
        <ele>996</ele>
        <time>2021-08-08T13:43:17Z</time>
      </trkpt>
      <trkpt lat="45.80341" lon="2.97118">
        <ele>998.1</ele>
        <time>2021-08-08T13:43:22Z</time>
      </trkpt>
      <trkpt lat="45.80339" lon="2.97109">
        <ele>998.8</ele>
        <time>2021-08-08T13:43:26Z</time>
      </trkpt>
      <trkpt lat="45.8034" lon="2.97108">
        <ele>999</ele>
        <time>2021-08-08T13:43:27Z</time>
      </trkpt>
      <trkpt lat="45.80341" lon="2.97106">
        <ele>999.3</ele>
        <time>2021-08-08T13:43:28Z</time>
      </trkpt>
      <trkpt lat="45.80341" lon="2.97103">
        <ele>1000</ele>
        <time>2021-08-08T13:43:31Z</time>
      </trkpt>
      <trkpt lat="45.80336" lon="2.97088">
        <ele>1001.4</ele>
        <time>2021-08-08T13:43:38Z</time>
      </trkpt>
      <trkpt lat="45.80335" lon="2.97085">
        <ele>1001.5</ele>
        <time>2021-08-08T13:43:39Z</time>
      </trkpt>
      <trkpt lat="45.8033" lon="2.97063">
        <ele>1002.5</ele>
        <time>2021-08-08T13:43:49Z</time>
      </trkpt>
      <trkpt lat="45.80329" lon="2.97061">
        <ele>1002.6</ele>
        <time>2021-08-08T13:43:50Z</time>
      </trkpt>
      <trkpt lat="45.80325" lon="2.97048">
        <ele>1003.3</ele>
        <time>2021-08-08T13:43:56Z</time>
      </trkpt>
      <trkpt lat="45.80323" lon="2.9704">
        <ele>1004.3</ele>
        <time>2021-08-08T13:43:59Z</time>
      </trkpt>
      <trkpt lat="45.80322" lon="2.97038">
        <ele>1004.4</ele>
        <time>2021-08-08T13:44:00Z</time>
      </trkpt>
      <trkpt lat="45.80318" lon="2.97032">
        <ele>1004.3</ele>
        <time>2021-08-08T13:44:04Z</time>
      </trkpt>
      <trkpt lat="45.80316" lon="2.97021">
        <ele>1004.7</ele>
        <time>2021-08-08T13:44:08Z</time>
      </trkpt>
      <trkpt lat="45.80314" lon="2.97018">
        <ele>1004.4</ele>
        <time>2021-08-08T13:44:11Z</time>
      </trkpt>
      <trkpt lat="45.80313" lon="2.97016">
        <ele>1004.2</ele>
        <time>2021-08-08T13:44:12Z</time>
      </trkpt>
      <trkpt lat="45.8031" lon="2.97002">
        <ele>1002.1</ele>
        <time>2021-08-08T13:44:17Z</time>
      </trkpt>
      <trkpt lat="45.80306" lon="2.96994">
        <ele>1000.8</ele>
        <time>2021-08-08T13:44:21Z</time>
      </trkpt>
      <trkpt lat="45.80305" lon="2.96992">
        <ele>1000.2</ele>
        <time>2021-08-08T13:44:22Z</time>
      </trkpt>
      <trkpt lat="45.80304" lon="2.96988">
        <ele>1000</ele>
        <time>2021-08-08T13:44:24Z</time>
      </trkpt>
      <trkpt lat="45.80305" lon="2.96977">
        <ele>999.7</ele>
        <time>2021-08-08T13:44:28Z</time>
      </trkpt>
      <trkpt lat="45.80302" lon="2.96969">
        <ele>999.7</ele>
        <time>2021-08-08T13:44:31Z</time>
      </trkpt>
      <trkpt lat="45.80302" lon="2.96967">
        <ele>999.8</ele>
        <time>2021-08-08T13:44:32Z</time>
      </trkpt>
      <trkpt lat="45.80296" lon="2.96949">
        <ele>998.4</ele>
        <time>2021-08-08T13:44:42Z</time>
      </trkpt>
      <trkpt lat="45.80294" lon="2.96948">
        <ele>998.4</ele>
        <time>2021-08-08T13:44:43Z</time>
      </trkpt>
      <trkpt lat="45.80292" lon="2.96943">
        <ele>997.7</ele>
        <time>2021-08-08T13:44:46Z</time>
      </trkpt>
      <trkpt lat="45.80291" lon="2.96937">
        <ele>997</ele>
        <time>2021-08-08T13:44:52Z</time>
      </trkpt>
      <trkpt lat="45.8029" lon="2.96922">
        <ele>995.9</ele>
        <time>2021-08-08T13:45:01Z</time>
      </trkpt>
      <trkpt lat="45.8029" lon="2.9692">
        <ele>995.7</ele>
        <time>2021-08-08T13:45:02Z</time>
      </trkpt>
      <trkpt lat="45.80283" lon="2.96905">
        <ele>995</ele>
        <time>2021-08-08T13:45:10Z</time>
      </trkpt>
      <trkpt lat="45.80283" lon="2.96897">
        <ele>994.6</ele>
        <time>2021-08-08T13:45:12Z</time>
      </trkpt>
      <trkpt lat="45.80283" lon="2.96894">
        <ele>994.5</ele>
        <time>2021-08-08T13:45:13Z</time>
      </trkpt>
      <trkpt lat="45.80281" lon="2.96889">
        <ele>994.4</ele>
        <time>2021-08-08T13:45:16Z</time>
      </trkpt>
      <trkpt lat="45.80281" lon="2.96886">
        <ele>994.1</ele>
        <time>2021-08-08T13:45:18Z</time>
      </trkpt>
      <trkpt lat="45.80279" lon="2.96881">
        <ele>993.8</ele>
        <time>2021-08-08T13:45:20Z</time>
      </trkpt>
      <trkpt lat="45.80276" lon="2.96872">
        <ele>992.5</ele>
        <time>2021-08-08T13:45:25Z</time>
      </trkpt>
      <trkpt lat="45.80275" lon="2.96869">
        <ele>992.4</ele>
        <time>2021-08-08T13:45:26Z</time>
      </trkpt>
      <trkpt lat="45.80272" lon="2.96859">
        <ele>990.7</ele>
        <time>2021-08-08T13:45:31Z</time>
      </trkpt>
      <trkpt lat="45.8027" lon="2.96846">
        <ele>990.9</ele>
        <time>2021-08-08T13:45:35Z</time>
      </trkpt>
      <trkpt lat="45.80269" lon="2.96845">
        <ele>990.8</ele>
        <time>2021-08-08T13:45:36Z</time>
      </trkpt>
      <trkpt lat="45.80266" lon="2.96838">
        <ele>991.2</ele>
        <time>2021-08-08T13:45:40Z</time>
      </trkpt>
      <trkpt lat="45.80265" lon="2.96831">
        <ele>991.3</ele>
        <time>2021-08-08T13:45:44Z</time>
      </trkpt>
      <trkpt lat="45.80262" lon="2.96825">
        <ele>991</ele>
        <time>2021-08-08T13:45:47Z</time>
      </trkpt>
      <trkpt lat="45.80261" lon="2.96824">
        <ele>991</ele>
        <time>2021-08-08T13:45:48Z</time>
      </trkpt>
      <trkpt lat="45.80258" lon="2.96818">
        <ele>990.7</ele>
        <time>2021-08-08T13:45:52Z</time>
      </trkpt>
      <trkpt lat="45.80256" lon="2.96812">
        <ele>990.6</ele>
        <time>2021-08-08T13:45:54Z</time>
      </trkpt>
      <trkpt lat="45.80257" lon="2.96802">
        <ele>990.7</ele>
        <time>2021-08-08T13:45:58Z</time>
      </trkpt>
      <trkpt lat="45.80257" lon="2.968">
        <ele>990.6</ele>
        <time>2021-08-08T13:45:59Z</time>
      </trkpt>
      <trkpt lat="45.80258" lon="2.96794">
        <ele>990.7</ele>
        <time>2021-08-08T13:46:01Z</time>
      </trkpt>
      <trkpt lat="45.80256" lon="2.96783">
        <ele>989.4</ele>
        <time>2021-08-08T13:46:06Z</time>
      </trkpt>
      <trkpt lat="45.80253" lon="2.96775">
        <ele>988.6</ele>
        <time>2021-08-08T13:46:10Z</time>
      </trkpt>
      <trkpt lat="45.80251" lon="2.96773">
        <ele>988.3</ele>
        <time>2021-08-08T13:46:11Z</time>
      </trkpt>
      <trkpt lat="45.80251" lon="2.96767">
        <ele>987.8</ele>
        <time>2021-08-08T13:46:14Z</time>
      </trkpt>
      <trkpt lat="45.80249" lon="2.9676">
        <ele>988.2</ele>
        <time>2021-08-08T13:46:17Z</time>
      </trkpt>
      <trkpt lat="45.80247" lon="2.96754">
        <ele>990.1</ele>
        <time>2021-08-08T13:46:19Z</time>
      </trkpt>
      <trkpt lat="45.80244" lon="2.96751">
        <ele>991.5</ele>
        <time>2021-08-08T13:46:20Z</time>
      </trkpt>
      <trkpt lat="45.80243" lon="2.96748">
        <ele>992.1</ele>
        <time>2021-08-08T13:46:21Z</time>
      </trkpt>
      <trkpt lat="45.80237" lon="2.96736">
        <ele>997.5</ele>
        <time>2021-08-08T13:46:24Z</time>
      </trkpt>
      <trkpt lat="45.80233" lon="2.9672">
        <ele>1000.7</ele>
        <time>2021-08-08T13:46:30Z</time>
      </trkpt>
      <trkpt lat="45.80233" lon="2.96718">
        <ele>1001</ele>
        <time>2021-08-08T13:46:31Z</time>
      </trkpt>
      <trkpt lat="45.80226" lon="2.96703">
        <ele>1005.8</ele>
        <time>2021-08-08T13:46:37Z</time>
      </trkpt>
      <trkpt lat="45.80222" lon="2.96696">
        <ele>1009.3</ele>
        <time>2021-08-08T13:46:40Z</time>
      </trkpt>
      <trkpt lat="45.8022" lon="2.96694">
        <ele>1010</ele>
        <time>2021-08-08T13:46:41Z</time>
      </trkpt>
      <trkpt lat="45.80219" lon="2.96689">
        <ele>1012.3</ele>
        <time>2021-08-08T13:46:43Z</time>
      </trkpt>
      <trkpt lat="45.80212" lon="2.96673">
        <ele>1016.1</ele>
        <time>2021-08-08T13:46:50Z</time>
      </trkpt>
      <trkpt lat="45.8021" lon="2.96672">
        <ele>1016.6</ele>
        <time>2021-08-08T13:46:51Z</time>
      </trkpt>
      <trkpt lat="45.80204" lon="2.96661">
        <ele>1020.3</ele>
        <time>2021-08-08T13:46:56Z</time>
      </trkpt>
      <trkpt lat="45.80198" lon="2.96654">
        <ele>1022.6</ele>
        <time>2021-08-08T13:47:00Z</time>
      </trkpt>
      <trkpt lat="45.80197" lon="2.96652">
        <ele>1022.8</ele>
        <time>2021-08-08T13:47:01Z</time>
      </trkpt>
      <trkpt lat="45.80192" lon="2.96646">
        <ele>1024.3</ele>
        <time>2021-08-08T13:47:05Z</time>
      </trkpt>
      <trkpt lat="45.80184" lon="2.96641">
        <ele>1025.6</ele>
        <time>2021-08-08T13:47:10Z</time>
      </trkpt>
      <trkpt lat="45.80182" lon="2.96639">
        <ele>1025.7</ele>
        <time>2021-08-08T13:47:11Z</time>
      </trkpt>
      <trkpt lat="45.80168" lon="2.9663">
        <ele>1026.1</ele>
        <time>2021-08-08T13:47:20Z</time>
      </trkpt>
      <trkpt lat="45.80167" lon="2.96629">
        <ele>1026.2</ele>
        <time>2021-08-08T13:47:21Z</time>
      </trkpt>
      <trkpt lat="45.80158" lon="2.96627">
        <ele>1026.5</ele>
        <time>2021-08-08T13:47:26Z</time>
      </trkpt>
      <trkpt lat="45.80152" lon="2.9662">
        <ele>1026.7</ele>
        <time>2021-08-08T13:47:30Z</time>
      </trkpt>
      <trkpt lat="45.8015" lon="2.96619">
        <ele>1026.7</ele>
        <time>2021-08-08T13:47:31Z</time>
      </trkpt>
      <trkpt lat="45.80139" lon="2.96611">
        <ele>1027.2</ele>
        <time>2021-08-08T13:47:38Z</time>
      </trkpt>
      <trkpt lat="45.80136" lon="2.96608">
        <ele>1026.9</ele>
        <time>2021-08-08T13:47:40Z</time>
      </trkpt>
      <trkpt lat="45.80135" lon="2.96605">
        <ele>1026.9</ele>
        <time>2021-08-08T13:47:41Z</time>
      </trkpt>
      <trkpt lat="45.80123" lon="2.96591">
        <ele>1028.2</ele>
        <time>2021-08-08T13:47:51Z</time>
      </trkpt>
      <trkpt lat="45.80121" lon="2.96589">
        <ele>1028.3</ele>
        <time>2021-08-08T13:47:52Z</time>
      </trkpt>
      <trkpt lat="45.80114" lon="2.96579">
        <ele>1029.1</ele>
        <time>2021-08-08T13:47:58Z</time>
      </trkpt>
      <trkpt lat="45.80108" lon="2.96575">
        <ele>1027.2</ele>
        <time>2021-08-08T13:48:01Z</time>
      </trkpt>
      <trkpt lat="45.80107" lon="2.96574">
        <ele>1027.4</ele>
        <time>2021-08-08T13:48:02Z</time>
      </trkpt>
      <trkpt lat="45.80103" lon="2.9657">
        <ele>1027.7</ele>
        <time>2021-08-08T13:48:04Z</time>
      </trkpt>
      <trkpt lat="45.80096" lon="2.96558">
        <ele>1028.3</ele>
        <time>2021-08-08T13:48:11Z</time>
      </trkpt>
      <trkpt lat="45.80094" lon="2.96556">
        <ele>1028.4</ele>
        <time>2021-08-08T13:48:12Z</time>
      </trkpt>
      <trkpt lat="45.8009" lon="2.9655">
        <ele>1027.9</ele>
        <time>2021-08-08T13:48:15Z</time>
      </trkpt>
      <trkpt lat="45.80079" lon="2.96545">
        <ele>1027.2</ele>
        <time>2021-08-08T13:48:20Z</time>
      </trkpt>
      <trkpt lat="45.80078" lon="2.96542">
        <ele>1027</ele>
        <time>2021-08-08T13:48:21Z</time>
      </trkpt>
      <trkpt lat="45.80077" lon="2.96541">
        <ele>1027.1</ele>
        <time>2021-08-08T13:48:22Z</time>
      </trkpt>
      <trkpt lat="45.80074" lon="2.96538">
        <ele>1027.2</ele>
        <time>2021-08-08T13:48:24Z</time>
      </trkpt>
      <trkpt lat="45.80069" lon="2.96537">
        <ele>1027</ele>
        <time>2021-08-08T13:48:27Z</time>
      </trkpt>
      <trkpt lat="45.80064" lon="2.96529">
        <ele>1026.6</ele>
        <time>2021-08-08T13:48:31Z</time>
      </trkpt>
      <trkpt lat="45.80062" lon="2.96528">
        <ele>1026.6</ele>
        <time>2021-08-08T13:48:32Z</time>
      </trkpt>
      <trkpt lat="45.80054" lon="2.96523">
        <ele>1027</ele>
        <time>2021-08-08T13:48:39Z</time>
      </trkpt>
      <trkpt lat="45.80048" lon="2.96518">
        <ele>1026.3</ele>
        <time>2021-08-08T13:48:45Z</time>
      </trkpt>
      <trkpt lat="45.80045" lon="2.96517">
        <ele>1025.5</ele>
        <time>2021-08-08T13:48:48Z</time>
      </trkpt>
      <trkpt lat="45.80045" lon="2.96518">
        <ele>1025.2</ele>
        <time>2021-08-08T13:48:49Z</time>
      </trkpt>
      <trkpt lat="45.80032" lon="2.96509">
        <ele>1022.4</ele>
        <time>2021-08-08T13:49:01Z</time>
      </trkpt>
      <trkpt lat="45.8003" lon="2.96507">
        <ele>1021.8</ele>
        <time>2021-08-08T13:49:02Z</time>
      </trkpt>
      <trkpt lat="45.8002" lon="2.96503">
        <ele>1018.4</ele>
        <time>2021-08-08T13:49:09Z</time>
      </trkpt>
      <trkpt lat="45.80014" lon="2.96506">
        <ele>1011.6</ele>
        <time>2021-08-08T13:49:19Z</time>
      </trkpt>
      <trkpt lat="45.80014" lon="2.96507">
        <ele>1010</ele>
        <time>2021-08-08T13:49:20Z</time>
      </trkpt>
      <trkpt lat="45.80012" lon="2.96507">
        <ele>1009.3</ele>
        <time>2021-08-08T13:49:21Z</time>
      </trkpt>
      <trkpt lat="45.80005" lon="2.96502">
        <ele>1005</ele>
        <time>2021-08-08T13:49:27Z</time>
      </trkpt>
      <trkpt lat="45.79994" lon="2.96498">
        <ele>1002.9</ele>
        <time>2021-08-08T13:49:32Z</time>
      </trkpt>
      <trkpt lat="45.79993" lon="2.96497">
        <ele>1002.5</ele>
        <time>2021-08-08T13:49:33Z</time>
      </trkpt>
      <trkpt lat="45.79984" lon="2.96492">
        <ele>1000.2</ele>
        <time>2021-08-08T13:49:39Z</time>
      </trkpt>
      <trkpt lat="45.79979" lon="2.96493">
        <ele>998.4</ele>
        <time>2021-08-08T13:49:44Z</time>
      </trkpt>
      <trkpt lat="45.79976" lon="2.96493">
        <ele>997.2</ele>
        <time>2021-08-08T13:49:47Z</time>
      </trkpt>
      <trkpt lat="45.79975" lon="2.96493">
        <ele>996.8</ele>
        <time>2021-08-08T13:49:48Z</time>
      </trkpt>
      <trkpt lat="45.79971" lon="2.96493">
        <ele>995</ele>
        <time>2021-08-08T13:49:53Z</time>
      </trkpt>
      <trkpt lat="45.79966" lon="2.96491">
        <ele>993.3</ele>
        <time>2021-08-08T13:49:57Z</time>
      </trkpt>
      <trkpt lat="45.79963" lon="2.96491">
        <ele>991.8</ele>
        <time>2021-08-08T13:50:00Z</time>
      </trkpt>
      <trkpt lat="45.79961" lon="2.9649">
        <ele>991.4</ele>
        <time>2021-08-08T13:50:01Z</time>
      </trkpt>
      <trkpt lat="45.7996" lon="2.96489">
        <ele>990.9</ele>
        <time>2021-08-08T13:50:02Z</time>
      </trkpt>
      <trkpt lat="45.79955" lon="2.96487">
        <ele>989.8</ele>
        <time>2021-08-08T13:50:05Z</time>
      </trkpt>
      <trkpt lat="45.79945" lon="2.96483">
        <ele>986.5</ele>
        <time>2021-08-08T13:50:13Z</time>
      </trkpt>
      <trkpt lat="45.79939" lon="2.9648">
        <ele>986.1</ele>
        <time>2021-08-08T13:50:15Z</time>
      </trkpt>
      <trkpt lat="45.79938" lon="2.96479">
        <ele>985.8</ele>
        <time>2021-08-08T13:50:16Z</time>
      </trkpt>
      <trkpt lat="45.79931" lon="2.96475">
        <ele>984.2</ele>
        <time>2021-08-08T13:50:21Z</time>
      </trkpt>
      <trkpt lat="45.79922" lon="2.96468">
        <ele>982.9</ele>
        <time>2021-08-08T13:50:27Z</time>
      </trkpt>
      <trkpt lat="45.7992" lon="2.96467">
        <ele>982.7</ele>
        <time>2021-08-08T13:50:28Z</time>
      </trkpt>
      <trkpt lat="45.79914" lon="2.96464">
        <ele>982.7</ele>
        <time>2021-08-08T13:50:30Z</time>
      </trkpt>
      <trkpt lat="45.79905" lon="2.96455">
        <ele>983</ele>
        <time>2021-08-08T13:50:34Z</time>
      </trkpt>
      <trkpt lat="45.799" lon="2.96452">
        <ele>982.4</ele>
        <time>2021-08-08T13:50:37Z</time>
      </trkpt>
      <trkpt lat="45.79899" lon="2.9645">
        <ele>982.5</ele>
        <time>2021-08-08T13:50:38Z</time>
      </trkpt>
      <trkpt lat="45.79896" lon="2.96449">
        <ele>982.5</ele>
        <time>2021-08-08T13:50:40Z</time>
      </trkpt>
      <trkpt lat="45.79887" lon="2.96444">
        <ele>983.2</ele>
        <time>2021-08-08T13:50:45Z</time>
      </trkpt>
      <trkpt lat="45.79884" lon="2.96442">
        <ele>983.1</ele>
        <time>2021-08-08T13:50:47Z</time>
      </trkpt>
      <trkpt lat="45.79881" lon="2.96442">
        <ele>983.2</ele>
        <time>2021-08-08T13:50:48Z</time>
      </trkpt>
      <trkpt lat="45.79877" lon="2.96441">
        <ele>982.9</ele>
        <time>2021-08-08T13:50:51Z</time>
      </trkpt>
      <trkpt lat="45.79875" lon="2.96443">
        <ele>982.2</ele>
        <time>2021-08-08T13:50:52Z</time>
      </trkpt>
      <trkpt lat="45.79871" lon="2.96443">
        <ele>981.9</ele>
        <time>2021-08-08T13:50:54Z</time>
      </trkpt>
      <trkpt lat="45.79864" lon="2.9644">
        <ele>981.8</ele>
        <time>2021-08-08T13:51:00Z</time>
      </trkpt>
      <trkpt lat="45.79862" lon="2.96439">
        <ele>981.8</ele>
        <time>2021-08-08T13:51:01Z</time>
      </trkpt>
      <trkpt lat="45.7986" lon="2.96438">
        <ele>981.9</ele>
        <time>2021-08-08T13:51:02Z</time>
      </trkpt>
      <trkpt lat="45.79852" lon="2.96433">
        <ele>982.3</ele>
        <time>2021-08-08T13:51:07Z</time>
      </trkpt>
      <trkpt lat="45.79848" lon="2.96433">
        <ele>982.4</ele>
        <time>2021-08-08T13:51:10Z</time>
      </trkpt>
      <trkpt lat="45.79847" lon="2.96433">
        <ele>982.4</ele>
        <time>2021-08-08T13:51:11Z</time>
      </trkpt>
      <trkpt lat="45.79841" lon="2.9643">
        <ele>982.7</ele>
        <time>2021-08-08T13:51:15Z</time>
      </trkpt>
      <trkpt lat="45.79837" lon="2.9643">
        <ele>982.8</ele>
        <time>2021-08-08T13:51:18Z</time>
      </trkpt>
      <trkpt lat="45.79831" lon="2.96427">
        <ele>983.2</ele>
        <time>2021-08-08T13:51:22Z</time>
      </trkpt>
      <trkpt lat="45.79829" lon="2.96426">
        <ele>983.1</ele>
        <time>2021-08-08T13:51:23Z</time>
      </trkpt>
      <trkpt lat="45.79821" lon="2.96421">
        <ele>983.1</ele>
        <time>2021-08-08T13:51:27Z</time>
      </trkpt>
      <trkpt lat="45.79812" lon="2.96417">
        <ele>983.3</ele>
        <time>2021-08-08T13:51:32Z</time>
      </trkpt>
      <trkpt lat="45.7981" lon="2.96417">
        <ele>983.3</ele>
        <time>2021-08-08T13:51:33Z</time>
      </trkpt>
      <trkpt lat="45.79804" lon="2.9641">
        <ele>984.5</ele>
        <time>2021-08-08T13:51:37Z</time>
      </trkpt>
      <trkpt lat="45.79793" lon="2.96403">
        <ele>983.4</ele>
        <time>2021-08-08T13:51:47Z</time>
      </trkpt>
      <trkpt lat="45.79791" lon="2.96402">
        <ele>983.3</ele>
        <time>2021-08-08T13:51:48Z</time>
      </trkpt>
      <trkpt lat="45.79782" lon="2.96395">
        <ele>982.2</ele>
        <time>2021-08-08T13:51:56Z</time>
      </trkpt>
      <trkpt lat="45.79776" lon="2.96396">
        <ele>981.8</ele>
        <time>2021-08-08T13:52:00Z</time>
      </trkpt>
      <trkpt lat="45.79775" lon="2.96397">
        <ele>981.8</ele>
        <time>2021-08-08T13:52:01Z</time>
      </trkpt>
      <trkpt lat="45.79771" lon="2.96396">
        <ele>981.6</ele>
        <time>2021-08-08T13:52:04Z</time>
      </trkpt>
      <trkpt lat="45.79768" lon="2.96397">
        <ele>981.4</ele>
        <time>2021-08-08T13:52:07Z</time>
      </trkpt>
      <trkpt lat="45.79767" lon="2.96395">
        <ele>981.9</ele>
        <time>2021-08-08T13:52:10Z</time>
      </trkpt>
      <trkpt lat="45.79761" lon="2.96396">
        <ele>986</ele>
        <time>2021-08-08T13:52:33Z</time>
      </trkpt>
      <trkpt lat="45.79758" lon="2.96394">
        <ele>988</ele>
        <time>2021-08-08T13:52:42Z</time>
      </trkpt>
      <trkpt lat="45.79757" lon="2.96394">
        <ele>988.1</ele>
        <time>2021-08-08T13:52:43Z</time>
      </trkpt>
      <trkpt lat="45.79753" lon="2.96394">
        <ele>988.4</ele>
        <time>2021-08-08T13:52:46Z</time>
      </trkpt>
      <trkpt lat="45.79742" lon="2.96398">
        <ele>989.8</ele>
        <time>2021-08-08T13:52:54Z</time>
      </trkpt>
      <trkpt lat="45.7974" lon="2.96399">
        <ele>990.1</ele>
        <time>2021-08-08T13:52:55Z</time>
      </trkpt>
      <trkpt lat="45.79737" lon="2.964">
        <ele>990.5</ele>
        <time>2021-08-08T13:52:57Z</time>
      </trkpt>
      <trkpt lat="45.79733" lon="2.96403">
        <ele>991</ele>
        <time>2021-08-08T13:53:00Z</time>
      </trkpt>
      <trkpt lat="45.79732" lon="2.96406">
        <ele>990.6</ele>
        <time>2021-08-08T13:53:02Z</time>
      </trkpt>
      <trkpt lat="45.79727" lon="2.96407">
        <ele>991.1</ele>
        <time>2021-08-08T13:53:06Z</time>
      </trkpt>
      <trkpt lat="45.79725" lon="2.96406">
        <ele>991.3</ele>
        <time>2021-08-08T13:53:07Z</time>
      </trkpt>
      <trkpt lat="45.79724" lon="2.96405">
        <ele>991.4</ele>
        <time>2021-08-08T13:53:08Z</time>
      </trkpt>
      <trkpt lat="45.79708" lon="2.96403">
        <ele>993.6</ele>
        <time>2021-08-08T13:53:18Z</time>
      </trkpt>
      <trkpt lat="45.79706" lon="2.96403">
        <ele>993.8</ele>
        <time>2021-08-08T13:53:19Z</time>
      </trkpt>
      <trkpt lat="45.797" lon="2.96402">
        <ele>994.4</ele>
        <time>2021-08-08T13:53:22Z</time>
      </trkpt>
      <trkpt lat="45.79691" lon="2.96402">
        <ele>995.4</ele>
        <time>2021-08-08T13:53:27Z</time>
      </trkpt>
      <trkpt lat="45.79689" lon="2.96403">
        <ele>995.8</ele>
        <time>2021-08-08T13:53:28Z</time>
      </trkpt>
      <trkpt lat="45.79688" lon="2.96404">
        <ele>996.2</ele>
        <time>2021-08-08T13:53:29Z</time>
      </trkpt>
      <trkpt lat="45.79681" lon="2.96402">
        <ele>996.2</ele>
        <time>2021-08-08T13:53:32Z</time>
      </trkpt>
      <trkpt lat="45.79673" lon="2.96403">
        <ele>996.9</ele>
        <time>2021-08-08T13:53:36Z</time>
      </trkpt>
      <trkpt lat="45.7967" lon="2.96403">
        <ele>997.2</ele>
        <time>2021-08-08T13:53:38Z</time>
      </trkpt>
      <trkpt lat="45.79668" lon="2.96403">
        <ele>997.8</ele>
        <time>2021-08-08T13:53:39Z</time>
      </trkpt>
      <trkpt lat="45.79659" lon="2.96404">
        <ele>1000.1</ele>
        <time>2021-08-08T13:53:45Z</time>
      </trkpt>
      <trkpt lat="45.7965" lon="2.96404">
        <ele>1001.5</ele>
        <time>2021-08-08T13:53:49Z</time>
      </trkpt>
      <trkpt lat="45.79648" lon="2.96404">
        <ele>1001.7</ele>
        <time>2021-08-08T13:53:50Z</time>
      </trkpt>
      <trkpt lat="45.79647" lon="2.96404">
        <ele>1001.8</ele>
        <time>2021-08-08T13:53:51Z</time>
      </trkpt>
      <trkpt lat="45.79642" lon="2.96408">
        <ele>1002.7</ele>
        <time>2021-08-08T13:53:54Z</time>
      </trkpt>
      <trkpt lat="45.79635" lon="2.96411">
        <ele>1003.5</ele>
        <time>2021-08-08T13:53:59Z</time>
      </trkpt>
      <trkpt lat="45.79633" lon="2.96412">
        <ele>1003.7</ele>
        <time>2021-08-08T13:54:00Z</time>
      </trkpt>
      <trkpt lat="45.79619" lon="2.96413">
        <ele>1008</ele>
        <time>2021-08-08T13:54:09Z</time>
      </trkpt>
      <trkpt lat="45.79617" lon="2.96414">
        <ele>1008.6</ele>
        <time>2021-08-08T13:54:10Z</time>
      </trkpt>
      <trkpt lat="45.79616" lon="2.96414">
        <ele>1009.3</ele>
        <time>2021-08-08T13:54:11Z</time>
      </trkpt>
      <trkpt lat="45.79612" lon="2.96416">
        <ele>1010.2</ele>
        <time>2021-08-08T13:54:13Z</time>
      </trkpt>
      <trkpt lat="45.79608" lon="2.96416">
        <ele>1012.8</ele>
        <time>2021-08-08T13:54:15Z</time>
      </trkpt>
      <trkpt lat="45.79602" lon="2.96421">
        <ele>1014.4</ele>
        <time>2021-08-08T13:54:19Z</time>
      </trkpt>
      <trkpt lat="45.79601" lon="2.96422">
        <ele>1015.7</ele>
        <time>2021-08-08T13:54:20Z</time>
      </trkpt>
      <trkpt lat="45.79587" lon="2.96428">
        <ele>1020.6</ele>
        <time>2021-08-08T13:54:29Z</time>
      </trkpt>
      <trkpt lat="45.79585" lon="2.96428">
        <ele>1021.1</ele>
        <time>2021-08-08T13:54:30Z</time>
      </trkpt>
      <trkpt lat="45.79581" lon="2.96429">
        <ele>1022.6</ele>
        <time>2021-08-08T13:54:32Z</time>
      </trkpt>
      <trkpt lat="45.79575" lon="2.96436">
        <ele>1023.5</ele>
        <time>2021-08-08T13:54:38Z</time>
      </trkpt>
      <trkpt lat="45.79572" lon="2.96438">
        <ele>1023.8</ele>
        <time>2021-08-08T13:54:40Z</time>
      </trkpt>
      <trkpt lat="45.79569" lon="2.96437">
        <ele>1024.4</ele>
        <time>2021-08-08T13:54:42Z</time>
      </trkpt>
      <trkpt lat="45.79566" lon="2.96437">
        <ele>1024.9</ele>
        <time>2021-08-08T13:54:43Z</time>
      </trkpt>
      <trkpt lat="45.79562" lon="2.96437">
        <ele>1025.7</ele>
        <time>2021-08-08T13:54:45Z</time>
      </trkpt>
      <trkpt lat="45.79555" lon="2.96441">
        <ele>1028.1</ele>
        <time>2021-08-08T13:54:51Z</time>
      </trkpt>
      <trkpt lat="45.79556" lon="2.96444">
        <ele>1030.3</ele>
        <time>2021-08-08T13:54:56Z</time>
      </trkpt>
      <trkpt lat="45.79553" lon="2.96446">
        <ele>1032</ele>
        <time>2021-08-08T13:55:02Z</time>
      </trkpt>
      <trkpt lat="45.79549" lon="2.96445">
        <ele>1033</ele>
        <time>2021-08-08T13:55:05Z</time>
      </trkpt>
      <trkpt lat="45.79548" lon="2.96446">
        <ele>1033.3</ele>
        <time>2021-08-08T13:55:06Z</time>
      </trkpt>
      <trkpt lat="45.79544" lon="2.96447">
        <ele>1033.8</ele>
        <time>2021-08-08T13:55:09Z</time>
      </trkpt>
      <trkpt lat="45.7954" lon="2.96452">
        <ele>1035</ele>
        <time>2021-08-08T13:55:12Z</time>
      </trkpt>
      <trkpt lat="45.79536" lon="2.96454">
        <ele>1036.3</ele>
        <time>2021-08-08T13:55:15Z</time>
      </trkpt>
      <trkpt lat="45.79535" lon="2.96455">
        <ele>1036.2</ele>
        <time>2021-08-08T13:55:16Z</time>
      </trkpt>
      <trkpt lat="45.79532" lon="2.96459">
        <ele>1036.3</ele>
        <time>2021-08-08T13:55:18Z</time>
      </trkpt>
      <trkpt lat="45.79527" lon="2.96464">
        <ele>1036.3</ele>
        <time>2021-08-08T13:55:22Z</time>
      </trkpt>
      <trkpt lat="45.79521" lon="2.96467">
        <ele>1036.1</ele>
        <time>2021-08-08T13:55:26Z</time>
      </trkpt>
      <trkpt lat="45.7952" lon="2.96468">
        <ele>1036.3</ele>
        <time>2021-08-08T13:55:27Z</time>
      </trkpt>
      <trkpt lat="45.79516" lon="2.96472">
        <ele>1036</ele>
        <time>2021-08-08T13:55:30Z</time>
      </trkpt>
      <trkpt lat="45.79513" lon="2.96478">
        <ele>1036.2</ele>
        <time>2021-08-08T13:55:33Z</time>
      </trkpt>
      <trkpt lat="45.79508" lon="2.96483">
        <ele>1036.2</ele>
        <time>2021-08-08T13:55:36Z</time>
      </trkpt>
      <trkpt lat="45.79507" lon="2.96485">
        <ele>1036.1</ele>
        <time>2021-08-08T13:55:37Z</time>
      </trkpt>
      <trkpt lat="45.79502" lon="2.96491">
        <ele>1035.4</ele>
        <time>2021-08-08T13:55:41Z</time>
      </trkpt>
      <trkpt lat="45.79495" lon="2.96497">
        <ele>1035.5</ele>
        <time>2021-08-08T13:55:45Z</time>
      </trkpt>
      <trkpt lat="45.79494" lon="2.96499">
        <ele>1035.9</ele>
        <time>2021-08-08T13:55:46Z</time>
      </trkpt>
      <trkpt lat="45.79493" lon="2.96501">
        <ele>1035.8</ele>
        <time>2021-08-08T13:55:47Z</time>
      </trkpt>
      <trkpt lat="45.79481" lon="2.96512">
        <ele>1035.9</ele>
        <time>2021-08-08T13:55:56Z</time>
      </trkpt>
      <trkpt lat="45.79479" lon="2.96513">
        <ele>1036.1</ele>
        <time>2021-08-08T13:55:57Z</time>
      </trkpt>
      <trkpt lat="45.79468" lon="2.96529">
        <ele>1036</ele>
        <time>2021-08-08T13:56:06Z</time>
      </trkpt>
      <trkpt lat="45.79468" lon="2.96531">
        <ele>1036.3</ele>
        <time>2021-08-08T13:56:07Z</time>
      </trkpt>
      <trkpt lat="45.79463" lon="2.96535">
        <ele>1036.5</ele>
        <time>2021-08-08T13:56:10Z</time>
      </trkpt>
      <trkpt lat="45.79457" lon="2.96547">
        <ele>1036.1</ele>
        <time>2021-08-08T13:56:16Z</time>
      </trkpt>
      <trkpt lat="45.79455" lon="2.96549">
        <ele>1036.3</ele>
        <time>2021-08-08T13:56:17Z</time>
      </trkpt>
      <trkpt lat="45.79445" lon="2.96569">
        <ele>1038.1</ele>
        <time>2021-08-08T13:56:26Z</time>
      </trkpt>
      <trkpt lat="45.79444" lon="2.96571">
        <ele>1038.1</ele>
        <time>2021-08-08T13:56:27Z</time>
      </trkpt>
      <trkpt lat="45.79435" lon="2.9659">
        <ele>1036.9</ele>
        <time>2021-08-08T13:56:37Z</time>
      </trkpt>
      <trkpt lat="45.79434" lon="2.96592">
        <ele>1036.9</ele>
        <time>2021-08-08T13:56:38Z</time>
      </trkpt>
      <trkpt lat="45.79432" lon="2.96598">
        <ele>1036.6</ele>
        <time>2021-08-08T13:56:41Z</time>
      </trkpt>
      <trkpt lat="45.79429" lon="2.96602">
        <ele>1036.3</ele>
        <time>2021-08-08T13:56:44Z</time>
      </trkpt>
      <trkpt lat="45.79427" lon="2.96608">
        <ele>1035.4</ele>
        <time>2021-08-08T13:56:48Z</time>
      </trkpt>
      <trkpt lat="45.79424" lon="2.96611">
        <ele>1035</ele>
        <time>2021-08-08T13:56:51Z</time>
      </trkpt>
      <trkpt lat="45.79424" lon="2.96612">
        <ele>1034.9</ele>
        <time>2021-08-08T13:56:52Z</time>
      </trkpt>
      <trkpt lat="45.79421" lon="2.96619">
        <ele>1035</ele>
        <time>2021-08-08T13:56:55Z</time>
      </trkpt>
      <trkpt lat="45.79419" lon="2.96626">
        <ele>1034.6</ele>
        <time>2021-08-08T13:56:58Z</time>
      </trkpt>
      <trkpt lat="45.79417" lon="2.96631">
        <ele>1034.4</ele>
        <time>2021-08-08T13:57:01Z</time>
      </trkpt>
      <trkpt lat="45.79417" lon="2.96633">
        <ele>1034.2</ele>
        <time>2021-08-08T13:57:02Z</time>
      </trkpt>
      <trkpt lat="45.79411" lon="2.96643">
        <ele>1034.1</ele>
        <time>2021-08-08T13:57:08Z</time>
      </trkpt>
      <trkpt lat="45.79405" lon="2.96651">
        <ele>1034.4</ele>
        <time>2021-08-08T13:57:14Z</time>
      </trkpt>
      <trkpt lat="45.79404" lon="2.96652">
        <ele>1034.5</ele>
        <time>2021-08-08T13:57:15Z</time>
      </trkpt>
      <trkpt lat="45.79403" lon="2.96652">
        <ele>1034.5</ele>
        <time>2021-08-08T13:57:16Z</time>
      </trkpt>
      <trkpt lat="45.794" lon="2.96648">
        <ele>1035.4</ele>
        <time>2021-08-08T13:57:20Z</time>
      </trkpt>
      <trkpt lat="45.79395" lon="2.96636">
        <ele>1035.5</ele>
        <time>2021-08-08T13:57:26Z</time>
      </trkpt>
      <trkpt lat="45.79394" lon="2.96634">
        <ele>1035.3</ele>
        <time>2021-08-08T13:57:27Z</time>
      </trkpt>
      <trkpt lat="45.79389" lon="2.96621">
        <ele>1034.8</ele>
        <time>2021-08-08T13:57:34Z</time>
      </trkpt>
      <trkpt lat="45.79387" lon="2.96615">
        <ele>1034.4</ele>
        <time>2021-08-08T13:57:37Z</time>
      </trkpt>
      <trkpt lat="45.79387" lon="2.96612">
        <ele>1034.3</ele>
        <time>2021-08-08T13:57:38Z</time>
      </trkpt>
      <trkpt lat="45.79383" lon="2.96591">
        <ele>1034.8</ele>
        <time>2021-08-08T13:57:47Z</time>
      </trkpt>
      <trkpt lat="45.79383" lon="2.96587">
        <ele>1034.8</ele>
        <time>2021-08-08T13:57:48Z</time>
      </trkpt>
      <trkpt lat="45.79378" lon="2.96566">
        <ele>1036.6</ele>
        <time>2021-08-08T13:57:57Z</time>
      </trkpt>
      <trkpt lat="45.79378" lon="2.96563">
        <ele>1036.7</ele>
        <time>2021-08-08T13:57:58Z</time>
      </trkpt>
      <trkpt lat="45.79371" lon="2.96544">
        <ele>1039.4</ele>
        <time>2021-08-08T13:58:09Z</time>
      </trkpt>
      <trkpt lat="45.7937" lon="2.96542">
        <ele>1039.5</ele>
        <time>2021-08-08T13:58:10Z</time>
      </trkpt>
      <trkpt lat="45.79366" lon="2.96537">
        <ele>1040.6</ele>
        <time>2021-08-08T13:58:15Z</time>
      </trkpt>
      <trkpt lat="45.79361" lon="2.96523">
        <ele>1041.8</ele>
        <time>2021-08-08T13:58:24Z</time>
      </trkpt>
      <trkpt lat="45.79361" lon="2.96521">
        <ele>1042</ele>
        <time>2021-08-08T13:58:25Z</time>
      </trkpt>
      <trkpt lat="45.79358" lon="2.96501">
        <ele>1044.4</ele>
        <time>2021-08-08T13:58:37Z</time>
      </trkpt>
      <trkpt lat="45.79356" lon="2.96496">
        <ele>1044.7</ele>
        <time>2021-08-08T13:58:40Z</time>
      </trkpt>
      <trkpt lat="45.79356" lon="2.96495">
        <ele>1044.9</ele>
        <time>2021-08-08T13:58:41Z</time>
      </trkpt>
      <trkpt lat="45.79355" lon="2.96492">
        <ele>1045.7</ele>
        <time>2021-08-08T13:58:44Z</time>
      </trkpt>
      <trkpt lat="45.79353" lon="2.96479">
        <ele>1047.1</ele>
        <time>2021-08-08T13:58:53Z</time>
      </trkpt>
      <trkpt lat="45.79351" lon="2.96475">
        <ele>1048</ele>
        <time>2021-08-08T13:58:56Z</time>
      </trkpt>
      <trkpt lat="45.7935" lon="2.96473">
        <ele>1048.3</ele>
        <time>2021-08-08T13:58:57Z</time>
      </trkpt>
      <trkpt lat="45.79343" lon="2.96465">
        <ele>1049.6</ele>
        <time>2021-08-08T13:59:04Z</time>
      </trkpt>
      <trkpt lat="45.79342" lon="2.96464">
        <ele>1050.2</ele>
        <time>2021-08-08T13:59:06Z</time>
      </trkpt>
      <trkpt lat="45.79335" lon="2.96456">
        <ele>1052.8</ele>
        <time>2021-08-08T13:59:13Z</time>
      </trkpt>
      <trkpt lat="45.79333" lon="2.96455">
        <ele>1053.1</ele>
        <time>2021-08-08T13:59:14Z</time>
      </trkpt>
      <trkpt lat="45.79328" lon="2.96448">
        <ele>1055.5</ele>
        <time>2021-08-08T13:59:22Z</time>
      </trkpt>
      <trkpt lat="45.79324" lon="2.96436">
        <ele>1059.3</ele>
        <time>2021-08-08T13:59:35Z</time>
      </trkpt>
      <trkpt lat="45.79324" lon="2.96436">
        <ele>1059.5</ele>
        <time>2021-08-08T13:59:36Z</time>
      </trkpt>
      <trkpt lat="45.79322" lon="2.96434">
        <ele>1061.2</ele>
        <time>2021-08-08T13:59:41Z</time>
      </trkpt>
      <trkpt lat="45.79319" lon="2.96419">
        <ele>1064.4</ele>
        <time>2021-08-08T13:59:51Z</time>
      </trkpt>
      <trkpt lat="45.79316" lon="2.96416">
        <ele>1065.2</ele>
        <time>2021-08-08T13:59:54Z</time>
      </trkpt>
      <trkpt lat="45.79315" lon="2.96415">
        <ele>1065.3</ele>
        <time>2021-08-08T13:59:55Z</time>
      </trkpt>
      <trkpt lat="45.79311" lon="2.9641">
        <ele>1066.8</ele>
        <time>2021-08-08T14:00:00Z</time>
      </trkpt>
      <trkpt lat="45.79306" lon="2.96395">
        <ele>1070.3</ele>
        <time>2021-08-08T14:00:11Z</time>
      </trkpt>
      <trkpt lat="45.79306" lon="2.96393">
        <ele>1070.7</ele>
        <time>2021-08-08T14:00:12Z</time>
      </trkpt>
      <trkpt lat="45.79305" lon="2.96389">
        <ele>1071.8</ele>
        <time>2021-08-08T14:00:15Z</time>
      </trkpt>
      <trkpt lat="45.79299" lon="2.96374">
        <ele>1073.6</ele>
        <time>2021-08-08T14:00:24Z</time>
      </trkpt>
      <trkpt lat="45.79299" lon="2.96372">
        <ele>1073.7</ele>
        <time>2021-08-08T14:00:25Z</time>
      </trkpt>
      <trkpt lat="45.79299" lon="2.9637">
        <ele>1073.7</ele>
        <time>2021-08-08T14:00:26Z</time>
      </trkpt>
      <trkpt lat="45.793" lon="2.96364">
        <ele>1074</ele>
        <time>2021-08-08T14:00:29Z</time>
      </trkpt>
      <trkpt lat="45.79299" lon="2.96356">
        <ele>1075.5</ele>
        <time>2021-08-08T14:00:33Z</time>
      </trkpt>
      <trkpt lat="45.79295" lon="2.9635">
        <ele>1077.2</ele>
        <time>2021-08-08T14:00:36Z</time>
      </trkpt>
      <trkpt lat="45.79294" lon="2.96348">
        <ele>1077.5</ele>
        <time>2021-08-08T14:00:37Z</time>
      </trkpt>
      <trkpt lat="45.79291" lon="2.96341">
        <ele>1078.6</ele>
        <time>2021-08-08T14:00:41Z</time>
      </trkpt>
      <trkpt lat="45.79291" lon="2.96338">
        <ele>1079</ele>
        <time>2021-08-08T14:00:42Z</time>
      </trkpt>
      <trkpt lat="45.79289" lon="2.96327">
        <ele>1079.9</ele>
        <time>2021-08-08T14:00:48Z</time>
      </trkpt>
      <trkpt lat="45.79289" lon="2.96326">
        <ele>1080</ele>
        <time>2021-08-08T14:00:49Z</time>
      </trkpt>
      <trkpt lat="45.79285" lon="2.96319">
        <ele>1081.1</ele>
        <time>2021-08-08T14:00:54Z</time>
      </trkpt>
      <trkpt lat="45.79283" lon="2.96307">
        <ele>1083.1</ele>
        <time>2021-08-08T14:01:01Z</time>
      </trkpt>
      <trkpt lat="45.79281" lon="2.96303">
        <ele>1083.8</ele>
        <time>2021-08-08T14:01:03Z</time>
      </trkpt>
      <trkpt lat="45.7928" lon="2.96301">
        <ele>1084.1</ele>
        <time>2021-08-08T14:01:04Z</time>
      </trkpt>
      <trkpt lat="45.79273" lon="2.96293">
        <ele>1084.9</ele>
        <time>2021-08-08T14:01:10Z</time>
      </trkpt>
      <trkpt lat="45.79267" lon="2.96286">
        <ele>1084.7</ele>
        <time>2021-08-08T14:01:15Z</time>
      </trkpt>
      <trkpt lat="45.79267" lon="2.96284">
        <ele>1084.8</ele>
        <time>2021-08-08T14:01:16Z</time>
      </trkpt>
      <trkpt lat="45.79265" lon="2.96284">
        <ele>1084.8</ele>
        <time>2021-08-08T14:01:17Z</time>
      </trkpt>
      <trkpt lat="45.79263" lon="2.9628">
        <ele>1084.8</ele>
        <time>2021-08-08T14:01:20Z</time>
      </trkpt>
      <trkpt lat="45.79256" lon="2.96264">
        <ele>1085.7</ele>
        <time>2021-08-08T14:01:30Z</time>
      </trkpt>
      <trkpt lat="45.79256" lon="2.96262">
        <ele>1085.8</ele>
        <time>2021-08-08T14:01:31Z</time>
      </trkpt>
      <trkpt lat="45.79255" lon="2.96251">
        <ele>1087.3</ele>
        <time>2021-08-08T14:01:37Z</time>
      </trkpt>
      <trkpt lat="45.7925" lon="2.9624">
        <ele>1088.5</ele>
        <time>2021-08-08T14:01:44Z</time>
      </trkpt>
      <trkpt lat="45.79249" lon="2.96239">
        <ele>1088.4</ele>
        <time>2021-08-08T14:01:45Z</time>
      </trkpt>
      <trkpt lat="45.79249" lon="2.96236">
        <ele>1088.6</ele>
        <time>2021-08-08T14:01:46Z</time>
      </trkpt>
      <trkpt lat="45.79246" lon="2.9623">
        <ele>1089.4</ele>
        <time>2021-08-08T14:01:50Z</time>
      </trkpt>
      <trkpt lat="45.79248" lon="2.96226">
        <ele>1089.7</ele>
        <time>2021-08-08T14:01:52Z</time>
      </trkpt>
      <trkpt lat="45.7925" lon="2.96215">
        <ele>1090.2</ele>
        <time>2021-08-08T14:01:58Z</time>
      </trkpt>
      <trkpt lat="45.79249" lon="2.96213">
        <ele>1090.3</ele>
        <time>2021-08-08T14:01:59Z</time>
      </trkpt>
      <trkpt lat="45.79248" lon="2.96205">
        <ele>1089.8</ele>
        <time>2021-08-08T14:02:02Z</time>
      </trkpt>
      <trkpt lat="45.79249" lon="2.96199">
        <ele>1089.2</ele>
        <time>2021-08-08T14:02:05Z</time>
      </trkpt>
      <trkpt lat="45.79245" lon="2.9619">
        <ele>1090</ele>
        <time>2021-08-08T14:02:09Z</time>
      </trkpt>
      <trkpt lat="45.79245" lon="2.96187">
        <ele>1090.2</ele>
        <time>2021-08-08T14:02:10Z</time>
      </trkpt>
      <trkpt lat="45.79242" lon="2.9618">
        <ele>1090.9</ele>
        <time>2021-08-08T14:02:14Z</time>
      </trkpt>
      <trkpt lat="45.79237" lon="2.9617">
        <ele>1091</ele>
        <time>2021-08-08T14:02:20Z</time>
      </trkpt>
      <trkpt lat="45.79237" lon="2.96168">
        <ele>1091.1</ele>
        <time>2021-08-08T14:02:21Z</time>
      </trkpt>
      <trkpt lat="45.79237" lon="2.96166">
        <ele>1091.1</ele>
        <time>2021-08-08T14:02:22Z</time>
      </trkpt>
      <trkpt lat="45.79237" lon="2.96152">
        <ele>1091.5</ele>
        <time>2021-08-08T14:02:28Z</time>
      </trkpt>
      <trkpt lat="45.79238" lon="2.96145">
        <ele>1091.2</ele>
        <time>2021-08-08T14:02:32Z</time>
      </trkpt>
      <trkpt lat="45.79238" lon="2.96144">
        <ele>1091.2</ele>
        <time>2021-08-08T14:02:33Z</time>
      </trkpt>
      <trkpt lat="45.7924" lon="2.96141">
        <ele>1091.1</ele>
        <time>2021-08-08T14:02:35Z</time>
      </trkpt>
      <trkpt lat="45.79241" lon="2.96125">
        <ele>1091.4</ele>
        <time>2021-08-08T14:02:46Z</time>
      </trkpt>
      <trkpt lat="45.7924" lon="2.9612">
        <ele>1091.1</ele>
        <time>2021-08-08T14:02:48Z</time>
      </trkpt>
      <trkpt lat="45.79239" lon="2.96118">
        <ele>1091.3</ele>
        <time>2021-08-08T14:02:49Z</time>
      </trkpt>
      <trkpt lat="45.7924" lon="2.96114">
        <ele>1091.5</ele>
        <time>2021-08-08T14:02:52Z</time>
      </trkpt>
      <trkpt lat="45.79237" lon="2.96103">
        <ele>1091.7</ele>
        <time>2021-08-08T14:02:57Z</time>
      </trkpt>
      <trkpt lat="45.79238" lon="2.96095">
        <ele>1091.8</ele>
        <time>2021-08-08T14:03:00Z</time>
      </trkpt>
      <trkpt lat="45.79236" lon="2.9609">
        <ele>1091.6</ele>
        <time>2021-08-08T14:03:01Z</time>
      </trkpt>
      <trkpt lat="45.79236" lon="2.96087">
        <ele>1091.6</ele>
        <time>2021-08-08T14:03:02Z</time>
      </trkpt>
      <trkpt lat="45.79234" lon="2.96079">
        <ele>1091.7</ele>
        <time>2021-08-08T14:03:04Z</time>
      </trkpt>
      <trkpt lat="45.79231" lon="2.9607">
        <ele>1091.6</ele>
        <time>2021-08-08T14:03:06Z</time>
      </trkpt>
      <trkpt lat="45.79231" lon="2.96059">
        <ele>1092</ele>
        <time>2021-08-08T14:03:09Z</time>
      </trkpt>
      <trkpt lat="45.79229" lon="2.96055">
        <ele>1091.8</ele>
        <time>2021-08-08T14:03:10Z</time>
      </trkpt>
      <trkpt lat="45.79229" lon="2.96052">
        <ele>1091.9</ele>
        <time>2021-08-08T14:03:11Z</time>
      </trkpt>
      <trkpt lat="45.79233" lon="2.96045">
        <ele>1092.6</ele>
        <time>2021-08-08T14:03:14Z</time>
      </trkpt>
      <trkpt lat="45.79235" lon="2.96032">
        <ele>1091.9</ele>
        <time>2021-08-08T14:03:20Z</time>
      </trkpt>
      <trkpt lat="45.79235" lon="2.96029">
        <ele>1092</ele>
        <time>2021-08-08T14:03:21Z</time>
      </trkpt>
      <trkpt lat="45.79236" lon="2.96022">
        <ele>1093.1</ele>
        <time>2021-08-08T14:03:24Z</time>
      </trkpt>
      <trkpt lat="45.79234" lon="2.96015">
        <ele>1092.8</ele>
        <time>2021-08-08T14:03:28Z</time>
      </trkpt>
      <trkpt lat="45.79231" lon="2.96008">
        <ele>1092.2</ele>
        <time>2021-08-08T14:03:32Z</time>
      </trkpt>
      <trkpt lat="45.79232" lon="2.96006">
        <ele>1091.7</ele>
        <time>2021-08-08T14:03:33Z</time>
      </trkpt>
      <trkpt lat="45.79233" lon="2.96001">
        <ele>1090.6</ele>
        <time>2021-08-08T14:03:36Z</time>
      </trkpt>
      <trkpt lat="45.79237" lon="2.95998">
        <ele>1089.1</ele>
        <time>2021-08-08T14:03:42Z</time>
      </trkpt>
      <trkpt lat="45.79239" lon="2.95989">
        <ele>1087.9</ele>
        <time>2021-08-08T14:03:50Z</time>
      </trkpt>
      <trkpt lat="45.79243" lon="2.95988">
        <ele>1087.8</ele>
        <time>2021-08-08T14:03:54Z</time>
      </trkpt>
      <trkpt lat="45.79243" lon="2.95988">
        <ele>1087.7</ele>
        <time>2021-08-08T14:03:55Z</time>
      </trkpt>
      <trkpt lat="45.79244" lon="2.95984">
        <ele>1086.8</ele>
        <time>2021-08-08T14:04:00Z</time>
      </trkpt>
      <trkpt lat="45.79247" lon="2.95977">
        <ele>1094.4</ele>
        <time>2021-08-08T14:04:25Z</time>
      </trkpt>
      <trkpt lat="45.79247" lon="2.9597">
        <ele>1096.5</ele>
        <time>2021-08-08T14:04:32Z</time>
      </trkpt>
      <trkpt lat="45.79249" lon="2.95968">
        <ele>1097.5</ele>
        <time>2021-08-08T14:04:36Z</time>
      </trkpt>
      <trkpt lat="45.7925" lon="2.95968">
        <ele>1097.8</ele>
        <time>2021-08-08T14:04:37Z</time>
      </trkpt>
      <trkpt lat="45.79252" lon="2.95967">
        <ele>1098.3</ele>
        <time>2021-08-08T14:04:38Z</time>
      </trkpt>
      <trkpt lat="45.79253" lon="2.95965">
        <ele>1098.6</ele>
        <time>2021-08-08T14:04:39Z</time>
      </trkpt>
      <trkpt lat="45.7926" lon="2.95961">
        <ele>1100.3</ele>
        <time>2021-08-08T14:04:46Z</time>
      </trkpt>
      <trkpt lat="45.79266" lon="2.95959">
        <ele>1101.2</ele>
        <time>2021-08-08T14:04:50Z</time>
      </trkpt>
      <trkpt lat="45.79267" lon="2.95959">
        <ele>1101</ele>
        <time>2021-08-08T14:04:51Z</time>
      </trkpt>
      <trkpt lat="45.79272" lon="2.95955">
        <ele>1100.4</ele>
        <time>2021-08-08T14:04:56Z</time>
      </trkpt>
      <trkpt lat="45.79278" lon="2.95955">
        <ele>1099.6</ele>
        <time>2021-08-08T14:05:02Z</time>
      </trkpt>
      <trkpt lat="45.79281" lon="2.95949">
        <ele>1098.9</ele>
        <time>2021-08-08T14:05:06Z</time>
      </trkpt>
      <trkpt lat="45.79282" lon="2.95947">
        <ele>1098.9</ele>
        <time>2021-08-08T14:05:07Z</time>
      </trkpt>
      <trkpt lat="45.79282" lon="2.95939">
        <ele>1099</ele>
        <time>2021-08-08T14:05:11Z</time>
      </trkpt>
      <trkpt lat="45.79283" lon="2.95934">
        <ele>1098.1</ele>
        <time>2021-08-08T14:05:14Z</time>
      </trkpt>
      <trkpt lat="45.79285" lon="2.95932">
        <ele>1097.6</ele>
        <time>2021-08-08T14:05:17Z</time>
      </trkpt>
      <trkpt lat="45.79288" lon="2.95932">
        <ele>1098.1</ele>
        <time>2021-08-08T14:05:21Z</time>
      </trkpt>
      <trkpt lat="45.79291" lon="2.9593">
        <ele>1099.1</ele>
        <time>2021-08-08T14:05:26Z</time>
      </trkpt>
      <trkpt lat="45.79291" lon="2.95929">
        <ele>1099.2</ele>
        <time>2021-08-08T14:05:27Z</time>
      </trkpt>
      <trkpt lat="45.79293" lon="2.95928">
        <ele>1100.4</ele>
        <time>2021-08-08T14:05:32Z</time>
      </trkpt>
      <trkpt lat="45.79299" lon="2.95927">
        <ele>1102.8</ele>
        <time>2021-08-08T14:05:41Z</time>
      </trkpt>
      <trkpt lat="45.793" lon="2.95924">
        <ele>1103.5</ele>
        <time>2021-08-08T14:05:46Z</time>
      </trkpt>
      <trkpt lat="45.79305" lon="2.95924">
        <ele>1107</ele>
        <time>2021-08-08T14:05:56Z</time>
      </trkpt>
      <trkpt lat="45.79306" lon="2.95922">
        <ele>1107.3</ele>
        <time>2021-08-08T14:05:57Z</time>
      </trkpt>
      <trkpt lat="45.79306" lon="2.95922">
        <ele>1107.4</ele>
        <time>2021-08-08T14:05:58Z</time>
      </trkpt>
      <trkpt lat="45.79306" lon="2.9592">
        <ele>1107.7</ele>
        <time>2021-08-08T14:05:59Z</time>
      </trkpt>
      <trkpt lat="45.79309" lon="2.95919">
        <ele>1109.6</ele>
        <time>2021-08-08T14:06:02Z</time>
      </trkpt>
      <trkpt lat="45.79309" lon="2.95916">
        <ele>1110.1</ele>
        <time>2021-08-08T14:06:06Z</time>
      </trkpt>
      <trkpt lat="45.79311" lon="2.95916">
        <ele>1111.3</ele>
        <time>2021-08-08T14:06:08Z</time>
      </trkpt>
      <trkpt lat="45.79312" lon="2.95913">
        <ele>1111.9</ele>
        <time>2021-08-08T14:06:10Z</time>
      </trkpt>
      <trkpt lat="45.79317" lon="2.95914">
        <ele>1115</ele>
        <time>2021-08-08T14:06:24Z</time>
      </trkpt>
      <trkpt lat="45.79319" lon="2.95911">
        <ele>1115.8</ele>
        <time>2021-08-08T14:06:27Z</time>
      </trkpt>
      <trkpt lat="45.7932" lon="2.9591">
        <ele>1116.1</ele>
        <time>2021-08-08T14:06:28Z</time>
      </trkpt>
      <trkpt lat="45.79329" lon="2.95897">
        <ele>1122.9</ele>
        <time>2021-08-08T14:06:50Z</time>
      </trkpt>
      <trkpt lat="45.79332" lon="2.95899">
        <ele>1126.6</ele>
        <time>2021-08-08T14:07:01Z</time>
      </trkpt>
      <trkpt lat="45.79334" lon="2.95897">
        <ele>1127.1</ele>
        <time>2021-08-08T14:07:02Z</time>
      </trkpt>
      <trkpt lat="45.79335" lon="2.95896">
        <ele>1127.1</ele>
        <time>2021-08-08T14:07:03Z</time>
      </trkpt>
      <trkpt lat="45.79345" lon="2.95878">
        <ele>1137</ele>
        <time>2021-08-08T14:07:17Z</time>
      </trkpt>
      <trkpt lat="45.79345" lon="2.95877">
        <ele>1137.4</ele>
        <time>2021-08-08T14:07:18Z</time>
      </trkpt>
      <trkpt lat="45.79357" lon="2.95858">
        <ele>1144.1</ele>
        <time>2021-08-08T14:07:36Z</time>
      </trkpt>
      <trkpt lat="45.79358" lon="2.95857">
        <ele>1144.4</ele>
        <time>2021-08-08T14:07:37Z</time>
      </trkpt>
      <trkpt lat="45.7936" lon="2.95855">
        <ele>1145.2</ele>
        <time>2021-08-08T14:07:40Z</time>
      </trkpt>
      <trkpt lat="45.79361" lon="2.9585">
        <ele>1146.7</ele>
        <time>2021-08-08T14:07:59Z</time>
      </trkpt>
      <trkpt lat="45.79365" lon="2.95853">
        <ele>1147.2</ele>
        <time>2021-08-08T14:08:00Z</time>
      </trkpt>
      <trkpt lat="45.79367" lon="2.95853">
        <ele>1147.5</ele>
        <time>2021-08-08T14:08:03Z</time>
      </trkpt>
      <trkpt lat="45.79372" lon="2.95849">
        <ele>1148.5</ele>
        <time>2021-08-08T14:08:08Z</time>
      </trkpt>
      <trkpt lat="45.79372" lon="2.95848">
        <ele>1148.6</ele>
        <time>2021-08-08T14:08:09Z</time>
      </trkpt>
      <trkpt lat="45.79377" lon="2.9584">
        <ele>1149.5</ele>
        <time>2021-08-08T14:08:17Z</time>
      </trkpt>
      <trkpt lat="45.79377" lon="2.95837">
        <ele>1150</ele>
        <time>2021-08-08T14:08:21Z</time>
      </trkpt>
      <trkpt lat="45.79378" lon="2.95835">
        <ele>1150.3</ele>
        <time>2021-08-08T14:08:23Z</time>
      </trkpt>
      <trkpt lat="45.7938" lon="2.95833">
        <ele>1150.8</ele>
        <time>2021-08-08T14:08:26Z</time>
      </trkpt>
      <trkpt lat="45.79383" lon="2.95832">
        <ele>1151.4</ele>
        <time>2021-08-08T14:08:30Z</time>
      </trkpt>
      <trkpt lat="45.79383" lon="2.95832">
        <ele>1151.6</ele>
        <time>2021-08-08T14:08:31Z</time>
      </trkpt>
      <trkpt lat="45.79386" lon="2.95832">
        <ele>1153.6</ele>
        <time>2021-08-08T14:08:44Z</time>
      </trkpt>
      <trkpt lat="45.79388" lon="2.95829">
        <ele>1154.2</ele>
        <time>2021-08-08T14:08:56Z</time>
      </trkpt>
      <trkpt lat="45.79392" lon="2.9583">
        <ele>1155</ele>
        <time>2021-08-08T14:09:01Z</time>
      </trkpt>
      <trkpt lat="45.79398" lon="2.95826">
        <ele>1156</ele>
        <time>2021-08-08T14:09:08Z</time>
      </trkpt>
      <trkpt lat="45.79399" lon="2.95827">
        <ele>1156.1</ele>
        <time>2021-08-08T14:09:09Z</time>
      </trkpt>
      <trkpt lat="45.79399" lon="2.95827">
        <ele>1156.1</ele>
        <time>2021-08-08T14:09:10Z</time>
      </trkpt>
      <trkpt lat="45.79396" lon="2.95834">
        <ele>1156.4</ele>
        <time>2021-08-08T14:09:19Z</time>
      </trkpt>
      <trkpt lat="45.79395" lon="2.95841">
        <ele>1156.9</ele>
        <time>2021-08-08T14:09:24Z</time>
      </trkpt>
      <trkpt lat="45.79392" lon="2.95847">
        <ele>1157.2</ele>
        <time>2021-08-08T14:09:31Z</time>
      </trkpt>
      <trkpt lat="45.79392" lon="2.95848">
        <ele>1157.2</ele>
        <time>2021-08-08T14:09:32Z</time>
      </trkpt>
      <trkpt lat="45.79392" lon="2.95856">
        <ele>1157.4</ele>
        <time>2021-08-08T14:09:39Z</time>
      </trkpt>
      <trkpt lat="45.79393" lon="2.95863">
        <ele>1157.9</ele>
        <time>2021-08-08T14:09:46Z</time>
      </trkpt>
      <trkpt lat="45.79391" lon="2.95869">
        <ele>1158.2</ele>
        <time>2021-08-08T14:09:58Z</time>
      </trkpt>
      <trkpt lat="45.79389" lon="2.95869">
        <ele>1158.2</ele>
        <time>2021-08-08T14:10:00Z</time>
      </trkpt>
      <trkpt lat="45.79388" lon="2.95867">
        <ele>1158.1</ele>
        <time>2021-08-08T14:10:01Z</time>
      </trkpt>
      <trkpt lat="45.79387" lon="2.95867">
        <ele>1158.2</ele>
        <time>2021-08-08T14:10:02Z</time>
      </trkpt>
      <trkpt lat="45.7938" lon="2.95861">
        <ele>1158.8</ele>
        <time>2021-08-08T14:10:26Z</time>
      </trkpt>
      <trkpt lat="45.79373" lon="2.95865">
        <ele>1159.8</ele>
        <time>2021-08-08T14:10:35Z</time>
      </trkpt>
      <trkpt lat="45.79373" lon="2.95868">
        <ele>1159.4</ele>
        <time>2021-08-08T14:10:39Z</time>
      </trkpt>
      <trkpt lat="45.79375" lon="2.95869">
        <ele>1159.5</ele>
        <time>2021-08-08T14:10:40Z</time>
      </trkpt>
      <trkpt lat="45.79376" lon="2.9587">
        <ele>1159.5</ele>
        <time>2021-08-08T14:10:41Z</time>
      </trkpt>
      <trkpt lat="45.79381" lon="2.95876">
        <ele>1160.2</ele>
        <time>2021-08-08T14:10:51Z</time>
      </trkpt>
      <trkpt lat="45.79384" lon="2.95881">
        <ele>1160.3</ele>
        <time>2021-08-08T14:10:53Z</time>
      </trkpt>
      <trkpt lat="45.79385" lon="2.9588">
        <ele>1160.4</ele>
        <time>2021-08-08T14:10:54Z</time>
      </trkpt>
      <trkpt lat="45.79387" lon="2.95881">
        <ele>1160.6</ele>
        <time>2021-08-08T14:10:57Z</time>
      </trkpt>
      <trkpt lat="45.79389" lon="2.9588">
        <ele>1160.8</ele>
        <time>2021-08-08T14:10:58Z</time>
      </trkpt>
      <trkpt lat="45.79389" lon="2.95884">
        <ele>1161.2</ele>
        <time>2021-08-08T14:11:06Z</time>
      </trkpt>
      <trkpt lat="45.7939" lon="2.95886">
        <ele>1161.3</ele>
        <time>2021-08-08T14:11:10Z</time>
      </trkpt>
      <trkpt lat="45.79388" lon="2.95885">
        <ele>1161.3</ele>
        <time>2021-08-08T14:11:11Z</time>
      </trkpt>
      <trkpt lat="45.7939" lon="2.95883">
        <ele>1161.5</ele>
        <time>2021-08-08T14:11:21Z</time>
      </trkpt>
      <trkpt lat="45.79391" lon="2.95886">
        <ele>1161.5</ele>
        <time>2021-08-08T14:11:27Z</time>
      </trkpt>
      <trkpt lat="45.79394" lon="2.95882">
        <ele>1161.9</ele>
        <time>2021-08-08T14:11:37Z</time>
      </trkpt>
      <trkpt lat="45.79395" lon="2.95887">
        <ele>1162</ele>
        <time>2021-08-08T14:11:38Z</time>
      </trkpt>
      <trkpt lat="45.79395" lon="2.95886">
        <ele>1161.9</ele>
        <time>2021-08-08T14:11:39Z</time>
      </trkpt>
      <trkpt lat="45.79398" lon="2.95889">
        <ele>1162.2</ele>
        <time>2021-08-08T14:11:43Z</time>
      </trkpt>
      <trkpt lat="45.79399" lon="2.95884">
        <ele>1165.4</ele>
        <time>2021-08-08T14:11:53Z</time>
      </trkpt>
      <trkpt lat="45.79399" lon="2.95881">
        <ele>1166.6</ele>
        <time>2021-08-08T14:11:55Z</time>
      </trkpt>
      <trkpt lat="45.794" lon="2.95877">
        <ele>1168.2</ele>
        <time>2021-08-08T14:11:57Z</time>
      </trkpt>
      <trkpt lat="45.79403" lon="2.95873">
        <ele>1170.9</ele>
        <time>2021-08-08T14:12:01Z</time>
      </trkpt>
      <trkpt lat="45.79403" lon="2.95873">
        <ele>1171.5</ele>
        <time>2021-08-08T14:12:02Z</time>
      </trkpt>
      <trkpt lat="45.79405" lon="2.95874">
        <ele>1174.1</ele>
        <time>2021-08-08T14:12:09Z</time>
      </trkpt>
      <trkpt lat="45.79408" lon="2.9588">
        <ele>1174.8</ele>
        <time>2021-08-08T14:12:16Z</time>
      </trkpt>
      <trkpt lat="45.7941" lon="2.95882">
        <ele>1175.5</ele>
        <time>2021-08-08T14:12:19Z</time>
      </trkpt>
      <trkpt lat="45.79411" lon="2.95878">
        <ele>1176.5</ele>
        <time>2021-08-08T14:12:26Z</time>
      </trkpt>
      <trkpt lat="45.79416" lon="2.95876">
        <ele>1177.9</ele>
        <time>2021-08-08T14:12:35Z</time>
      </trkpt>
      <trkpt lat="45.79417" lon="2.95876">
        <ele>1178</ele>
        <time>2021-08-08T14:12:36Z</time>
      </trkpt>
      <trkpt lat="45.79421" lon="2.95877">
        <ele>1178.7</ele>
        <time>2021-08-08T14:12:39Z</time>
      </trkpt>
      <trkpt lat="45.79423" lon="2.95879">
        <ele>1179.3</ele>
        <time>2021-08-08T14:12:43Z</time>
      </trkpt>
      <trkpt lat="45.79425" lon="2.95882">
        <ele>1179.2</ele>
        <time>2021-08-08T14:12:52Z</time>
      </trkpt>
      <trkpt lat="45.79424" lon="2.95884">
        <ele>1179</ele>
        <time>2021-08-08T14:12:54Z</time>
      </trkpt>
      <trkpt lat="45.7942" lon="2.95887">
        <ele>1179.1</ele>
        <time>2021-08-08T14:13:00Z</time>
      </trkpt>
      <trkpt lat="45.79417" lon="2.95888">
        <ele>1179.7</ele>
        <time>2021-08-08T14:13:04Z</time>
      </trkpt>
      <trkpt lat="45.79416" lon="2.95888">
        <ele>1179.6</ele>
        <time>2021-08-08T14:13:05Z</time>
      </trkpt>
      <trkpt lat="45.79413" lon="2.95895">
        <ele>1179.4</ele>
        <time>2021-08-08T14:13:12Z</time>
      </trkpt>
      <trkpt lat="45.79414" lon="2.95901">
        <ele>1180.9</ele>
        <time>2021-08-08T14:13:22Z</time>
      </trkpt>
      <trkpt lat="45.79419" lon="2.95909">
        <ele>1182</ele>
        <time>2021-08-08T14:13:29Z</time>
      </trkpt>
      <trkpt lat="45.79419" lon="2.9591">
        <ele>1182.1</ele>
        <time>2021-08-08T14:13:30Z</time>
      </trkpt>
      <trkpt lat="45.79426" lon="2.95925">
        <ele>1185</ele>
        <time>2021-08-08T14:13:46Z</time>
      </trkpt>
      <trkpt lat="45.79429" lon="2.95927">
        <ele>1186.1</ele>
        <time>2021-08-08T14:13:51Z</time>
      </trkpt>
      <trkpt lat="45.79429" lon="2.95927">
        <ele>1186.3</ele>
        <time>2021-08-08T14:13:52Z</time>
      </trkpt>
      <trkpt lat="45.79427" lon="2.95928">
        <ele>1187.6</ele>
        <time>2021-08-08T14:14:01Z</time>
      </trkpt>
      <trkpt lat="45.79425" lon="2.95928">
        <ele>1188.3</ele>
        <time>2021-08-08T14:14:04Z</time>
      </trkpt>
      <trkpt lat="45.79426" lon="2.95931">
        <ele>1192.4</ele>
        <time>2021-08-08T14:14:34Z</time>
      </trkpt>
      <trkpt lat="45.79423" lon="2.95944">
        <ele>1193.5</ele>
        <time>2021-08-08T14:14:44Z</time>
      </trkpt>
      <trkpt lat="45.79422" lon="2.95946">
        <ele>1193.6</ele>
        <time>2021-08-08T14:14:45Z</time>
      </trkpt>
      <trkpt lat="45.79417" lon="2.95964">
        <ele>1194.7</ele>
        <time>2021-08-08T14:14:54Z</time>
      </trkpt>
      <trkpt lat="45.79416" lon="2.95966">
        <ele>1194.9</ele>
        <time>2021-08-08T14:14:55Z</time>
      </trkpt>
      <trkpt lat="45.79408" lon="2.95986">
        <ele>1194.7</ele>
        <time>2021-08-08T14:15:07Z</time>
      </trkpt>
      <trkpt lat="45.79407" lon="2.95986">
        <ele>1194.9</ele>
        <time>2021-08-08T14:15:08Z</time>
      </trkpt>
      <trkpt lat="45.79406" lon="2.95987">
        <ele>1195</ele>
        <time>2021-08-08T14:15:09Z</time>
      </trkpt>
      <trkpt lat="45.79404" lon="2.95987">
        <ele>1194.1</ele>
        <time>2021-08-08T14:15:12Z</time>
      </trkpt>
      <trkpt lat="45.79398" lon="2.95979">
        <ele>1189.5</ele>
        <time>2021-08-08T14:15:33Z</time>
      </trkpt>
      <trkpt lat="45.79397" lon="2.95972">
        <ele>1189</ele>
        <time>2021-08-08T14:15:41Z</time>
      </trkpt>
      <trkpt lat="45.79398" lon="2.95968">
        <ele>1187.7</ele>
        <time>2021-08-08T14:15:46Z</time>
      </trkpt>
      <trkpt lat="45.79398" lon="2.95967">
        <ele>1187.6</ele>
        <time>2021-08-08T14:15:47Z</time>
      </trkpt>
      <trkpt lat="45.79394" lon="2.95958">
        <ele>1186.5</ele>
        <time>2021-08-08T14:15:55Z</time>
      </trkpt>
      <trkpt lat="45.79394" lon="2.95945">
        <ele>1184.6</ele>
        <time>2021-08-08T14:16:05Z</time>
      </trkpt>
      <trkpt lat="45.79394" lon="2.95943">
        <ele>1184.4</ele>
        <time>2021-08-08T14:16:06Z</time>
      </trkpt>
      <trkpt lat="45.79394" lon="2.95939">
        <ele>1183.8</ele>
        <time>2021-08-08T14:16:09Z</time>
      </trkpt>
      <trkpt lat="45.7939" lon="2.9592">
        <ele>1181.7</ele>
        <time>2021-08-08T14:16:19Z</time>
      </trkpt>
      <trkpt lat="45.7939" lon="2.95918">
        <ele>1181.5</ele>
        <time>2021-08-08T14:16:20Z</time>
      </trkpt>
      <trkpt lat="45.79391" lon="2.95911">
        <ele>1180.9</ele>
        <time>2021-08-08T14:16:23Z</time>
      </trkpt>
      <trkpt lat="45.79395" lon="2.95904">
        <ele>1179.9</ele>
        <time>2021-08-08T14:16:27Z</time>
      </trkpt>
      <trkpt lat="45.79395" lon="2.959">
        <ele>1179.5</ele>
        <time>2021-08-08T14:16:29Z</time>
      </trkpt>
      <trkpt lat="45.79395" lon="2.95898">
        <ele>1179.1</ele>
        <time>2021-08-08T14:16:30Z</time>
      </trkpt>
      <trkpt lat="45.79396" lon="2.95893">
        <ele>1178.3</ele>
        <time>2021-08-08T14:16:33Z</time>
      </trkpt>
      <trkpt lat="45.79401" lon="2.95893">
        <ele>1177.4</ele>
        <time>2021-08-08T14:16:38Z</time>
      </trkpt>
      <trkpt lat="45.79405" lon="2.95896">
        <ele>1176.7</ele>
        <time>2021-08-08T14:16:42Z</time>
      </trkpt>
      <trkpt lat="45.79405" lon="2.95893">
        <ele>1176</ele>
        <time>2021-08-08T14:16:46Z</time>
      </trkpt>
      <trkpt lat="45.79408" lon="2.95894">
        <ele>1175.6</ele>
        <time>2021-08-08T14:16:49Z</time>
      </trkpt>
      <trkpt lat="45.79408" lon="2.95894">
        <ele>1175.4</ele>
        <time>2021-08-08T14:16:50Z</time>
      </trkpt>
      <trkpt lat="45.79404" lon="2.95892">
        <ele>1175.4</ele>
        <time>2021-08-08T14:16:53Z</time>
      </trkpt>
      <trkpt lat="45.79401" lon="2.95883">
        <ele>1174.5</ele>
        <time>2021-08-08T14:17:03Z</time>
      </trkpt>
      <trkpt lat="45.79399" lon="2.95882">
        <ele>1174.3</ele>
        <time>2021-08-08T14:17:08Z</time>
      </trkpt>
      <trkpt lat="45.79395" lon="2.95883">
        <ele>1173.2</ele>
        <time>2021-08-08T14:17:14Z</time>
      </trkpt>
      <trkpt lat="45.79395" lon="2.95884">
        <ele>1173.1</ele>
        <time>2021-08-08T14:17:15Z</time>
      </trkpt>
      <trkpt lat="45.7939" lon="2.95881">
        <ele>1172.4</ele>
        <time>2021-08-08T14:17:26Z</time>
      </trkpt>
      <trkpt lat="45.79387" lon="2.95876">
        <ele>1171.3</ele>
        <time>2021-08-08T14:17:42Z</time>
      </trkpt>
      <trkpt lat="45.79385" lon="2.95867">
        <ele>1170.4</ele>
        <time>2021-08-08T14:17:47Z</time>
      </trkpt>
      <trkpt lat="45.79385" lon="2.95866">
        <ele>1170.3</ele>
        <time>2021-08-08T14:17:48Z</time>
      </trkpt>
      <trkpt lat="45.79384" lon="2.9586">
        <ele>1169.4</ele>
        <time>2021-08-08T14:17:54Z</time>
      </trkpt>
      <trkpt lat="45.79387" lon="2.95859">
        <ele>1168.9</ele>
        <time>2021-08-08T14:17:56Z</time>
      </trkpt>
      <trkpt lat="45.79387" lon="2.95848">
        <ele>1168.1</ele>
        <time>2021-08-08T14:18:05Z</time>
      </trkpt>
      <trkpt lat="45.79389" lon="2.95845">
        <ele>1167.5</ele>
        <time>2021-08-08T14:18:09Z</time>
      </trkpt>
      <trkpt lat="45.7939" lon="2.95845">
        <ele>1167.3</ele>
        <time>2021-08-08T14:18:10Z</time>
      </trkpt>
      <trkpt lat="45.79397" lon="2.95827">
        <ele>1166.4</ele>
        <time>2021-08-08T14:18:22Z</time>
      </trkpt>
      <trkpt lat="45.79398" lon="2.95826">
        <ele>1166.2</ele>
        <time>2021-08-08T14:18:23Z</time>
      </trkpt>
      <trkpt lat="45.79397" lon="2.9583">
        <ele>1165.1</ele>
        <time>2021-08-08T14:18:50Z</time>
      </trkpt>
      <trkpt lat="45.79386" lon="2.95831">
        <ele>1162.9</ele>
        <time>2021-08-08T14:18:57Z</time>
      </trkpt>
      <trkpt lat="45.79384" lon="2.95834">
        <ele>1162.8</ele>
        <time>2021-08-08T14:18:58Z</time>
      </trkpt>
      <trkpt lat="45.79379" lon="2.95838">
        <ele>1162.6</ele>
        <time>2021-08-08T14:19:01Z</time>
      </trkpt>
      <trkpt lat="45.79377" lon="2.95839">
        <ele>1162.3</ele>
        <time>2021-08-08T14:19:02Z</time>
      </trkpt>
      <trkpt lat="45.79376" lon="2.9584">
        <ele>1161.8</ele>
        <time>2021-08-08T14:19:03Z</time>
      </trkpt>
      <trkpt lat="45.79373" lon="2.95846">
        <ele>1159.6</ele>
        <time>2021-08-08T14:19:11Z</time>
      </trkpt>
      <trkpt lat="45.79364" lon="2.95857">
        <ele>1157.8</ele>
        <time>2021-08-08T14:19:22Z</time>
      </trkpt>
      <trkpt lat="45.79363" lon="2.95858">
        <ele>1157.7</ele>
        <time>2021-08-08T14:19:23Z</time>
      </trkpt>
      <trkpt lat="45.79358" lon="2.95862">
        <ele>1157.4</ele>
        <time>2021-08-08T14:19:27Z</time>
      </trkpt>
      <trkpt lat="45.79351" lon="2.95877">
        <ele>1156.6</ele>
        <time>2021-08-08T14:19:38Z</time>
      </trkpt>
      <trkpt lat="45.7935" lon="2.95878">
        <ele>1156.5</ele>
        <time>2021-08-08T14:19:39Z</time>
      </trkpt>
      <trkpt lat="45.7934" lon="2.95898">
        <ele>1155.5</ele>
        <time>2021-08-08T14:19:53Z</time>
      </trkpt>
      <trkpt lat="45.79339" lon="2.959">
        <ele>1155.4</ele>
        <time>2021-08-08T14:19:54Z</time>
      </trkpt>
      <trkpt lat="45.79329" lon="2.95904">
        <ele>1154.4</ele>
        <time>2021-08-08T14:20:04Z</time>
      </trkpt>
      <trkpt lat="45.79327" lon="2.9591">
        <ele>1154</ele>
        <time>2021-08-08T14:20:10Z</time>
      </trkpt>
      <trkpt lat="45.79326" lon="2.95911">
        <ele>1153.9</ele>
        <time>2021-08-08T14:20:11Z</time>
      </trkpt>
      <trkpt lat="45.7932" lon="2.95918">
        <ele>1153.1</ele>
        <time>2021-08-08T14:20:17Z</time>
      </trkpt>
      <trkpt lat="45.7931" lon="2.95921">
        <ele>1151</ele>
        <time>2021-08-08T14:20:25Z</time>
      </trkpt>
      <trkpt lat="45.79309" lon="2.95923">
        <ele>1150.9</ele>
        <time>2021-08-08T14:20:26Z</time>
      </trkpt>
      <trkpt lat="45.79306" lon="2.95925">
        <ele>1150.9</ele>
        <time>2021-08-08T14:20:30Z</time>
      </trkpt>
      <trkpt lat="45.79305" lon="2.95932">
        <ele>1149.4</ele>
        <time>2021-08-08T14:20:42Z</time>
      </trkpt>
      <trkpt lat="45.79307" lon="2.95934">
        <ele>1148.3</ele>
        <time>2021-08-08T14:20:43Z</time>
      </trkpt>
      <trkpt lat="45.79302" lon="2.95943">
        <ele>1144</ele>
        <time>2021-08-08T14:20:53Z</time>
      </trkpt>
      <trkpt lat="45.79302" lon="2.95945">
        <ele>1143.4</ele>
        <time>2021-08-08T14:20:54Z</time>
      </trkpt>
      <trkpt lat="45.79294" lon="2.95951">
        <ele>1140</ele>
        <time>2021-08-08T14:21:01Z</time>
      </trkpt>
      <trkpt lat="45.79287" lon="2.95954">
        <ele>1135.7</ele>
        <time>2021-08-08T14:21:08Z</time>
      </trkpt>
      <trkpt lat="45.79286" lon="2.95952">
        <ele>1134.9</ele>
        <time>2021-08-08T14:21:09Z</time>
      </trkpt>
      <trkpt lat="45.79279" lon="2.95954">
        <ele>1133.5</ele>
        <time>2021-08-08T14:21:18Z</time>
      </trkpt>
      <trkpt lat="45.79272" lon="2.95962">
        <ele>1131.2</ele>
        <time>2021-08-08T14:21:25Z</time>
      </trkpt>
      <trkpt lat="45.79271" lon="2.95963">
        <ele>1130.9</ele>
        <time>2021-08-08T14:21:26Z</time>
      </trkpt>
      <trkpt lat="45.79262" lon="2.9597">
        <ele>1128.2</ele>
        <time>2021-08-08T14:21:36Z</time>
      </trkpt>
      <trkpt lat="45.79259" lon="2.95971">
        <ele>1127.5</ele>
        <time>2021-08-08T14:21:38Z</time>
      </trkpt>
      <trkpt lat="45.79256" lon="2.95975">
        <ele>1127.1</ele>
        <time>2021-08-08T14:21:40Z</time>
      </trkpt>
      <trkpt lat="45.79254" lon="2.95976">
        <ele>1126.9</ele>
        <time>2021-08-08T14:21:41Z</time>
      </trkpt>
      <trkpt lat="45.79246" lon="2.95979">
        <ele>1125.3</ele>
        <time>2021-08-08T14:21:46Z</time>
      </trkpt>
      <trkpt lat="45.79244" lon="2.95979">
        <ele>1124.9</ele>
        <time>2021-08-08T14:21:47Z</time>
      </trkpt>
      <trkpt lat="45.79243" lon="2.95979">
        <ele>1124.7</ele>
        <time>2021-08-08T14:21:48Z</time>
      </trkpt>
      <trkpt lat="45.7924" lon="2.95977">
        <ele>1123.8</ele>
        <time>2021-08-08T14:21:51Z</time>
      </trkpt>
      <trkpt lat="45.79239" lon="2.95976">
        <ele>1123.1</ele>
        <time>2021-08-08T14:21:52Z</time>
      </trkpt>
      <trkpt lat="45.79236" lon="2.95973">
        <ele>1121.5</ele>
        <time>2021-08-08T14:21:55Z</time>
      </trkpt>
      <trkpt lat="45.79235" lon="2.95968">
        <ele>1119.2</ele>
        <time>2021-08-08T14:22:02Z</time>
      </trkpt>
      <trkpt lat="45.79235" lon="2.95953">
        <ele>1115.8</ele>
        <time>2021-08-08T14:22:12Z</time>
      </trkpt>
      <trkpt lat="45.79235" lon="2.95952">
        <ele>1115.7</ele>
        <time>2021-08-08T14:22:13Z</time>
      </trkpt>
      <trkpt lat="45.79236" lon="2.95949">
        <ele>1115</ele>
        <time>2021-08-08T14:22:15Z</time>
      </trkpt>
      <trkpt lat="45.79236" lon="2.95939">
        <ele>1113.3</ele>
        <time>2021-08-08T14:22:22Z</time>
      </trkpt>
      <trkpt lat="45.7924" lon="2.95933">
        <ele>1112</ele>
        <time>2021-08-08T14:22:27Z</time>
      </trkpt>
      <trkpt lat="45.79241" lon="2.95932">
        <ele>1111.8</ele>
        <time>2021-08-08T14:22:28Z</time>
      </trkpt>
      <trkpt lat="45.7925" lon="2.95914">
        <ele>1110</ele>
        <time>2021-08-08T14:22:38Z</time>
      </trkpt>
      <trkpt lat="45.79251" lon="2.95914">
        <ele>1109.5</ele>
        <time>2021-08-08T14:22:39Z</time>
      </trkpt>
      <trkpt lat="45.79256" lon="2.95907">
        <ele>1108.4</ele>
        <time>2021-08-08T14:22:42Z</time>
      </trkpt>
      <trkpt lat="45.79261" lon="2.95892">
        <ele>1105.4</ele>
        <time>2021-08-08T14:22:50Z</time>
      </trkpt>
      <trkpt lat="45.79261" lon="2.9589">
        <ele>1105.1</ele>
        <time>2021-08-08T14:22:51Z</time>
      </trkpt>
      <trkpt lat="45.79263" lon="2.95885">
        <ele>1104.4</ele>
        <time>2021-08-08T14:22:54Z</time>
      </trkpt>
      <trkpt lat="45.79265" lon="2.95868">
        <ele>1102.6</ele>
        <time>2021-08-08T14:23:01Z</time>
      </trkpt>
      <trkpt lat="45.79266" lon="2.95865">
        <ele>1102.5</ele>
        <time>2021-08-08T14:23:02Z</time>
      </trkpt>
      <trkpt lat="45.79269" lon="2.95855">
        <ele>1101.9</ele>
        <time>2021-08-08T14:23:06Z</time>
      </trkpt>
      <trkpt lat="45.79272" lon="2.95843">
        <ele>1101.5</ele>
        <time>2021-08-08T14:23:12Z</time>
      </trkpt>
      <trkpt lat="45.79272" lon="2.95842">
        <ele>1101.6</ele>
        <time>2021-08-08T14:23:13Z</time>
      </trkpt>
      <trkpt lat="45.79273" lon="2.95835">
        <ele>1102.2</ele>
        <time>2021-08-08T14:23:18Z</time>
      </trkpt>
      <trkpt lat="45.79279" lon="2.95821">
        <ele>1105.7</ele>
        <time>2021-08-08T14:23:29Z</time>
      </trkpt>
      <trkpt lat="45.79279" lon="2.95819">
        <ele>1106</ele>
        <time>2021-08-08T14:23:30Z</time>
      </trkpt>
      <trkpt lat="45.79284" lon="2.95812">
        <ele>1106.3</ele>
        <time>2021-08-08T14:23:36Z</time>
      </trkpt>
      <trkpt lat="45.79287" lon="2.95808">
        <ele>1106.1</ele>
        <time>2021-08-08T14:23:40Z</time>
      </trkpt>
      <trkpt lat="45.7929" lon="2.95801">
        <ele>1106</ele>
        <time>2021-08-08T14:23:44Z</time>
      </trkpt>
      <trkpt lat="45.79291" lon="2.958">
        <ele>1106</ele>
        <time>2021-08-08T14:23:45Z</time>
      </trkpt>
      <trkpt lat="45.79292" lon="2.95795">
        <ele>1106.2</ele>
        <time>2021-08-08T14:23:48Z</time>
      </trkpt>
      <trkpt lat="45.79301" lon="2.95781">
        <ele>1106</ele>
        <time>2021-08-08T14:23:59Z</time>
      </trkpt>
      <trkpt lat="45.79303" lon="2.95779">
        <ele>1105.9</ele>
        <time>2021-08-08T14:24:00Z</time>
      </trkpt>
      <trkpt lat="45.79304" lon="2.95774">
        <ele>1105.6</ele>
        <time>2021-08-08T14:24:03Z</time>
      </trkpt>
      <trkpt lat="45.7931" lon="2.95765">
        <ele>1105.4</ele>
        <time>2021-08-08T14:24:07Z</time>
      </trkpt>
      <trkpt lat="45.7931" lon="2.9576">
        <ele>1105.2</ele>
        <time>2021-08-08T14:24:09Z</time>
      </trkpt>
      <trkpt lat="45.7931" lon="2.95759">
        <ele>1105.2</ele>
        <time>2021-08-08T14:24:10Z</time>
      </trkpt>
      <trkpt lat="45.79311" lon="2.95756">
        <ele>1105.2</ele>
        <time>2021-08-08T14:24:11Z</time>
      </trkpt>
      <trkpt lat="45.79309" lon="2.95745">
        <ele>1104.7</ele>
        <time>2021-08-08T14:24:16Z</time>
      </trkpt>
      <trkpt lat="45.79311" lon="2.95737">
        <ele>1104.3</ele>
        <time>2021-08-08T14:24:23Z</time>
      </trkpt>
      <trkpt lat="45.79311" lon="2.95736">
        <ele>1104.3</ele>
        <time>2021-08-08T14:24:24Z</time>
      </trkpt>
      <trkpt lat="45.79312" lon="2.95732">
        <ele>1104.1</ele>
        <time>2021-08-08T14:24:28Z</time>
      </trkpt>
      <trkpt lat="45.79316" lon="2.95725">
        <ele>1103.6</ele>
        <time>2021-08-08T14:24:36Z</time>
      </trkpt>
      <trkpt lat="45.79319" lon="2.95724">
        <ele>1103.5</ele>
        <time>2021-08-08T14:24:38Z</time>
      </trkpt>
      <trkpt lat="45.79323" lon="2.95723">
        <ele>1103.5</ele>
        <time>2021-08-08T14:24:40Z</time>
      </trkpt>
      <trkpt lat="45.79325" lon="2.95723">
        <ele>1103.5</ele>
        <time>2021-08-08T14:24:41Z</time>
      </trkpt>
      <trkpt lat="45.79329" lon="2.95721">
        <ele>1103.4</ele>
        <time>2021-08-08T14:24:44Z</time>
      </trkpt>
      <trkpt lat="45.79332" lon="2.95718">
        <ele>1103.4</ele>
        <time>2021-08-08T14:24:47Z</time>
      </trkpt>
      <trkpt lat="45.79339" lon="2.95718">
        <ele>1103.3</ele>
        <time>2021-08-08T14:24:51Z</time>
      </trkpt>
      <trkpt lat="45.79341" lon="2.95718">
        <ele>1103.3</ele>
        <time>2021-08-08T14:24:52Z</time>
      </trkpt>
      <trkpt lat="45.79341" lon="2.95716">
        <ele>1103.3</ele>
        <time>2021-08-08T14:24:53Z</time>
      </trkpt>
      <trkpt lat="45.79345" lon="2.95714">
        <ele>1103</ele>
        <time>2021-08-08T14:24:56Z</time>
      </trkpt>
      <trkpt lat="45.79345" lon="2.95712">
        <ele>1103</ele>
        <time>2021-08-08T14:24:57Z</time>
      </trkpt>
      <trkpt lat="45.79351" lon="2.95703">
        <ele>1102.8</ele>
        <time>2021-08-08T14:25:02Z</time>
      </trkpt>
      <trkpt lat="45.79353" lon="2.95702">
        <ele>1102.7</ele>
        <time>2021-08-08T14:25:03Z</time>
      </trkpt>
      <trkpt lat="45.79358" lon="2.95694">
        <ele>1102.6</ele>
        <time>2021-08-08T14:25:07Z</time>
      </trkpt>
      <trkpt lat="45.79366" lon="2.95687">
        <ele>1102.6</ele>
        <time>2021-08-08T14:25:14Z</time>
      </trkpt>
      <trkpt lat="45.79368" lon="2.95685">
        <ele>1102.6</ele>
        <time>2021-08-08T14:25:15Z</time>
      </trkpt>
      <trkpt lat="45.79372" lon="2.95681">
        <ele>1102.7</ele>
        <time>2021-08-08T14:25:18Z</time>
      </trkpt>
      <trkpt lat="45.79376" lon="2.9568">
        <ele>1102.8</ele>
        <time>2021-08-08T14:25:20Z</time>
      </trkpt>
      <trkpt lat="45.79384" lon="2.95679">
        <ele>1103.3</ele>
        <time>2021-08-08T14:25:24Z</time>
      </trkpt>
      <trkpt lat="45.79385" lon="2.95678">
        <ele>1103.5</ele>
        <time>2021-08-08T14:25:25Z</time>
      </trkpt>
      <trkpt lat="45.79387" lon="2.95674">
        <ele>1103.2</ele>
        <time>2021-08-08T14:25:29Z</time>
      </trkpt>
      <trkpt lat="45.79391" lon="2.95674">
        <ele>1102.6</ele>
        <time>2021-08-08T14:25:30Z</time>
      </trkpt>
      <trkpt lat="45.79393" lon="2.95671">
        <ele>1102.4</ele>
        <time>2021-08-08T14:25:32Z</time>
      </trkpt>
      <trkpt lat="45.79396" lon="2.95665">
        <ele>1102.1</ele>
        <time>2021-08-08T14:25:35Z</time>
      </trkpt>
      <trkpt lat="45.79398" lon="2.95663">
        <ele>1102</ele>
        <time>2021-08-08T14:25:36Z</time>
      </trkpt>
      <trkpt lat="45.79403" lon="2.95658">
        <ele>1101.7</ele>
        <time>2021-08-08T14:25:41Z</time>
      </trkpt>
      <trkpt lat="45.79408" lon="2.95658">
        <ele>1101.3</ele>
        <time>2021-08-08T14:25:46Z</time>
      </trkpt>
      <trkpt lat="45.79413" lon="2.95655">
        <ele>1101.1</ele>
        <time>2021-08-08T14:25:51Z</time>
      </trkpt>
      <trkpt lat="45.79413" lon="2.95653">
        <ele>1101</ele>
        <time>2021-08-08T14:25:52Z</time>
      </trkpt>
      <trkpt lat="45.79417" lon="2.95649">
        <ele>1100.7</ele>
        <time>2021-08-08T14:25:56Z</time>
      </trkpt>
      <trkpt lat="45.79428" lon="2.95644">
        <ele>1099.8</ele>
        <time>2021-08-08T14:26:03Z</time>
      </trkpt>
      <trkpt lat="45.79429" lon="2.95642">
        <ele>1099.6</ele>
        <time>2021-08-08T14:26:04Z</time>
      </trkpt>
      <trkpt lat="45.79435" lon="2.95636">
        <ele>1098.5</ele>
        <time>2021-08-08T14:26:10Z</time>
      </trkpt>
      <trkpt lat="45.79438" lon="2.95636">
        <ele>1098.5</ele>
        <time>2021-08-08T14:26:11Z</time>
      </trkpt>
      <trkpt lat="45.79441" lon="2.95628">
        <ele>1097.6</ele>
        <time>2021-08-08T14:26:15Z</time>
      </trkpt>
      <trkpt lat="45.79441" lon="2.95628">
        <ele>1097.6</ele>
        <time>2021-08-08T14:26:16Z</time>
      </trkpt>
      <trkpt lat="45.79446" lon="2.95619">
        <ele>1095.5</ele>
        <time>2021-08-08T14:26:23Z</time>
      </trkpt>
      <trkpt lat="45.79452" lon="2.9561">
        <ele>1094.1</ele>
        <time>2021-08-08T14:26:31Z</time>
      </trkpt>
      <trkpt lat="45.79453" lon="2.95609">
        <ele>1094</ele>
        <time>2021-08-08T14:26:32Z</time>
      </trkpt>
      <trkpt lat="45.79455" lon="2.95605">
        <ele>1093.6</ele>
        <time>2021-08-08T14:26:35Z</time>
      </trkpt>
      <trkpt lat="45.79458" lon="2.95605">
        <ele>1093.6</ele>
        <time>2021-08-08T14:26:36Z</time>
      </trkpt>
      <trkpt lat="45.79461" lon="2.95606">
        <ele>1093.5</ele>
        <time>2021-08-08T14:26:38Z</time>
      </trkpt>
      <trkpt lat="45.79468" lon="2.95606">
        <ele>1093.7</ele>
        <time>2021-08-08T14:26:42Z</time>
      </trkpt>
      <trkpt lat="45.79469" lon="2.95607">
        <ele>1093.6</ele>
        <time>2021-08-08T14:26:43Z</time>
      </trkpt>
      <trkpt lat="45.79473" lon="2.95607">
        <ele>1092.6</ele>
        <time>2021-08-08T14:26:46Z</time>
      </trkpt>
      <trkpt lat="45.79475" lon="2.95602">
        <ele>1092.3</ele>
        <time>2021-08-08T14:26:49Z</time>
      </trkpt>
      <trkpt lat="45.79482" lon="2.956">
        <ele>1090.6</ele>
        <time>2021-08-08T14:26:56Z</time>
      </trkpt>
      <trkpt lat="45.79485" lon="2.95602">
        <ele>1089.5</ele>
        <time>2021-08-08T14:27:01Z</time>
      </trkpt>
      <trkpt lat="45.79485" lon="2.95602">
        <ele>1089.4</ele>
        <time>2021-08-08T14:27:02Z</time>
      </trkpt>
      <trkpt lat="45.79487" lon="2.95602">
        <ele>1089</ele>
        <time>2021-08-08T14:27:08Z</time>
      </trkpt>
      <trkpt lat="45.79491" lon="2.95599">
        <ele>1089.1</ele>
        <time>2021-08-08T14:27:19Z</time>
      </trkpt>
      <trkpt lat="45.79494" lon="2.95591">
        <ele>1089</ele>
        <time>2021-08-08T14:27:23Z</time>
      </trkpt>
      <trkpt lat="45.79494" lon="2.95587">
        <ele>1088.8</ele>
        <time>2021-08-08T14:27:25Z</time>
      </trkpt>
      <trkpt lat="45.79494" lon="2.95586">
        <ele>1088.7</ele>
        <time>2021-08-08T14:27:26Z</time>
      </trkpt>
      <trkpt lat="45.79496" lon="2.95583">
        <ele>1087.7</ele>
        <time>2021-08-08T14:27:30Z</time>
      </trkpt>
      <trkpt lat="45.79496" lon="2.95579">
        <ele>1086.6</ele>
        <time>2021-08-08T14:27:33Z</time>
      </trkpt>
      <trkpt lat="45.79499" lon="2.95578">
        <ele>1085.8</ele>
        <time>2021-08-08T14:27:37Z</time>
      </trkpt>
      <trkpt lat="45.79501" lon="2.95571">
        <ele>1084</ele>
        <time>2021-08-08T14:27:42Z</time>
      </trkpt>
      <trkpt lat="45.79503" lon="2.95568">
        <ele>1082.2</ele>
        <time>2021-08-08T14:27:46Z</time>
      </trkpt>
      <trkpt lat="45.79504" lon="2.95566">
        <ele>1081.8</ele>
        <time>2021-08-08T14:27:47Z</time>
      </trkpt>
      <trkpt lat="45.79509" lon="2.95562">
        <ele>1079.6</ele>
        <time>2021-08-08T14:27:53Z</time>
      </trkpt>
      <trkpt lat="45.79518" lon="2.9556">
        <ele>1079.1</ele>
        <time>2021-08-08T14:28:00Z</time>
      </trkpt>
      <trkpt lat="45.79519" lon="2.95559">
        <ele>1079</ele>
        <time>2021-08-08T14:28:01Z</time>
      </trkpt>
      <trkpt lat="45.7952" lon="2.95557">
        <ele>1078.9</ele>
        <time>2021-08-08T14:28:02Z</time>
      </trkpt>
      <trkpt lat="45.79522" lon="2.95554">
        <ele>1078.5</ele>
        <time>2021-08-08T14:28:06Z</time>
      </trkpt>
      <trkpt lat="45.79525" lon="2.95541">
        <ele>1077</ele>
        <time>2021-08-08T14:28:15Z</time>
      </trkpt>
      <trkpt lat="45.79525" lon="2.95537">
        <ele>1077</ele>
        <time>2021-08-08T14:28:21Z</time>
      </trkpt>
      <trkpt lat="45.79525" lon="2.95536">
        <ele>1077.1</ele>
        <time>2021-08-08T14:28:22Z</time>
      </trkpt>
      <trkpt lat="45.79525" lon="2.95533">
        <ele>1076.7</ele>
        <time>2021-08-08T14:28:26Z</time>
      </trkpt>
      <trkpt lat="45.79529" lon="2.95529">
        <ele>1075.7</ele>
        <time>2021-08-08T14:28:30Z</time>
      </trkpt>
      <trkpt lat="45.79538" lon="2.95527">
        <ele>1072.5</ele>
        <time>2021-08-08T14:28:39Z</time>
      </trkpt>
      <trkpt lat="45.79538" lon="2.95525">
        <ele>1072.2</ele>
        <time>2021-08-08T14:28:40Z</time>
      </trkpt>
      <trkpt lat="45.7954" lon="2.95521">
        <ele>1071.7</ele>
        <time>2021-08-08T14:28:43Z</time>
      </trkpt>
      <trkpt lat="45.79551" lon="2.9551">
        <ele>1069.9</ele>
        <time>2021-08-08T14:28:56Z</time>
      </trkpt>
      <trkpt lat="45.79551" lon="2.95509">
        <ele>1069.7</ele>
        <time>2021-08-08T14:28:57Z</time>
      </trkpt>
      <trkpt lat="45.79554" lon="2.95505">
        <ele>1069.1</ele>
        <time>2021-08-08T14:29:00Z</time>
      </trkpt>
      <trkpt lat="45.79559" lon="2.95506">
        <ele>1067.1</ele>
        <time>2021-08-08T14:29:03Z</time>
      </trkpt>
      <trkpt lat="45.79565" lon="2.95502">
        <ele>1065.7</ele>
        <time>2021-08-08T14:29:09Z</time>
      </trkpt>
      <trkpt lat="45.79566" lon="2.95501">
        <ele>1065.4</ele>
        <time>2021-08-08T14:29:10Z</time>
      </trkpt>
      <trkpt lat="45.79569" lon="2.95498">
        <ele>1064.7</ele>
        <time>2021-08-08T14:29:13Z</time>
      </trkpt>
      <trkpt lat="45.79577" lon="2.95492">
        <ele>1063.4</ele>
        <time>2021-08-08T14:29:20Z</time>
      </trkpt>
      <trkpt lat="45.79579" lon="2.95489">
        <ele>1062.7</ele>
        <time>2021-08-08T14:29:23Z</time>
      </trkpt>
      <trkpt lat="45.7958" lon="2.95488">
        <ele>1062.3</ele>
        <time>2021-08-08T14:29:24Z</time>
      </trkpt>
      <trkpt lat="45.79586" lon="2.95481">
        <ele>1060.5</ele>
        <time>2021-08-08T14:29:31Z</time>
      </trkpt>
      <trkpt lat="45.79595" lon="2.95477">
        <ele>1057.3</ele>
        <time>2021-08-08T14:29:41Z</time>
      </trkpt>
      <trkpt lat="45.79595" lon="2.95479">
        <ele>1057</ele>
        <time>2021-08-08T14:29:42Z</time>
      </trkpt>
      <trkpt lat="45.79596" lon="2.95479">
        <ele>1056.7</ele>
        <time>2021-08-08T14:29:43Z</time>
      </trkpt>
      <trkpt lat="45.79601" lon="2.95475">
        <ele>1054.5</ele>
        <time>2021-08-08T14:29:53Z</time>
      </trkpt>
      <trkpt lat="45.79608" lon="2.95474">
        <ele>1053</ele>
        <time>2021-08-08T14:30:02Z</time>
      </trkpt>
      <trkpt lat="45.79611" lon="2.95469">
        <ele>1051.4</ele>
        <time>2021-08-08T14:30:09Z</time>
      </trkpt>
      <trkpt lat="45.79612" lon="2.95469">
        <ele>1051.3</ele>
        <time>2021-08-08T14:30:10Z</time>
      </trkpt>
      <trkpt lat="45.79615" lon="2.95464">
        <ele>1050.1</ele>
        <time>2021-08-08T14:30:21Z</time>
      </trkpt>
      <trkpt lat="45.79617" lon="2.95463">
        <ele>1049.8</ele>
        <time>2021-08-08T14:30:24Z</time>
      </trkpt>
      <trkpt lat="45.79622" lon="2.95465">
        <ele>1049.4</ele>
        <time>2021-08-08T14:30:29Z</time>
      </trkpt>
      <trkpt lat="45.79623" lon="2.95462">
        <ele>1048.7</ele>
        <time>2021-08-08T14:30:36Z</time>
      </trkpt>
      <trkpt lat="45.79624" lon="2.95458">
        <ele>1047.8</ele>
        <time>2021-08-08T14:30:41Z</time>
      </trkpt>
      <trkpt lat="45.79624" lon="2.95457">
        <ele>1047.6</ele>
        <time>2021-08-08T14:30:42Z</time>
      </trkpt>
      <trkpt lat="45.79626" lon="2.95448">
        <ele>1046.7</ele>
        <time>2021-08-08T14:30:56Z</time>
      </trkpt>
      <trkpt lat="45.79631" lon="2.95438">
        <ele>1046.1</ele>
        <time>2021-08-08T14:31:05Z</time>
      </trkpt>
      <trkpt lat="45.79631" lon="2.95434">
        <ele>1045.9</ele>
        <time>2021-08-08T14:31:07Z</time>
      </trkpt>
      <trkpt lat="45.79632" lon="2.95434">
        <ele>1045.6</ele>
        <time>2021-08-08T14:31:08Z</time>
      </trkpt>
      <trkpt lat="45.79635" lon="2.95428">
        <ele>1045</ele>
        <time>2021-08-08T14:31:14Z</time>
      </trkpt>
      <trkpt lat="45.79639" lon="2.95428">
        <ele>1044.7</ele>
        <time>2021-08-08T14:31:16Z</time>
      </trkpt>
      <trkpt lat="45.79643" lon="2.95421">
        <ele>1043.9</ele>
        <time>2021-08-08T14:31:21Z</time>
      </trkpt>
      <trkpt lat="45.79643" lon="2.95419">
        <ele>1043.9</ele>
        <time>2021-08-08T14:31:22Z</time>
      </trkpt>
      <trkpt lat="45.79644" lon="2.95416">
        <ele>1043.4</ele>
        <time>2021-08-08T14:31:25Z</time>
      </trkpt>
      <trkpt lat="45.79649" lon="2.95413">
        <ele>1041.9</ele>
        <time>2021-08-08T14:31:31Z</time>
      </trkpt>
      <trkpt lat="45.79648" lon="2.95407">
        <ele>1041</ele>
        <time>2021-08-08T14:31:35Z</time>
      </trkpt>
      <trkpt lat="45.79652" lon="2.95401">
        <ele>1040.7</ele>
        <time>2021-08-08T14:31:39Z</time>
      </trkpt>
      <trkpt lat="45.79653" lon="2.954">
        <ele>1040.6</ele>
        <time>2021-08-08T14:31:40Z</time>
      </trkpt>
      <trkpt lat="45.79656" lon="2.95395">
        <ele>1040.3</ele>
        <time>2021-08-08T14:31:43Z</time>
      </trkpt>
      <trkpt lat="45.79659" lon="2.95394">
        <ele>1039.7</ele>
        <time>2021-08-08T14:31:45Z</time>
      </trkpt>
      <trkpt lat="45.79661" lon="2.9539">
        <ele>1039.2</ele>
        <time>2021-08-08T14:31:47Z</time>
      </trkpt>
      <trkpt lat="45.79665" lon="2.9539">
        <ele>1038.6</ele>
        <time>2021-08-08T14:31:49Z</time>
      </trkpt>
      <trkpt lat="45.79665" lon="2.95389">
        <ele>1038.4</ele>
        <time>2021-08-08T14:31:50Z</time>
      </trkpt>
      <trkpt lat="45.79668" lon="2.95388">
        <ele>1038.2</ele>
        <time>2021-08-08T14:31:52Z</time>
      </trkpt>
      <trkpt lat="45.79678" lon="2.95371">
        <ele>1036.3</ele>
        <time>2021-08-08T14:32:04Z</time>
      </trkpt>
      <trkpt lat="45.79679" lon="2.95369">
        <ele>1036.2</ele>
        <time>2021-08-08T14:32:05Z</time>
      </trkpt>
      <trkpt lat="45.79681" lon="2.95367">
        <ele>1036.1</ele>
        <time>2021-08-08T14:32:07Z</time>
      </trkpt>
      <trkpt lat="45.79687" lon="2.9535">
        <ele>1034.8</ele>
        <time>2021-08-08T14:32:18Z</time>
      </trkpt>
      <trkpt lat="45.79687" lon="2.95348">
        <ele>1034.7</ele>
        <time>2021-08-08T14:32:19Z</time>
      </trkpt>
      <trkpt lat="45.79689" lon="2.95342">
        <ele>1034</ele>
        <time>2021-08-08T14:32:23Z</time>
      </trkpt>
      <trkpt lat="45.79689" lon="2.95338">
        <ele>1033.6</ele>
        <time>2021-08-08T14:32:25Z</time>
      </trkpt>
      <trkpt lat="45.79692" lon="2.95332">
        <ele>1032.9</ele>
        <time>2021-08-08T14:32:28Z</time>
      </trkpt>
      <trkpt lat="45.79692" lon="2.95328">
        <ele>1032.6</ele>
        <time>2021-08-08T14:32:30Z</time>
      </trkpt>
      <trkpt lat="45.79692" lon="2.95326">
        <ele>1032.5</ele>
        <time>2021-08-08T14:32:31Z</time>
      </trkpt>
      <trkpt lat="45.79691" lon="2.95318">
        <ele>1032</ele>
        <time>2021-08-08T14:32:35Z</time>
      </trkpt>
      <trkpt lat="45.79686" lon="2.95305">
        <ele>1031.3</ele>
        <time>2021-08-08T14:32:41Z</time>
      </trkpt>
      <trkpt lat="45.79685" lon="2.95303">
        <ele>1031.1</ele>
        <time>2021-08-08T14:32:42Z</time>
      </trkpt>
      <trkpt lat="45.79675" lon="2.95287">
        <ele>1029.7</ele>
        <time>2021-08-08T14:32:51Z</time>
      </trkpt>
      <trkpt lat="45.79673" lon="2.95285">
        <ele>1029.6</ele>
        <time>2021-08-08T14:32:52Z</time>
      </trkpt>
      <trkpt lat="45.79671" lon="2.95281">
        <ele>1029.4</ele>
        <time>2021-08-08T14:32:54Z</time>
      </trkpt>
      <trkpt lat="45.79669" lon="2.95265">
        <ele>1028.2</ele>
        <time>2021-08-08T14:33:02Z</time>
      </trkpt>
      <trkpt lat="45.79668" lon="2.95262">
        <ele>1027.8</ele>
        <time>2021-08-08T14:33:04Z</time>
      </trkpt>
      <trkpt lat="45.79667" lon="2.9526">
        <ele>1027.4</ele>
        <time>2021-08-08T14:33:05Z</time>
      </trkpt>
      <trkpt lat="45.79664" lon="2.95254">
        <ele>1026.2</ele>
        <time>2021-08-08T14:33:09Z</time>
      </trkpt>
      <trkpt lat="45.79664" lon="2.95251">
        <ele>1025.9</ele>
        <time>2021-08-08T14:33:10Z</time>
      </trkpt>
      <trkpt lat="45.79668" lon="2.9524">
        <ele>1024.2</ele>
        <time>2021-08-08T14:33:16Z</time>
      </trkpt>
      <trkpt lat="45.79668" lon="2.95239">
        <ele>1024.1</ele>
        <time>2021-08-08T14:33:17Z</time>
      </trkpt>
      <trkpt lat="45.7967" lon="2.95234">
        <ele>1023.6</ele>
        <time>2021-08-08T14:33:20Z</time>
      </trkpt>
      <trkpt lat="45.79677" lon="2.95224">
        <ele>1022.4</ele>
        <time>2021-08-08T14:33:26Z</time>
      </trkpt>
      <trkpt lat="45.79675" lon="2.9522">
        <ele>1022</ele>
        <time>2021-08-08T14:33:28Z</time>
      </trkpt>
      <trkpt lat="45.79674" lon="2.95217">
        <ele>1021.9</ele>
        <time>2021-08-08T14:33:29Z</time>
      </trkpt>
      <trkpt lat="45.79665" lon="2.95202">
        <ele>1019.6</ele>
        <time>2021-08-08T14:33:38Z</time>
      </trkpt>
      <trkpt lat="45.79664" lon="2.95198">
        <ele>1018.9</ele>
        <time>2021-08-08T14:33:40Z</time>
      </trkpt>
      <trkpt lat="45.79663" lon="2.95196">
        <ele>1018.5</ele>
        <time>2021-08-08T14:33:41Z</time>
      </trkpt>
      <trkpt lat="45.79653" lon="2.95179">
        <ele>1015.1</ele>
        <time>2021-08-08T14:33:51Z</time>
      </trkpt>
      <trkpt lat="45.79651" lon="2.95178">
        <ele>1014.6</ele>
        <time>2021-08-08T14:33:52Z</time>
      </trkpt>
      <trkpt lat="45.79642" lon="2.95159">
        <ele>1010.7</ele>
        <time>2021-08-08T14:34:01Z</time>
      </trkpt>
      <trkpt lat="45.79641" lon="2.95157">
        <ele>1010.5</ele>
        <time>2021-08-08T14:34:02Z</time>
      </trkpt>
      <trkpt lat="45.79637" lon="2.9515">
        <ele>1009.1</ele>
        <time>2021-08-08T14:34:06Z</time>
      </trkpt>
      <trkpt lat="45.79632" lon="2.95144">
        <ele>1007.8</ele>
        <time>2021-08-08T14:34:10Z</time>
      </trkpt>
      <trkpt lat="45.79631" lon="2.95142">
        <ele>1007.5</ele>
        <time>2021-08-08T14:34:11Z</time>
      </trkpt>
      <trkpt lat="45.7963" lon="2.9514">
        <ele>1007.3</ele>
        <time>2021-08-08T14:34:12Z</time>
      </trkpt>
      <trkpt lat="45.79626" lon="2.95133">
        <ele>1006.2</ele>
        <time>2021-08-08T14:34:16Z</time>
      </trkpt>
      <trkpt lat="45.79623" lon="2.95121">
        <ele>1005.6</ele>
        <time>2021-08-08T14:34:21Z</time>
      </trkpt>
      <trkpt lat="45.79622" lon="2.9512">
        <ele>1005.5</ele>
        <time>2021-08-08T14:34:22Z</time>
      </trkpt>
      <trkpt lat="45.79617" lon="2.95109">
        <ele>1003.9</ele>
        <time>2021-08-08T14:34:28Z</time>
      </trkpt>
      <trkpt lat="45.7961" lon="2.95098">
        <ele>1001</ele>
        <time>2021-08-08T14:34:34Z</time>
      </trkpt>
      <trkpt lat="45.79608" lon="2.95096">
        <ele>1000.7</ele>
        <time>2021-08-08T14:34:35Z</time>
      </trkpt>
      <trkpt lat="45.79607" lon="2.95091">
        <ele>1000.2</ele>
        <time>2021-08-08T14:34:37Z</time>
      </trkpt>
      <trkpt lat="45.796" lon="2.95083">
        <ele>998.1</ele>
        <time>2021-08-08T14:34:44Z</time>
      </trkpt>
      <trkpt lat="45.79595" lon="2.95081">
        <ele>997.2</ele>
        <time>2021-08-08T14:34:47Z</time>
      </trkpt>
      <trkpt lat="45.79594" lon="2.95079">
        <ele>996.9</ele>
        <time>2021-08-08T14:34:48Z</time>
      </trkpt>
      <trkpt lat="45.7958" lon="2.95062">
        <ele>995</ele>
        <time>2021-08-08T14:34:58Z</time>
      </trkpt>
      <trkpt lat="45.79578" lon="2.9506">
        <ele>994.8</ele>
        <time>2021-08-08T14:34:59Z</time>
      </trkpt>
      <trkpt lat="45.79563" lon="2.95046">
        <ele>993.8</ele>
        <time>2021-08-08T14:35:13Z</time>
      </trkpt>
      <trkpt lat="45.79562" lon="2.95045">
        <ele>993.6</ele>
        <time>2021-08-08T14:35:14Z</time>
      </trkpt>
      <trkpt lat="45.79558" lon="2.95043">
        <ele>993.3</ele>
        <time>2021-08-08T14:35:16Z</time>
      </trkpt>
      <trkpt lat="45.79554" lon="2.95039">
        <ele>993</ele>
        <time>2021-08-08T14:35:19Z</time>
      </trkpt>
      <trkpt lat="45.79552" lon="2.95038">
        <ele>992.9</ele>
        <time>2021-08-08T14:35:20Z</time>
      </trkpt>
      <trkpt lat="45.79549" lon="2.95035">
        <ele>993.3</ele>
        <time>2021-08-08T14:35:22Z</time>
      </trkpt>
      <trkpt lat="45.79548" lon="2.95032">
        <ele>993.4</ele>
        <time>2021-08-08T14:35:23Z</time>
      </trkpt>
      <trkpt lat="45.79547" lon="2.9503">
        <ele>993.4</ele>
        <time>2021-08-08T14:35:24Z</time>
      </trkpt>
      <trkpt lat="45.79536" lon="2.95013">
        <ele>993.7</ele>
        <time>2021-08-08T14:35:33Z</time>
      </trkpt>
      <trkpt lat="45.79535" lon="2.95011">
        <ele>993.9</ele>
        <time>2021-08-08T14:35:34Z</time>
      </trkpt>
      <trkpt lat="45.79532" lon="2.95003">
        <ele>994.1</ele>
        <time>2021-08-08T14:35:38Z</time>
      </trkpt>
      <trkpt lat="45.79527" lon="2.94998">
        <ele>993.9</ele>
        <time>2021-08-08T14:35:42Z</time>
      </trkpt>
      <trkpt lat="45.79525" lon="2.94995">
        <ele>993.6</ele>
        <time>2021-08-08T14:35:44Z</time>
      </trkpt>
      <trkpt lat="45.79524" lon="2.94994">
        <ele>993.5</ele>
        <time>2021-08-08T14:35:45Z</time>
      </trkpt>
      <trkpt lat="45.79521" lon="2.94987">
        <ele>993.5</ele>
        <time>2021-08-08T14:35:48Z</time>
      </trkpt>
      <trkpt lat="45.79516" lon="2.9498">
        <ele>993.3</ele>
        <time>2021-08-08T14:35:52Z</time>
      </trkpt>
      <trkpt lat="45.79514" lon="2.94975">
        <ele>993.1</ele>
        <time>2021-08-08T14:35:54Z</time>
      </trkpt>
      <trkpt lat="45.79514" lon="2.94973">
        <ele>993</ele>
        <time>2021-08-08T14:35:55Z</time>
      </trkpt>
      <trkpt lat="45.79509" lon="2.9496">
        <ele>993</ele>
        <time>2021-08-08T14:36:02Z</time>
      </trkpt>
      <trkpt lat="45.79507" lon="2.9495">
        <ele>993.7</ele>
        <time>2021-08-08T14:36:05Z</time>
      </trkpt>
      <trkpt lat="45.79505" lon="2.94948">
        <ele>993.3</ele>
        <time>2021-08-08T14:36:06Z</time>
      </trkpt>
      <trkpt lat="45.79495" lon="2.94932">
        <ele>994.1</ele>
        <time>2021-08-08T14:36:15Z</time>
      </trkpt>
      <trkpt lat="45.79495" lon="2.9493">
        <ele>993.9</ele>
        <time>2021-08-08T14:36:16Z</time>
      </trkpt>
      <trkpt lat="45.79491" lon="2.94922">
        <ele>993.2</ele>
        <time>2021-08-08T14:36:21Z</time>
      </trkpt>
      <trkpt lat="45.79485" lon="2.94914">
        <ele>991.2</ele>
        <time>2021-08-08T14:36:28Z</time>
      </trkpt>
      <trkpt lat="45.79484" lon="2.94914">
        <ele>991</ele>
        <time>2021-08-08T14:36:29Z</time>
      </trkpt>
      <trkpt lat="45.79475" lon="2.94906">
        <ele>990.9</ele>
        <time>2021-08-08T14:36:35Z</time>
      </trkpt>
      <trkpt lat="45.79469" lon="2.94904">
        <ele>990.4</ele>
        <time>2021-08-08T14:36:38Z</time>
      </trkpt>
      <trkpt lat="45.79468" lon="2.94903">
        <ele>990.6</ele>
        <time>2021-08-08T14:36:39Z</time>
      </trkpt>
      <trkpt lat="45.79467" lon="2.94901">
        <ele>990.8</ele>
        <time>2021-08-08T14:36:40Z</time>
      </trkpt>
      <trkpt lat="45.79464" lon="2.94899">
        <ele>990.4</ele>
        <time>2021-08-08T14:36:43Z</time>
      </trkpt>
      <trkpt lat="45.79463" lon="2.94895">
        <ele>989.9</ele>
        <time>2021-08-08T14:36:45Z</time>
      </trkpt>
      <trkpt lat="45.79458" lon="2.9489">
        <ele>988.1</ele>
        <time>2021-08-08T14:36:51Z</time>
      </trkpt>
      <trkpt lat="45.79457" lon="2.94888">
        <ele>987.6</ele>
        <time>2021-08-08T14:36:52Z</time>
      </trkpt>
      <trkpt lat="45.79456" lon="2.94886">
        <ele>987.1</ele>
        <time>2021-08-08T14:36:53Z</time>
      </trkpt>
      <trkpt lat="45.79456" lon="2.94883">
        <ele>986.4</ele>
        <time>2021-08-08T14:36:55Z</time>
      </trkpt>
      <trkpt lat="45.79447" lon="2.9487">
        <ele>985</ele>
        <time>2021-08-08T14:37:02Z</time>
      </trkpt>
      <trkpt lat="45.79445" lon="2.94869">
        <ele>984.8</ele>
        <time>2021-08-08T14:37:03Z</time>
      </trkpt>
      <trkpt lat="45.79437" lon="2.94863">
        <ele>985.9</ele>
        <time>2021-08-08T14:37:08Z</time>
      </trkpt>
      <trkpt lat="45.79432" lon="2.94857">
        <ele>986</ele>
        <time>2021-08-08T14:37:12Z</time>
      </trkpt>
      <trkpt lat="45.79431" lon="2.94856">
        <ele>986.1</ele>
        <time>2021-08-08T14:37:13Z</time>
      </trkpt>
      <trkpt lat="45.79429" lon="2.94854">
        <ele>985.9</ele>
        <time>2021-08-08T14:37:14Z</time>
      </trkpt>
      <trkpt lat="45.79427" lon="2.94849">
        <ele>986.8</ele>
        <time>2021-08-08T14:37:17Z</time>
      </trkpt>
      <trkpt lat="45.7942" lon="2.94841">
        <ele>988.2</ele>
        <time>2021-08-08T14:37:24Z</time>
      </trkpt>
      <trkpt lat="45.79419" lon="2.9484">
        <ele>988.4</ele>
        <time>2021-08-08T14:37:25Z</time>
      </trkpt>
      <trkpt lat="45.79417" lon="2.94838">
        <ele>988.6</ele>
        <time>2021-08-08T14:37:27Z</time>
      </trkpt>
      <trkpt lat="45.79412" lon="2.94836">
        <ele>989.3</ele>
        <time>2021-08-08T14:37:30Z</time>
      </trkpt>
      <trkpt lat="45.7941" lon="2.94832">
        <ele>989.6</ele>
        <time>2021-08-08T14:37:33Z</time>
      </trkpt>
      <trkpt lat="45.7941" lon="2.94829">
        <ele>990.1</ele>
        <time>2021-08-08T14:37:34Z</time>
      </trkpt>
      <trkpt lat="45.79409" lon="2.94827">
        <ele>990.4</ele>
        <time>2021-08-08T14:37:35Z</time>
      </trkpt>
      <trkpt lat="45.79408" lon="2.94826">
        <ele>990.3</ele>
        <time>2021-08-08T14:37:36Z</time>
      </trkpt>
      <trkpt lat="45.79405" lon="2.94824">
        <ele>990.1</ele>
        <time>2021-08-08T14:37:38Z</time>
      </trkpt>
      <trkpt lat="45.794" lon="2.9482">
        <ele>989.9</ele>
        <time>2021-08-08T14:37:42Z</time>
      </trkpt>
      <trkpt lat="45.79396" lon="2.94809">
        <ele>990.4</ele>
        <time>2021-08-08T14:37:47Z</time>
      </trkpt>
      <trkpt lat="45.79396" lon="2.94806">
        <ele>990.9</ele>
        <time>2021-08-08T14:37:48Z</time>
      </trkpt>
      <trkpt lat="45.79394" lon="2.948">
        <ele>992</ele>
        <time>2021-08-08T14:37:51Z</time>
      </trkpt>
      <trkpt lat="45.79391" lon="2.94798">
        <ele>992.9</ele>
        <time>2021-08-08T14:37:53Z</time>
      </trkpt>
      <trkpt lat="45.79388" lon="2.9479">
        <ele>994.7</ele>
        <time>2021-08-08T14:37:57Z</time>
      </trkpt>
      <trkpt lat="45.79387" lon="2.94788">
        <ele>995.1</ele>
        <time>2021-08-08T14:37:58Z</time>
      </trkpt>
      <trkpt lat="45.79386" lon="2.94783">
        <ele>996.5</ele>
        <time>2021-08-08T14:38:00Z</time>
      </trkpt>
      <trkpt lat="45.79382" lon="2.94781">
        <ele>997.9</ele>
        <time>2021-08-08T14:38:02Z</time>
      </trkpt>
      <trkpt lat="45.79379" lon="2.94777">
        <ele>999.2</ele>
        <time>2021-08-08T14:38:04Z</time>
      </trkpt>
      <trkpt lat="45.79372" lon="2.94774">
        <ele>1000.9</ele>
        <time>2021-08-08T14:38:07Z</time>
      </trkpt>
      <trkpt lat="45.7937" lon="2.94772">
        <ele>1001.1</ele>
        <time>2021-08-08T14:38:08Z</time>
      </trkpt>
      <trkpt lat="45.79366" lon="2.94767">
        <ele>1001.5</ele>
        <time>2021-08-08T14:38:11Z</time>
      </trkpt>
      <trkpt lat="45.79366" lon="2.94764">
        <ele>1002.2</ele>
        <time>2021-08-08T14:38:12Z</time>
      </trkpt>
      <trkpt lat="45.79364" lon="2.94761">
        <ele>1002.5</ele>
        <time>2021-08-08T14:38:14Z</time>
      </trkpt>
      <trkpt lat="45.7936" lon="2.94757">
        <ele>1002.7</ele>
        <time>2021-08-08T14:38:17Z</time>
      </trkpt>
      <trkpt lat="45.79359" lon="2.94757">
        <ele>1002.8</ele>
        <time>2021-08-08T14:38:18Z</time>
      </trkpt>
      <trkpt lat="45.79354" lon="2.94752">
        <ele>1004.4</ele>
        <time>2021-08-08T14:38:24Z</time>
      </trkpt>
      <trkpt lat="45.79354" lon="2.94749">
        <ele>1005.3</ele>
        <time>2021-08-08T14:38:26Z</time>
      </trkpt>
      <trkpt lat="45.79349" lon="2.9474">
        <ele>1007</ele>
        <time>2021-08-08T14:38:31Z</time>
      </trkpt>
      <trkpt lat="45.7935" lon="2.94737">
        <ele>1007.9</ele>
        <time>2021-08-08T14:38:32Z</time>
      </trkpt>
      <trkpt lat="45.79349" lon="2.94733">
        <ele>1008.8</ele>
        <time>2021-08-08T14:38:33Z</time>
      </trkpt>
      <trkpt lat="45.79349" lon="2.94728">
        <ele>1009.9</ele>
        <time>2021-08-08T14:38:35Z</time>
      </trkpt>
      <trkpt lat="45.79347" lon="2.94726">
        <ele>1011.7</ele>
        <time>2021-08-08T14:38:37Z</time>
      </trkpt>
      <trkpt lat="45.79344" lon="2.94711">
        <ele>1015.5</ele>
        <time>2021-08-08T14:38:43Z</time>
      </trkpt>
      <trkpt lat="45.79344" lon="2.94709">
        <ele>1015.9</ele>
        <time>2021-08-08T14:38:44Z</time>
      </trkpt>
      <trkpt lat="45.79343" lon="2.94703">
        <ele>1016.6</ele>
        <time>2021-08-08T14:38:47Z</time>
      </trkpt>
      <trkpt lat="45.79335" lon="2.94691">
        <ele>1018.2</ele>
        <time>2021-08-08T14:38:54Z</time>
      </trkpt>
      <trkpt lat="45.79334" lon="2.94689">
        <ele>1018.5</ele>
        <time>2021-08-08T14:38:55Z</time>
      </trkpt>
      <trkpt lat="45.79331" lon="2.94684">
        <ele>1018.8</ele>
        <time>2021-08-08T14:38:58Z</time>
      </trkpt>
      <trkpt lat="45.79327" lon="2.9468">
        <ele>1019.2</ele>
        <time>2021-08-08T14:39:01Z</time>
      </trkpt>
      <trkpt lat="45.79325" lon="2.94675">
        <ele>1019.9</ele>
        <time>2021-08-08T14:39:04Z</time>
      </trkpt>
      <trkpt lat="45.79322" lon="2.94674">
        <ele>1020.7</ele>
        <time>2021-08-08T14:39:07Z</time>
      </trkpt>
      <trkpt lat="45.79321" lon="2.94674">
        <ele>1021</ele>
        <time>2021-08-08T14:39:08Z</time>
      </trkpt>
      <trkpt lat="45.79313" lon="2.94676">
        <ele>1022.3</ele>
        <time>2021-08-08T14:39:15Z</time>
      </trkpt>
      <trkpt lat="45.79311" lon="2.94675">
        <ele>1022.6</ele>
        <time>2021-08-08T14:39:16Z</time>
      </trkpt>
      <trkpt lat="45.79308" lon="2.94671">
        <ele>1023.2</ele>
        <time>2021-08-08T14:39:19Z</time>
      </trkpt>
      <trkpt lat="45.79309" lon="2.94671">
        <ele>1022.8</ele>
        <time>2021-08-08T14:39:20Z</time>
      </trkpt>
      <trkpt lat="45.793" lon="2.94655">
        <ele>1023.3</ele>
        <time>2021-08-08T14:39:29Z</time>
      </trkpt>
      <trkpt lat="45.793" lon="2.94654">
        <ele>1022.9</ele>
        <time>2021-08-08T14:39:30Z</time>
      </trkpt>
      <trkpt lat="45.79299" lon="2.94652">
        <ele>1022.8</ele>
        <time>2021-08-08T14:39:31Z</time>
      </trkpt>
      <trkpt lat="45.79294" lon="2.9464">
        <ele>1023</ele>
        <time>2021-08-08T14:39:39Z</time>
      </trkpt>
      <trkpt lat="45.79291" lon="2.94635">
        <ele>1023.8</ele>
        <time>2021-08-08T14:39:42Z</time>
      </trkpt>
      <trkpt lat="45.79289" lon="2.94634">
        <ele>1024</ele>
        <time>2021-08-08T14:39:43Z</time>
      </trkpt>
      <trkpt lat="45.79286" lon="2.94631">
        <ele>1024.6</ele>
        <time>2021-08-08T14:39:45Z</time>
      </trkpt>
      <trkpt lat="45.79279" lon="2.94619">
        <ele>1026.3</ele>
        <time>2021-08-08T14:39:52Z</time>
      </trkpt>
      <trkpt lat="45.79279" lon="2.94618">
        <ele>1026.5</ele>
        <time>2021-08-08T14:39:53Z</time>
      </trkpt>
      <trkpt lat="45.79275" lon="2.94611">
        <ele>1027.6</ele>
        <time>2021-08-08T14:39:58Z</time>
      </trkpt>
      <trkpt lat="45.79274" lon="2.94602">
        <ele>1027.3</ele>
        <time>2021-08-08T14:40:02Z</time>
      </trkpt>
      <trkpt lat="45.79272" lon="2.94594">
        <ele>1027.8</ele>
        <time>2021-08-08T14:40:07Z</time>
      </trkpt>
      <trkpt lat="45.79271" lon="2.94593">
        <ele>1027.9</ele>
        <time>2021-08-08T14:40:08Z</time>
      </trkpt>
      <trkpt lat="45.79266" lon="2.94585">
        <ele>1028.8</ele>
        <time>2021-08-08T14:40:12Z</time>
      </trkpt>
      <trkpt lat="45.79263" lon="2.94582">
        <ele>1029.4</ele>
        <time>2021-08-08T14:40:14Z</time>
      </trkpt>
      <trkpt lat="45.7926" lon="2.94576">
        <ele>1029.8</ele>
        <time>2021-08-08T14:40:17Z</time>
      </trkpt>
      <trkpt lat="45.79258" lon="2.94575">
        <ele>1030</ele>
        <time>2021-08-08T14:40:18Z</time>
      </trkpt>
      <trkpt lat="45.79255" lon="2.94569">
        <ele>1029.9</ele>
        <time>2021-08-08T14:40:23Z</time>
      </trkpt>
      <trkpt lat="45.79251" lon="2.94564">
        <ele>1029.3</ele>
        <time>2021-08-08T14:40:29Z</time>
      </trkpt>
      <trkpt lat="45.79246" lon="2.94565">
        <ele>1029.7</ele>
        <time>2021-08-08T14:40:37Z</time>
      </trkpt>
      <trkpt lat="45.79243" lon="2.94561">
        <ele>1029.6</ele>
        <time>2021-08-08T14:40:41Z</time>
      </trkpt>
      <trkpt lat="45.79242" lon="2.9456">
        <ele>1029.9</ele>
        <time>2021-08-08T14:40:42Z</time>
      </trkpt>
      <trkpt lat="45.79239" lon="2.94557">
        <ele>1031</ele>
        <time>2021-08-08T14:40:46Z</time>
      </trkpt>
      <trkpt lat="45.79242" lon="2.94556">
        <ele>1032.2</ele>
        <time>2021-08-08T14:40:52Z</time>
      </trkpt>
      <trkpt lat="45.79242" lon="2.94558">
        <ele>1032.4</ele>
        <time>2021-08-08T14:40:54Z</time>
      </trkpt>
      <trkpt lat="45.79245" lon="2.9456">
        <ele>1032.6</ele>
        <time>2021-08-08T14:40:56Z</time>
      </trkpt>
      <trkpt lat="45.7925" lon="2.94565">
        <ele>1032.7</ele>
        <time>2021-08-08T14:41:00Z</time>
      </trkpt>
      <trkpt lat="45.79251" lon="2.94566">
        <ele>1031.9</ele>
        <time>2021-08-08T14:41:01Z</time>
      </trkpt>
      <trkpt lat="45.79258" lon="2.94571">
        <ele>1029.1</ele>
        <time>2021-08-08T14:41:05Z</time>
      </trkpt>
      <trkpt lat="45.79264" lon="2.94579">
        <ele>1025.7</ele>
        <time>2021-08-08T14:41:10Z</time>
      </trkpt>
      <trkpt lat="45.79265" lon="2.9458">
        <ele>1025.3</ele>
        <time>2021-08-08T14:41:11Z</time>
      </trkpt>
      <trkpt lat="45.79268" lon="2.9459">
        <ele>1023.6</ele>
        <time>2021-08-08T14:41:17Z</time>
      </trkpt>
      <trkpt lat="45.7927" lon="2.94595">
        <ele>1022</ele>
        <time>2021-08-08T14:41:21Z</time>
      </trkpt>
      <trkpt lat="45.79274" lon="2.94601">
        <ele>1019.7</ele>
        <time>2021-08-08T14:41:27Z</time>
      </trkpt>
      <trkpt lat="45.79273" lon="2.94602">
        <ele>1020</ele>
        <time>2021-08-08T14:41:28Z</time>
      </trkpt>
      <trkpt lat="45.79273" lon="2.94603">
        <ele>1020.3</ele>
        <time>2021-08-08T14:41:29Z</time>
      </trkpt>
      <trkpt lat="45.79274" lon="2.94605">
        <ele>1021.2</ele>
        <time>2021-08-08T14:41:41Z</time>
      </trkpt>
      <trkpt lat="45.79275" lon="2.94609">
        <ele>1020.9</ele>
        <time>2021-08-08T14:41:44Z</time>
      </trkpt>
      <trkpt lat="45.79274" lon="2.94611">
        <ele>1021</ele>
        <time>2021-08-08T14:41:48Z</time>
      </trkpt>
      <trkpt lat="45.79273" lon="2.94614">
        <ele>1021</ele>
        <time>2021-08-08T14:41:54Z</time>
      </trkpt>
      <trkpt lat="45.79275" lon="2.94623">
        <ele>1020.2</ele>
        <time>2021-08-08T14:42:02Z</time>
      </trkpt>
      <trkpt lat="45.79275" lon="2.94624">
        <ele>1020.2</ele>
        <time>2021-08-08T14:42:03Z</time>
      </trkpt>
      <trkpt lat="45.79273" lon="2.94622">
        <ele>1019.8</ele>
        <time>2021-08-08T14:42:19Z</time>
      </trkpt>
      <trkpt lat="45.79271" lon="2.94615">
        <ele>1019.7</ele>
        <time>2021-08-08T14:42:24Z</time>
      </trkpt>
      <trkpt lat="45.79267" lon="2.94607">
        <ele>1019.5</ele>
        <time>2021-08-08T14:42:31Z</time>
      </trkpt>
      <trkpt lat="45.79266" lon="2.94603">
        <ele>1019.2</ele>
        <time>2021-08-08T14:42:36Z</time>
      </trkpt>
      <trkpt lat="45.79266" lon="2.94601">
        <ele>1019.2</ele>
        <time>2021-08-08T14:42:37Z</time>
      </trkpt>
      <trkpt lat="45.79264" lon="2.94584">
        <ele>1020.1</ele>
        <time>2021-08-08T14:42:46Z</time>
      </trkpt>
      <trkpt lat="45.79262" lon="2.94579">
        <ele>1020.3</ele>
        <time>2021-08-08T14:42:49Z</time>
      </trkpt>
      <trkpt lat="45.79261" lon="2.94577">
        <ele>1020.5</ele>
        <time>2021-08-08T14:42:50Z</time>
      </trkpt>
      <trkpt lat="45.79257" lon="2.94572">
        <ele>1020.9</ele>
        <time>2021-08-08T14:42:55Z</time>
      </trkpt>
      <trkpt lat="45.79256" lon="2.94569">
        <ele>1021</ele>
        <time>2021-08-08T14:42:57Z</time>
      </trkpt>
      <trkpt lat="45.79251" lon="2.94563">
        <ele>1020.8</ele>
        <time>2021-08-08T14:43:03Z</time>
      </trkpt>
      <trkpt lat="45.7925" lon="2.94559">
        <ele>1020.7</ele>
        <time>2021-08-08T14:43:07Z</time>
      </trkpt>
      <trkpt lat="45.7925" lon="2.94558">
        <ele>1020.7</ele>
        <time>2021-08-08T14:43:08Z</time>
      </trkpt>
      <trkpt lat="45.79246" lon="2.94549">
        <ele>1020.5</ele>
        <time>2021-08-08T14:43:14Z</time>
      </trkpt>
      <trkpt lat="45.7924" lon="2.94541">
        <ele>1020.3</ele>
        <time>2021-08-08T14:43:20Z</time>
      </trkpt>
      <trkpt lat="45.79239" lon="2.9454">
        <ele>1020.2</ele>
        <time>2021-08-08T14:43:21Z</time>
      </trkpt>
      <trkpt lat="45.79233" lon="2.94534">
        <ele>1020.3</ele>
        <time>2021-08-08T14:43:25Z</time>
      </trkpt>
      <trkpt lat="45.79231" lon="2.9453">
        <ele>1020.3</ele>
        <time>2021-08-08T14:43:27Z</time>
      </trkpt>
      <trkpt lat="45.79226" lon="2.94525">
        <ele>1020.3</ele>
        <time>2021-08-08T14:43:30Z</time>
      </trkpt>
      <trkpt lat="45.79225" lon="2.94524">
        <ele>1020.3</ele>
        <time>2021-08-08T14:43:31Z</time>
      </trkpt>
      <trkpt lat="45.7922" lon="2.94519">
        <ele>1020.3</ele>
        <time>2021-08-08T14:43:34Z</time>
      </trkpt>
      <trkpt lat="45.79217" lon="2.94511">
        <ele>1021</ele>
        <time>2021-08-08T14:43:37Z</time>
      </trkpt>
      <trkpt lat="45.79216" lon="2.94508">
        <ele>1021.4</ele>
        <time>2021-08-08T14:43:39Z</time>
      </trkpt>
      <trkpt lat="45.79218" lon="2.94504">
        <ele>1021.9</ele>
        <time>2021-08-08T14:43:44Z</time>
      </trkpt>
      <trkpt lat="45.79218" lon="2.94503">
        <ele>1022</ele>
        <time>2021-08-08T14:43:45Z</time>
      </trkpt>
      <trkpt lat="45.79219" lon="2.94499">
        <ele>1022.2</ele>
        <time>2021-08-08T14:43:50Z</time>
      </trkpt>
      <trkpt lat="45.79217" lon="2.94496">
        <ele>1022.5</ele>
        <time>2021-08-08T14:43:52Z</time>
      </trkpt>
      <trkpt lat="45.79216" lon="2.94486">
        <ele>1023.2</ele>
        <time>2021-08-08T14:43:58Z</time>
      </trkpt>
      <trkpt lat="45.79215" lon="2.94479">
        <ele>1023.8</ele>
        <time>2021-08-08T14:44:02Z</time>
      </trkpt>
      <trkpt lat="45.79214" lon="2.94478">
        <ele>1023.9</ele>
        <time>2021-08-08T14:44:03Z</time>
      </trkpt>
      <trkpt lat="45.79213" lon="2.94474">
        <ele>1024.2</ele>
        <time>2021-08-08T14:44:05Z</time>
      </trkpt>
      <trkpt lat="45.7921" lon="2.94474">
        <ele>1024.3</ele>
        <time>2021-08-08T14:44:07Z</time>
      </trkpt>
      <trkpt lat="45.79209" lon="2.94471">
        <ele>1024.4</ele>
        <time>2021-08-08T14:44:10Z</time>
      </trkpt>
      <trkpt lat="45.79206" lon="2.94462">
        <ele>1023.9</ele>
        <time>2021-08-08T14:44:15Z</time>
      </trkpt>
      <trkpt lat="45.79205" lon="2.9446">
        <ele>1024.2</ele>
        <time>2021-08-08T14:44:16Z</time>
      </trkpt>
      <trkpt lat="45.79202" lon="2.94452">
        <ele>1024</ele>
        <time>2021-08-08T14:44:21Z</time>
      </trkpt>
      <trkpt lat="45.79198" lon="2.94449">
        <ele>1023.6</ele>
        <time>2021-08-08T14:44:25Z</time>
      </trkpt>
      <trkpt lat="45.79194" lon="2.94449">
        <ele>1023.3</ele>
        <time>2021-08-08T14:44:28Z</time>
      </trkpt>
      <trkpt lat="45.79193" lon="2.94447">
        <ele>1023</ele>
        <time>2021-08-08T14:44:29Z</time>
      </trkpt>
      <trkpt lat="45.79193" lon="2.94446">
        <ele>1022.7</ele>
        <time>2021-08-08T14:44:30Z</time>
      </trkpt>
      <trkpt lat="45.79187" lon="2.94431">
        <ele>1020.2</ele>
        <time>2021-08-08T14:44:39Z</time>
      </trkpt>
      <trkpt lat="45.79185" lon="2.94428">
        <ele>1019.9</ele>
        <time>2021-08-08T14:44:41Z</time>
      </trkpt>
      <trkpt lat="45.79184" lon="2.94427">
        <ele>1019.8</ele>
        <time>2021-08-08T14:44:42Z</time>
      </trkpt>
      <trkpt lat="45.7918" lon="2.9442">
        <ele>1019.5</ele>
        <time>2021-08-08T14:44:47Z</time>
      </trkpt>
      <trkpt lat="45.7917" lon="2.94413">
        <ele>1019.8</ele>
        <time>2021-08-08T14:44:54Z</time>
      </trkpt>
      <trkpt lat="45.79168" lon="2.94412">
        <ele>1019.9</ele>
        <time>2021-08-08T14:44:55Z</time>
      </trkpt>
      <trkpt lat="45.79165" lon="2.94409">
        <ele>1020.4</ele>
        <time>2021-08-08T14:44:57Z</time>
      </trkpt>
      <trkpt lat="45.79162" lon="2.94406">
        <ele>1021</ele>
        <time>2021-08-08T14:45:00Z</time>
      </trkpt>
      <trkpt lat="45.79162" lon="2.944">
        <ele>1020.6</ele>
        <time>2021-08-08T14:45:04Z</time>
      </trkpt>
      <trkpt lat="45.79165" lon="2.94395">
        <ele>1019.7</ele>
        <time>2021-08-08T14:45:07Z</time>
      </trkpt>
      <trkpt lat="45.79166" lon="2.94393">
        <ele>1018.9</ele>
        <time>2021-08-08T14:45:08Z</time>
      </trkpt>
      <trkpt lat="45.79166" lon="2.94393">
        <ele>1018.2</ele>
        <time>2021-08-08T14:45:09Z</time>
      </trkpt>
      <trkpt lat="45.79167" lon="2.94388">
        <ele>1016.6</ele>
        <time>2021-08-08T14:45:13Z</time>
      </trkpt>
      <trkpt lat="45.79168" lon="2.94386">
        <ele>1015.9</ele>
        <time>2021-08-08T14:45:14Z</time>
      </trkpt>
      <trkpt lat="45.79167" lon="2.94371">
        <ele>1014.7</ele>
        <time>2021-08-08T14:45:19Z</time>
      </trkpt>
      <trkpt lat="45.79167" lon="2.94369">
        <ele>1014.4</ele>
        <time>2021-08-08T14:45:20Z</time>
      </trkpt>
      <trkpt lat="45.79167" lon="2.9436">
        <ele>1011.4</ele>
        <time>2021-08-08T14:45:27Z</time>
      </trkpt>
      <trkpt lat="45.79165" lon="2.94355">
        <ele>1010.5</ele>
        <time>2021-08-08T14:45:29Z</time>
      </trkpt>
      <trkpt lat="45.79165" lon="2.94352">
        <ele>1010.1</ele>
        <time>2021-08-08T14:45:30Z</time>
      </trkpt>
      <trkpt lat="45.79164" lon="2.94347">
        <ele>1009.4</ele>
        <time>2021-08-08T14:45:32Z</time>
      </trkpt>
      <trkpt lat="45.79164" lon="2.94345">
        <ele>1009.1</ele>
        <time>2021-08-08T14:45:33Z</time>
      </trkpt>
      <trkpt lat="45.79161" lon="2.94333">
        <ele>1008.8</ele>
        <time>2021-08-08T14:45:38Z</time>
      </trkpt>
      <trkpt lat="45.79163" lon="2.94329">
        <ele>1008.5</ele>
        <time>2021-08-08T14:45:39Z</time>
      </trkpt>
      <trkpt lat="45.79163" lon="2.94321">
        <ele>1008.1</ele>
        <time>2021-08-08T14:45:42Z</time>
      </trkpt>
      <trkpt lat="45.79164" lon="2.94319">
        <ele>1007.9</ele>
        <time>2021-08-08T14:45:43Z</time>
      </trkpt>
      <trkpt lat="45.79164" lon="2.94315">
        <ele>1007</ele>
        <time>2021-08-08T14:45:47Z</time>
      </trkpt>
      <trkpt lat="45.79168" lon="2.94311">
        <ele>1006</ele>
        <time>2021-08-08T14:45:51Z</time>
      </trkpt>
      <trkpt lat="45.79167" lon="2.94299">
        <ele>1001.7</ele>
        <time>2021-08-08T14:45:57Z</time>
      </trkpt>
      <trkpt lat="45.79167" lon="2.94297">
        <ele>1001.2</ele>
        <time>2021-08-08T14:45:58Z</time>
      </trkpt>
      <trkpt lat="45.79168" lon="2.9429">
        <ele>1000.5</ele>
        <time>2021-08-08T14:46:01Z</time>
      </trkpt>
      <trkpt lat="45.79171" lon="2.94276">
        <ele>999.4</ele>
        <time>2021-08-08T14:46:07Z</time>
      </trkpt>
      <trkpt lat="45.79171" lon="2.94274">
        <ele>999.5</ele>
        <time>2021-08-08T14:46:08Z</time>
      </trkpt>
      <trkpt lat="45.79172" lon="2.94269">
        <ele>1000.5</ele>
        <time>2021-08-08T14:46:18Z</time>
      </trkpt>
      <trkpt lat="45.79182" lon="2.94261">
        <ele>1006.5</ele>
        <time>2021-08-08T14:46:45Z</time>
      </trkpt>
      <trkpt lat="45.79182" lon="2.94256">
        <ele>1006.7</ele>
        <time>2021-08-08T14:46:49Z</time>
      </trkpt>
      <trkpt lat="45.79184" lon="2.94251">
        <ele>1007.1</ele>
        <time>2021-08-08T14:46:51Z</time>
      </trkpt>
      <trkpt lat="45.79184" lon="2.94249">
        <ele>1007.2</ele>
        <time>2021-08-08T14:46:52Z</time>
      </trkpt>
      <trkpt lat="45.79184" lon="2.94247">
        <ele>1007.2</ele>
        <time>2021-08-08T14:46:53Z</time>
      </trkpt>
      <trkpt lat="45.79182" lon="2.94236">
        <ele>1006.8</ele>
        <time>2021-08-08T14:47:00Z</time>
      </trkpt>
      <trkpt lat="45.79184" lon="2.94228">
        <ele>1006.6</ele>
        <time>2021-08-08T14:47:04Z</time>
      </trkpt>
      <trkpt lat="45.79183" lon="2.94224">
        <ele>1006.4</ele>
        <time>2021-08-08T14:47:07Z</time>
      </trkpt>
      <trkpt lat="45.79182" lon="2.94222">
        <ele>1006.2</ele>
        <time>2021-08-08T14:47:08Z</time>
      </trkpt>
      <trkpt lat="45.79179" lon="2.94218">
        <ele>1005.9</ele>
        <time>2021-08-08T14:47:11Z</time>
      </trkpt>
      <trkpt lat="45.79179" lon="2.94212">
        <ele>1005.3</ele>
        <time>2021-08-08T14:47:14Z</time>
      </trkpt>
      <trkpt lat="45.79176" lon="2.942">
        <ele>1005.2</ele>
        <time>2021-08-08T14:47:21Z</time>
      </trkpt>
      <trkpt lat="45.79175" lon="2.94199">
        <ele>1005.1</ele>
        <time>2021-08-08T14:47:22Z</time>
      </trkpt>
      <trkpt lat="45.79172" lon="2.94176">
        <ele>1002.6</ele>
        <time>2021-08-08T14:47:34Z</time>
      </trkpt>
      <trkpt lat="45.79171" lon="2.94174">
        <ele>1002.4</ele>
        <time>2021-08-08T14:47:35Z</time>
      </trkpt>
      <trkpt lat="45.79169" lon="2.94168">
        <ele>1001.9</ele>
        <time>2021-08-08T14:47:38Z</time>
      </trkpt>
      <trkpt lat="45.79165" lon="2.94165">
        <ele>1001.2</ele>
        <time>2021-08-08T14:47:41Z</time>
      </trkpt>
      <trkpt lat="45.79162" lon="2.94155">
        <ele>1000</ele>
        <time>2021-08-08T14:47:48Z</time>
      </trkpt>
      <trkpt lat="45.79162" lon="2.94152">
        <ele>999.9</ele>
        <time>2021-08-08T14:47:49Z</time>
      </trkpt>
      <trkpt lat="45.79161" lon="2.94151">
        <ele>999.8</ele>
        <time>2021-08-08T14:47:50Z</time>
      </trkpt>
      <trkpt lat="45.79162" lon="2.94143">
        <ele>999.7</ele>
        <time>2021-08-08T14:47:53Z</time>
      </trkpt>
      <trkpt lat="45.7916" lon="2.94138">
        <ele>999.2</ele>
        <time>2021-08-08T14:47:56Z</time>
      </trkpt>
      <trkpt lat="45.79159" lon="2.94132">
        <ele>998.7</ele>
        <time>2021-08-08T14:47:59Z</time>
      </trkpt>
      <trkpt lat="45.79159" lon="2.94127">
        <ele>998.3</ele>
        <time>2021-08-08T14:48:01Z</time>
      </trkpt>
      <trkpt lat="45.79159" lon="2.94124">
        <ele>998.1</ele>
        <time>2021-08-08T14:48:02Z</time>
      </trkpt>
      <trkpt lat="45.79158" lon="2.94119">
        <ele>997.6</ele>
        <time>2021-08-08T14:48:04Z</time>
      </trkpt>
      <trkpt lat="45.79158" lon="2.94114">
        <ele>997.3</ele>
        <time>2021-08-08T14:48:07Z</time>
      </trkpt>
      <trkpt lat="45.79156" lon="2.941">
        <ele>996.9</ele>
        <time>2021-08-08T14:48:14Z</time>
      </trkpt>
      <trkpt lat="45.79156" lon="2.94097">
        <ele>996.9</ele>
        <time>2021-08-08T14:48:15Z</time>
      </trkpt>
      <trkpt lat="45.79156" lon="2.94092">
        <ele>996.8</ele>
        <time>2021-08-08T14:48:17Z</time>
      </trkpt>
      <trkpt lat="45.79154" lon="2.94087">
        <ele>996.8</ele>
        <time>2021-08-08T14:48:19Z</time>
      </trkpt>
      <trkpt lat="45.79154" lon="2.94083">
        <ele>996.2</ele>
        <time>2021-08-08T14:48:21Z</time>
      </trkpt>
      <trkpt lat="45.79156" lon="2.94081">
        <ele>995.2</ele>
        <time>2021-08-08T14:48:22Z</time>
      </trkpt>
      <trkpt lat="45.79155" lon="2.94077">
        <ele>995.5</ele>
        <time>2021-08-08T14:48:25Z</time>
      </trkpt>
      <trkpt lat="45.79154" lon="2.94075">
        <ele>995.7</ele>
        <time>2021-08-08T14:48:26Z</time>
      </trkpt>
      <trkpt lat="45.79157" lon="2.94053">
        <ele>995.2</ele>
        <time>2021-08-08T14:48:35Z</time>
      </trkpt>
      <trkpt lat="45.79157" lon="2.94051">
        <ele>995.1</ele>
        <time>2021-08-08T14:48:36Z</time>
      </trkpt>
      <trkpt lat="45.79158" lon="2.94046">
        <ele>994.5</ele>
        <time>2021-08-08T14:48:39Z</time>
      </trkpt>
      <trkpt lat="45.7916" lon="2.94043">
        <ele>994.1</ele>
        <time>2021-08-08T14:48:41Z</time>
      </trkpt>
      <trkpt lat="45.79163" lon="2.94026">
        <ele>995.9</ele>
        <time>2021-08-08T14:48:47Z</time>
      </trkpt>
      <trkpt lat="45.79164" lon="2.94023">
        <ele>996.2</ele>
        <time>2021-08-08T14:48:48Z</time>
      </trkpt>
      <trkpt lat="45.79167" lon="2.94007">
        <ele>997.9</ele>
        <time>2021-08-08T14:48:54Z</time>
      </trkpt>
      <trkpt lat="45.79175" lon="2.93998">
        <ele>998.8</ele>
        <time>2021-08-08T14:48:58Z</time>
      </trkpt>
      <trkpt lat="45.79176" lon="2.93997">
        <ele>998.8</ele>
        <time>2021-08-08T14:48:59Z</time>
      </trkpt>
      <trkpt lat="45.7918" lon="2.93987">
        <ele>998.9</ele>
        <time>2021-08-08T14:49:05Z</time>
      </trkpt>
      <trkpt lat="45.79183" lon="2.93983">
        <ele>999.6</ele>
        <time>2021-08-08T14:49:23Z</time>
      </trkpt>
      <trkpt lat="45.79187" lon="2.93972">
        <ele>1001.6</ele>
        <time>2021-08-08T14:49:28Z</time>
      </trkpt>
      <trkpt lat="45.79187" lon="2.93971">
        <ele>1001.8</ele>
        <time>2021-08-08T14:49:29Z</time>
      </trkpt>
      <trkpt lat="45.79188" lon="2.93961">
        <ele>1002.9</ele>
        <time>2021-08-08T14:49:37Z</time>
      </trkpt>
      <trkpt lat="45.79192" lon="2.93954">
        <ele>1003.5</ele>
        <time>2021-08-08T14:49:43Z</time>
      </trkpt>
      <trkpt lat="45.79193" lon="2.93948">
        <ele>1003.6</ele>
        <time>2021-08-08T14:49:46Z</time>
      </trkpt>
      <trkpt lat="45.79194" lon="2.93947">
        <ele>1003.7</ele>
        <time>2021-08-08T14:49:47Z</time>
      </trkpt>
      <trkpt lat="45.792" lon="2.93943">
        <ele>1004.8</ele>
        <time>2021-08-08T14:49:51Z</time>
      </trkpt>
      <trkpt lat="45.79203" lon="2.93938">
        <ele>1005.1</ele>
        <time>2021-08-08T14:49:56Z</time>
      </trkpt>
      <trkpt lat="45.79205" lon="2.93929">
        <ele>1005.6</ele>
        <time>2021-08-08T14:50:03Z</time>
      </trkpt>
      <trkpt lat="45.79207" lon="2.93928">
        <ele>1005.1</ele>
        <time>2021-08-08T14:50:04Z</time>
      </trkpt>
      <trkpt lat="45.79207" lon="2.93924">
        <ele>1005.1</ele>
        <time>2021-08-08T14:50:08Z</time>
      </trkpt>
      <trkpt lat="45.79215" lon="2.93917">
        <ele>1005.3</ele>
        <time>2021-08-08T14:50:15Z</time>
      </trkpt>
      <trkpt lat="45.79218" lon="2.93912">
        <ele>1005.6</ele>
        <time>2021-08-08T14:50:18Z</time>
      </trkpt>
      <trkpt lat="45.79219" lon="2.93912">
        <ele>1006</ele>
        <time>2021-08-08T14:50:19Z</time>
      </trkpt>
      <trkpt lat="45.79222" lon="2.93902">
        <ele>1006.7</ele>
        <time>2021-08-08T14:50:23Z</time>
      </trkpt>
      <trkpt lat="45.79227" lon="2.93896">
        <ele>1007.5</ele>
        <time>2021-08-08T14:50:28Z</time>
      </trkpt>
      <trkpt lat="45.79229" lon="2.93892">
        <ele>1008.8</ele>
        <time>2021-08-08T14:50:31Z</time>
      </trkpt>
      <trkpt lat="45.79229" lon="2.9389">
        <ele>1009.1</ele>
        <time>2021-08-08T14:50:32Z</time>
      </trkpt>
      <trkpt lat="45.79235" lon="2.93878">
        <ele>1010.7</ele>
        <time>2021-08-08T14:50:41Z</time>
      </trkpt>
      <trkpt lat="45.79238" lon="2.93873">
        <ele>1011.2</ele>
        <time>2021-08-08T14:50:44Z</time>
      </trkpt>
      <trkpt lat="45.79239" lon="2.93872">
        <ele>1011.2</ele>
        <time>2021-08-08T14:50:45Z</time>
      </trkpt>
      <trkpt lat="45.7925" lon="2.9386">
        <ele>1013</ele>
        <time>2021-08-08T14:50:55Z</time>
      </trkpt>
      <trkpt lat="45.79251" lon="2.93859">
        <ele>1013.2</ele>
        <time>2021-08-08T14:50:56Z</time>
      </trkpt>
      <trkpt lat="45.79255" lon="2.93854">
        <ele>1015.2</ele>
        <time>2021-08-08T14:51:06Z</time>
      </trkpt>
      <trkpt lat="45.79264" lon="2.93845">
        <ele>1016.7</ele>
        <time>2021-08-08T14:51:16Z</time>
      </trkpt>
      <trkpt lat="45.79265" lon="2.93844">
        <ele>1016.8</ele>
        <time>2021-08-08T14:51:17Z</time>
      </trkpt>
      <trkpt lat="45.79266" lon="2.93842">
        <ele>1017.1</ele>
        <time>2021-08-08T14:51:18Z</time>
      </trkpt>
      <trkpt lat="45.79267" lon="2.93837">
        <ele>1017.7</ele>
        <time>2021-08-08T14:51:21Z</time>
      </trkpt>
      <trkpt lat="45.79274" lon="2.93824">
        <ele>1019.6</ele>
        <time>2021-08-08T14:51:35Z</time>
      </trkpt>
      <trkpt lat="45.79273" lon="2.9382">
        <ele>1019.7</ele>
        <time>2021-08-08T14:51:42Z</time>
      </trkpt>
      <trkpt lat="45.79273" lon="2.93819">
        <ele>1019.7</ele>
        <time>2021-08-08T14:51:43Z</time>
      </trkpt>
      <trkpt lat="45.79282" lon="2.93804">
        <ele>1023.9</ele>
        <time>2021-08-08T14:52:12Z</time>
      </trkpt>
      <trkpt lat="45.79283" lon="2.938">
        <ele>1024.1</ele>
        <time>2021-08-08T14:52:15Z</time>
      </trkpt>
      <trkpt lat="45.79284" lon="2.93799">
        <ele>1024.1</ele>
        <time>2021-08-08T14:52:16Z</time>
      </trkpt>
      <trkpt lat="45.79285" lon="2.93795">
        <ele>1024.1</ele>
        <time>2021-08-08T14:52:21Z</time>
      </trkpt>
      <trkpt lat="45.7929" lon="2.93789">
        <ele>1024.1</ele>
        <time>2021-08-08T14:52:29Z</time>
      </trkpt>
      <trkpt lat="45.79291" lon="2.93784">
        <ele>1024.5</ele>
        <time>2021-08-08T14:52:32Z</time>
      </trkpt>
      <trkpt lat="45.79295" lon="2.93781">
        <ele>1024.5</ele>
        <time>2021-08-08T14:52:35Z</time>
      </trkpt>
      <trkpt lat="45.79296" lon="2.9378">
        <ele>1024.5</ele>
        <time>2021-08-08T14:52:36Z</time>
      </trkpt>
      <trkpt lat="45.79303" lon="2.93771">
        <ele>1024.8</ele>
        <time>2021-08-08T14:52:46Z</time>
      </trkpt>
      <trkpt lat="45.79307" lon="2.93764">
        <ele>1025</ele>
        <time>2021-08-08T14:52:51Z</time>
      </trkpt>
      <trkpt lat="45.79308" lon="2.93763">
        <ele>1025.1</ele>
        <time>2021-08-08T14:52:52Z</time>
      </trkpt>
      <trkpt lat="45.79309" lon="2.9376">
        <ele>1025.3</ele>
        <time>2021-08-08T14:52:54Z</time>
      </trkpt>
      <trkpt lat="45.79311" lon="2.93758">
        <ele>1025.6</ele>
        <time>2021-08-08T14:52:56Z</time>
      </trkpt>
      <trkpt lat="45.79317" lon="2.93757">
        <ele>1026.2</ele>
        <time>2021-08-08T14:52:59Z</time>
      </trkpt>
      <trkpt lat="45.79318" lon="2.93754">
        <ele>1026.7</ele>
        <time>2021-08-08T14:53:02Z</time>
      </trkpt>
      <trkpt lat="45.79322" lon="2.93752">
        <ele>1027.3</ele>
        <time>2021-08-08T14:53:05Z</time>
      </trkpt>
      <trkpt lat="45.79322" lon="2.9375">
        <ele>1027.4</ele>
        <time>2021-08-08T14:53:06Z</time>
      </trkpt>
      <trkpt lat="45.79323" lon="2.93748">
        <ele>1027.7</ele>
        <time>2021-08-08T14:53:07Z</time>
      </trkpt>
      <trkpt lat="45.79326" lon="2.93746">
        <ele>1027.8</ele>
        <time>2021-08-08T14:53:11Z</time>
      </trkpt>
      <trkpt lat="45.79327" lon="2.93743">
        <ele>1027.9</ele>
        <time>2021-08-08T14:53:12Z</time>
      </trkpt>
      <trkpt lat="45.7933" lon="2.9374">
        <ele>1028.6</ele>
        <time>2021-08-08T14:53:16Z</time>
      </trkpt>
      <trkpt lat="45.79334" lon="2.93734">
        <ele>1029.8</ele>
        <time>2021-08-08T14:53:21Z</time>
      </trkpt>
      <trkpt lat="45.79335" lon="2.93734">
        <ele>1029.9</ele>
        <time>2021-08-08T14:53:22Z</time>
      </trkpt>
      <trkpt lat="45.7934" lon="2.93732">
        <ele>1030.9</ele>
        <time>2021-08-08T14:53:28Z</time>
      </trkpt>
      <trkpt lat="45.79346" lon="2.9373">
        <ele>1032.2</ele>
        <time>2021-08-08T14:53:37Z</time>
      </trkpt>
      <trkpt lat="45.7935" lon="2.93725">
        <ele>1032.7</ele>
        <time>2021-08-08T14:53:41Z</time>
      </trkpt>
      <trkpt lat="45.79351" lon="2.93724">
        <ele>1032.8</ele>
        <time>2021-08-08T14:53:42Z</time>
      </trkpt>
      <trkpt lat="45.79356" lon="2.93719">
        <ele>1033.7</ele>
        <time>2021-08-08T14:53:49Z</time>
      </trkpt>
      <trkpt lat="45.79358" lon="2.93712">
        <ele>1034.9</ele>
        <time>2021-08-08T14:54:02Z</time>
      </trkpt>
      <trkpt lat="45.79366" lon="2.93713">
        <ele>1037.5</ele>
        <time>2021-08-08T14:54:15Z</time>
      </trkpt>
      <trkpt lat="45.79366" lon="2.93714">
        <ele>1037.5</ele>
        <time>2021-08-08T14:54:16Z</time>
      </trkpt>
      <trkpt lat="45.79372" lon="2.93716">
        <ele>1038.4</ele>
        <time>2021-08-08T14:54:22Z</time>
      </trkpt>
      <trkpt lat="45.79377" lon="2.93714">
        <ele>1039.2</ele>
        <time>2021-08-08T14:54:28Z</time>
      </trkpt>
      <trkpt lat="45.79379" lon="2.93712">
        <ele>1039.9</ele>
        <time>2021-08-08T14:54:32Z</time>
      </trkpt>
      <trkpt lat="45.79382" lon="2.93706">
        <ele>1040.4</ele>
        <time>2021-08-08T14:54:36Z</time>
      </trkpt>
      <trkpt lat="45.79382" lon="2.93704">
        <ele>1040.5</ele>
        <time>2021-08-08T14:54:37Z</time>
      </trkpt>
      <trkpt lat="45.79384" lon="2.937">
        <ele>1041.7</ele>
        <time>2021-08-08T14:54:43Z</time>
      </trkpt>
      <trkpt lat="45.79388" lon="2.93697">
        <ele>1042.2</ele>
        <time>2021-08-08T14:54:47Z</time>
      </trkpt>
      <trkpt lat="45.79391" lon="2.93691">
        <ele>1043</ele>
        <time>2021-08-08T14:54:52Z</time>
      </trkpt>
      <trkpt lat="45.79392" lon="2.9369">
        <ele>1043.3</ele>
        <time>2021-08-08T14:54:54Z</time>
      </trkpt>
      <trkpt lat="45.79396" lon="2.93691">
        <ele>1043.1</ele>
        <time>2021-08-08T14:54:56Z</time>
      </trkpt>
      <trkpt lat="45.79397" lon="2.93692">
        <ele>1043.2</ele>
        <time>2021-08-08T14:54:57Z</time>
      </trkpt>
      <trkpt lat="45.79405" lon="2.93692">
        <ele>1043.9</ele>
        <time>2021-08-08T14:55:06Z</time>
      </trkpt>
      <trkpt lat="45.79412" lon="2.9369">
        <ele>1044.5</ele>
        <time>2021-08-08T14:55:13Z</time>
      </trkpt>
      <trkpt lat="45.79415" lon="2.93692">
        <ele>1044.9</ele>
        <time>2021-08-08T14:55:16Z</time>
      </trkpt>
      <trkpt lat="45.79417" lon="2.93692">
        <ele>1045</ele>
        <time>2021-08-08T14:55:17Z</time>
      </trkpt>
      <trkpt lat="45.79421" lon="2.93691">
        <ele>1045.2</ele>
        <time>2021-08-08T14:55:22Z</time>
      </trkpt>
      <trkpt lat="45.79424" lon="2.93682">
        <ele>1046</ele>
        <time>2021-08-08T14:55:30Z</time>
      </trkpt>
      <trkpt lat="45.79428" lon="2.93679">
        <ele>1047.3</ele>
        <time>2021-08-08T14:55:40Z</time>
      </trkpt>
      <trkpt lat="45.79431" lon="2.93679">
        <ele>1047.5</ele>
        <time>2021-08-08T14:55:44Z</time>
      </trkpt>
      <trkpt lat="45.79431" lon="2.93679">
        <ele>1047.6</ele>
        <time>2021-08-08T14:55:45Z</time>
      </trkpt>
      <trkpt lat="45.79433" lon="2.93679">
        <ele>1047.7</ele>
        <time>2021-08-08T14:55:46Z</time>
      </trkpt>
      <trkpt lat="45.79435" lon="2.93676">
        <ele>1048</ele>
        <time>2021-08-08T14:55:49Z</time>
      </trkpt>
      <trkpt lat="45.79437" lon="2.9367">
        <ele>1048.3</ele>
        <time>2021-08-08T14:55:57Z</time>
      </trkpt>
      <trkpt lat="45.79447" lon="2.93669">
        <ele>1049.6</ele>
        <time>2021-08-08T14:56:06Z</time>
      </trkpt>
      <trkpt lat="45.79448" lon="2.93668">
        <ele>1049.8</ele>
        <time>2021-08-08T14:56:07Z</time>
      </trkpt>
      <trkpt lat="45.79452" lon="2.93669">
        <ele>1050</ele>
        <time>2021-08-08T14:56:11Z</time>
      </trkpt>
      <trkpt lat="45.79455" lon="2.93668">
        <ele>1052.3</ele>
        <time>2021-08-08T14:56:33Z</time>
      </trkpt>
      <trkpt lat="45.79459" lon="2.93665">
        <ele>1052.9</ele>
        <time>2021-08-08T14:56:41Z</time>
      </trkpt>
      <trkpt lat="45.79463" lon="2.93659">
        <ele>1053.8</ele>
        <time>2021-08-08T14:56:47Z</time>
      </trkpt>
      <trkpt lat="45.79464" lon="2.93659">
        <ele>1053.8</ele>
        <time>2021-08-08T14:56:48Z</time>
      </trkpt>
      <trkpt lat="45.79471" lon="2.93657">
        <ele>1054.1</ele>
        <time>2021-08-08T14:56:55Z</time>
      </trkpt>
      <trkpt lat="45.79474" lon="2.93659">
        <ele>1054.3</ele>
        <time>2021-08-08T14:56:57Z</time>
      </trkpt>
      <trkpt lat="45.79479" lon="2.93661">
        <ele>1054.6</ele>
        <time>2021-08-08T14:57:00Z</time>
      </trkpt>
      <trkpt lat="45.7948" lon="2.93662">
        <ele>1054.7</ele>
        <time>2021-08-08T14:57:01Z</time>
      </trkpt>
      <trkpt lat="45.79486" lon="2.93664">
        <ele>1055.1</ele>
        <time>2021-08-08T14:57:09Z</time>
      </trkpt>
      <trkpt lat="45.79492" lon="2.93668">
        <ele>1055.8</ele>
        <time>2021-08-08T14:57:21Z</time>
      </trkpt>
      <trkpt lat="45.79495" lon="2.93668">
        <ele>1055.9</ele>
        <time>2021-08-08T14:57:27Z</time>
      </trkpt>
      <trkpt lat="45.79497" lon="2.9367">
        <ele>1056.1</ele>
        <time>2021-08-08T14:57:29Z</time>
      </trkpt>
      <trkpt lat="45.79496" lon="2.93671">
        <ele>1056.1</ele>
        <time>2021-08-08T14:57:30Z</time>
      </trkpt>
      <trkpt lat="45.79497" lon="2.93671">
        <ele>1056.1</ele>
        <time>2021-08-08T14:57:31Z</time>
      </trkpt>
      <trkpt lat="45.79502" lon="2.9367">
        <ele>1056.7</ele>
        <time>2021-08-08T14:57:48Z</time>
      </trkpt>
      <trkpt lat="45.79504" lon="2.93665">
        <ele>1056.9</ele>
        <time>2021-08-08T14:57:54Z</time>
      </trkpt>
      <trkpt lat="45.79509" lon="2.93666">
        <ele>1057.1</ele>
        <time>2021-08-08T14:57:59Z</time>
      </trkpt>
      <trkpt lat="45.79511" lon="2.93666">
        <ele>1057.8</ele>
        <time>2021-08-08T14:58:08Z</time>
      </trkpt>
      <trkpt lat="45.79512" lon="2.93667">
        <ele>1058</ele>
        <time>2021-08-08T14:58:09Z</time>
      </trkpt>
      <trkpt lat="45.79513" lon="2.93667">
        <ele>1058.1</ele>
        <time>2021-08-08T14:58:10Z</time>
      </trkpt>
      <trkpt lat="45.79516" lon="2.93671">
        <ele>1058.3</ele>
        <time>2021-08-08T14:58:14Z</time>
      </trkpt>
      <trkpt lat="45.79517" lon="2.93674">
        <ele>1058.4</ele>
        <time>2021-08-08T14:58:24Z</time>
      </trkpt>
      <trkpt lat="45.79526" lon="2.93681">
        <ele>1058.7</ele>
        <time>2021-08-08T14:58:39Z</time>
      </trkpt>
      <trkpt lat="45.79526" lon="2.93682">
        <ele>1058.7</ele>
        <time>2021-08-08T14:58:40Z</time>
      </trkpt>
      <trkpt lat="45.79532" lon="2.93682">
        <ele>1059</ele>
        <time>2021-08-08T14:58:45Z</time>
      </trkpt>
      <trkpt lat="45.79536" lon="2.93681">
        <ele>1059.5</ele>
        <time>2021-08-08T14:58:54Z</time>
      </trkpt>
      <trkpt lat="45.79539" lon="2.93682">
        <ele>1059.6</ele>
        <time>2021-08-08T14:58:56Z</time>
      </trkpt>
      <trkpt lat="45.79543" lon="2.93682">
        <ele>1059.9</ele>
        <time>2021-08-08T14:59:00Z</time>
      </trkpt>
      <trkpt lat="45.79544" lon="2.93681">
        <ele>1060</ele>
        <time>2021-08-08T14:59:01Z</time>
      </trkpt>
      <trkpt lat="45.79548" lon="2.93686">
        <ele>1060.3</ele>
        <time>2021-08-08T14:59:14Z</time>
      </trkpt>
      <trkpt lat="45.79551" lon="2.93693">
        <ele>1060.6</ele>
        <time>2021-08-08T14:59:20Z</time>
      </trkpt>
      <trkpt lat="45.79554" lon="2.93695">
        <ele>1060.6</ele>
        <time>2021-08-08T14:59:25Z</time>
      </trkpt>
      <trkpt lat="45.79555" lon="2.93695">
        <ele>1060.7</ele>
        <time>2021-08-08T14:59:27Z</time>
      </trkpt>
      <trkpt lat="45.79559" lon="2.93693">
        <ele>1060.1</ele>
        <time>2021-08-08T14:59:28Z</time>
      </trkpt>
      <trkpt lat="45.79562" lon="2.93693">
        <ele>1059.7</ele>
        <time>2021-08-08T14:59:29Z</time>
      </trkpt>
      <trkpt lat="45.79571" lon="2.93695">
        <ele>1059.1</ele>
        <time>2021-08-08T14:59:39Z</time>
      </trkpt>
      <trkpt lat="45.79577" lon="2.937">
        <ele>1059.2</ele>
        <time>2021-08-08T14:59:47Z</time>
      </trkpt>
      <trkpt lat="45.7958" lon="2.93699">
        <ele>1059.4</ele>
        <time>2021-08-08T14:59:52Z</time>
      </trkpt>
      <trkpt lat="45.7958" lon="2.937">
        <ele>1059.4</ele>
        <time>2021-08-08T14:59:53Z</time>
      </trkpt>
      <trkpt lat="45.79582" lon="2.93699">
        <ele>1059.6</ele>
        <time>2021-08-08T15:00:03Z</time>
      </trkpt>
      <trkpt lat="45.79587" lon="2.937">
        <ele>1059.8</ele>
        <time>2021-08-08T15:00:10Z</time>
      </trkpt>
      <trkpt lat="45.7959" lon="2.93701">
        <ele>1059.9</ele>
        <time>2021-08-08T15:00:17Z</time>
      </trkpt>
      <trkpt lat="45.7959" lon="2.93705">
        <ele>1060.1</ele>
        <time>2021-08-08T15:00:24Z</time>
      </trkpt>
      <trkpt lat="45.79595" lon="2.93707">
        <ele>1060.5</ele>
        <time>2021-08-08T15:00:31Z</time>
      </trkpt>
      <trkpt lat="45.79596" lon="2.93708">
        <ele>1060.6</ele>
        <time>2021-08-08T15:00:32Z</time>
      </trkpt>
      <trkpt lat="45.79602" lon="2.93707">
        <ele>1061.7</ele>
        <time>2021-08-08T15:00:39Z</time>
      </trkpt>
      <trkpt lat="45.79604" lon="2.93705">
        <ele>1061.8</ele>
        <time>2021-08-08T15:00:42Z</time>
      </trkpt>
      <trkpt lat="45.79608" lon="2.93709">
        <ele>1062.3</ele>
        <time>2021-08-08T15:00:47Z</time>
      </trkpt>
      <trkpt lat="45.79613" lon="2.93709">
        <ele>1062.3</ele>
        <time>2021-08-08T15:00:56Z</time>
      </trkpt>
      <trkpt lat="45.79613" lon="2.93711">
        <ele>1062.4</ele>
        <time>2021-08-08T15:00:57Z</time>
      </trkpt>
      <trkpt lat="45.79613" lon="2.9371">
        <ele>1062.5</ele>
        <time>2021-08-08T15:00:58Z</time>
      </trkpt>
      <trkpt lat="45.79616" lon="2.93712">
        <ele>1063.6</ele>
        <time>2021-08-08T15:01:04Z</time>
      </trkpt>
      <trkpt lat="45.79618" lon="2.93712">
        <ele>1065.3</ele>
        <time>2021-08-08T15:01:15Z</time>
      </trkpt>
      <trkpt lat="45.7962" lon="2.93713">
        <ele>1066.2</ele>
        <time>2021-08-08T15:01:23Z</time>
      </trkpt>
      <trkpt lat="45.79625" lon="2.93727">
        <ele>1068.2</ele>
        <time>2021-08-08T15:01:35Z</time>
      </trkpt>
      <trkpt lat="45.79625" lon="2.93727">
        <ele>1068.4</ele>
        <time>2021-08-08T15:01:36Z</time>
      </trkpt>
      <trkpt lat="45.79634" lon="2.93743">
        <ele>1069.9</ele>
        <time>2021-08-08T15:01:54Z</time>
      </trkpt>
      <trkpt lat="45.79636" lon="2.93745">
        <ele>1070.1</ele>
        <time>2021-08-08T15:01:59Z</time>
      </trkpt>
      <trkpt lat="45.79637" lon="2.93744">
        <ele>1070.2</ele>
        <time>2021-08-08T15:02:00Z</time>
      </trkpt>
      <trkpt lat="45.79638" lon="2.93744">
        <ele>1070.3</ele>
        <time>2021-08-08T15:02:01Z</time>
      </trkpt>
      <trkpt lat="45.79644" lon="2.93747">
        <ele>1071.1</ele>
        <time>2021-08-08T15:02:09Z</time>
      </trkpt>
      <trkpt lat="45.79649" lon="2.93748">
        <ele>1071.7</ele>
        <time>2021-08-08T15:02:13Z</time>
      </trkpt>
      <trkpt lat="45.79654" lon="2.93752">
        <ele>1072.5</ele>
        <time>2021-08-08T15:02:18Z</time>
      </trkpt>
      <trkpt lat="45.79656" lon="2.93752">
        <ele>1072.7</ele>
        <time>2021-08-08T15:02:19Z</time>
      </trkpt>
      <trkpt lat="45.79659" lon="2.93763">
        <ele>1073.6</ele>
        <time>2021-08-08T15:02:27Z</time>
      </trkpt>
      <trkpt lat="45.79665" lon="2.93767">
        <ele>1074.2</ele>
        <time>2021-08-08T15:02:39Z</time>
      </trkpt>
      <trkpt lat="45.79666" lon="2.93771">
        <ele>1074.5</ele>
        <time>2021-08-08T15:02:45Z</time>
      </trkpt>
      <trkpt lat="45.79666" lon="2.93771">
        <ele>1074.5</ele>
        <time>2021-08-08T15:02:46Z</time>
      </trkpt>
      <trkpt lat="45.79668" lon="2.93779">
        <ele>1075.3</ele>
        <time>2021-08-08T15:03:05Z</time>
      </trkpt>
      <trkpt lat="45.7967" lon="2.93781">
        <ele>1075.4</ele>
        <time>2021-08-08T15:03:11Z</time>
      </trkpt>
      <trkpt lat="45.79681" lon="2.93788">
        <ele>1076.2</ele>
        <time>2021-08-08T15:03:19Z</time>
      </trkpt>
      <trkpt lat="45.79681" lon="2.93789">
        <ele>1076.2</ele>
        <time>2021-08-08T15:03:20Z</time>
      </trkpt>
      <trkpt lat="45.79683" lon="2.93792">
        <ele>1076.2</ele>
        <time>2021-08-08T15:03:26Z</time>
      </trkpt>
      <trkpt lat="45.79686" lon="2.93796">
        <ele>1076.3</ele>
        <time>2021-08-08T15:03:31Z</time>
      </trkpt>
      <trkpt lat="45.79688" lon="2.93806">
        <ele>1077.1</ele>
        <time>2021-08-08T15:03:49Z</time>
      </trkpt>
      <trkpt lat="45.7969" lon="2.93807">
        <ele>1077.3</ele>
        <time>2021-08-08T15:04:00Z</time>
      </trkpt>
      <trkpt lat="45.79696" lon="2.93806">
        <ele>1078.6</ele>
        <time>2021-08-08T15:04:01Z</time>
      </trkpt>
      <trkpt lat="45.79697" lon="2.93806">
        <ele>1078.8</ele>
        <time>2021-08-08T15:04:02Z</time>
      </trkpt>
      <trkpt lat="45.79698" lon="2.93807">
        <ele>1079.1</ele>
        <time>2021-08-08T15:04:03Z</time>
      </trkpt>
      <trkpt lat="45.79699" lon="2.93808">
        <ele>1080.4</ele>
        <time>2021-08-08T15:04:07Z</time>
      </trkpt>
      <trkpt lat="45.79701" lon="2.93811">
        <ele>1081.2</ele>
        <time>2021-08-08T15:04:12Z</time>
      </trkpt>
      <trkpt lat="45.797" lon="2.93822">
        <ele>1082.3</ele>
        <time>2021-08-08T15:04:17Z</time>
      </trkpt>
      <trkpt lat="45.79701" lon="2.93825">
        <ele>1084.7</ele>
        <time>2021-08-08T15:04:20Z</time>
      </trkpt>
      <trkpt lat="45.79702" lon="2.93825">
        <ele>1085.6</ele>
        <time>2021-08-08T15:04:21Z</time>
      </trkpt>
      <trkpt lat="45.79704" lon="2.93826">
        <ele>1087</ele>
        <time>2021-08-08T15:04:22Z</time>
      </trkpt>
      <trkpt lat="45.79706" lon="2.93828">
        <ele>1089.9</ele>
        <time>2021-08-08T15:04:26Z</time>
      </trkpt>
      <trkpt lat="45.79705" lon="2.93837">
        <ele>1091.5</ele>
        <time>2021-08-08T15:04:31Z</time>
      </trkpt>
      <trkpt lat="45.79703" lon="2.93842">
        <ele>1092.8</ele>
        <time>2021-08-08T15:04:33Z</time>
      </trkpt>
      <trkpt lat="45.79703" lon="2.93845">
        <ele>1092.8</ele>
        <time>2021-08-08T15:04:35Z</time>
      </trkpt>
      <trkpt lat="45.79701" lon="2.93846">
        <ele>1093.3</ele>
        <time>2021-08-08T15:04:36Z</time>
      </trkpt>
      <trkpt lat="45.79701" lon="2.93847">
        <ele>1093.7</ele>
        <time>2021-08-08T15:04:37Z</time>
      </trkpt>
      <trkpt lat="45.797" lon="2.93855">
        <ele>1094.8</ele>
        <time>2021-08-08T15:04:41Z</time>
      </trkpt>
      <trkpt lat="45.797" lon="2.93859">
        <ele>1095.7</ele>
        <time>2021-08-08T15:04:43Z</time>
      </trkpt>
      <trkpt lat="45.79697" lon="2.93869">
        <ele>1099.8</ele>
        <time>2021-08-08T15:04:48Z</time>
      </trkpt>
      <trkpt lat="45.79697" lon="2.9387">
        <ele>1100.1</ele>
        <time>2021-08-08T15:04:49Z</time>
      </trkpt>
      <trkpt lat="45.79698" lon="2.93881">
        <ele>1102.2</ele>
        <time>2021-08-08T15:04:57Z</time>
      </trkpt>
      <trkpt lat="45.79699" lon="2.93888">
        <ele>1104.6</ele>
        <time>2021-08-08T15:05:03Z</time>
      </trkpt>
      <trkpt lat="45.79702" lon="2.93893">
        <ele>1107.7</ele>
        <time>2021-08-08T15:05:10Z</time>
      </trkpt>
      <trkpt lat="45.79701" lon="2.93894">
        <ele>1108.3</ele>
        <time>2021-08-08T15:05:11Z</time>
      </trkpt>
      <trkpt lat="45.79701" lon="2.93895">
        <ele>1108.8</ele>
        <time>2021-08-08T15:05:12Z</time>
      </trkpt>
      <trkpt lat="45.797" lon="2.93896">
        <ele>1109.3</ele>
        <time>2021-08-08T15:05:13Z</time>
      </trkpt>
      <trkpt lat="45.79705" lon="2.939">
        <ele>1111</ele>
        <time>2021-08-08T15:05:18Z</time>
      </trkpt>
      <trkpt lat="45.79705" lon="2.93904">
        <ele>1111.8</ele>
        <time>2021-08-08T15:05:21Z</time>
      </trkpt>
      <trkpt lat="45.79706" lon="2.93907">
        <ele>1112.6</ele>
        <time>2021-08-08T15:05:25Z</time>
      </trkpt>
      <trkpt lat="45.79704" lon="2.93909">
        <ele>1113</ele>
        <time>2021-08-08T15:05:27Z</time>
      </trkpt>
      <trkpt lat="45.79704" lon="2.93914">
        <ele>1114.1</ele>
        <time>2021-08-08T15:05:34Z</time>
      </trkpt>
      <trkpt lat="45.79703" lon="2.93915">
        <ele>1114.5</ele>
        <time>2021-08-08T15:05:35Z</time>
      </trkpt>
      <trkpt lat="45.79701" lon="2.9392">
        <ele>1116.2</ele>
        <time>2021-08-08T15:05:41Z</time>
      </trkpt>
      <trkpt lat="45.79697" lon="2.93922">
        <ele>1118.2</ele>
        <time>2021-08-08T15:05:44Z</time>
      </trkpt>
      <trkpt lat="45.79699" lon="2.93924">
        <ele>1119.6</ele>
        <time>2021-08-08T15:05:57Z</time>
      </trkpt>
      <trkpt lat="45.79686" lon="2.93938">
        <ele>1128.3</ele>
        <time>2021-08-08T15:06:07Z</time>
      </trkpt>
      <trkpt lat="45.79684" lon="2.93939">
        <ele>1128.2</ele>
        <time>2021-08-08T15:06:08Z</time>
      </trkpt>
      <trkpt lat="45.79683" lon="2.93939">
        <ele>1128.6</ele>
        <time>2021-08-08T15:06:09Z</time>
      </trkpt>
      <trkpt lat="45.79686" lon="2.93941">
        <ele>1131.3</ele>
        <time>2021-08-08T15:06:15Z</time>
      </trkpt>
      <trkpt lat="45.79687" lon="2.93943">
        <ele>1134.4</ele>
        <time>2021-08-08T15:06:22Z</time>
      </trkpt>
      <trkpt lat="45.79694" lon="2.93944">
        <ele>1141.4</ele>
        <time>2021-08-08T15:06:37Z</time>
      </trkpt>
      <trkpt lat="45.79692" lon="2.93947">
        <ele>1143.5</ele>
        <time>2021-08-08T15:06:41Z</time>
      </trkpt>
      <trkpt lat="45.79694" lon="2.9395">
        <ele>1149.3</ele>
        <time>2021-08-08T15:06:50Z</time>
      </trkpt>
      <trkpt lat="45.79694" lon="2.9395">
        <ele>1149.6</ele>
        <time>2021-08-08T15:06:51Z</time>
      </trkpt>
      <trkpt lat="45.79691" lon="2.93962">
        <ele>1155.6</ele>
        <time>2021-08-08T15:07:11Z</time>
      </trkpt>
      <trkpt lat="45.79692" lon="2.93964">
        <ele>1157.2</ele>
        <time>2021-08-08T15:07:16Z</time>
      </trkpt>
      <trkpt lat="45.79694" lon="2.93966">
        <ele>1161</ele>
        <time>2021-08-08T15:08:30Z</time>
      </trkpt>
      <trkpt lat="45.79698" lon="2.93975">
        <ele>1178.7</ele>
        <time>2021-08-08T15:08:31Z</time>
      </trkpt>
      <trkpt lat="45.79701" lon="2.93976">
        <ele>1178.8</ele>
        <time>2021-08-08T15:08:35Z</time>
      </trkpt>
      <trkpt lat="45.79702" lon="2.93977">
        <ele>1178.9</ele>
        <time>2021-08-08T15:08:36Z</time>
      </trkpt>
      <trkpt lat="45.79718" lon="2.93985">
        <ele>1181.2</ele>
        <time>2021-08-08T15:08:52Z</time>
      </trkpt>
      <trkpt lat="45.7972" lon="2.93985">
        <ele>1181.4</ele>
        <time>2021-08-08T15:08:53Z</time>
      </trkpt>
      <trkpt lat="45.79721" lon="2.93986">
        <ele>1181.7</ele>
        <time>2021-08-08T15:08:54Z</time>
      </trkpt>
      <trkpt lat="45.79729" lon="2.93993">
        <ele>1182.3</ele>
        <time>2021-08-08T15:09:02Z</time>
      </trkpt>
      <trkpt lat="45.79735" lon="2.94001">
        <ele>1182.9</ele>
        <time>2021-08-08T15:09:09Z</time>
      </trkpt>
      <trkpt lat="45.79736" lon="2.94002">
        <ele>1183</ele>
        <time>2021-08-08T15:09:10Z</time>
      </trkpt>
      <trkpt lat="45.79743" lon="2.94011">
        <ele>1184.1</ele>
        <time>2021-08-08T15:09:19Z</time>
      </trkpt>
      <trkpt lat="45.79746" lon="2.94021">
        <ele>1185</ele>
        <time>2021-08-08T15:09:25Z</time>
      </trkpt>
      <trkpt lat="45.79748" lon="2.94022">
        <ele>1185.2</ele>
        <time>2021-08-08T15:09:26Z</time>
      </trkpt>
      <trkpt lat="45.79751" lon="2.94032">
        <ele>1186.6</ele>
        <time>2021-08-08T15:09:33Z</time>
      </trkpt>
      <trkpt lat="45.79758" lon="2.94042">
        <ele>1188.7</ele>
        <time>2021-08-08T15:09:43Z</time>
      </trkpt>
      <trkpt lat="45.79758" lon="2.94043">
        <ele>1188.9</ele>
        <time>2021-08-08T15:09:44Z</time>
      </trkpt>
      <trkpt lat="45.7976" lon="2.94047">
        <ele>1189.6</ele>
        <time>2021-08-08T15:09:48Z</time>
      </trkpt>
      <trkpt lat="45.7976" lon="2.94056">
        <ele>1191.3</ele>
        <time>2021-08-08T15:09:57Z</time>
      </trkpt>
      <trkpt lat="45.79763" lon="2.9406">
        <ele>1192</ele>
        <time>2021-08-08T15:10:01Z</time>
      </trkpt>
      <trkpt lat="45.79764" lon="2.94065">
        <ele>1192.5</ele>
        <time>2021-08-08T15:10:05Z</time>
      </trkpt>
      <trkpt lat="45.79764" lon="2.94065">
        <ele>1192.6</ele>
        <time>2021-08-08T15:10:06Z</time>
      </trkpt>
      <trkpt lat="45.79766" lon="2.94079">
        <ele>1194</ele>
        <time>2021-08-08T15:10:19Z</time>
      </trkpt>
      <trkpt lat="45.79767" lon="2.94082">
        <ele>1194.6</ele>
        <time>2021-08-08T15:10:23Z</time>
      </trkpt>
      <trkpt lat="45.79765" lon="2.94089">
        <ele>1195.7</ele>
        <time>2021-08-08T15:10:32Z</time>
      </trkpt>
      <trkpt lat="45.79763" lon="2.9409">
        <ele>1195.7</ele>
        <time>2021-08-08T15:10:33Z</time>
      </trkpt>
      <trkpt lat="45.79765" lon="2.94095">
        <ele>1196.5</ele>
        <time>2021-08-08T15:10:38Z</time>
      </trkpt>
      <trkpt lat="45.79764" lon="2.94101">
        <ele>1197.5</ele>
        <time>2021-08-08T15:10:45Z</time>
      </trkpt>
      <trkpt lat="45.79768" lon="2.94114">
        <ele>1201</ele>
        <time>2021-08-08T15:10:59Z</time>
      </trkpt>
      <trkpt lat="45.79767" lon="2.94114">
        <ele>1201.3</ele>
        <time>2021-08-08T15:11:00Z</time>
      </trkpt>
      <trkpt lat="45.7977" lon="2.94128">
        <ele>1204.8</ele>
        <time>2021-08-08T15:11:15Z</time>
      </trkpt>
      <trkpt lat="45.79771" lon="2.94139">
        <ele>1206.7</ele>
        <time>2021-08-08T15:11:25Z</time>
      </trkpt>
      <trkpt lat="45.79771" lon="2.9414">
        <ele>1206.9</ele>
        <time>2021-08-08T15:11:26Z</time>
      </trkpt>
      <trkpt lat="45.7977" lon="2.94165">
        <ele>1210.8</ele>
        <time>2021-08-08T15:11:53Z</time>
      </trkpt>
      <trkpt lat="45.7977" lon="2.94165">
        <ele>1210.8</ele>
        <time>2021-08-08T15:11:54Z</time>
      </trkpt>
      <trkpt lat="45.79767" lon="2.94181">
        <ele>1212.8</ele>
        <time>2021-08-08T15:12:09Z</time>
      </trkpt>
      <trkpt lat="45.79764" lon="2.94187">
        <ele>1214.5</ele>
        <time>2021-08-08T15:12:17Z</time>
      </trkpt>
      <trkpt lat="45.79764" lon="2.94187">
        <ele>1214.8</ele>
        <time>2021-08-08T15:12:18Z</time>
      </trkpt>
      <trkpt lat="45.7976" lon="2.94204">
        <ele>1220.3</ele>
        <time>2021-08-08T15:12:41Z</time>
      </trkpt>
      <trkpt lat="45.7976" lon="2.94207">
        <ele>1221.5</ele>
        <time>2021-08-08T15:12:46Z</time>
      </trkpt>
      <trkpt lat="45.79759" lon="2.94211">
        <ele>1222.7</ele>
        <time>2021-08-08T15:12:51Z</time>
      </trkpt>
      <trkpt lat="45.79759" lon="2.94212">
        <ele>1222.9</ele>
        <time>2021-08-08T15:12:52Z</time>
      </trkpt>
      <trkpt lat="45.79758" lon="2.9422">
        <ele>1225</ele>
        <time>2021-08-08T15:13:01Z</time>
      </trkpt>
      <trkpt lat="45.79751" lon="2.9423">
        <ele>1230.7</ele>
        <time>2021-08-08T15:13:20Z</time>
      </trkpt>
      <trkpt lat="45.7975" lon="2.94231">
        <ele>1231.2</ele>
        <time>2021-08-08T15:13:21Z</time>
      </trkpt>
      <trkpt lat="45.79746" lon="2.94236">
        <ele>1233</ele>
        <time>2021-08-08T15:13:30Z</time>
      </trkpt>
      <trkpt lat="45.79742" lon="2.9424">
        <ele>1235</ele>
        <time>2021-08-08T15:13:38Z</time>
      </trkpt>
      <trkpt lat="45.79735" lon="2.94247">
        <ele>1237.6</ele>
        <time>2021-08-08T15:13:50Z</time>
      </trkpt>
      <trkpt lat="45.79735" lon="2.94248">
        <ele>1237.8</ele>
        <time>2021-08-08T15:13:51Z</time>
      </trkpt>
      <trkpt lat="45.79729" lon="2.94255">
        <ele>1243.2</ele>
        <time>2021-08-08T15:14:11Z</time>
      </trkpt>
      <trkpt lat="45.79723" lon="2.94259">
        <ele>1248.7</ele>
        <time>2021-08-08T15:14:26Z</time>
      </trkpt>
      <trkpt lat="45.79721" lon="2.94263">
        <ele>1249.8</ele>
        <time>2021-08-08T15:14:30Z</time>
      </trkpt>
      <trkpt lat="45.7972" lon="2.94263">
        <ele>1250</ele>
        <time>2021-08-08T15:14:31Z</time>
      </trkpt>
      <trkpt lat="45.79717" lon="2.94266">
        <ele>1251.4</ele>
        <time>2021-08-08T15:14:35Z</time>
      </trkpt>
      <trkpt lat="45.79715" lon="2.94266">
        <ele>1252.4</ele>
        <time>2021-08-08T15:14:39Z</time>
      </trkpt>
      <trkpt lat="45.7971" lon="2.94268">
        <ele>1253</ele>
        <time>2021-08-08T15:14:45Z</time>
      </trkpt>
      <trkpt lat="45.79703" lon="2.9427">
        <ele>1254.1</ele>
        <time>2021-08-08T15:14:55Z</time>
      </trkpt>
      <trkpt lat="45.79702" lon="2.94271">
        <ele>1254.2</ele>
        <time>2021-08-08T15:14:56Z</time>
      </trkpt>
      <trkpt lat="45.79699" lon="2.9427">
        <ele>1254.6</ele>
        <time>2021-08-08T15:15:01Z</time>
      </trkpt>
      <trkpt lat="45.79693" lon="2.94273">
        <ele>1255.9</ele>
        <time>2021-08-08T15:15:08Z</time>
      </trkpt>
      <trkpt lat="45.79685" lon="2.94273">
        <ele>1256.4</ele>
        <time>2021-08-08T15:15:17Z</time>
      </trkpt>
      <trkpt lat="45.79684" lon="2.94273">
        <ele>1256.5</ele>
        <time>2021-08-08T15:15:18Z</time>
      </trkpt>
      <trkpt lat="45.79671" lon="2.94275">
        <ele>1257.8</ele>
        <time>2021-08-08T15:15:32Z</time>
      </trkpt>
      <trkpt lat="45.79668" lon="2.94274">
        <ele>1258</ele>
        <time>2021-08-08T15:15:36Z</time>
      </trkpt>
      <trkpt lat="45.79668" lon="2.94273">
        <ele>1258</ele>
        <time>2021-08-08T15:15:37Z</time>
      </trkpt>
      <trkpt lat="45.79662" lon="2.94269">
        <ele>1250.4</ele>
        <time>2021-08-08T15:17:43Z</time>
      </trkpt>
      <trkpt lat="45.79652" lon="2.94267">
        <ele>1250.8</ele>
        <time>2021-08-08T15:17:53Z</time>
      </trkpt>
      <trkpt lat="45.79651" lon="2.94267">
        <ele>1250.8</ele>
        <time>2021-08-08T15:17:54Z</time>
      </trkpt>
      <trkpt lat="45.79646" lon="2.94264">
        <ele>1250.4</ele>
        <time>2021-08-08T15:18:00Z</time>
      </trkpt>
      <trkpt lat="45.79636" lon="2.94254">
        <ele>1249.5</ele>
        <time>2021-08-08T15:18:12Z</time>
      </trkpt>
      <trkpt lat="45.79635" lon="2.94253">
        <ele>1249.4</ele>
        <time>2021-08-08T15:18:13Z</time>
      </trkpt>
      <trkpt lat="45.79622" lon="2.94245">
        <ele>1247.1</ele>
        <time>2021-08-08T15:18:33Z</time>
      </trkpt>
      <trkpt lat="45.79619" lon="2.94241">
        <ele>1246.3</ele>
        <time>2021-08-08T15:18:37Z</time>
      </trkpt>
      <trkpt lat="45.79619" lon="2.9424">
        <ele>1245.9</ele>
        <time>2021-08-08T15:18:38Z</time>
      </trkpt>
      <trkpt lat="45.79615" lon="2.9423">
        <ele>1239.5</ele>
        <time>2021-08-08T15:19:09Z</time>
      </trkpt>
      <trkpt lat="45.79613" lon="2.94228">
        <ele>1239.7</ele>
        <time>2021-08-08T15:19:11Z</time>
      </trkpt>
      <trkpt lat="45.79608" lon="2.9422">
        <ele>1239.6</ele>
        <time>2021-08-08T15:19:19Z</time>
      </trkpt>
      <trkpt lat="45.79608" lon="2.94218">
        <ele>1239.6</ele>
        <time>2021-08-08T15:19:20Z</time>
      </trkpt>
      <trkpt lat="45.79605" lon="2.94214">
        <ele>1239.4</ele>
        <time>2021-08-08T15:19:23Z</time>
      </trkpt>
      <trkpt lat="45.79601" lon="2.94209">
        <ele>1238.5</ele>
        <time>2021-08-08T15:19:29Z</time>
      </trkpt>
      <trkpt lat="45.79597" lon="2.94201">
        <ele>1236.1</ele>
        <time>2021-08-08T15:19:37Z</time>
      </trkpt>
      <trkpt lat="45.79597" lon="2.942">
        <ele>1235.9</ele>
        <time>2021-08-08T15:19:38Z</time>
      </trkpt>
      <trkpt lat="45.79589" lon="2.94186">
        <ele>1230.9</ele>
        <time>2021-08-08T15:19:55Z</time>
      </trkpt>
      <trkpt lat="45.79587" lon="2.9418">
        <ele>1227.7</ele>
        <time>2021-08-08T15:20:01Z</time>
      </trkpt>
      <trkpt lat="45.79586" lon="2.94179">
        <ele>1227.2</ele>
        <time>2021-08-08T15:20:02Z</time>
      </trkpt>
      <trkpt lat="45.79582" lon="2.94163">
        <ele>1218.8</ele>
        <time>2021-08-08T15:20:14Z</time>
      </trkpt>
      <trkpt lat="45.79577" lon="2.94156">
        <ele>1215.6</ele>
        <time>2021-08-08T15:20:20Z</time>
      </trkpt>
      <trkpt lat="45.79577" lon="2.94155">
        <ele>1215.1</ele>
        <time>2021-08-08T15:20:21Z</time>
      </trkpt>
      <trkpt lat="45.79575" lon="2.94132">
        <ele>1210.9</ele>
        <time>2021-08-08T15:20:34Z</time>
      </trkpt>
      <trkpt lat="45.79574" lon="2.9413">
        <ele>1210.7</ele>
        <time>2021-08-08T15:20:35Z</time>
      </trkpt>
      <trkpt lat="45.79575" lon="2.94123">
        <ele>1209.4</ele>
        <time>2021-08-08T15:20:40Z</time>
      </trkpt>
      <trkpt lat="45.79574" lon="2.94115">
        <ele>1208.5</ele>
        <time>2021-08-08T15:20:45Z</time>
      </trkpt>
      <trkpt lat="45.79575" lon="2.94107">
        <ele>1207.5</ele>
        <time>2021-08-08T15:20:49Z</time>
      </trkpt>
      <trkpt lat="45.79575" lon="2.94105">
        <ele>1207.2</ele>
        <time>2021-08-08T15:20:50Z</time>
      </trkpt>
      <trkpt lat="45.79576" lon="2.94083">
        <ele>1205.8</ele>
        <time>2021-08-08T15:20:59Z</time>
      </trkpt>
      <trkpt lat="45.79575" lon="2.94081">
        <ele>1205.7</ele>
        <time>2021-08-08T15:21:00Z</time>
      </trkpt>
      <trkpt lat="45.79575" lon="2.9406">
        <ele>1204.9</ele>
        <time>2021-08-08T15:21:09Z</time>
      </trkpt>
      <trkpt lat="45.79575" lon="2.94057">
        <ele>1205</ele>
        <time>2021-08-08T15:21:10Z</time>
      </trkpt>
      <trkpt lat="45.79576" lon="2.94036">
        <ele>1207</ele>
        <time>2021-08-08T15:21:20Z</time>
      </trkpt>
      <trkpt lat="45.79577" lon="2.94034">
        <ele>1207.3</ele>
        <time>2021-08-08T15:21:21Z</time>
      </trkpt>
      <trkpt lat="45.79586" lon="2.94016">
        <ele>1206.7</ele>
        <time>2021-08-08T15:21:32Z</time>
      </trkpt>
      <trkpt lat="45.79587" lon="2.94015">
        <ele>1206.5</ele>
        <time>2021-08-08T15:21:33Z</time>
      </trkpt>
      <trkpt lat="45.79593" lon="2.94007">
        <ele>1205.3</ele>
        <time>2021-08-08T15:21:39Z</time>
      </trkpt>
      <trkpt lat="45.79599" lon="2.94003">
        <ele>1205.5</ele>
        <time>2021-08-08T15:21:43Z</time>
      </trkpt>
      <trkpt lat="45.79599" lon="2.94001">
        <ele>1205.5</ele>
        <time>2021-08-08T15:21:44Z</time>
      </trkpt>
      <trkpt lat="45.79608" lon="2.93992">
        <ele>1205.6</ele>
        <time>2021-08-08T15:21:53Z</time>
      </trkpt>
      <trkpt lat="45.79615" lon="2.93988">
        <ele>1206.4</ele>
        <time>2021-08-08T15:22:02Z</time>
      </trkpt>
      <trkpt lat="45.79616" lon="2.93988">
        <ele>1206.3</ele>
        <time>2021-08-08T15:22:03Z</time>
      </trkpt>
      <trkpt lat="45.79623" lon="2.93985">
        <ele>1204.9</ele>
        <time>2021-08-08T15:22:12Z</time>
      </trkpt>
      <trkpt lat="45.79633" lon="2.93979">
        <ele>1201.8</ele>
        <time>2021-08-08T15:22:23Z</time>
      </trkpt>
      <trkpt lat="45.79633" lon="2.93979">
        <ele>1201.2</ele>
        <time>2021-08-08T15:22:24Z</time>
      </trkpt>
      <trkpt lat="45.79651" lon="2.93975">
        <ele>1193.7</ele>
        <time>2021-08-08T15:22:41Z</time>
      </trkpt>
      <trkpt lat="45.79652" lon="2.93975">
        <ele>1193.1</ele>
        <time>2021-08-08T15:22:42Z</time>
      </trkpt>
      <trkpt lat="45.79656" lon="2.93975">
        <ele>1190.7</ele>
        <time>2021-08-08T15:22:47Z</time>
      </trkpt>
      <trkpt lat="45.79669" lon="2.93973">
        <ele>1186.3</ele>
        <time>2021-08-08T15:22:59Z</time>
      </trkpt>
      <trkpt lat="45.7967" lon="2.93973">
        <ele>1186.1</ele>
        <time>2021-08-08T15:23:00Z</time>
      </trkpt>
      <trkpt lat="45.79678" lon="2.93973">
        <ele>1184.5</ele>
        <time>2021-08-08T15:23:05Z</time>
      </trkpt>
      <trkpt lat="45.79684" lon="2.93972">
        <ele>1183</ele>
        <time>2021-08-08T15:23:09Z</time>
      </trkpt>
      <trkpt lat="45.79686" lon="2.93972">
        <ele>1182.6</ele>
        <time>2021-08-08T15:23:10Z</time>
      </trkpt>
      <trkpt lat="45.79693" lon="2.93969">
        <ele>1180.8</ele>
        <time>2021-08-08T15:23:15Z</time>
      </trkpt>
      <trkpt lat="45.79698" lon="2.93963">
        <ele>1179.2</ele>
        <time>2021-08-08T15:23:22Z</time>
      </trkpt>
      <trkpt lat="45.79701" lon="2.93961">
        <ele>1177.1</ele>
        <time>2021-08-08T15:23:29Z</time>
      </trkpt>
      <trkpt lat="45.79701" lon="2.9396">
        <ele>1176.8</ele>
        <time>2021-08-08T15:23:30Z</time>
      </trkpt>
      <trkpt lat="45.797" lon="2.93953">
        <ele>1175</ele>
        <time>2021-08-08T15:23:42Z</time>
      </trkpt>
      <trkpt lat="45.797" lon="2.9395">
        <ele>1174.4</ele>
        <time>2021-08-08T15:23:45Z</time>
      </trkpt>
      <trkpt lat="45.797" lon="2.93936">
        <ele>1171.8</ele>
        <time>2021-08-08T15:24:10Z</time>
      </trkpt>
      <trkpt lat="45.797" lon="2.93935">
        <ele>1171.9</ele>
        <time>2021-08-08T15:24:11Z</time>
      </trkpt>
      <trkpt lat="45.797" lon="2.93932">
        <ele>1172.7</ele>
        <time>2021-08-08T15:24:29Z</time>
      </trkpt>
      <trkpt lat="45.79698" lon="2.93921">
        <ele>1172.6</ele>
        <time>2021-08-08T15:24:48Z</time>
      </trkpt>
      <trkpt lat="45.79699" lon="2.93918">
        <ele>1172.8</ele>
        <time>2021-08-08T15:24:52Z</time>
      </trkpt>
      <trkpt lat="45.79698" lon="2.9391">
        <ele>1172.2</ele>
        <time>2021-08-08T15:25:06Z</time>
      </trkpt>
      <trkpt lat="45.79698" lon="2.9391">
        <ele>1172.1</ele>
        <time>2021-08-08T15:25:07Z</time>
      </trkpt>
      <trkpt lat="45.797" lon="2.93897">
        <ele>1170.1</ele>
        <time>2021-08-08T15:25:27Z</time>
      </trkpt>
      <trkpt lat="45.79699" lon="2.93888">
        <ele>1169.3</ele>
        <time>2021-08-08T15:25:31Z</time>
      </trkpt>
      <trkpt lat="45.79699" lon="2.93885">
        <ele>1169.2</ele>
        <time>2021-08-08T15:25:32Z</time>
      </trkpt>
      <trkpt lat="45.79697" lon="2.93863">
        <ele>1167.2</ele>
        <time>2021-08-08T15:25:43Z</time>
      </trkpt>
      <trkpt lat="45.79697" lon="2.9386">
        <ele>1167.1</ele>
        <time>2021-08-08T15:25:44Z</time>
      </trkpt>
      <trkpt lat="45.79698" lon="2.93845">
        <ele>1165.3</ele>
        <time>2021-08-08T15:25:52Z</time>
      </trkpt>
      <trkpt lat="45.79697" lon="2.93837">
        <ele>1164.6</ele>
        <time>2021-08-08T15:25:55Z</time>
      </trkpt>
      <trkpt lat="45.79697" lon="2.93835">
        <ele>1164.5</ele>
        <time>2021-08-08T15:25:56Z</time>
      </trkpt>
      <trkpt lat="45.797" lon="2.93828">
        <ele>1163.8</ele>
        <time>2021-08-08T15:26:00Z</time>
      </trkpt>
      <trkpt lat="45.79699" lon="2.93818">
        <ele>1161.5</ele>
        <time>2021-08-08T15:26:05Z</time>
      </trkpt>
      <trkpt lat="45.797" lon="2.9381">
        <ele>1159.2</ele>
        <time>2021-08-08T15:26:11Z</time>
      </trkpt>
      <trkpt lat="45.797" lon="2.93808">
        <ele>1158.7</ele>
        <time>2021-08-08T15:26:12Z</time>
      </trkpt>
      <trkpt lat="45.79701" lon="2.93797">
        <ele>1155.7</ele>
        <time>2021-08-08T15:26:20Z</time>
      </trkpt>
      <trkpt lat="45.79696" lon="2.93785">
        <ele>1151.9</ele>
        <time>2021-08-08T15:26:31Z</time>
      </trkpt>
      <trkpt lat="45.79695" lon="2.93784">
        <ele>1151.7</ele>
        <time>2021-08-08T15:26:32Z</time>
      </trkpt>
      <trkpt lat="45.79691" lon="2.93778">
        <ele>1151</ele>
        <time>2021-08-08T15:26:38Z</time>
      </trkpt>
      <trkpt lat="45.79686" lon="2.93776">
        <ele>1148.6</ele>
        <time>2021-08-08T15:26:47Z</time>
      </trkpt>
      <trkpt lat="45.7968" lon="2.93768">
        <ele>1145</ele>
        <time>2021-08-08T15:26:59Z</time>
      </trkpt>
      <trkpt lat="45.7968" lon="2.93767">
        <ele>1144.8</ele>
        <time>2021-08-08T15:27:00Z</time>
      </trkpt>
      <trkpt lat="45.79673" lon="2.93757">
        <ele>1140.7</ele>
        <time>2021-08-08T15:27:17Z</time>
      </trkpt>
      <trkpt lat="45.79669" lon="2.93754">
        <ele>1139.9</ele>
        <time>2021-08-08T15:27:21Z</time>
      </trkpt>
      <trkpt lat="45.79666" lon="2.93751">
        <ele>1139.1</ele>
        <time>2021-08-08T15:27:24Z</time>
      </trkpt>
      <trkpt lat="45.79665" lon="2.9375">
        <ele>1138.8</ele>
        <time>2021-08-08T15:27:25Z</time>
      </trkpt>
      <trkpt lat="45.79662" lon="2.93749">
        <ele>1138</ele>
        <time>2021-08-08T15:27:28Z</time>
      </trkpt>
      <trkpt lat="45.79657" lon="2.93743">
        <ele>1136.5</ele>
        <time>2021-08-08T15:27:34Z</time>
      </trkpt>
      <trkpt lat="45.79651" lon="2.93735">
        <ele>1133.6</ele>
        <time>2021-08-08T15:27:43Z</time>
      </trkpt>
      <trkpt lat="45.7965" lon="2.93734">
        <ele>1133.3</ele>
        <time>2021-08-08T15:27:44Z</time>
      </trkpt>
      <trkpt lat="45.79647" lon="2.9373">
        <ele>1131.6</ele>
        <time>2021-08-08T15:27:49Z</time>
      </trkpt>
      <trkpt lat="45.79643" lon="2.93729">
        <ele>1130.1</ele>
        <time>2021-08-08T15:27:52Z</time>
      </trkpt>
      <trkpt lat="45.79637" lon="2.93721">
        <ele>1127.5</ele>
        <time>2021-08-08T15:27:59Z</time>
      </trkpt>
      <trkpt lat="45.79636" lon="2.9372">
        <ele>1127.1</ele>
        <time>2021-08-08T15:28:00Z</time>
      </trkpt>
      <trkpt lat="45.79627" lon="2.93713">
        <ele>1124.1</ele>
        <time>2021-08-08T15:28:09Z</time>
      </trkpt>
      <trkpt lat="45.79624" lon="2.93704">
        <ele>1122.1</ele>
        <time>2021-08-08T15:28:15Z</time>
      </trkpt>
      <trkpt lat="45.79623" lon="2.93703">
        <ele>1121.7</ele>
        <time>2021-08-08T15:28:16Z</time>
      </trkpt>
      <trkpt lat="45.79624" lon="2.93697">
        <ele>1119.8</ele>
        <time>2021-08-08T15:28:22Z</time>
      </trkpt>
      <trkpt lat="45.79628" lon="2.93693">
        <ele>1118.2</ele>
        <time>2021-08-08T15:28:27Z</time>
      </trkpt>
      <trkpt lat="45.79635" lon="2.93691">
        <ele>1115.6</ele>
        <time>2021-08-08T15:28:35Z</time>
      </trkpt>
      <trkpt lat="45.79636" lon="2.93691">
        <ele>1115.3</ele>
        <time>2021-08-08T15:28:36Z</time>
      </trkpt>
      <trkpt lat="45.79647" lon="2.93692">
        <ele>1112.3</ele>
        <time>2021-08-08T15:28:47Z</time>
      </trkpt>
      <trkpt lat="45.79653" lon="2.9369">
        <ele>1111.3</ele>
        <time>2021-08-08T15:28:51Z</time>
      </trkpt>
      <trkpt lat="45.79654" lon="2.93689">
        <ele>1111</ele>
        <time>2021-08-08T15:28:52Z</time>
      </trkpt>
      <trkpt lat="45.79659" lon="2.93686">
        <ele>1109.5</ele>
        <time>2021-08-08T15:28:57Z</time>
      </trkpt>
      <trkpt lat="45.7967" lon="2.93685">
        <ele>1106.3</ele>
        <time>2021-08-08T15:29:10Z</time>
      </trkpt>
      <trkpt lat="45.79671" lon="2.93685">
        <ele>1106.3</ele>
        <time>2021-08-08T15:29:11Z</time>
      </trkpt>
      <trkpt lat="45.79676" lon="2.93684">
        <ele>1106.3</ele>
        <time>2021-08-08T15:29:16Z</time>
      </trkpt>
      <trkpt lat="45.79681" lon="2.93686">
        <ele>1106.2</ele>
        <time>2021-08-08T15:29:20Z</time>
      </trkpt>
      <trkpt lat="45.79685" lon="2.93685">
        <ele>1106.3</ele>
        <time>2021-08-08T15:29:22Z</time>
      </trkpt>
      <trkpt lat="45.79686" lon="2.93684">
        <ele>1106.3</ele>
        <time>2021-08-08T15:29:23Z</time>
      </trkpt>
      <trkpt lat="45.79689" lon="2.93685">
        <ele>1106.2</ele>
        <time>2021-08-08T15:29:25Z</time>
      </trkpt>
      <trkpt lat="45.79699" lon="2.93683">
        <ele>1106.5</ele>
        <time>2021-08-08T15:29:34Z</time>
      </trkpt>
      <trkpt lat="45.79701" lon="2.93687">
        <ele>1105</ele>
        <time>2021-08-08T15:29:38Z</time>
      </trkpt>
      <trkpt lat="45.79701" lon="2.93688">
        <ele>1104.8</ele>
        <time>2021-08-08T15:29:39Z</time>
      </trkpt>
      <trkpt lat="45.797" lon="2.9369">
        <ele>1105.5</ele>
        <time>2021-08-08T15:30:01Z</time>
      </trkpt>
      <trkpt lat="45.79701" lon="2.93695">
        <ele>1106.7</ele>
        <time>2021-08-08T15:30:54Z</time>
      </trkpt>
      <trkpt lat="45.79705" lon="2.93691">
        <ele>1110.2</ele>
        <time>2021-08-08T15:30:55Z</time>
      </trkpt>
      <trkpt lat="45.79703" lon="2.9369">
        <ele>1112.3</ele>
        <time>2021-08-08T15:31:10Z</time>
      </trkpt>
      <trkpt lat="45.797" lon="2.93683">
        <ele>1112.9</ele>
        <time>2021-08-08T15:31:18Z</time>
      </trkpt>
      <trkpt lat="45.79699" lon="2.93682">
        <ele>1112.8</ele>
        <time>2021-08-08T15:31:19Z</time>
      </trkpt>
      <trkpt lat="45.79694" lon="2.9367">
        <ele>1113.7</ele>
        <time>2021-08-08T15:31:28Z</time>
      </trkpt>
      <trkpt lat="45.79689" lon="2.93664">
        <ele>1114.7</ele>
        <time>2021-08-08T15:31:33Z</time>
      </trkpt>
      <trkpt lat="45.79688" lon="2.93663">
        <ele>1114.8</ele>
        <time>2021-08-08T15:31:34Z</time>
      </trkpt>
      <trkpt lat="45.79683" lon="2.93654">
        <ele>1115.9</ele>
        <time>2021-08-08T15:31:38Z</time>
      </trkpt>
      <trkpt lat="45.79675" lon="2.93647">
        <ele>1116.1</ele>
        <time>2021-08-08T15:31:47Z</time>
      </trkpt>
      <trkpt lat="45.79674" lon="2.93647">
        <ele>1116.1</ele>
        <time>2021-08-08T15:31:48Z</time>
      </trkpt>
      <trkpt lat="45.79665" lon="2.93639">
        <ele>1116.9</ele>
        <time>2021-08-08T15:32:00Z</time>
      </trkpt>
      <trkpt lat="45.79662" lon="2.93632">
        <ele>1117.1</ele>
        <time>2021-08-08T15:32:06Z</time>
      </trkpt>
      <trkpt lat="45.79662" lon="2.93631">
        <ele>1117</ele>
        <time>2021-08-08T15:32:07Z</time>
      </trkpt>
      <trkpt lat="45.79659" lon="2.93626">
        <ele>1116.8</ele>
        <time>2021-08-08T15:32:12Z</time>
      </trkpt>
      <trkpt lat="45.79655" lon="2.93623">
        <ele>1116.4</ele>
        <time>2021-08-08T15:32:16Z</time>
      </trkpt>
      <trkpt lat="45.79651" lon="2.93613">
        <ele>1114</ele>
        <time>2021-08-08T15:32:28Z</time>
      </trkpt>
      <trkpt lat="45.79651" lon="2.93613">
        <ele>1114</ele>
        <time>2021-08-08T15:32:29Z</time>
      </trkpt>
      <trkpt lat="45.79642" lon="2.93608">
        <ele>1113.5</ele>
        <time>2021-08-08T15:32:38Z</time>
      </trkpt>
      <trkpt lat="45.79638" lon="2.93608">
        <ele>1113.1</ele>
        <time>2021-08-08T15:32:42Z</time>
      </trkpt>
      <trkpt lat="45.79635" lon="2.93607">
        <ele>1112.4</ele>
        <time>2021-08-08T15:32:46Z</time>
      </trkpt>
      <trkpt lat="45.79635" lon="2.93607">
        <ele>1112.2</ele>
        <time>2021-08-08T15:32:47Z</time>
      </trkpt>
      <trkpt lat="45.79631" lon="2.93605">
        <ele>1112</ele>
        <time>2021-08-08T15:32:50Z</time>
      </trkpt>
      <trkpt lat="45.79618" lon="2.93603">
        <ele>1112</ele>
        <time>2021-08-08T15:32:58Z</time>
      </trkpt>
      <trkpt lat="45.79617" lon="2.93602">
        <ele>1111.8</ele>
        <time>2021-08-08T15:32:59Z</time>
      </trkpt>
      <trkpt lat="45.79615" lon="2.93601">
        <ele>1111.5</ele>
        <time>2021-08-08T15:33:02Z</time>
      </trkpt>
      <trkpt lat="45.7961" lon="2.9359">
        <ele>1110.2</ele>
        <time>2021-08-08T15:33:08Z</time>
      </trkpt>
      <trkpt lat="45.79607" lon="2.93587">
        <ele>1109.8</ele>
        <time>2021-08-08T15:33:11Z</time>
      </trkpt>
      <trkpt lat="45.79605" lon="2.93587">
        <ele>1109.5</ele>
        <time>2021-08-08T15:33:12Z</time>
      </trkpt>
      <trkpt lat="45.79602" lon="2.93586">
        <ele>1109.1</ele>
        <time>2021-08-08T15:33:15Z</time>
      </trkpt>
      <trkpt lat="45.796" lon="2.93586">
        <ele>1108.9</ele>
        <time>2021-08-08T15:33:18Z</time>
      </trkpt>
      <trkpt lat="45.79599" lon="2.93588">
        <ele>1108.4</ele>
        <time>2021-08-08T15:33:40Z</time>
      </trkpt>
      <trkpt lat="45.79599" lon="2.936">
        <ele>1108.1</ele>
        <time>2021-08-08T15:33:47Z</time>
      </trkpt>
      <trkpt lat="45.79597" lon="2.93599">
        <ele>1107.7</ele>
        <time>2021-08-08T15:33:54Z</time>
      </trkpt>
      <trkpt lat="45.79594" lon="2.93595">
        <ele>1107.7</ele>
        <time>2021-08-08T15:33:58Z</time>
      </trkpt>
      <trkpt lat="45.79593" lon="2.93594">
        <ele>1107.7</ele>
        <time>2021-08-08T15:33:59Z</time>
      </trkpt>
      <trkpt lat="45.79585" lon="2.93584">
        <ele>1107.4</ele>
        <time>2021-08-08T15:34:07Z</time>
      </trkpt>
      <trkpt lat="45.79581" lon="2.93582">
        <ele>1107.1</ele>
        <time>2021-08-08T15:34:09Z</time>
      </trkpt>
      <trkpt lat="45.7958" lon="2.93582">
        <ele>1106.9</ele>
        <time>2021-08-08T15:34:10Z</time>
      </trkpt>
      <trkpt lat="45.79577" lon="2.9358">
        <ele>1106.3</ele>
        <time>2021-08-08T15:34:13Z</time>
      </trkpt>
      <trkpt lat="45.79571" lon="2.9358">
        <ele>1104.6</ele>
        <time>2021-08-08T15:34:18Z</time>
      </trkpt>
      <trkpt lat="45.79569" lon="2.93578">
        <ele>1103.8</ele>
        <time>2021-08-08T15:34:22Z</time>
      </trkpt>
      <trkpt lat="45.79564" lon="2.93576">
        <ele>1103.1</ele>
        <time>2021-08-08T15:34:29Z</time>
      </trkpt>
      <trkpt lat="45.79563" lon="2.93574">
        <ele>1103</ele>
        <time>2021-08-08T15:34:30Z</time>
      </trkpt>
      <trkpt lat="45.79563" lon="2.93573">
        <ele>1102.8</ele>
        <time>2021-08-08T15:34:31Z</time>
      </trkpt>
      <trkpt lat="45.79561" lon="2.93572">
        <ele>1101.5</ele>
        <time>2021-08-08T15:34:39Z</time>
      </trkpt>
      <trkpt lat="45.79559" lon="2.93572">
        <ele>1100.3</ele>
        <time>2021-08-08T15:34:42Z</time>
      </trkpt>
      <trkpt lat="45.79556" lon="2.9357">
        <ele>1099.4</ele>
        <time>2021-08-08T15:34:47Z</time>
      </trkpt>
      <trkpt lat="45.79554" lon="2.93565">
        <ele>1096.8</ele>
        <time>2021-08-08T15:34:59Z</time>
      </trkpt>
      <trkpt lat="45.79549" lon="2.93563">
        <ele>1095.3</ele>
        <time>2021-08-08T15:35:05Z</time>
      </trkpt>
      <trkpt lat="45.79548" lon="2.93564">
        <ele>1094.9</ele>
        <time>2021-08-08T15:35:06Z</time>
      </trkpt>
      <trkpt lat="45.79539" lon="2.9356">
        <ele>1093.5</ele>
        <time>2021-08-08T15:35:13Z</time>
      </trkpt>
      <trkpt lat="45.79531" lon="2.93561">
        <ele>1092.7</ele>
        <time>2021-08-08T15:35:20Z</time>
      </trkpt>
      <trkpt lat="45.79531" lon="2.93561">
        <ele>1092.5</ele>
        <time>2021-08-08T15:35:21Z</time>
      </trkpt>
      <trkpt lat="45.79529" lon="2.93558">
        <ele>1091.3</ele>
        <time>2021-08-08T15:35:26Z</time>
      </trkpt>
      <trkpt lat="45.7953" lon="2.93552">
        <ele>1088.9</ele>
        <time>2021-08-08T15:35:37Z</time>
      </trkpt>
      <trkpt lat="45.79529" lon="2.93549">
        <ele>1088.6</ele>
        <time>2021-08-08T15:35:40Z</time>
      </trkpt>
      <trkpt lat="45.79531" lon="2.93539">
        <ele>1087.6</ele>
        <time>2021-08-08T15:35:48Z</time>
      </trkpt>
      <trkpt lat="45.79533" lon="2.93538">
        <ele>1087.1</ele>
        <time>2021-08-08T15:35:49Z</time>
      </trkpt>
      <trkpt lat="45.79533" lon="2.93533">
        <ele>1086</ele>
        <time>2021-08-08T15:35:56Z</time>
      </trkpt>
      <trkpt lat="45.79535" lon="2.93532">
        <ele>1084.7</ele>
        <time>2021-08-08T15:36:02Z</time>
      </trkpt>
      <trkpt lat="45.7954" lon="2.93521">
        <ele>1082.6</ele>
        <time>2021-08-08T15:36:22Z</time>
      </trkpt>
      <trkpt lat="45.79541" lon="2.93521">
        <ele>1082.1</ele>
        <time>2021-08-08T15:36:24Z</time>
      </trkpt>
      <trkpt lat="45.79544" lon="2.93519">
        <ele>1080.7</ele>
        <time>2021-08-08T15:36:28Z</time>
      </trkpt>
      <trkpt lat="45.79544" lon="2.93515">
        <ele>1080.2</ele>
        <time>2021-08-08T15:36:35Z</time>
      </trkpt>
      <trkpt lat="45.79544" lon="2.93515">
        <ele>1080.2</ele>
        <time>2021-08-08T15:36:36Z</time>
      </trkpt>
      <trkpt lat="45.79543" lon="2.93504">
        <ele>1078.9</ele>
        <time>2021-08-08T15:36:48Z</time>
      </trkpt>
      <trkpt lat="45.79551" lon="2.93495">
        <ele>1075.7</ele>
        <time>2021-08-08T15:37:11Z</time>
      </trkpt>
      <trkpt lat="45.79551" lon="2.93494">
        <ele>1075.7</ele>
        <time>2021-08-08T15:37:12Z</time>
      </trkpt>
      <trkpt lat="45.79551" lon="2.93494">
        <ele>1075.6</ele>
        <time>2021-08-08T15:37:13Z</time>
      </trkpt>
      <trkpt lat="45.79551" lon="2.93492">
        <ele>1075.5</ele>
        <time>2021-08-08T15:37:14Z</time>
      </trkpt>
      <trkpt lat="45.79548" lon="2.93491">
        <ele>1072</ele>
        <time>2021-08-08T15:37:31Z</time>
      </trkpt>
      <trkpt lat="45.79546" lon="2.93484">
        <ele>1070.9</ele>
        <time>2021-08-08T15:37:41Z</time>
      </trkpt>
      <trkpt lat="45.79548" lon="2.93478">
        <ele>1065.6</ele>
        <time>2021-08-08T15:38:10Z</time>
      </trkpt>
      <trkpt lat="45.79552" lon="2.93473">
        <ele>1061.4</ele>
        <time>2021-08-08T15:38:31Z</time>
      </trkpt>
      <trkpt lat="45.79552" lon="2.93472">
        <ele>1061.3</ele>
        <time>2021-08-08T15:38:32Z</time>
      </trkpt>
      <trkpt lat="45.79552" lon="2.93471">
        <ele>1061</ele>
        <time>2021-08-08T15:38:33Z</time>
      </trkpt>
      <trkpt lat="45.79551" lon="2.93466">
        <ele>1060.2</ele>
        <time>2021-08-08T15:38:38Z</time>
      </trkpt>
      <trkpt lat="45.79548" lon="2.93467">
        <ele>1058.8</ele>
        <time>2021-08-08T15:39:38Z</time>
      </trkpt>
      <trkpt lat="45.79545" lon="2.9345">
        <ele>1051.6</ele>
        <time>2021-08-08T15:39:41Z</time>
      </trkpt>
      <trkpt lat="45.79546" lon="2.93442">
        <ele>1049.6</ele>
        <time>2021-08-08T15:39:51Z</time>
      </trkpt>
      <trkpt lat="45.79546" lon="2.93442">
        <ele>1049.6</ele>
        <time>2021-08-08T15:39:52Z</time>
      </trkpt>
      <trkpt lat="45.79544" lon="2.93449">
        <ele>1047.5</ele>
        <time>2021-08-08T15:40:10Z</time>
      </trkpt>
      <trkpt lat="45.79544" lon="2.93445">
        <ele>1047</ele>
        <time>2021-08-08T15:40:16Z</time>
      </trkpt>
      <trkpt lat="45.79542" lon="2.93448">
        <ele>1047</ele>
        <time>2021-08-08T15:40:27Z</time>
      </trkpt>
      <trkpt lat="45.79542" lon="2.9345">
        <ele>1046.8</ele>
        <time>2021-08-08T15:40:52Z</time>
      </trkpt>
      <trkpt lat="45.79539" lon="2.93445">
        <ele>1043.9</ele>
        <time>2021-08-08T15:40:54Z</time>
      </trkpt>
      <trkpt lat="45.79539" lon="2.93444">
        <ele>1043.7</ele>
        <time>2021-08-08T15:40:55Z</time>
      </trkpt>
      <trkpt lat="45.7954" lon="2.9344">
        <ele>1042.7</ele>
        <time>2021-08-08T15:40:58Z</time>
      </trkpt>
      <trkpt lat="45.79538" lon="2.93432">
        <ele>1037.3</ele>
        <time>2021-08-08T15:41:23Z</time>
      </trkpt>
      <trkpt lat="45.79539" lon="2.93429">
        <ele>1037.3</ele>
        <time>2021-08-08T15:41:27Z</time>
      </trkpt>
      <trkpt lat="45.79536" lon="2.93429">
        <ele>1035.5</ele>
        <time>2021-08-08T15:42:11Z</time>
      </trkpt>
      <trkpt lat="45.79534" lon="2.93424">
        <ele>1030.4</ele>
        <time>2021-08-08T15:42:13Z</time>
      </trkpt>
      <trkpt lat="45.79535" lon="2.93423">
        <ele>1030.2</ele>
        <time>2021-08-08T15:42:14Z</time>
      </trkpt>
      <trkpt lat="45.79536" lon="2.93423">
        <ele>1030.1</ele>
        <time>2021-08-08T15:42:15Z</time>
      </trkpt>
      <trkpt lat="45.79536" lon="2.9342">
        <ele>1028.9</ele>
        <time>2021-08-08T15:42:23Z</time>
      </trkpt>
      <trkpt lat="45.79536" lon="2.9341">
        <ele>1027.1</ele>
        <time>2021-08-08T15:42:32Z</time>
      </trkpt>
      <trkpt lat="45.79534" lon="2.93403">
        <ele>1024.2</ele>
        <time>2021-08-08T15:43:19Z</time>
      </trkpt>
      <trkpt lat="45.79529" lon="2.93399">
        <ele>1018.3</ele>
        <time>2021-08-08T15:43:20Z</time>
      </trkpt>
      <trkpt lat="45.79529" lon="2.93398">
        <ele>1018.2</ele>
        <time>2021-08-08T15:43:21Z</time>
      </trkpt>
      <trkpt lat="45.79529" lon="2.93387">
        <ele>1017.6</ele>
        <time>2021-08-08T15:43:28Z</time>
      </trkpt>
      <trkpt lat="45.7953" lon="2.9339">
        <ele>1017.3</ele>
        <time>2021-08-08T15:43:35Z</time>
      </trkpt>
      <trkpt lat="45.79531" lon="2.93387">
        <ele>1016.1</ele>
        <time>2021-08-08T15:43:53Z</time>
      </trkpt>
      <trkpt lat="45.79539" lon="2.93389">
        <ele>1010.8</ele>
        <time>2021-08-08T15:44:53Z</time>
      </trkpt>
      <trkpt lat="45.79539" lon="2.93389">
        <ele>1010.6</ele>
        <time>2021-08-08T15:44:54Z</time>
      </trkpt>
      <trkpt lat="45.79539" lon="2.93388">
        <ele>1010.5</ele>
        <time>2021-08-08T15:44:55Z</time>
      </trkpt>
      <trkpt lat="45.79542" lon="2.93399">
        <ele>1008.4</ele>
        <time>2021-08-08T15:45:08Z</time>
      </trkpt>
      <trkpt lat="45.79542" lon="2.93395">
        <ele>1007.7</ele>
        <time>2021-08-08T15:45:18Z</time>
      </trkpt>
      <trkpt lat="45.79544" lon="2.93395">
        <ele>1007.5</ele>
        <time>2021-08-08T15:45:23Z</time>
      </trkpt>
      <trkpt lat="45.79547" lon="2.93391">
        <ele>1007.6</ele>
        <time>2021-08-08T15:45:28Z</time>
      </trkpt>
      <trkpt lat="45.79547" lon="2.9339">
        <ele>1007.6</ele>
        <time>2021-08-08T15:45:29Z</time>
      </trkpt>
      <trkpt lat="45.79549" lon="2.93385">
        <ele>1007.6</ele>
        <time>2021-08-08T15:45:32Z</time>
      </trkpt>
      <trkpt lat="45.79551" lon="2.93384">
        <ele>1007.5</ele>
        <time>2021-08-08T15:45:34Z</time>
      </trkpt>
      <trkpt lat="45.79552" lon="2.93382">
        <ele>1007.4</ele>
        <time>2021-08-08T15:45:35Z</time>
      </trkpt>
      <trkpt lat="45.79557" lon="2.93385">
        <ele>1006.5</ele>
        <time>2021-08-08T15:45:38Z</time>
      </trkpt>
      <trkpt lat="45.79558" lon="2.93384">
        <ele>1006.5</ele>
        <time>2021-08-08T15:45:39Z</time>
      </trkpt>
      <trkpt lat="45.7956" lon="2.93382">
        <ele>1005.9</ele>
        <time>2021-08-08T15:45:40Z</time>
      </trkpt>
      <trkpt lat="45.79566" lon="2.93379">
        <ele>1004.6</ele>
        <time>2021-08-08T15:45:44Z</time>
      </trkpt>
      <trkpt lat="45.79568" lon="2.93378">
        <ele>1004</ele>
        <time>2021-08-08T15:45:45Z</time>
      </trkpt>
      <trkpt lat="45.7957" lon="2.93379">
        <ele>1003.5</ele>
        <time>2021-08-08T15:45:46Z</time>
      </trkpt>
      <trkpt lat="45.79574" lon="2.93375">
        <ele>1001.3</ele>
        <time>2021-08-08T15:45:49Z</time>
      </trkpt>
      <trkpt lat="45.79575" lon="2.93374">
        <ele>1001</ele>
        <time>2021-08-08T15:45:50Z</time>
      </trkpt>
      <trkpt lat="45.79581" lon="2.93369">
        <ele>999.7</ele>
        <time>2021-08-08T15:45:55Z</time>
      </trkpt>
      <trkpt lat="45.79584" lon="2.9337">
        <ele>998.8</ele>
        <time>2021-08-08T15:45:58Z</time>
      </trkpt>
      <trkpt lat="45.79586" lon="2.93369">
        <ele>999.2</ele>
        <time>2021-08-08T15:46:01Z</time>
      </trkpt>
      <trkpt lat="45.79587" lon="2.93366">
        <ele>999.4</ele>
        <time>2021-08-08T15:46:03Z</time>
      </trkpt>
      <trkpt lat="45.79592" lon="2.93364">
        <ele>999.5</ele>
        <time>2021-08-08T15:46:06Z</time>
      </trkpt>
      <trkpt lat="45.79593" lon="2.93363">
        <ele>999.4</ele>
        <time>2021-08-08T15:46:07Z</time>
      </trkpt>
      <trkpt lat="45.79596" lon="2.93359">
        <ele>999.4</ele>
        <time>2021-08-08T15:46:13Z</time>
      </trkpt>
      <trkpt lat="45.79603" lon="2.93356">
        <ele>999.3</ele>
        <time>2021-08-08T15:46:19Z</time>
      </trkpt>
      <trkpt lat="45.79606" lon="2.93355">
        <ele>999.2</ele>
        <time>2021-08-08T15:46:22Z</time>
      </trkpt>
      <trkpt lat="45.79608" lon="2.93355">
        <ele>999.2</ele>
        <time>2021-08-08T15:46:23Z</time>
      </trkpt>
      <trkpt lat="45.79616" lon="2.93353">
        <ele>999.4</ele>
        <time>2021-08-08T15:46:30Z</time>
      </trkpt>
      <trkpt lat="45.79617" lon="2.93351">
        <ele>999.5</ele>
        <time>2021-08-08T15:46:32Z</time>
      </trkpt>
      <trkpt lat="45.7962" lon="2.9335">
        <ele>999.8</ele>
        <time>2021-08-08T15:46:35Z</time>
      </trkpt>
      <trkpt lat="45.79623" lon="2.93348">
        <ele>1000</ele>
        <time>2021-08-08T15:46:37Z</time>
      </trkpt>
      <trkpt lat="45.79624" lon="2.93347">
        <ele>1000.1</ele>
        <time>2021-08-08T15:46:38Z</time>
      </trkpt>
      <trkpt lat="45.79631" lon="2.93345">
        <ele>1000.5</ele>
        <time>2021-08-08T15:46:42Z</time>
      </trkpt>
      <trkpt lat="45.79636" lon="2.93347">
        <ele>1000.7</ele>
        <time>2021-08-08T15:46:45Z</time>
      </trkpt>
      <trkpt lat="45.79641" lon="2.93344">
        <ele>1000.6</ele>
        <time>2021-08-08T15:46:48Z</time>
      </trkpt>
      <trkpt lat="45.79642" lon="2.93344">
        <ele>1000.7</ele>
        <time>2021-08-08T15:46:49Z</time>
      </trkpt>
      <trkpt lat="45.79648" lon="2.93344">
        <ele>1001.2</ele>
        <time>2021-08-08T15:46:54Z</time>
      </trkpt>
      <trkpt lat="45.79657" lon="2.9334">
        <ele>1001.4</ele>
        <time>2021-08-08T15:47:00Z</time>
      </trkpt>
      <trkpt lat="45.79658" lon="2.93339">
        <ele>1001.4</ele>
        <time>2021-08-08T15:47:01Z</time>
      </trkpt>
      <trkpt lat="45.79666" lon="2.93331">
        <ele>1000.6</ele>
        <time>2021-08-08T15:47:08Z</time>
      </trkpt>
      <trkpt lat="45.79672" lon="2.9333">
        <ele>1000.4</ele>
        <time>2021-08-08T15:47:13Z</time>
      </trkpt>
      <trkpt lat="45.79674" lon="2.9333">
        <ele>1000.2</ele>
        <time>2021-08-08T15:47:14Z</time>
      </trkpt>
      <trkpt lat="45.79682" lon="2.93328">
        <ele>999.7</ele>
        <time>2021-08-08T15:47:19Z</time>
      </trkpt>
      <trkpt lat="45.79686" lon="2.93329">
        <ele>999.6</ele>
        <time>2021-08-08T15:47:22Z</time>
      </trkpt>
      <trkpt lat="45.7969" lon="2.93328">
        <ele>999.3</ele>
        <time>2021-08-08T15:47:24Z</time>
      </trkpt>
      <trkpt lat="45.79692" lon="2.93328">
        <ele>999.3</ele>
        <time>2021-08-08T15:47:25Z</time>
      </trkpt>
      <trkpt lat="45.79697" lon="2.93331">
        <ele>999.2</ele>
        <time>2021-08-08T15:47:28Z</time>
      </trkpt>
      <trkpt lat="45.79707" lon="2.93333">
        <ele>998.7</ele>
        <time>2021-08-08T15:47:35Z</time>
      </trkpt>
      <trkpt lat="45.7971" lon="2.93335">
        <ele>998.5</ele>
        <time>2021-08-08T15:47:36Z</time>
      </trkpt>
      <trkpt lat="45.79715" lon="2.93333">
        <ele>997.5</ele>
        <time>2021-08-08T15:47:39Z</time>
      </trkpt>
      <trkpt lat="45.79721" lon="2.93335">
        <ele>996.4</ele>
        <time>2021-08-08T15:47:42Z</time>
      </trkpt>
      <trkpt lat="45.79728" lon="2.9333">
        <ele>994.4</ele>
        <time>2021-08-08T15:47:48Z</time>
      </trkpt>
      <trkpt lat="45.79729" lon="2.9333">
        <ele>994.2</ele>
        <time>2021-08-08T15:47:49Z</time>
      </trkpt>
      <trkpt lat="45.79736" lon="2.93321">
        <ele>993.2</ele>
        <time>2021-08-08T15:48:01Z</time>
      </trkpt>
      <trkpt lat="45.79738" lon="2.9332">
        <ele>993</ele>
        <time>2021-08-08T15:48:07Z</time>
      </trkpt>
      <trkpt lat="45.79741" lon="2.93322">
        <ele>994.1</ele>
        <time>2021-08-08T15:48:11Z</time>
      </trkpt>
      <trkpt lat="45.79742" lon="2.93321">
        <ele>994</ele>
        <time>2021-08-08T15:48:12Z</time>
      </trkpt>
      <trkpt lat="45.79742" lon="2.93322">
        <ele>993.6</ele>
        <time>2021-08-08T15:48:13Z</time>
      </trkpt>
      <trkpt lat="45.79748" lon="2.93325">
        <ele>991.9</ele>
        <time>2021-08-08T15:48:22Z</time>
      </trkpt>
      <trkpt lat="45.79751" lon="2.9333">
        <ele>990.6</ele>
        <time>2021-08-08T15:48:38Z</time>
      </trkpt>
      <trkpt lat="45.7975" lon="2.93329">
        <ele>989.7</ele>
        <time>2021-08-08T15:48:44Z</time>
      </trkpt>
      <trkpt lat="45.79752" lon="2.93328">
        <ele>988</ele>
        <time>2021-08-08T15:48:51Z</time>
      </trkpt>
      <trkpt lat="45.79752" lon="2.93333">
        <ele>987</ele>
        <time>2021-08-08T15:48:55Z</time>
      </trkpt>
      <trkpt lat="45.79751" lon="2.93333">
        <ele>986.7</ele>
        <time>2021-08-08T15:48:56Z</time>
      </trkpt>
      <trkpt lat="45.79751" lon="2.93333">
        <ele>986.4</ele>
        <time>2021-08-08T15:48:57Z</time>
      </trkpt>
      <trkpt lat="45.79751" lon="2.93341">
        <ele>984.8</ele>
        <time>2021-08-08T15:49:04Z</time>
      </trkpt>
      <trkpt lat="45.79746" lon="2.93335">
        <ele>982.5</ele>
        <time>2021-08-08T15:49:15Z</time>
      </trkpt>
      <trkpt lat="45.79746" lon="2.93331">
        <ele>982.9</ele>
        <time>2021-08-08T15:49:17Z</time>
      </trkpt>
      <trkpt lat="45.79746" lon="2.9333">
        <ele>983.2</ele>
        <time>2021-08-08T15:49:18Z</time>
      </trkpt>
      <trkpt lat="45.79745" lon="2.93328">
        <ele>983.3</ele>
        <time>2021-08-08T15:49:19Z</time>
      </trkpt>
      <trkpt lat="45.79747" lon="2.93329">
        <ele>984.1</ele>
        <time>2021-08-08T15:49:25Z</time>
      </trkpt>
      <trkpt lat="45.79751" lon="2.93332">
        <ele>984.1</ele>
        <time>2021-08-08T15:49:28Z</time>
      </trkpt>
      <trkpt lat="45.79753" lon="2.93331">
        <ele>983.6</ele>
        <time>2021-08-08T15:49:32Z</time>
      </trkpt>
      <trkpt lat="45.79758" lon="2.93324">
        <ele>985</ele>
        <time>2021-08-08T15:49:41Z</time>
      </trkpt>
      <trkpt lat="45.79759" lon="2.93323">
        <ele>985.3</ele>
        <time>2021-08-08T15:49:42Z</time>
      </trkpt>
      <trkpt lat="45.79762" lon="2.93323">
        <ele>985.8</ele>
        <time>2021-08-08T15:49:45Z</time>
      </trkpt>
      <trkpt lat="45.79768" lon="2.9332">
        <ele>985.6</ele>
        <time>2021-08-08T15:49:51Z</time>
      </trkpt>
      <trkpt lat="45.79772" lon="2.93323">
        <ele>985.6</ele>
        <time>2021-08-08T15:49:54Z</time>
      </trkpt>
      <trkpt lat="45.79774" lon="2.93323">
        <ele>985.3</ele>
        <time>2021-08-08T15:49:55Z</time>
      </trkpt>
      <trkpt lat="45.79775" lon="2.93323">
        <ele>985.3</ele>
        <time>2021-08-08T15:49:56Z</time>
      </trkpt>
      <trkpt lat="45.79781" lon="2.93324">
        <ele>984</ele>
        <time>2021-08-08T15:49:58Z</time>
      </trkpt>
      <trkpt lat="45.79785" lon="2.93328">
        <ele>982.8</ele>
        <time>2021-08-08T15:50:02Z</time>
      </trkpt>
      <trkpt lat="45.79794" lon="2.93324">
        <ele>982.8</ele>
        <time>2021-08-08T15:50:08Z</time>
      </trkpt>
      <trkpt lat="45.79795" lon="2.93324">
        <ele>982.8</ele>
        <time>2021-08-08T15:50:09Z</time>
      </trkpt>
      <trkpt lat="45.79798" lon="2.93325">
        <ele>982.5</ele>
        <time>2021-08-08T15:50:12Z</time>
      </trkpt>
      <trkpt lat="45.7981" lon="2.93325">
        <ele>981.9</ele>
        <time>2021-08-08T15:50:19Z</time>
      </trkpt>
      <trkpt lat="45.79811" lon="2.93326">
        <ele>982</ele>
        <time>2021-08-08T15:50:20Z</time>
      </trkpt>
      <trkpt lat="45.79822" lon="2.93332">
        <ele>982.4</ele>
        <time>2021-08-08T15:50:28Z</time>
      </trkpt>
      <trkpt lat="45.79825" lon="2.93338">
        <ele>982.3</ele>
        <time>2021-08-08T15:50:32Z</time>
      </trkpt>
      <trkpt lat="45.79826" lon="2.93339">
        <ele>982.5</ele>
        <time>2021-08-08T15:50:33Z</time>
      </trkpt>
      <trkpt lat="45.79833" lon="2.93345">
        <ele>983.2</ele>
        <time>2021-08-08T15:50:39Z</time>
      </trkpt>
      <trkpt lat="45.79837" lon="2.93346">
        <ele>983.6</ele>
        <time>2021-08-08T15:50:42Z</time>
      </trkpt>
      <trkpt lat="45.79841" lon="2.93346">
        <ele>983.7</ele>
        <time>2021-08-08T15:50:44Z</time>
      </trkpt>
      <trkpt lat="45.79842" lon="2.93346">
        <ele>983.7</ele>
        <time>2021-08-08T15:50:45Z</time>
      </trkpt>
      <trkpt lat="45.79858" lon="2.93346">
        <ele>983.3</ele>
        <time>2021-08-08T15:50:56Z</time>
      </trkpt>
      <trkpt lat="45.79859" lon="2.93345">
        <ele>983.3</ele>
        <time>2021-08-08T15:50:57Z</time>
      </trkpt>
      <trkpt lat="45.7986" lon="2.93345">
        <ele>983.3</ele>
        <time>2021-08-08T15:50:58Z</time>
      </trkpt>
      <trkpt lat="45.79865" lon="2.93347">
        <ele>983.5</ele>
        <time>2021-08-08T15:51:01Z</time>
      </trkpt>
      <trkpt lat="45.79869" lon="2.93351">
        <ele>984.1</ele>
        <time>2021-08-08T15:51:04Z</time>
      </trkpt>
      <trkpt lat="45.79877" lon="2.93353">
        <ele>984.5</ele>
        <time>2021-08-08T15:51:10Z</time>
      </trkpt>
      <trkpt lat="45.79879" lon="2.93353">
        <ele>984.7</ele>
        <time>2021-08-08T15:51:11Z</time>
      </trkpt>
      <trkpt lat="45.7989" lon="2.93355">
        <ele>984</ele>
        <time>2021-08-08T15:51:16Z</time>
      </trkpt>
      <trkpt lat="45.79898" lon="2.93352">
        <ele>983.1</ele>
        <time>2021-08-08T15:51:21Z</time>
      </trkpt>
      <trkpt lat="45.79899" lon="2.93352">
        <ele>983</ele>
        <time>2021-08-08T15:51:22Z</time>
      </trkpt>
      <trkpt lat="45.79904" lon="2.93353">
        <ele>982.5</ele>
        <time>2021-08-08T15:51:26Z</time>
      </trkpt>
      <trkpt lat="45.79914" lon="2.93362">
        <ele>981.7</ele>
        <time>2021-08-08T15:51:31Z</time>
      </trkpt>
      <trkpt lat="45.79915" lon="2.93362">
        <ele>981.2</ele>
        <time>2021-08-08T15:51:32Z</time>
      </trkpt>
      <trkpt lat="45.79918" lon="2.93362">
        <ele>980.9</ele>
        <time>2021-08-08T15:51:33Z</time>
      </trkpt>
      <trkpt lat="45.79923" lon="2.93363">
        <ele>979</ele>
        <time>2021-08-08T15:51:37Z</time>
      </trkpt>
      <trkpt lat="45.79927" lon="2.93368">
        <ele>977</ele>
        <time>2021-08-08T15:51:42Z</time>
      </trkpt>
      <trkpt lat="45.79931" lon="2.93369">
        <ele>976.1</ele>
        <time>2021-08-08T15:51:45Z</time>
      </trkpt>
      <trkpt lat="45.79932" lon="2.9337">
        <ele>975.8</ele>
        <time>2021-08-08T15:51:46Z</time>
      </trkpt>
      <trkpt lat="45.79946" lon="2.93376">
        <ele>974.2</ele>
        <time>2021-08-08T15:51:55Z</time>
      </trkpt>
      <trkpt lat="45.79947" lon="2.93377">
        <ele>974</ele>
        <time>2021-08-08T15:51:56Z</time>
      </trkpt>
      <trkpt lat="45.79951" lon="2.93377">
        <ele>973.5</ele>
        <time>2021-08-08T15:51:59Z</time>
      </trkpt>
      <trkpt lat="45.7996" lon="2.93383">
        <ele>972.5</ele>
        <time>2021-08-08T15:52:07Z</time>
      </trkpt>
      <trkpt lat="45.79964" lon="2.93382">
        <ele>972.1</ele>
        <time>2021-08-08T15:52:10Z</time>
      </trkpt>
      <trkpt lat="45.79966" lon="2.93382">
        <ele>972.1</ele>
        <time>2021-08-08T15:52:11Z</time>
      </trkpt>
      <trkpt lat="45.79967" lon="2.93384">
        <ele>972.1</ele>
        <time>2021-08-08T15:52:12Z</time>
      </trkpt>
      <trkpt lat="45.79973" lon="2.93387">
        <ele>971.6</ele>
        <time>2021-08-08T15:52:16Z</time>
      </trkpt>
      <trkpt lat="45.79981" lon="2.93389">
        <ele>970.8</ele>
        <time>2021-08-08T15:52:22Z</time>
      </trkpt>
      <trkpt lat="45.79982" lon="2.9339">
        <ele>970.7</ele>
        <time>2021-08-08T15:52:23Z</time>
      </trkpt>
      <trkpt lat="45.79987" lon="2.93393">
        <ele>970.7</ele>
        <time>2021-08-08T15:52:27Z</time>
      </trkpt>
      <trkpt lat="45.79991" lon="2.93394">
        <ele>970.7</ele>
        <time>2021-08-08T15:52:29Z</time>
      </trkpt>
      <trkpt lat="45.79999" lon="2.934">
        <ele>970.4</ele>
        <time>2021-08-08T15:52:33Z</time>
      </trkpt>
      <trkpt lat="45.8" lon="2.93401">
        <ele>970.3</ele>
        <time>2021-08-08T15:52:34Z</time>
      </trkpt>
      <trkpt lat="45.80002" lon="2.93402">
        <ele>970.2</ele>
        <time>2021-08-08T15:52:35Z</time>
      </trkpt>
      <trkpt lat="45.80004" lon="2.93402">
        <ele>969.6</ele>
        <time>2021-08-08T15:52:37Z</time>
      </trkpt>
      <trkpt lat="45.80011" lon="2.93405">
        <ele>970</ele>
        <time>2021-08-08T15:52:41Z</time>
      </trkpt>
      <trkpt lat="45.80014" lon="2.93408">
        <ele>970.2</ele>
        <time>2021-08-08T15:52:43Z</time>
      </trkpt>
      <trkpt lat="45.80016" lon="2.93409">
        <ele>970.4</ele>
        <time>2021-08-08T15:52:44Z</time>
      </trkpt>
      <trkpt lat="45.8002" lon="2.93414">
        <ele>970.4</ele>
        <time>2021-08-08T15:52:47Z</time>
      </trkpt>
      <trkpt lat="45.80025" lon="2.93421">
        <ele>969.8</ele>
        <time>2021-08-08T15:52:51Z</time>
      </trkpt>
      <trkpt lat="45.80026" lon="2.93422">
        <ele>969.7</ele>
        <time>2021-08-08T15:52:52Z</time>
      </trkpt>
      <trkpt lat="45.80028" lon="2.93421">
        <ele>969.5</ele>
        <time>2021-08-08T15:52:53Z</time>
      </trkpt>
      <trkpt lat="45.8003" lon="2.93422">
        <ele>969.2</ele>
        <time>2021-08-08T15:52:54Z</time>
      </trkpt>
      <trkpt lat="45.80033" lon="2.93426">
        <ele>968.9</ele>
        <time>2021-08-08T15:52:56Z</time>
      </trkpt>
      <trkpt lat="45.80041" lon="2.93429">
        <ele>968.4</ele>
        <time>2021-08-08T15:53:00Z</time>
      </trkpt>
      <trkpt lat="45.80046" lon="2.93433">
        <ele>967.7</ele>
        <time>2021-08-08T15:53:03Z</time>
      </trkpt>
      <trkpt lat="45.80047" lon="2.93433">
        <ele>967.5</ele>
        <time>2021-08-08T15:53:04Z</time>
      </trkpt>
      <trkpt lat="45.8005" lon="2.93433">
        <ele>967.3</ele>
        <time>2021-08-08T15:53:07Z</time>
      </trkpt>
      <trkpt lat="45.80052" lon="2.93434">
        <ele>967</ele>
        <time>2021-08-08T15:53:09Z</time>
      </trkpt>
      <trkpt lat="45.80056" lon="2.93438">
        <ele>966.3</ele>
        <time>2021-08-08T15:53:12Z</time>
      </trkpt>
      <trkpt lat="45.80058" lon="2.9344">
        <ele>966.3</ele>
        <time>2021-08-08T15:53:14Z</time>
      </trkpt>
      <trkpt lat="45.8006" lon="2.93442">
        <ele>965.5</ele>
        <time>2021-08-08T15:53:15Z</time>
      </trkpt>
      <trkpt lat="45.80063" lon="2.93444">
        <ele>965.5</ele>
        <time>2021-08-08T15:53:18Z</time>
      </trkpt>
      <trkpt lat="45.80064" lon="2.93444">
        <ele>965.4</ele>
        <time>2021-08-08T15:53:19Z</time>
      </trkpt>
      <trkpt lat="45.80071" lon="2.93452">
        <ele>964.8</ele>
        <time>2021-08-08T15:53:26Z</time>
      </trkpt>
      <trkpt lat="45.80077" lon="2.93457">
        <ele>966.1</ele>
        <time>2021-08-08T15:53:33Z</time>
      </trkpt>
      <trkpt lat="45.80077" lon="2.93457">
        <ele>966</ele>
        <time>2021-08-08T15:53:34Z</time>
      </trkpt>
      <trkpt lat="45.80079" lon="2.93458">
        <ele>966.1</ele>
        <time>2021-08-08T15:53:36Z</time>
      </trkpt>
      <trkpt lat="45.80084" lon="2.93455">
        <ele>965.3</ele>
        <time>2021-08-08T15:53:38Z</time>
      </trkpt>
      <trkpt lat="45.80093" lon="2.93459">
        <ele>965</ele>
        <time>2021-08-08T15:53:44Z</time>
      </trkpt>
      <trkpt lat="45.80095" lon="2.9346">
        <ele>965</ele>
        <time>2021-08-08T15:53:45Z</time>
      </trkpt>
      <trkpt lat="45.801" lon="2.9346">
        <ele>965.7</ele>
        <time>2021-08-08T15:53:49Z</time>
      </trkpt>
      <trkpt lat="45.80107" lon="2.93465">
        <ele>966.8</ele>
        <time>2021-08-08T15:53:55Z</time>
      </trkpt>
      <trkpt lat="45.80111" lon="2.93465">
        <ele>967.1</ele>
        <time>2021-08-08T15:53:59Z</time>
      </trkpt>
      <trkpt lat="45.80113" lon="2.93465">
        <ele>967.2</ele>
        <time>2021-08-08T15:54:00Z</time>
      </trkpt>
      <trkpt lat="45.80117" lon="2.93464">
        <ele>968.2</ele>
        <time>2021-08-08T15:54:03Z</time>
      </trkpt>
      <trkpt lat="45.80126" lon="2.93458">
        <ele>970</ele>
        <time>2021-08-08T15:54:10Z</time>
      </trkpt>
      <trkpt lat="45.80127" lon="2.93458">
        <ele>970.1</ele>
        <time>2021-08-08T15:54:11Z</time>
      </trkpt>
      <trkpt lat="45.8013" lon="2.93456">
        <ele>970.4</ele>
        <time>2021-08-08T15:54:13Z</time>
      </trkpt>
      <trkpt lat="45.80141" lon="2.93444">
        <ele>971.9</ele>
        <time>2021-08-08T15:54:25Z</time>
      </trkpt>
      <trkpt lat="45.80142" lon="2.93442">
        <ele>972.2</ele>
        <time>2021-08-08T15:54:26Z</time>
      </trkpt>
      <trkpt lat="45.80151" lon="2.93435">
        <ele>971.5</ele>
        <time>2021-08-08T15:54:31Z</time>
      </trkpt>
      <trkpt lat="45.80158" lon="2.93427">
        <ele>970.1</ele>
        <time>2021-08-08T15:54:35Z</time>
      </trkpt>
      <trkpt lat="45.8016" lon="2.93425">
        <ele>970.1</ele>
        <time>2021-08-08T15:54:36Z</time>
      </trkpt>
      <trkpt lat="45.80164" lon="2.93419">
        <ele>970.1</ele>
        <time>2021-08-08T15:54:39Z</time>
      </trkpt>
      <trkpt lat="45.80166" lon="2.93418">
        <ele>970.4</ele>
        <time>2021-08-08T15:54:40Z</time>
      </trkpt>
      <trkpt lat="45.8017" lon="2.9341">
        <ele>972</ele>
        <time>2021-08-08T15:54:45Z</time>
      </trkpt>
      <trkpt lat="45.8017" lon="2.93408">
        <ele>972.3</ele>
        <time>2021-08-08T15:54:46Z</time>
      </trkpt>
      <trkpt lat="45.80171" lon="2.93396">
        <ele>971.8</ele>
        <time>2021-08-08T15:54:51Z</time>
      </trkpt>
      <trkpt lat="45.80175" lon="2.93386">
        <ele>971.2</ele>
        <time>2021-08-08T15:54:56Z</time>
      </trkpt>
      <trkpt lat="45.80176" lon="2.93384">
        <ele>971.1</ele>
        <time>2021-08-08T15:54:57Z</time>
      </trkpt>
      <trkpt lat="45.80177" lon="2.93382">
        <ele>971</ele>
        <time>2021-08-08T15:54:58Z</time>
      </trkpt>
      <trkpt lat="45.80189" lon="2.9337">
        <ele>971</ele>
        <time>2021-08-08T15:55:06Z</time>
      </trkpt>
      <trkpt lat="45.80191" lon="2.93369">
        <ele>971.1</ele>
        <time>2021-08-08T15:55:07Z</time>
      </trkpt>
      <trkpt lat="45.80198" lon="2.93364">
        <ele>970.7</ele>
        <time>2021-08-08T15:55:12Z</time>
      </trkpt>
      <trkpt lat="45.80203" lon="2.93362">
        <ele>970.9</ele>
        <time>2021-08-08T15:55:16Z</time>
      </trkpt>
      <trkpt lat="45.80206" lon="2.93358">
        <ele>970.8</ele>
        <time>2021-08-08T15:55:19Z</time>
      </trkpt>
      <trkpt lat="45.80206" lon="2.93357">
        <ele>970.9</ele>
        <time>2021-08-08T15:55:20Z</time>
      </trkpt>
      <trkpt lat="45.80213" lon="2.93349">
        <ele>970.6</ele>
        <time>2021-08-08T15:55:25Z</time>
      </trkpt>
      <trkpt lat="45.80219" lon="2.93347">
        <ele>970.1</ele>
        <time>2021-08-08T15:55:28Z</time>
      </trkpt>
      <trkpt lat="45.80221" lon="2.93345">
        <ele>969.4</ele>
        <time>2021-08-08T15:55:29Z</time>
      </trkpt>
      <trkpt lat="45.80224" lon="2.93344">
        <ele>968.9</ele>
        <time>2021-08-08T15:55:30Z</time>
      </trkpt>
      <trkpt lat="45.80226" lon="2.93343">
        <ele>968.7</ele>
        <time>2021-08-08T15:55:32Z</time>
      </trkpt>
      <trkpt lat="45.80239" lon="2.93341">
        <ele>967</ele>
        <time>2021-08-08T15:55:39Z</time>
      </trkpt>
      <trkpt lat="45.8024" lon="2.93341">
        <ele>966.5</ele>
        <time>2021-08-08T15:55:40Z</time>
      </trkpt>
      <trkpt lat="45.8025" lon="2.93337">
        <ele>965.2</ele>
        <time>2021-08-08T15:55:46Z</time>
      </trkpt>
      <trkpt lat="45.80256" lon="2.93338">
        <ele>964.1</ele>
        <time>2021-08-08T15:55:49Z</time>
      </trkpt>
      <trkpt lat="45.80258" lon="2.93338">
        <ele>963.7</ele>
        <time>2021-08-08T15:55:50Z</time>
      </trkpt>
      <trkpt lat="45.80265" lon="2.9334">
        <ele>962.6</ele>
        <time>2021-08-08T15:55:56Z</time>
      </trkpt>
      <trkpt lat="45.80268" lon="2.93345">
        <ele>962.7</ele>
        <time>2021-08-08T15:55:58Z</time>
      </trkpt>
      <trkpt lat="45.80275" lon="2.93349">
        <ele>962.1</ele>
        <time>2021-08-08T15:56:14Z</time>
      </trkpt>
      <trkpt lat="45.80275" lon="2.9335">
        <ele>962.1</ele>
        <time>2021-08-08T15:56:15Z</time>
      </trkpt>
      <trkpt lat="45.80278" lon="2.9335">
        <ele>962.2</ele>
        <time>2021-08-08T15:56:19Z</time>
      </trkpt>
      <trkpt lat="45.80281" lon="2.93339">
        <ele>961.8</ele>
        <time>2021-08-08T15:57:03Z</time>
      </trkpt>
      <trkpt lat="45.8028" lon="2.93331">
        <ele>961.6</ele>
        <time>2021-08-08T15:57:08Z</time>
      </trkpt>
      <trkpt lat="45.8028" lon="2.9333">
        <ele>961.5</ele>
        <time>2021-08-08T15:57:09Z</time>
      </trkpt>
      <trkpt lat="45.80275" lon="2.93308">
        <ele>957.6</ele>
        <time>2021-08-08T15:57:22Z</time>
      </trkpt>
      <trkpt lat="45.80275" lon="2.93307">
        <ele>957.5</ele>
        <time>2021-08-08T15:57:23Z</time>
      </trkpt>
      <trkpt lat="45.8027" lon="2.93291">
        <ele>955.9</ele>
        <time>2021-08-08T15:57:36Z</time>
      </trkpt>
      <trkpt lat="45.80273" lon="2.93286">
        <ele>955.7</ele>
        <time>2021-08-08T15:57:40Z</time>
      </trkpt>
      <trkpt lat="45.80274" lon="2.93284">
        <ele>955.6</ele>
        <time>2021-08-08T15:57:41Z</time>
      </trkpt>
      <trkpt lat="45.80285" lon="2.93274">
        <ele>956.7</ele>
        <time>2021-08-08T15:57:52Z</time>
      </trkpt>
      <trkpt lat="45.80289" lon="2.93269">
        <ele>957.3</ele>
        <time>2021-08-08T15:57:55Z</time>
      </trkpt>
      <trkpt lat="45.8029" lon="2.93267">
        <ele>957.5</ele>
        <time>2021-08-08T15:57:56Z</time>
      </trkpt>
      <trkpt lat="45.80299" lon="2.93254">
        <ele>959.5</ele>
        <time>2021-08-08T15:58:04Z</time>
      </trkpt>
      <trkpt lat="45.80303" lon="2.93253">
        <ele>959.9</ele>
        <time>2021-08-08T15:58:07Z</time>
      </trkpt>
      <trkpt lat="45.80303" lon="2.93254">
        <ele>960.3</ele>
        <time>2021-08-08T15:58:08Z</time>
      </trkpt>
      <trkpt lat="45.80308" lon="2.93259">
        <ele>961.3</ele>
        <time>2021-08-08T15:58:12Z</time>
      </trkpt>
      <trkpt lat="45.80314" lon="2.93263">
        <ele>961.8</ele>
        <time>2021-08-08T15:58:17Z</time>
      </trkpt>
      <trkpt lat="45.80319" lon="2.93261">
        <ele>961.5</ele>
        <time>2021-08-08T15:58:21Z</time>
      </trkpt>
      <trkpt lat="45.8032" lon="2.93261">
        <ele>961.4</ele>
        <time>2021-08-08T15:58:22Z</time>
      </trkpt>
      <trkpt lat="45.80325" lon="2.93262">
        <ele>961.5</ele>
        <time>2021-08-08T15:58:25Z</time>
      </trkpt>
      <trkpt lat="45.80333" lon="2.9327">
        <ele>961.5</ele>
        <time>2021-08-08T15:58:31Z</time>
      </trkpt>
      <trkpt lat="45.80335" lon="2.93271">
        <ele>961.1</ele>
        <time>2021-08-08T15:58:32Z</time>
      </trkpt>
      <trkpt lat="45.80349" lon="2.93278">
        <ele>958.6</ele>
        <time>2021-08-08T15:58:42Z</time>
      </trkpt>
      <trkpt lat="45.8035" lon="2.93278">
        <ele>958.4</ele>
        <time>2021-08-08T15:58:43Z</time>
      </trkpt>
      <trkpt lat="45.80357" lon="2.93284">
        <ele>957.2</ele>
        <time>2021-08-08T15:58:49Z</time>
      </trkpt>
      <trkpt lat="45.80362" lon="2.93292">
        <ele>955.2</ele>
        <time>2021-08-08T15:58:56Z</time>
      </trkpt>
      <trkpt lat="45.80362" lon="2.93293">
        <ele>955.1</ele>
        <time>2021-08-08T15:58:57Z</time>
      </trkpt>
      <trkpt lat="45.80367" lon="2.93299">
        <ele>954.1</ele>
        <time>2021-08-08T15:59:08Z</time>
      </trkpt>
      <trkpt lat="45.80372" lon="2.933">
        <ele>954</ele>
        <time>2021-08-08T15:59:11Z</time>
      </trkpt>
      <trkpt lat="45.80375" lon="2.93303">
        <ele>953.5</ele>
        <time>2021-08-08T15:59:13Z</time>
      </trkpt>
      <trkpt lat="45.80376" lon="2.93304">
        <ele>953.1</ele>
        <time>2021-08-08T15:59:14Z</time>
      </trkpt>
      <trkpt lat="45.80383" lon="2.93314">
        <ele>952.6</ele>
        <time>2021-08-08T15:59:20Z</time>
      </trkpt>
      <trkpt lat="45.80388" lon="2.93318">
        <ele>951.2</ele>
        <time>2021-08-08T15:59:24Z</time>
      </trkpt>
      <trkpt lat="45.80389" lon="2.93318">
        <ele>950.9</ele>
        <time>2021-08-08T15:59:25Z</time>
      </trkpt>
      <trkpt lat="45.80397" lon="2.93321">
        <ele>948.9</ele>
        <time>2021-08-08T15:59:30Z</time>
      </trkpt>
      <trkpt lat="45.80402" lon="2.93326">
        <ele>947.9</ele>
        <time>2021-08-08T15:59:35Z</time>
      </trkpt>
      <trkpt lat="45.80403" lon="2.93328">
        <ele>947.9</ele>
        <time>2021-08-08T15:59:36Z</time>
      </trkpt>
      <trkpt lat="45.80405" lon="2.93332">
        <ele>947.3</ele>
        <time>2021-08-08T15:59:39Z</time>
      </trkpt>
      <trkpt lat="45.8042" lon="2.93333">
        <ele>943.5</ele>
        <time>2021-08-08T15:59:46Z</time>
      </trkpt>
      <trkpt lat="45.80422" lon="2.93334">
        <ele>942.8</ele>
        <time>2021-08-08T15:59:47Z</time>
      </trkpt>
      <trkpt lat="45.8044" lon="2.93338">
        <ele>940.7</ele>
        <time>2021-08-08T15:59:59Z</time>
      </trkpt>
      <trkpt lat="45.80442" lon="2.93338">
        <ele>940.9</ele>
        <time>2021-08-08T16:00:00Z</time>
      </trkpt>
      <trkpt lat="45.80446" lon="2.93339">
        <ele>942</ele>
        <time>2021-08-08T16:00:03Z</time>
      </trkpt>
      <trkpt lat="45.80448" lon="2.93341">
        <ele>942.2</ele>
        <time>2021-08-08T16:00:05Z</time>
      </trkpt>
      <trkpt lat="45.80454" lon="2.93351">
        <ele>946</ele>
        <time>2021-08-08T16:00:12Z</time>
      </trkpt>
      <trkpt lat="45.80457" lon="2.93354">
        <ele>947.8</ele>
        <time>2021-08-08T16:00:15Z</time>
      </trkpt>
      <trkpt lat="45.80459" lon="2.93355">
        <ele>948.5</ele>
        <time>2021-08-08T16:00:16Z</time>
      </trkpt>
      <trkpt lat="45.80467" lon="2.93362">
        <ele>951</ele>
        <time>2021-08-08T16:00:22Z</time>
      </trkpt>
      <trkpt lat="45.80471" lon="2.93364">
        <ele>949.7</ele>
        <time>2021-08-08T16:00:26Z</time>
      </trkpt>
      <trkpt lat="45.80474" lon="2.93366">
        <ele>949.2</ele>
        <time>2021-08-08T16:00:29Z</time>
      </trkpt>
      <trkpt lat="45.80475" lon="2.93367">
        <ele>949.3</ele>
        <time>2021-08-08T16:00:30Z</time>
      </trkpt>
      <trkpt lat="45.8048" lon="2.93373">
        <ele>951.1</ele>
        <time>2021-08-08T16:00:35Z</time>
      </trkpt>
      <trkpt lat="45.80488" lon="2.93379">
        <ele>952.5</ele>
        <time>2021-08-08T16:00:41Z</time>
      </trkpt>
      <trkpt lat="45.80489" lon="2.9338">
        <ele>952.8</ele>
        <time>2021-08-08T16:00:42Z</time>
      </trkpt>
      <trkpt lat="45.80495" lon="2.93382">
        <ele>954.1</ele>
        <time>2021-08-08T16:00:47Z</time>
      </trkpt>
      <trkpt lat="45.80499" lon="2.93382">
        <ele>954.8</ele>
        <time>2021-08-08T16:00:50Z</time>
      </trkpt>
      <trkpt lat="45.80505" lon="2.93386">
        <ele>955.6</ele>
        <time>2021-08-08T16:00:54Z</time>
      </trkpt>
      <trkpt lat="45.80507" lon="2.93387">
        <ele>955.9</ele>
        <time>2021-08-08T16:00:55Z</time>
      </trkpt>
      <trkpt lat="45.80508" lon="2.93388">
        <ele>956.2</ele>
        <time>2021-08-08T16:00:56Z</time>
      </trkpt>
      <trkpt lat="45.80513" lon="2.9339">
        <ele>957.8</ele>
        <time>2021-08-08T16:01:00Z</time>
      </trkpt>
      <trkpt lat="45.80516" lon="2.93389">
        <ele>958.5</ele>
        <time>2021-08-08T16:01:02Z</time>
      </trkpt>
      <trkpt lat="45.80523" lon="2.9338">
        <ele>959.8</ele>
        <time>2021-08-08T16:01:09Z</time>
      </trkpt>
      <trkpt lat="45.80524" lon="2.93379">
        <ele>959.6</ele>
        <time>2021-08-08T16:01:10Z</time>
      </trkpt>
      <trkpt lat="45.8053" lon="2.93373">
        <ele>959.6</ele>
        <time>2021-08-08T16:01:14Z</time>
      </trkpt>
      <trkpt lat="45.80539" lon="2.93364">
        <ele>959.9</ele>
        <time>2021-08-08T16:01:19Z</time>
      </trkpt>
      <trkpt lat="45.8054" lon="2.93362">
        <ele>960</ele>
        <time>2021-08-08T16:01:20Z</time>
      </trkpt>
      <trkpt lat="45.80557" lon="2.9335">
        <ele>962.2</ele>
        <time>2021-08-08T16:01:35Z</time>
      </trkpt>
      <trkpt lat="45.80558" lon="2.93349">
        <ele>962.3</ele>
        <time>2021-08-08T16:01:36Z</time>
      </trkpt>
      <trkpt lat="45.80573" lon="2.93337">
        <ele>961.1</ele>
        <time>2021-08-08T16:01:47Z</time>
      </trkpt>
      <trkpt lat="45.80574" lon="2.93336">
        <ele>961.2</ele>
        <time>2021-08-08T16:01:48Z</time>
      </trkpt>
      <trkpt lat="45.80578" lon="2.93328">
        <ele>961.3</ele>
        <time>2021-08-08T16:01:51Z</time>
      </trkpt>
      <trkpt lat="45.80584" lon="2.93321">
        <ele>960.8</ele>
        <time>2021-08-08T16:01:58Z</time>
      </trkpt>
      <trkpt lat="45.80587" lon="2.93319">
        <ele>960.5</ele>
        <time>2021-08-08T16:02:01Z</time>
      </trkpt>
      <trkpt lat="45.80587" lon="2.93318">
        <ele>960</ele>
        <time>2021-08-08T16:02:02Z</time>
      </trkpt>
      <trkpt lat="45.80588" lon="2.93318">
        <ele>959.9</ele>
        <time>2021-08-08T16:02:03Z</time>
      </trkpt>
      <trkpt lat="45.80587" lon="2.93315">
        <ele>959.1</ele>
        <time>2021-08-08T16:02:09Z</time>
      </trkpt>
      <trkpt lat="45.80588" lon="2.93313">
        <ele>958.1</ele>
        <time>2021-08-08T16:02:11Z</time>
      </trkpt>
      <trkpt lat="45.80598" lon="2.93303">
        <ele>953.4</ele>
        <time>2021-08-08T16:02:17Z</time>
      </trkpt>
      <trkpt lat="45.80599" lon="2.93301">
        <ele>952.7</ele>
        <time>2021-08-08T16:02:18Z</time>
      </trkpt>
      <trkpt lat="45.8061" lon="2.93282">
        <ele>944</ele>
        <time>2021-08-08T16:02:27Z</time>
      </trkpt>
      <trkpt lat="45.80611" lon="2.93281">
        <ele>943.1</ele>
        <time>2021-08-08T16:02:28Z</time>
      </trkpt>
      <trkpt lat="45.80618" lon="2.9327">
        <ele>938.2</ele>
        <time>2021-08-08T16:02:34Z</time>
      </trkpt>
      <trkpt lat="45.80623" lon="2.93267">
        <ele>936.3</ele>
        <time>2021-08-08T16:02:37Z</time>
      </trkpt>
      <trkpt lat="45.80624" lon="2.93266">
        <ele>935.6</ele>
        <time>2021-08-08T16:02:38Z</time>
      </trkpt>
      <trkpt lat="45.80634" lon="2.93254">
        <ele>929.2</ele>
        <time>2021-08-08T16:02:47Z</time>
      </trkpt>
      <trkpt lat="45.80637" lon="2.93248">
        <ele>928.3</ele>
        <time>2021-08-08T16:02:49Z</time>
      </trkpt>
      <trkpt lat="45.80637" lon="2.93245">
        <ele>927.9</ele>
        <time>2021-08-08T16:02:50Z</time>
      </trkpt>
      <trkpt lat="45.80642" lon="2.93237">
        <ele>926.8</ele>
        <time>2021-08-08T16:02:55Z</time>
      </trkpt>
      <trkpt lat="45.80643" lon="2.93232">
        <ele>926</ele>
        <time>2021-08-08T16:02:58Z</time>
      </trkpt>
      <trkpt lat="45.80646" lon="2.93227">
        <ele>924.9</ele>
        <time>2021-08-08T16:03:01Z</time>
      </trkpt>
      <trkpt lat="45.80647" lon="2.93225">
        <ele>924.8</ele>
        <time>2021-08-08T16:03:02Z</time>
      </trkpt>
      <trkpt lat="45.80649" lon="2.93222">
        <ele>924.3</ele>
        <time>2021-08-08T16:03:04Z</time>
      </trkpt>
      <trkpt lat="45.80661" lon="2.93212">
        <ele>921.6</ele>
        <time>2021-08-08T16:03:15Z</time>
      </trkpt>
      <trkpt lat="45.80662" lon="2.9321">
        <ele>921.2</ele>
        <time>2021-08-08T16:03:16Z</time>
      </trkpt>
      <trkpt lat="45.80662" lon="2.93209">
        <ele>921</ele>
        <time>2021-08-08T16:03:17Z</time>
      </trkpt>
      <trkpt lat="45.80673" lon="2.93195">
        <ele>921.8</ele>
        <time>2021-08-08T16:03:27Z</time>
      </trkpt>
      <trkpt lat="45.80674" lon="2.93194">
        <ele>921.8</ele>
        <time>2021-08-08T16:03:28Z</time>
      </trkpt>
      <trkpt lat="45.80678" lon="2.93188">
        <ele>922.3</ele>
        <time>2021-08-08T16:03:32Z</time>
      </trkpt>
      <trkpt lat="45.80686" lon="2.93182">
        <ele>923.6</ele>
        <time>2021-08-08T16:03:38Z</time>
      </trkpt>
      <trkpt lat="45.80687" lon="2.93182">
        <ele>923.7</ele>
        <time>2021-08-08T16:03:39Z</time>
      </trkpt>
      <trkpt lat="45.80689" lon="2.93181">
        <ele>924.1</ele>
        <time>2021-08-08T16:03:40Z</time>
      </trkpt>
      <trkpt lat="45.80686" lon="2.93189">
        <ele>924.1</ele>
        <time>2021-08-08T16:03:57Z</time>
      </trkpt>
      <trkpt lat="45.80685" lon="2.93193">
        <ele>923.5</ele>
        <time>2021-08-08T16:03:59Z</time>
      </trkpt>
      <trkpt lat="45.80685" lon="2.93197">
        <ele>923.9</ele>
        <time>2021-08-08T16:04:01Z</time>
      </trkpt>
      <trkpt lat="45.80687" lon="2.932">
        <ele>926.1</ele>
        <time>2021-08-08T16:04:05Z</time>
      </trkpt>
      <trkpt lat="45.80687" lon="2.93201">
        <ele>926.8</ele>
        <time>2021-08-08T16:04:06Z</time>
      </trkpt>
      <trkpt lat="45.80687" lon="2.93207">
        <ele>932.4</ele>
        <time>2021-08-08T16:04:12Z</time>
      </trkpt>
      <trkpt lat="45.80685" lon="2.93222">
        <ele>935.2</ele>
        <time>2021-08-08T16:04:21Z</time>
      </trkpt>
      <trkpt lat="45.80685" lon="2.93225">
        <ele>935.3</ele>
        <time>2021-08-08T16:04:22Z</time>
      </trkpt>
      <trkpt lat="45.80679" lon="2.93247">
        <ele>938.6</ele>
        <time>2021-08-08T16:04:33Z</time>
      </trkpt>
      <trkpt lat="45.80679" lon="2.93248">
        <ele>938.9</ele>
        <time>2021-08-08T16:04:34Z</time>
      </trkpt>
      <trkpt lat="45.80674" lon="2.93263">
        <ele>940.4</ele>
        <time>2021-08-08T16:04:41Z</time>
      </trkpt>
      <trkpt lat="45.80673" lon="2.93268">
        <ele>940.8</ele>
        <time>2021-08-08T16:04:43Z</time>
      </trkpt>
      <trkpt lat="45.80673" lon="2.93271">
        <ele>941</ele>
        <time>2021-08-08T16:04:44Z</time>
      </trkpt>
      <trkpt lat="45.80673" lon="2.93276">
        <ele>941.8</ele>
        <time>2021-08-08T16:04:47Z</time>
      </trkpt>
      <trkpt lat="45.80668" lon="2.93295">
        <ele>943.2</ele>
        <time>2021-08-08T16:04:56Z</time>
      </trkpt>
      <trkpt lat="45.80668" lon="2.93297">
        <ele>943.5</ele>
        <time>2021-08-08T16:04:57Z</time>
      </trkpt>
      <trkpt lat="45.80664" lon="2.93308">
        <ele>943.9</ele>
        <time>2021-08-08T16:05:02Z</time>
      </trkpt>
      <trkpt lat="45.8066" lon="2.93316">
        <ele>944.2</ele>
        <time>2021-08-08T16:05:06Z</time>
      </trkpt>
      <trkpt lat="45.8066" lon="2.93318">
        <ele>944</ele>
        <time>2021-08-08T16:05:07Z</time>
      </trkpt>
      <trkpt lat="45.80659" lon="2.93321">
        <ele>943.9</ele>
        <time>2021-08-08T16:05:08Z</time>
      </trkpt>
      <trkpt lat="45.80658" lon="2.9333">
        <ele>944.1</ele>
        <time>2021-08-08T16:05:12Z</time>
      </trkpt>
      <trkpt lat="45.80656" lon="2.93344">
        <ele>943.5</ele>
        <time>2021-08-08T16:05:17Z</time>
      </trkpt>
      <trkpt lat="45.80655" lon="2.93346">
        <ele>943.5</ele>
        <time>2021-08-08T16:05:18Z</time>
      </trkpt>
      <trkpt lat="45.80654" lon="2.93348">
        <ele>943.4</ele>
        <time>2021-08-08T16:05:19Z</time>
      </trkpt>
      <trkpt lat="45.80653" lon="2.93364">
        <ele>943.1</ele>
        <time>2021-08-08T16:05:28Z</time>
      </trkpt>
      <trkpt lat="45.80651" lon="2.9337">
        <ele>942.9</ele>
        <time>2021-08-08T16:05:32Z</time>
      </trkpt>
      <trkpt lat="45.80651" lon="2.93373">
        <ele>943</ele>
        <time>2021-08-08T16:05:33Z</time>
      </trkpt>
      <trkpt lat="45.80649" lon="2.93385">
        <ele>941.4</ele>
        <time>2021-08-08T16:05:39Z</time>
      </trkpt>
      <trkpt lat="45.80647" lon="2.93389">
        <ele>940.3</ele>
        <time>2021-08-08T16:05:42Z</time>
      </trkpt>
      <trkpt lat="45.80647" lon="2.93398">
        <ele>939.5</ele>
        <time>2021-08-08T16:05:45Z</time>
      </trkpt>
      <trkpt lat="45.80647" lon="2.934">
        <ele>939.1</ele>
        <time>2021-08-08T16:05:46Z</time>
      </trkpt>
      <trkpt lat="45.80643" lon="2.93422">
        <ele>937.8</ele>
        <time>2021-08-08T16:05:57Z</time>
      </trkpt>
      <trkpt lat="45.80642" lon="2.93425">
        <ele>937.6</ele>
        <time>2021-08-08T16:05:58Z</time>
      </trkpt>
      <trkpt lat="45.80641" lon="2.9344">
        <ele>936.9</ele>
        <time>2021-08-08T16:06:05Z</time>
      </trkpt>
      <trkpt lat="45.80639" lon="2.93448">
        <ele>936</ele>
        <time>2021-08-08T16:06:08Z</time>
      </trkpt>
      <trkpt lat="45.80638" lon="2.9345">
        <ele>935.6</ele>
        <time>2021-08-08T16:06:09Z</time>
      </trkpt>
      <trkpt lat="45.80637" lon="2.93458">
        <ele>934.3</ele>
        <time>2021-08-08T16:06:12Z</time>
      </trkpt>
      <trkpt lat="45.80633" lon="2.93462">
        <ele>932.9</ele>
        <time>2021-08-08T16:06:14Z</time>
      </trkpt>
      <trkpt lat="45.8063" lon="2.9347">
        <ele>929.7</ele>
        <time>2021-08-08T16:06:18Z</time>
      </trkpt>
      <trkpt lat="45.8063" lon="2.93472">
        <ele>929.1</ele>
        <time>2021-08-08T16:06:19Z</time>
      </trkpt>
      <trkpt lat="45.80625" lon="2.93491">
        <ele>924.2</ele>
        <time>2021-08-08T16:06:28Z</time>
      </trkpt>
      <trkpt lat="45.80624" lon="2.93493">
        <ele>924</ele>
        <time>2021-08-08T16:06:29Z</time>
      </trkpt>
      <trkpt lat="45.80619" lon="2.93503">
        <ele>923.3</ele>
        <time>2021-08-08T16:06:34Z</time>
      </trkpt>
      <trkpt lat="45.80618" lon="2.93515">
        <ele>922.6</ele>
        <time>2021-08-08T16:06:41Z</time>
      </trkpt>
      <trkpt lat="45.80618" lon="2.93517">
        <ele>922.7</ele>
        <time>2021-08-08T16:06:42Z</time>
      </trkpt>
      <trkpt lat="45.80616" lon="2.93522">
        <ele>922.7</ele>
        <time>2021-08-08T16:06:46Z</time>
      </trkpt>
      <trkpt lat="45.80617" lon="2.93525">
        <ele>921.8</ele>
        <time>2021-08-08T16:07:06Z</time>
      </trkpt>
    </trkseg>
  </trk>
</gpx>